<?xml version='1.0' encoding='UTF-8'?><gpx version="1.1" creator="JPX - https://github.com/jenetics/jpx" xmlns="http://www.topografix.com/GPX/1/1"><trk><trkseg><trkpt lat="16.2492722" lon="-61.2877741"><ele>12.0</ele><time>2026-03-22T12:26:20.987Z</time></trkpt><trkpt lat="16.249295" lon="-61.2878375"><ele>12.0</ele><time>2026-03-22T12:27:07.988Z</time></trkpt><trkpt lat="16.2492952" lon="-61.2879133"><ele>12.0</ele><time>2026-03-22T12:27:12.037Z</time></trkpt><trkpt lat="16.2492838" lon="-61.2880003"><ele>12.0</ele><time>2026-03-22T12:27:14.984Z</time></trkpt><trkpt lat="16.2492165" lon="-61.2880524"><ele>12.0</ele><time>2026-03-22T12:27:17.99Z</time></trkpt><trkpt lat="16.249137" lon="-61.2880623"><ele>12.0</ele><time>2026-03-22T12:27:20.987Z</time></trkpt><trkpt lat="16.2490463" lon="-61.2880788"><ele>12.0</ele><time>2026-03-22T12:27:54.972Z</time></trkpt><trkpt lat="16.2489713" lon="-61.2881231"><ele>12.0</ele><time>2026-03-22T12:27:58.001Z</time></trkpt><trkpt lat="16.2488909" lon="-61.288151"><ele>12.0</ele><time>2026-03-22T12:28:00.016Z</time></trkpt><trkpt lat="16.2488225" lon="-61.2881573"><ele>12.0</ele><time>2026-03-22T12:28:00.998Z</time></trkpt><trkpt lat="16.2487448" lon="-61.2881592"><ele>12.0</ele><time>2026-03-22T12:28:01.983Z</time></trkpt><trkpt lat="16.2486717" lon="-61.2881594"><ele>12.0</ele><time>2026-03-22T12:28:03.015Z</time></trkpt><trkpt lat="16.2485925" lon="-61.2881579"><ele>10.666666666666666</ele><time>2026-03-22T12:28:04.005Z</time></trkpt><trkpt lat="16.2485087" lon="-61.2881558"><ele>9.333333333333334</ele><time>2026-03-22T12:28:05.033Z</time></trkpt><trkpt lat="16.2484287" lon="-61.2881522"><ele>8.0</ele><time>2026-03-22T12:28:06.06Z</time></trkpt><trkpt lat="16.2483494" lon="-61.2881479"><ele>6.666666666666666</ele><time>2026-03-22T12:28:06.984Z</time></trkpt><trkpt lat="16.2482654" lon="-61.2881448"><ele>5.333333333333333</ele><time>2026-03-22T12:28:07.996Z</time></trkpt><trkpt lat="16.2481824" lon="-61.2881445"><ele>4.0</ele><time>2026-03-22T12:28:08.984Z</time></trkpt><trkpt lat="16.2481043" lon="-61.2881384"><ele>4.0</ele><time>2026-03-22T12:28:09.996Z</time></trkpt><trkpt lat="16.2480346" lon="-61.2881304"><ele>4.0</ele><time>2026-03-22T12:28:10.959Z</time></trkpt><trkpt lat="16.2479299" lon="-61.2881023"><ele>4.0</ele><time>2026-03-22T12:28:13.03Z</time></trkpt><trkpt lat="16.2478517" lon="-61.2881093"><ele>4.0</ele><time>2026-03-22T12:28:16.987Z</time></trkpt><trkpt lat="16.2477793" lon="-61.2881746"><ele>4.0</ele><time>2026-03-22T12:28:17.971Z</time></trkpt><trkpt lat="16.2477116" lon="-61.2882757"><ele>4.0</ele><time>2026-03-22T12:28:18.993Z</time></trkpt><trkpt lat="16.247637" lon="-61.2883731"><ele>4.0</ele><time>2026-03-22T12:28:19.987Z</time></trkpt><trkpt lat="16.2475702" lon="-61.2884581"><ele>4.0</ele><time>2026-03-22T12:28:20.993Z</time></trkpt><trkpt lat="16.2475147" lon="-61.2885408"><ele>4.0</ele><time>2026-03-22T12:28:21.965Z</time></trkpt><trkpt lat="16.2474696" lon="-61.2886269"><ele>4.0</ele><time>2026-03-22T12:28:22.958Z</time></trkpt><trkpt lat="16.2474184" lon="-61.2887149"><ele>4.0</ele><time>2026-03-22T12:28:23.981Z</time></trkpt><trkpt lat="16.2473728" lon="-61.288803"><ele>4.0</ele><time>2026-03-22T12:28:24.949Z</time></trkpt><trkpt lat="16.2473258" lon="-61.2889066"><ele>4.0</ele><time>2026-03-22T12:28:25.954Z</time></trkpt><trkpt lat="16.2472859" lon="-61.2890091"><ele>4.0</ele><time>2026-03-22T12:28:26.989Z</time></trkpt><trkpt lat="16.2472444" lon="-61.2891098"><ele>4.0</ele><time>2026-03-22T12:28:27.971Z</time></trkpt><trkpt lat="16.2472113" lon="-61.2892086"><ele>3.8000000000000003</ele><time>2026-03-22T12:28:28.976Z</time></trkpt><trkpt lat="16.2471816" lon="-61.2893066"><ele>3.6000000000000005</ele><time>2026-03-22T12:28:29.99Z</time></trkpt><trkpt lat="16.2471633" lon="-61.289401"><ele>3.4</ele><time>2026-03-22T12:28:30.993Z</time></trkpt><trkpt lat="16.2471368" lon="-61.289503"><ele>3.2</ele><time>2026-03-22T12:28:31.984Z</time></trkpt><trkpt lat="16.2471073" lon="-61.2896065"><ele>3.0</ele><time>2026-03-22T12:28:32.981Z</time></trkpt><trkpt lat="16.2470794" lon="-61.2897111"><ele>4.25</ele><time>2026-03-22T12:28:33.994Z</time></trkpt><trkpt lat="16.247055" lon="-61.2898234"><ele>5.5</ele><time>2026-03-22T12:28:35.052Z</time></trkpt><trkpt lat="16.247027" lon="-61.2899585"><ele>6.75</ele><time>2026-03-22T12:28:36.041Z</time></trkpt><trkpt lat="16.246986" lon="-61.2901143"><ele>8.0</ele><time>2026-03-22T12:28:37.042Z</time></trkpt><trkpt lat="16.246942" lon="-61.2903117"><ele>8.0</ele><time>2026-03-22T12:28:37.998Z</time></trkpt><trkpt lat="16.2468876" lon="-61.2905193"><ele>8.0</ele><time>2026-03-22T12:28:38.981Z</time></trkpt><trkpt lat="16.2468408" lon="-61.290729"><ele>8.0</ele><time>2026-03-22T12:28:40.001Z</time></trkpt><trkpt lat="16.2467976" lon="-61.2909285"><ele>8.666666666666666</ele><time>2026-03-22T12:28:40.968Z</time></trkpt><trkpt lat="16.2467528" lon="-61.2911067"><ele>9.333333333333334</ele><time>2026-03-22T12:28:42Z</time></trkpt><trkpt lat="16.2467124" lon="-61.2912821"><ele>10.0</ele><time>2026-03-22T12:28:42.974Z</time></trkpt><trkpt lat="16.2466829" lon="-61.291464"><ele>10.0</ele><time>2026-03-22T12:28:44.003Z</time></trkpt><trkpt lat="16.2466538" lon="-61.2916495"><ele>10.0</ele><time>2026-03-22T12:28:45.001Z</time></trkpt><trkpt lat="16.2466277" lon="-61.2918385"><ele>10.0</ele><time>2026-03-22T12:28:46.05Z</time></trkpt><trkpt lat="16.246603" lon="-61.2920115"><ele>10.0</ele><time>2026-03-22T12:28:46.989Z</time></trkpt><trkpt lat="16.2465773" lon="-61.2921779"><ele>10.0</ele><time>2026-03-22T12:28:47.992Z</time></trkpt><trkpt lat="16.2465487" lon="-61.2923466"><ele>10.0</ele><time>2026-03-22T12:28:48.988Z</time></trkpt><trkpt lat="16.2465219" lon="-61.2925103"><ele>10.0</ele><time>2026-03-22T12:28:49.996Z</time></trkpt><trkpt lat="16.2465028" lon="-61.29267"><ele>10.0</ele><time>2026-03-22T12:28:50.954Z</time></trkpt><trkpt lat="16.2464814" lon="-61.2928285"><ele>10.0</ele><time>2026-03-22T12:28:51.992Z</time></trkpt><trkpt lat="16.2464613" lon="-61.2929899"><ele>8.0</ele><time>2026-03-22T12:28:52.972Z</time></trkpt><trkpt lat="16.2464449" lon="-61.2931557"><ele>6.0</ele><time>2026-03-22T12:28:53.97Z</time></trkpt><trkpt lat="16.2464295" lon="-61.293323"><ele>4.0</ele><time>2026-03-22T12:28:54.992Z</time></trkpt><trkpt lat="16.246413" lon="-61.2934837"><ele>4.0</ele><time>2026-03-22T12:28:55.961Z</time></trkpt><trkpt lat="16.2463989" lon="-61.2936388"><ele>4.0</ele><time>2026-03-22T12:28:56.973Z</time></trkpt><trkpt lat="16.2463853" lon="-61.2937881"><ele>4.0</ele><time>2026-03-22T12:28:57.988Z</time></trkpt><trkpt lat="16.2463675" lon="-61.293935"><ele>4.0</ele><time>2026-03-22T12:28:59Z</time></trkpt><trkpt lat="16.2463496" lon="-61.2940832"><ele>3.75</ele><time>2026-03-22T12:28:59.98Z</time></trkpt><trkpt lat="16.2463389" lon="-61.2942306"><ele>3.5</ele><time>2026-03-22T12:29:01.04Z</time></trkpt><trkpt lat="16.2463272" lon="-61.2943805"><ele>3.25</ele><time>2026-03-22T12:29:02.021Z</time></trkpt><trkpt lat="16.2463173" lon="-61.2945291"><ele>3.0</ele><time>2026-03-22T12:29:03.045Z</time></trkpt><trkpt lat="16.246294" lon="-61.2946774"><ele>3.0</ele><time>2026-03-22T12:29:03.986Z</time></trkpt><trkpt lat="16.2462688" lon="-61.2948192"><ele>3.0</ele><time>2026-03-22T12:29:04.992Z</time></trkpt><trkpt lat="16.2462453" lon="-61.2949597"><ele>3.0</ele><time>2026-03-22T12:29:05.954Z</time></trkpt><trkpt lat="16.246218" lon="-61.2951044"><ele>3.0</ele><time>2026-03-22T12:29:06.979Z</time></trkpt><trkpt lat="16.2461786" lon="-61.2952521"><ele>3.0</ele><time>2026-03-22T12:29:07.981Z</time></trkpt><trkpt lat="16.2461439" lon="-61.2954093"><ele>3.0</ele><time>2026-03-22T12:29:08.996Z</time></trkpt><trkpt lat="16.2461094" lon="-61.2955647"><ele>3.0</ele><time>2026-03-22T12:29:09.965Z</time></trkpt><trkpt lat="16.2460706" lon="-61.2957181"><ele>3.333333333333333</ele><time>2026-03-22T12:29:10.985Z</time></trkpt><trkpt lat="16.2460287" lon="-61.2958706"><ele>3.6666666666666665</ele><time>2026-03-22T12:29:11.987Z</time></trkpt><trkpt lat="16.24599" lon="-61.2960206"><ele>4.0</ele><time>2026-03-22T12:29:13.009Z</time></trkpt><trkpt lat="16.2459574" lon="-61.2961797"><ele>4.0</ele><time>2026-03-22T12:29:13.967Z</time></trkpt><trkpt lat="16.2459323" lon="-61.2963354"><ele>4.0</ele><time>2026-03-22T12:29:14.988Z</time></trkpt><trkpt lat="16.2459101" lon="-61.2964945"><ele>4.0</ele><time>2026-03-22T12:29:15.994Z</time></trkpt><trkpt lat="16.2458861" lon="-61.2966531"><ele>6.0</ele><time>2026-03-22T12:29:16.996Z</time></trkpt><trkpt lat="16.245866" lon="-61.29681"><ele>8.0</ele><time>2026-03-22T12:29:18.06Z</time></trkpt><trkpt lat="16.2458501" lon="-61.2969694"><ele>10.0</ele><time>2026-03-22T12:29:18.972Z</time></trkpt><trkpt lat="16.2458291" lon="-61.2971335"><ele>11.0</ele><time>2026-03-22T12:29:20.069Z</time></trkpt><trkpt lat="16.2458064" lon="-61.2972919"><ele>12.0</ele><time>2026-03-22T12:29:20.996Z</time></trkpt><trkpt lat="16.2457837" lon="-61.2974496"><ele>13.0</ele><time>2026-03-22T12:29:21.992Z</time></trkpt><trkpt lat="16.2457607" lon="-61.2976044"><ele>13.0</ele><time>2026-03-22T12:29:23.003Z</time></trkpt><trkpt lat="16.2457399" lon="-61.2977527"><ele>13.0</ele><time>2026-03-22T12:29:23.973Z</time></trkpt><trkpt lat="16.2457211" lon="-61.2979037"><ele>13.0</ele><time>2026-03-22T12:29:24.992Z</time></trkpt><trkpt lat="16.2457032" lon="-61.2980625"><ele>13.0</ele><time>2026-03-22T12:29:25.986Z</time></trkpt><trkpt lat="16.2456839" lon="-61.2982254"><ele>13.333333333333332</ele><time>2026-03-22T12:29:27.075Z</time></trkpt><trkpt lat="16.2456624" lon="-61.2983907"><ele>13.666666666666668</ele><time>2026-03-22T12:29:28.058Z</time></trkpt><trkpt lat="16.2456458" lon="-61.2985574"><ele>14.0</ele><time>2026-03-22T12:29:28.993Z</time></trkpt><trkpt lat="16.2456272" lon="-61.2987147"><ele>14.25</ele><time>2026-03-22T12:29:29.995Z</time></trkpt><trkpt lat="16.2456078" lon="-61.2988674"><ele>14.5</ele><time>2026-03-22T12:29:30.977Z</time></trkpt><trkpt lat="16.2455929" lon="-61.2990204"><ele>14.75</ele><time>2026-03-22T12:29:32.05Z</time></trkpt><trkpt lat="16.2455767" lon="-61.2991746"><ele>15.0</ele><time>2026-03-22T12:29:33.048Z</time></trkpt><trkpt lat="16.2455538" lon="-61.2993341"><ele>15.0</ele><time>2026-03-22T12:29:33.972Z</time></trkpt><trkpt lat="16.2455265" lon="-61.2994996"><ele>15.0</ele><time>2026-03-22T12:29:35.02Z</time></trkpt><trkpt lat="16.2455021" lon="-61.2996715"><ele>15.0</ele><time>2026-03-22T12:29:35.994Z</time></trkpt><trkpt lat="16.2454868" lon="-61.2998437"><ele>15.0</ele><time>2026-03-22T12:29:36.997Z</time></trkpt><trkpt lat="16.2454717" lon="-61.300017"><ele>15.0</ele><time>2026-03-22T12:29:37.997Z</time></trkpt><trkpt lat="16.2454554" lon="-61.3001921"><ele>15.0</ele><time>2026-03-22T12:29:38.997Z</time></trkpt><trkpt lat="16.2454363" lon="-61.3003666"><ele>15.0</ele><time>2026-03-22T12:29:39.997Z</time></trkpt><trkpt lat="16.2454208" lon="-61.3005406"><ele>15.0</ele><time>2026-03-22T12:29:41.082Z</time></trkpt><trkpt lat="16.2453998" lon="-61.3007131"><ele>15.0</ele><time>2026-03-22T12:29:42.039Z</time></trkpt><trkpt lat="16.2453749" lon="-61.3008865"><ele>16.0</ele><time>2026-03-22T12:29:42.953Z</time></trkpt><trkpt lat="16.2453506" lon="-61.3010488"><ele>17.0</ele><time>2026-03-22T12:29:43.992Z</time></trkpt><trkpt lat="16.2453367" lon="-61.3012086"><ele>18.0</ele><time>2026-03-22T12:29:44.999Z</time></trkpt><trkpt lat="16.2453259" lon="-61.3013638"><ele>18.666666666666668</ele><time>2026-03-22T12:29:45.994Z</time></trkpt><trkpt lat="16.2453087" lon="-61.3015293"><ele>19.333333333333336</ele><time>2026-03-22T12:29:46.981Z</time></trkpt><trkpt lat="16.2452956" lon="-61.3016899"><ele>20.0</ele><time>2026-03-22T12:29:47.985Z</time></trkpt><trkpt lat="16.2452858" lon="-61.3018546"><ele>20.0</ele><time>2026-03-22T12:29:48.995Z</time></trkpt><trkpt lat="16.2452759" lon="-61.3020237"><ele>20.0</ele><time>2026-03-22T12:29:49.991Z</time></trkpt><trkpt lat="16.2452733" lon="-61.3021884"><ele>20.0</ele><time>2026-03-22T12:29:50.989Z</time></trkpt><trkpt lat="16.245277" lon="-61.3023371"><ele>20.5</ele><time>2026-03-22T12:29:51.992Z</time></trkpt><trkpt lat="16.2452822" lon="-61.302478"><ele>21.0</ele><time>2026-03-22T12:29:53.058Z</time></trkpt><trkpt lat="16.2452779" lon="-61.3026128"><ele>21.5</ele><time>2026-03-22T12:29:53.982Z</time></trkpt><trkpt lat="16.2452719" lon="-61.3027573"><ele>22.0</ele><time>2026-03-22T12:29:55.015Z</time></trkpt><trkpt lat="16.2452709" lon="-61.3028921"><ele>22.0</ele><time>2026-03-22T12:29:55.976Z</time></trkpt><trkpt lat="16.2452702" lon="-61.3030202"><ele>22.0</ele><time>2026-03-22T12:29:56.998Z</time></trkpt><trkpt lat="16.2452661" lon="-61.3031319"><ele>22.0</ele><time>2026-03-22T12:29:57.994Z</time></trkpt><trkpt lat="16.2452723" lon="-61.3032251"><ele>22.0</ele><time>2026-03-22T12:29:58.992Z</time></trkpt><trkpt lat="16.2452791" lon="-61.3032939"><ele>22.0</ele><time>2026-03-22T12:30:00.052Z</time></trkpt><trkpt lat="16.2453125" lon="-61.3033944"><ele>22.5</ele><time>2026-03-22T12:30:01.992Z</time></trkpt><trkpt lat="16.245431" lon="-61.3034291"><ele>23.0</ele><time>2026-03-22T12:30:03.989Z</time></trkpt><trkpt lat="16.245513" lon="-61.303428"><ele>23.5</ele><time>2026-03-22T12:30:04.997Z</time></trkpt><trkpt lat="16.2456254" lon="-61.3034569"><ele>24.0</ele><time>2026-03-22T12:30:05.996Z</time></trkpt><trkpt lat="16.2457577" lon="-61.303502"><ele>25.25</ele><time>2026-03-22T12:30:06.994Z</time></trkpt><trkpt lat="16.2458866" lon="-61.3035425"><ele>26.5</ele><time>2026-03-22T12:30:08.065Z</time></trkpt><trkpt lat="16.2460225" lon="-61.3035809"><ele>27.75</ele><time>2026-03-22T12:30:08.965Z</time></trkpt><trkpt lat="16.2461604" lon="-61.3036223"><ele>29.0</ele><time>2026-03-22T12:30:10Z</time></trkpt><trkpt lat="16.2463063" lon="-61.3036618"><ele>30.0</ele><time>2026-03-22T12:30:10.995Z</time></trkpt><trkpt lat="16.2464638" lon="-61.3037151"><ele>31.0</ele><time>2026-03-22T12:30:11.991Z</time></trkpt><trkpt lat="16.2466303" lon="-61.3037701"><ele>32.0</ele><time>2026-03-22T12:30:12.989Z</time></trkpt><trkpt lat="16.246793" lon="-61.3038328"><ele>32.0</ele><time>2026-03-22T12:30:13.962Z</time></trkpt><trkpt lat="16.2469454" lon="-61.3038863"><ele>32.0</ele><time>2026-03-22T12:30:15.005Z</time></trkpt><trkpt lat="16.2470921" lon="-61.3039361"><ele>32.0</ele><time>2026-03-22T12:30:16.066Z</time></trkpt><trkpt lat="16.2472371" lon="-61.3039882"><ele>30.75</ele><time>2026-03-22T12:30:17.056Z</time></trkpt><trkpt lat="16.2473744" lon="-61.3040417"><ele>29.5</ele><time>2026-03-22T12:30:18.036Z</time></trkpt><trkpt lat="16.2475125" lon="-61.3040942"><ele>28.25</ele><time>2026-03-22T12:30:18.984Z</time></trkpt><trkpt lat="16.2476468" lon="-61.3041439"><ele>27.0</ele><time>2026-03-22T12:30:19.997Z</time></trkpt><trkpt lat="16.2477809" lon="-61.3041905"><ele>27.0</ele><time>2026-03-22T12:30:20.983Z</time></trkpt><trkpt lat="16.2479067" lon="-61.3042324"><ele>27.0</ele><time>2026-03-22T12:30:22.049Z</time></trkpt><trkpt lat="16.2480292" lon="-61.3042751"><ele>27.0</ele><time>2026-03-22T12:30:23.043Z</time></trkpt><trkpt lat="16.2481447" lon="-61.304318"><ele>27.0</ele><time>2026-03-22T12:30:24.001Z</time></trkpt><trkpt lat="16.2482514" lon="-61.3043598"><ele>25.666666666666668</ele><time>2026-03-22T12:30:25.016Z</time></trkpt><trkpt lat="16.2483398" lon="-61.3043937"><ele>24.333333333333332</ele><time>2026-03-22T12:30:26.073Z</time></trkpt><trkpt lat="16.2484046" lon="-61.3044173"><ele>23.0</ele><time>2026-03-22T12:30:27.056Z</time></trkpt><trkpt lat="16.2484608" lon="-61.30447"><ele>21.666666666666664</ele><time>2026-03-22T12:30:28.992Z</time></trkpt><trkpt lat="16.2484137" lon="-61.3045946"><ele>20.333333333333332</ele><time>2026-03-22T12:30:31.003Z</time></trkpt><trkpt lat="16.2483662" lon="-61.3046639"><ele>19.0</ele><time>2026-03-22T12:30:31.961Z</time></trkpt><trkpt lat="16.2483186" lon="-61.3047293"><ele>19.2</ele><time>2026-03-22T12:30:33.032Z</time></trkpt><trkpt lat="16.2482777" lon="-61.3047944"><ele>19.4</ele><time>2026-03-22T12:30:33.996Z</time></trkpt><trkpt lat="16.2482338" lon="-61.3048733"><ele>19.6</ele><time>2026-03-22T12:30:35Z</time></trkpt><trkpt lat="16.2481851" lon="-61.3049525"><ele>19.8</ele><time>2026-03-22T12:30:35.998Z</time></trkpt><trkpt lat="16.2481216" lon="-61.3050427"><ele>20.0</ele><time>2026-03-22T12:30:36.999Z</time></trkpt><trkpt lat="16.2480533" lon="-61.3051428"><ele>20.75</ele><time>2026-03-22T12:30:37.993Z</time></trkpt><trkpt lat="16.2479873" lon="-61.3052288"><ele>21.5</ele><time>2026-03-22T12:30:39.003Z</time></trkpt><trkpt lat="16.2479068" lon="-61.3053222"><ele>22.25</ele><time>2026-03-22T12:30:39.977Z</time></trkpt><trkpt lat="16.24782" lon="-61.3054184"><ele>23.0</ele><time>2026-03-22T12:30:40.976Z</time></trkpt><trkpt lat="16.2477295" lon="-61.3055237"><ele>22.5</ele><time>2026-03-22T12:30:42.008Z</time></trkpt><trkpt lat="16.2476401" lon="-61.3056294"><ele>22.0</ele><time>2026-03-22T12:30:43Z</time></trkpt><trkpt lat="16.247551" lon="-61.3057226"><ele>21.5</ele><time>2026-03-22T12:30:43.991Z</time></trkpt><trkpt lat="16.2474662" lon="-61.3058145"><ele>21.0</ele><time>2026-03-22T12:30:44.998Z</time></trkpt><trkpt lat="16.2473886" lon="-61.3059"><ele>21.0</ele><time>2026-03-22T12:30:45.989Z</time></trkpt><trkpt lat="16.2473239" lon="-61.3059769"><ele>21.0</ele><time>2026-03-22T12:30:46.961Z</time></trkpt><trkpt lat="16.2472765" lon="-61.3060357"><ele>21.0</ele><time>2026-03-22T12:30:47.981Z</time></trkpt><trkpt lat="16.2471948" lon="-61.3060864"><ele>21.0</ele><time>2026-03-22T12:30:50.033Z</time></trkpt><trkpt lat="16.2470685" lon="-61.3060451"><ele>21.0</ele><time>2026-03-22T12:30:52.048Z</time></trkpt><trkpt lat="16.2469564" lon="-61.3060372"><ele>21.5</ele><time>2026-03-22T12:30:53.993Z</time></trkpt><trkpt lat="16.2468557" lon="-61.3061227"><ele>22.0</ele><time>2026-03-22T12:30:56.037Z</time></trkpt><trkpt lat="16.2468258" lon="-61.3062055"><ele>22.5</ele><time>2026-03-22T12:30:57.029Z</time></trkpt><trkpt lat="16.2467878" lon="-61.3063074"><ele>23.0</ele><time>2026-03-22T12:30:57.971Z</time></trkpt><trkpt lat="16.2467388" lon="-61.3064662"><ele>23.0</ele><time>2026-03-22T12:30:59.003Z</time></trkpt><trkpt lat="16.2466897" lon="-61.3066449"><ele>23.0</ele><time>2026-03-22T12:30:59.997Z</time></trkpt><trkpt lat="16.2466507" lon="-61.3068201"><ele>23.0</ele><time>2026-03-22T12:31:00.989Z</time></trkpt><trkpt lat="16.2466309" lon="-61.3069909"><ele>23.0</ele><time>2026-03-22T12:31:01.997Z</time></trkpt><trkpt lat="16.2465992" lon="-61.3071719"><ele>23.0</ele><time>2026-03-22T12:31:03.006Z</time></trkpt><trkpt lat="16.246571" lon="-61.3073451"><ele>23.0</ele><time>2026-03-22T12:31:03.995Z</time></trkpt><trkpt lat="16.2465332" lon="-61.3075198"><ele>23.333333333333336</ele><time>2026-03-22T12:31:05.044Z</time></trkpt><trkpt lat="16.2464987" lon="-61.3076892"><ele>23.666666666666668</ele><time>2026-03-22T12:31:06.064Z</time></trkpt><trkpt lat="16.2464708" lon="-61.3078555"><ele>24.0</ele><time>2026-03-22T12:31:07.049Z</time></trkpt><trkpt lat="16.246446" lon="-61.3080088"><ele>25.0</ele><time>2026-03-22T12:31:08.041Z</time></trkpt><trkpt lat="16.2464163" lon="-61.308149"><ele>26.0</ele><time>2026-03-22T12:31:08.965Z</time></trkpt><trkpt lat="16.2463872" lon="-61.3082808"><ele>27.0</ele><time>2026-03-22T12:31:09.999Z</time></trkpt><trkpt lat="16.2463607" lon="-61.3084187"><ele>28.0</ele><time>2026-03-22T12:31:10.995Z</time></trkpt><trkpt lat="16.2463331" lon="-61.3085539"><ele>28.0</ele><time>2026-03-22T12:31:11.986Z</time></trkpt><trkpt lat="16.2463084" lon="-61.3086848"><ele>28.0</ele><time>2026-03-22T12:31:12.996Z</time></trkpt><trkpt lat="16.2462871" lon="-61.3088085"><ele>28.0</ele><time>2026-03-22T12:31:13.992Z</time></trkpt><trkpt lat="16.2462629" lon="-61.3089254"><ele>28.0</ele><time>2026-03-22T12:31:15.059Z</time></trkpt><trkpt lat="16.2462469" lon="-61.3090392"><ele>27.2</ele><time>2026-03-22T12:31:16.038Z</time></trkpt><trkpt lat="16.246246" lon="-61.3091346"><ele>26.4</ele><time>2026-03-22T12:31:16.998Z</time></trkpt><trkpt lat="16.2462689" lon="-61.3092262"><ele>25.599999999999998</ele><time>2026-03-22T12:31:17.983Z</time></trkpt><trkpt lat="16.2463146" lon="-61.3093028"><ele>24.799999999999997</ele><time>2026-03-22T12:31:18.98Z</time></trkpt><trkpt lat="16.2463714" lon="-61.3093722"><ele>24.0</ele><time>2026-03-22T12:31:19.995Z</time></trkpt><trkpt lat="16.2464505" lon="-61.3094491"><ele>24.5</ele><time>2026-03-22T12:31:20.994Z</time></trkpt><trkpt lat="16.2465352" lon="-61.309515"><ele>25.0</ele><time>2026-03-22T12:31:21.99Z</time></trkpt><trkpt lat="16.2466301" lon="-61.3095839"><ele>25.5</ele><time>2026-03-22T12:31:23.035Z</time></trkpt><trkpt lat="16.246739" lon="-61.3096512"><ele>26.0</ele><time>2026-03-22T12:31:23.998Z</time></trkpt><trkpt lat="16.2468383" lon="-61.3097172"><ele>26.0</ele><time>2026-03-22T12:31:25.003Z</time></trkpt><trkpt lat="16.2469323" lon="-61.3097908"><ele>26.0</ele><time>2026-03-22T12:31:25.977Z</time></trkpt><trkpt lat="16.2470121" lon="-61.3098692"><ele>26.0</ele><time>2026-03-22T12:31:26.953Z</time></trkpt><trkpt lat="16.2470754" lon="-61.3099521"><ele>26.0</ele><time>2026-03-22T12:31:27.976Z</time></trkpt><trkpt lat="16.2471317" lon="-61.3100402"><ele>26.0</ele><time>2026-03-22T12:31:29.001Z</time></trkpt><trkpt lat="16.2471796" lon="-61.3101397"><ele>26.0</ele><time>2026-03-22T12:31:30Z</time></trkpt><trkpt lat="16.2472344" lon="-61.3102429"><ele>26.0</ele><time>2026-03-22T12:31:30.993Z</time></trkpt><trkpt lat="16.2472745" lon="-61.3103407"><ele>26.0</ele><time>2026-03-22T12:31:31.98Z</time></trkpt><trkpt lat="16.2472914" lon="-61.3104386"><ele>26.0</ele><time>2026-03-22T12:31:32.985Z</time></trkpt><trkpt lat="16.2472888" lon="-61.310541"><ele>26.0</ele><time>2026-03-22T12:31:33.992Z</time></trkpt><trkpt lat="16.2472866" lon="-61.3106498"><ele>26.200000000000003</ele><time>2026-03-22T12:31:34.997Z</time></trkpt><trkpt lat="16.2472846" lon="-61.3107699"><ele>26.400000000000002</ele><time>2026-03-22T12:31:35.981Z</time></trkpt><trkpt lat="16.247284" lon="-61.3108918"><ele>26.6</ele><time>2026-03-22T12:31:36.986Z</time></trkpt><trkpt lat="16.2472824" lon="-61.3110043"><ele>26.8</ele><time>2026-03-22T12:31:38.008Z</time></trkpt><trkpt lat="16.2472812" lon="-61.3110956"><ele>27.0</ele><time>2026-03-22T12:31:38.994Z</time></trkpt><trkpt lat="16.2472781" lon="-61.311185"><ele>27.0</ele><time>2026-03-22T12:31:40.038Z</time></trkpt><trkpt lat="16.2472851" lon="-61.3112836"><ele>27.000000000000004</ele><time>2026-03-22T12:31:41.001Z</time></trkpt><trkpt lat="16.2473081" lon="-61.3113773"><ele>27.000000000000004</ele><time>2026-03-22T12:31:41.978Z</time></trkpt><trkpt lat="16.2473394" lon="-61.3114705"><ele>27.0</ele><time>2026-03-22T12:31:42.993Z</time></trkpt><trkpt lat="16.2473846" lon="-61.3115683"><ele>27.0</ele><time>2026-03-22T12:31:43.981Z</time></trkpt><trkpt lat="16.2474453" lon="-61.3116684"><ele>26.75</ele><time>2026-03-22T12:31:45.005Z</time></trkpt><trkpt lat="16.2475115" lon="-61.3117781"><ele>26.5</ele><time>2026-03-22T12:31:46.006Z</time></trkpt><trkpt lat="16.2475859" lon="-61.3118864"><ele>26.25</ele><time>2026-03-22T12:31:46.996Z</time></trkpt><trkpt lat="16.2476691" lon="-61.3119887"><ele>26.0</ele><time>2026-03-22T12:31:48.055Z</time></trkpt><trkpt lat="16.2477572" lon="-61.312089"><ele>26.0</ele><time>2026-03-22T12:31:48.969Z</time></trkpt><trkpt lat="16.2478508" lon="-61.3121736"><ele>26.0</ele><time>2026-03-22T12:31:49.993Z</time></trkpt><trkpt lat="16.2479473" lon="-61.3122461"><ele>26.0</ele><time>2026-03-22T12:31:50.992Z</time></trkpt><trkpt lat="16.2480555" lon="-61.3123137"><ele>26.0</ele><time>2026-03-22T12:31:51.996Z</time></trkpt><trkpt lat="16.2481721" lon="-61.3123748"><ele>26.5</ele><time>2026-03-22T12:31:52.999Z</time></trkpt><trkpt lat="16.2482906" lon="-61.3124371"><ele>27.0</ele><time>2026-03-22T12:31:53.969Z</time></trkpt><trkpt lat="16.2484033" lon="-61.3124948"><ele>27.5</ele><time>2026-03-22T12:31:54.987Z</time></trkpt><trkpt lat="16.2485119" lon="-61.3125546"><ele>28.0</ele><time>2026-03-22T12:31:56.035Z</time></trkpt><trkpt lat="16.248621" lon="-61.3126136"><ele>28.0</ele><time>2026-03-22T12:31:57.024Z</time></trkpt><trkpt lat="16.2487199" lon="-61.3126591"><ele>27.999999999999996</ele><time>2026-03-22T12:31:57.995Z</time></trkpt><trkpt lat="16.2487997" lon="-61.3126849"><ele>27.999999999999996</ele><time>2026-03-22T12:31:58.995Z</time></trkpt><trkpt lat="16.2488896" lon="-61.3126968"><ele>28.0</ele><time>2026-03-22T12:31:59.994Z</time></trkpt><trkpt lat="16.2489823" lon="-61.3126943"><ele>28.0</ele><time>2026-03-22T12:32:00.998Z</time></trkpt><trkpt lat="16.2490846" lon="-61.3127002"><ele>28.4</ele><time>2026-03-22T12:32:02.001Z</time></trkpt><trkpt lat="16.2491805" lon="-61.3127144"><ele>28.799999999999997</ele><time>2026-03-22T12:32:03.069Z</time></trkpt><trkpt lat="16.2492825" lon="-61.3127414"><ele>29.2</ele><time>2026-03-22T12:32:03.996Z</time></trkpt><trkpt lat="16.2493881" lon="-61.3127727"><ele>29.6</ele><time>2026-03-22T12:32:05.024Z</time></trkpt><trkpt lat="16.2494878" lon="-61.3128097"><ele>30.0</ele><time>2026-03-22T12:32:06.001Z</time></trkpt><trkpt lat="16.2495932" lon="-61.3128496"><ele>30.0</ele><time>2026-03-22T12:32:06.994Z</time></trkpt><trkpt lat="16.2496988" lon="-61.3128944"><ele>30.0</ele><time>2026-03-22T12:32:07.985Z</time></trkpt><trkpt lat="16.2498083" lon="-61.312941"><ele>30.0</ele><time>2026-03-22T12:32:08.977Z</time></trkpt><trkpt lat="16.2499288" lon="-61.3129907"><ele>30.0</ele><time>2026-03-22T12:32:09.987Z</time></trkpt><trkpt lat="16.25005" lon="-61.3130339"><ele>30.0</ele><time>2026-03-22T12:32:10.986Z</time></trkpt><trkpt lat="16.2501723" lon="-61.3130711"><ele>30.0</ele><time>2026-03-22T12:32:12.048Z</time></trkpt><trkpt lat="16.2502944" lon="-61.3131115"><ele>30.0</ele><time>2026-03-22T12:32:13.038Z</time></trkpt><trkpt lat="16.2504147" lon="-61.3131519"><ele>30.0</ele><time>2026-03-22T12:32:13.99Z</time></trkpt><trkpt lat="16.2505361" lon="-61.3131909"><ele>30.25</ele><time>2026-03-22T12:32:14.992Z</time></trkpt><trkpt lat="16.2506578" lon="-61.3132329"><ele>30.5</ele><time>2026-03-22T12:32:15.992Z</time></trkpt><trkpt lat="16.2507844" lon="-61.3132763"><ele>30.75</ele><time>2026-03-22T12:32:16.99Z</time></trkpt><trkpt lat="16.2508967" lon="-61.3133166"><ele>31.0</ele><time>2026-03-22T12:32:17.977Z</time></trkpt><trkpt lat="16.2509844" lon="-61.3133501"><ele>31.000000000000004</ele><time>2026-03-22T12:32:18.999Z</time></trkpt><trkpt lat="16.2510486" lon="-61.3133795"><ele>31.0</ele><time>2026-03-22T12:32:20.05Z</time></trkpt><trkpt lat="16.2511306" lon="-61.3134217"><ele>31.0</ele><time>2026-03-22T12:32:22.045Z</time></trkpt><trkpt lat="16.2511914" lon="-61.3134391"><ele>31.0</ele><time>2026-03-22T12:32:22.993Z</time></trkpt><trkpt lat="16.2512725" lon="-61.3134659"><ele>31.000000000000004</ele><time>2026-03-22T12:32:23.996Z</time></trkpt><trkpt lat="16.2513593" lon="-61.3134951"><ele>31.0</ele><time>2026-03-22T12:32:24.95Z</time></trkpt><trkpt lat="16.251448" lon="-61.3135349"><ele>31.166666666666668</ele><time>2026-03-22T12:32:26.074Z</time></trkpt><trkpt lat="16.2515392" lon="-61.3135695"><ele>31.333333333333336</ele><time>2026-03-22T12:32:27.058Z</time></trkpt><trkpt lat="16.2516172" lon="-61.3136067"><ele>31.5</ele><time>2026-03-22T12:32:28.066Z</time></trkpt><trkpt lat="16.2516821" lon="-61.3136391"><ele>31.666666666666664</ele><time>2026-03-22T12:32:29.002Z</time></trkpt><trkpt lat="16.2517646" lon="-61.3136564"><ele>31.833333333333332</ele><time>2026-03-22T12:32:30.984Z</time></trkpt><trkpt lat="16.2518362" lon="-61.3136671"><ele>32.0</ele><time>2026-03-22T12:32:33.98Z</time></trkpt><trkpt lat="16.2518775" lon="-61.3137478"><ele>31.999999999999996</ele><time>2026-03-22T12:32:37.001Z</time></trkpt><trkpt lat="16.251868" lon="-61.3138168"><ele>32.0</ele><time>2026-03-22T12:32:38.005Z</time></trkpt><trkpt lat="16.2518541" lon="-61.3138995"><ele>32.0</ele><time>2026-03-22T12:32:38.988Z</time></trkpt><trkpt lat="16.2518376" lon="-61.313993"><ele>32.0</ele><time>2026-03-22T12:32:40.006Z</time></trkpt><trkpt lat="16.2518141" lon="-61.3140866"><ele>31.999999999999996</ele><time>2026-03-22T12:32:41.018Z</time></trkpt><trkpt lat="16.251789" lon="-61.3141895"><ele>32.0</ele><time>2026-03-22T12:32:42.008Z</time></trkpt><trkpt lat="16.2517626" lon="-61.3143067"><ele>32.25</ele><time>2026-03-22T12:32:43.067Z</time></trkpt><trkpt lat="16.2517376" lon="-61.3144468"><ele>32.5</ele><time>2026-03-22T12:32:43.989Z</time></trkpt><trkpt lat="16.251709" lon="-61.3145963"><ele>32.75</ele><time>2026-03-22T12:32:44.981Z</time></trkpt><trkpt lat="16.2516783" lon="-61.3147573"><ele>33.0</ele><time>2026-03-22T12:32:46.002Z</time></trkpt><trkpt lat="16.2516507" lon="-61.3149134"><ele>33.333333333333336</ele><time>2026-03-22T12:32:46.997Z</time></trkpt><trkpt lat="16.2516203" lon="-61.3150707"><ele>33.66666666666667</ele><time>2026-03-22T12:32:47.987Z</time></trkpt><trkpt lat="16.2515897" lon="-61.315233"><ele>34.0</ele><time>2026-03-22T12:32:48.986Z</time></trkpt><trkpt lat="16.2515613" lon="-61.3153936"><ele>34.0</ele><time>2026-03-22T12:32:49.996Z</time></trkpt><trkpt lat="16.2515329" lon="-61.3155526"><ele>34.0</ele><time>2026-03-22T12:32:50.985Z</time></trkpt><trkpt lat="16.2515035" lon="-61.3157032"><ele>34.0</ele><time>2026-03-22T12:32:52.068Z</time></trkpt><trkpt lat="16.2514783" lon="-61.3158458"><ele>34.0</ele><time>2026-03-22T12:32:53.022Z</time></trkpt><trkpt lat="16.2514536" lon="-61.3159897"><ele>34.0</ele><time>2026-03-22T12:32:53.979Z</time></trkpt><trkpt lat="16.2514258" lon="-61.316134"><ele>34.0</ele><time>2026-03-22T12:32:54.999Z</time></trkpt><trkpt lat="16.2513978" lon="-61.3162827"><ele>34.0</ele><time>2026-03-22T12:32:55.956Z</time></trkpt><trkpt lat="16.2513695" lon="-61.3164286"><ele>34.0</ele><time>2026-03-22T12:32:56.987Z</time></trkpt><trkpt lat="16.2513417" lon="-61.3165754"><ele>34.0</ele><time>2026-03-22T12:32:57.98Z</time></trkpt><trkpt lat="16.2513152" lon="-61.3167209"><ele>34.0</ele><time>2026-03-22T12:32:58.96Z</time></trkpt><trkpt lat="16.251291" lon="-61.31686"><ele>34.0</ele><time>2026-03-22T12:33:00.048Z</time></trkpt><trkpt lat="16.2512662" lon="-61.3170017"><ele>34.0</ele><time>2026-03-22T12:33:01.034Z</time></trkpt><trkpt lat="16.2512415" lon="-61.3171436"><ele>34.5</ele><time>2026-03-22T12:33:02.024Z</time></trkpt><trkpt lat="16.2512116" lon="-61.3172791"><ele>35.0</ele><time>2026-03-22T12:33:02.988Z</time></trkpt><trkpt lat="16.2511883" lon="-61.3174179"><ele>35.5</ele><time>2026-03-22T12:33:03.982Z</time></trkpt><trkpt lat="16.251161" lon="-61.3175566"><ele>36.0</ele><time>2026-03-22T12:33:04.982Z</time></trkpt><trkpt lat="16.2511339" lon="-61.3176978"><ele>36.0</ele><time>2026-03-22T12:33:05.999Z</time></trkpt><trkpt lat="16.2511082" lon="-61.3178344"><ele>36.0</ele><time>2026-03-22T12:33:06.988Z</time></trkpt><trkpt lat="16.2510785" lon="-61.3179719"><ele>36.0</ele><time>2026-03-22T12:33:07.979Z</time></trkpt><trkpt lat="16.2510506" lon="-61.3181237"><ele>36.0</ele><time>2026-03-22T12:33:08.984Z</time></trkpt><trkpt lat="16.2510214" lon="-61.3182728"><ele>36.5</ele><time>2026-03-22T12:33:09.956Z</time></trkpt><trkpt lat="16.2509969" lon="-61.3184191"><ele>37.0</ele><time>2026-03-22T12:33:10.997Z</time></trkpt><trkpt lat="16.2509738" lon="-61.3185565"><ele>37.5</ele><time>2026-03-22T12:33:11.974Z</time></trkpt><trkpt lat="16.2509511" lon="-61.3186881"><ele>38.0</ele><time>2026-03-22T12:33:12.99Z</time></trkpt><trkpt lat="16.2509293" lon="-61.3188093"><ele>38.199999999999996</ele><time>2026-03-22T12:33:14.001Z</time></trkpt><trkpt lat="16.250909" lon="-61.3189316"><ele>38.4</ele><time>2026-03-22T12:33:14.985Z</time></trkpt><trkpt lat="16.2508883" lon="-61.3190417"><ele>38.599999999999994</ele><time>2026-03-22T12:33:15.995Z</time></trkpt><trkpt lat="16.250866" lon="-61.3191465"><ele>38.8</ele><time>2026-03-22T12:33:17.015Z</time></trkpt><trkpt lat="16.250853" lon="-61.3192387"><ele>39.0</ele><time>2026-03-22T12:33:17.997Z</time></trkpt><trkpt lat="16.2508342" lon="-61.3193114"><ele>39.0</ele><time>2026-03-22T12:33:18.999Z</time></trkpt><trkpt lat="16.2508291" lon="-61.3194135"><ele>39.0</ele><time>2026-03-22T12:33:20.996Z</time></trkpt><trkpt lat="16.250887" lon="-61.31948"><ele>39.0</ele><time>2026-03-22T12:33:22.985Z</time></trkpt><trkpt lat="16.2510124" lon="-61.3195242"><ele>39.0</ele><time>2026-03-22T12:33:24.988Z</time></trkpt><trkpt lat="16.2511147" lon="-61.3195616"><ele>39.0</ele><time>2026-03-22T12:33:25.988Z</time></trkpt><trkpt lat="16.251243" lon="-61.319604"><ele>39.0</ele><time>2026-03-22T12:33:27.049Z</time></trkpt><trkpt lat="16.2513884" lon="-61.3196456"><ele>39.0</ele><time>2026-03-22T12:33:27.992Z</time></trkpt><trkpt lat="16.2515459" lon="-61.319692"><ele>39.0</ele><time>2026-03-22T12:33:28.978Z</time></trkpt><trkpt lat="16.2517122" lon="-61.319732"><ele>38.666666666666664</ele><time>2026-03-22T12:33:29.992Z</time></trkpt><trkpt lat="16.2518742" lon="-61.3197718"><ele>38.33333333333333</ele><time>2026-03-22T12:33:30.984Z</time></trkpt><trkpt lat="16.2520205" lon="-61.3198105"><ele>38.0</ele><time>2026-03-22T12:33:31.994Z</time></trkpt><trkpt lat="16.252165" lon="-61.3198541"><ele>37.0</ele><time>2026-03-22T12:33:32.993Z</time></trkpt><trkpt lat="16.2523075" lon="-61.3198932"><ele>36.0</ele><time>2026-03-22T12:33:33.988Z</time></trkpt><trkpt lat="16.2524445" lon="-61.3199305"><ele>35.0</ele><time>2026-03-22T12:33:34.99Z</time></trkpt><trkpt lat="16.2525816" lon="-61.3199735"><ele>34.0</ele><time>2026-03-22T12:33:36.008Z</time></trkpt><trkpt lat="16.2527152" lon="-61.320015"><ele>34.0</ele><time>2026-03-22T12:33:36.991Z</time></trkpt><trkpt lat="16.2528468" lon="-61.3200497"><ele>34.0</ele><time>2026-03-22T12:33:37.989Z</time></trkpt><trkpt lat="16.2529733" lon="-61.3200826"><ele>34.0</ele><time>2026-03-22T12:33:38.984Z</time></trkpt><trkpt lat="16.253098" lon="-61.3201189"><ele>34.0</ele><time>2026-03-22T12:33:39.99Z</time></trkpt><trkpt lat="16.2532229" lon="-61.3201609"><ele>34.25</ele><time>2026-03-22T12:33:40.991Z</time></trkpt><trkpt lat="16.2533433" lon="-61.3202007"><ele>34.5</ele><time>2026-03-22T12:33:41.99Z</time></trkpt><trkpt lat="16.2534612" lon="-61.3202338"><ele>34.75</ele><time>2026-03-22T12:33:43.034Z</time></trkpt><trkpt lat="16.2535664" lon="-61.3202644"><ele>35.0</ele><time>2026-03-22T12:33:43.989Z</time></trkpt><trkpt lat="16.2536633" lon="-61.3202898"><ele>35.0</ele><time>2026-03-22T12:33:45.06Z</time></trkpt><trkpt lat="16.2537438" lon="-61.3203158"><ele>35.0</ele><time>2026-03-22T12:33:46.001Z</time></trkpt><trkpt lat="16.2538154" lon="-61.32034"><ele>35.0</ele><time>2026-03-22T12:33:46.997Z</time></trkpt><trkpt lat="16.2539227" lon="-61.3203672"><ele>35.0</ele><time>2026-03-22T12:33:48.967Z</time></trkpt><trkpt lat="16.2539936" lon="-61.3203732"><ele>35.0</ele><time>2026-03-22T12:33:51.988Z</time></trkpt><trkpt lat="16.2540309" lon="-61.3203203"><ele>35.0</ele><time>2026-03-22T12:34:01.997Z</time></trkpt><trkpt lat="16.2540476" lon="-61.320129"><ele>35.25</ele><time>2026-03-22T12:34:03.989Z</time></trkpt><trkpt lat="16.2540672" lon="-61.3199829"><ele>35.5</ele><time>2026-03-22T12:34:04.996Z</time></trkpt><trkpt lat="16.2540884" lon="-61.319842"><ele>35.75</ele><time>2026-03-22T12:34:05.964Z</time></trkpt><trkpt lat="16.2540958" lon="-61.3197105"><ele>36.0</ele><time>2026-03-22T12:34:06.998Z</time></trkpt><trkpt lat="16.2541042" lon="-61.3195721"><ele>36.0</ele><time>2026-03-22T12:34:08.003Z</time></trkpt><trkpt lat="16.2541143" lon="-61.3194303"><ele>36.0</ele><time>2026-03-22T12:34:09.001Z</time></trkpt><trkpt lat="16.2541218" lon="-61.3192998"><ele>36.0</ele><time>2026-03-22T12:34:09.989Z</time></trkpt><trkpt lat="16.2541324" lon="-61.3191901"><ele>36.0</ele><time>2026-03-22T12:34:11.043Z</time></trkpt><trkpt lat="16.2541465" lon="-61.3191014"><ele>36.0</ele><time>2026-03-22T12:34:12.048Z</time></trkpt><trkpt lat="16.2541716" lon="-61.3190041"><ele>36.0</ele><time>2026-03-22T12:34:14.011Z</time></trkpt><trkpt lat="16.2542571" lon="-61.3190149"><ele>36.0</ele><time>2026-03-22T12:34:16.991Z</time></trkpt><trkpt lat="16.2543276" lon="-61.3191267"><ele>36.0</ele><time>2026-03-22T12:34:18.985Z</time></trkpt><trkpt lat="16.2543785" lon="-61.3191993"><ele>36.0</ele><time>2026-03-22T12:34:20Z</time></trkpt><trkpt lat="16.2544366" lon="-61.3192794"><ele>36.0</ele><time>2026-03-22T12:34:21.034Z</time></trkpt><trkpt lat="16.2544996" lon="-61.3193685"><ele>36.0</ele><time>2026-03-22T12:34:21.959Z</time></trkpt><trkpt lat="16.2545601" lon="-61.319462"><ele>36.0</ele><time>2026-03-22T12:34:22.996Z</time></trkpt><trkpt lat="16.2546286" lon="-61.3195489"><ele>36.0</ele><time>2026-03-22T12:34:24.002Z</time></trkpt><trkpt lat="16.254697" lon="-61.3196391"><ele>36.0</ele><time>2026-03-22T12:34:25.006Z</time></trkpt><trkpt lat="16.2547618" lon="-61.3197257"><ele>37.0</ele><time>2026-03-22T12:34:25.984Z</time></trkpt><trkpt lat="16.2548179" lon="-61.3198082"><ele>38.0</ele><time>2026-03-22T12:34:27.011Z</time></trkpt><trkpt lat="16.2548692" lon="-61.3198894"><ele>39.0</ele><time>2026-03-22T12:34:28Z</time></trkpt><trkpt lat="16.2549245" lon="-61.3199666"><ele>40.0</ele><time>2026-03-22T12:34:29.003Z</time></trkpt><trkpt lat="16.2549785" lon="-61.3200225"><ele>41.0</ele><time>2026-03-22T12:34:30.009Z</time></trkpt><trkpt lat="16.2550363" lon="-61.3200575"><ele>42.0</ele><time>2026-03-22T12:34:31.013Z</time></trkpt><trkpt lat="16.2551028" lon="-61.3200707"><ele>42.0</ele><time>2026-03-22T12:34:31.992Z</time></trkpt><trkpt lat="16.2551788" lon="-61.320084"><ele>42.0</ele><time>2026-03-22T12:34:33.063Z</time></trkpt><trkpt lat="16.2552613" lon="-61.320098"><ele>42.0</ele><time>2026-03-22T12:34:33.981Z</time></trkpt><trkpt lat="16.2553678" lon="-61.3201147"><ele>42.0</ele><time>2026-03-22T12:34:35.059Z</time></trkpt><trkpt lat="16.2554841" lon="-61.3201428"><ele>42.0</ele><time>2026-03-22T12:34:35.997Z</time></trkpt><trkpt lat="16.2555874" lon="-61.3201692"><ele>41.8</ele><time>2026-03-22T12:34:36.99Z</time></trkpt><trkpt lat="16.2556937" lon="-61.3202066"><ele>41.6</ele><time>2026-03-22T12:34:37.974Z</time></trkpt><trkpt lat="16.2557952" lon="-61.3202452"><ele>41.4</ele><time>2026-03-22T12:34:38.996Z</time></trkpt><trkpt lat="16.255891" lon="-61.3202843"><ele>41.199999999999996</ele><time>2026-03-22T12:34:39.996Z</time></trkpt><trkpt lat="16.2559957" lon="-61.3203198"><ele>41.0</ele><time>2026-03-22T12:34:40.982Z</time></trkpt><trkpt lat="16.2561031" lon="-61.3203488"><ele>41.0</ele><time>2026-03-22T12:34:41.999Z</time></trkpt><trkpt lat="16.2562029" lon="-61.3203821"><ele>41.0</ele><time>2026-03-22T12:34:42.999Z</time></trkpt><trkpt lat="16.2563063" lon="-61.3204159"><ele>41.0</ele><time>2026-03-22T12:34:43.999Z</time></trkpt><trkpt lat="16.2564085" lon="-61.3204519"><ele>41.0</ele><time>2026-03-22T12:34:44.995Z</time></trkpt><trkpt lat="16.2565141" lon="-61.3204798"><ele>41.0</ele><time>2026-03-22T12:34:45.987Z</time></trkpt><trkpt lat="16.2566229" lon="-61.3205138"><ele>40.8</ele><time>2026-03-22T12:34:46.985Z</time></trkpt><trkpt lat="16.2567284" lon="-61.3205472"><ele>40.599999999999994</ele><time>2026-03-22T12:34:47.976Z</time></trkpt><trkpt lat="16.2568326" lon="-61.3205826"><ele>40.4</ele><time>2026-03-22T12:34:48.973Z</time></trkpt><trkpt lat="16.2569345" lon="-61.320622"><ele>40.2</ele><time>2026-03-22T12:34:49.985Z</time></trkpt><trkpt lat="16.2570273" lon="-61.3206488"><ele>40.0</ele><time>2026-03-22T12:34:50.986Z</time></trkpt><trkpt lat="16.257113" lon="-61.3206715"><ele>40.0</ele><time>2026-03-22T12:34:51.987Z</time></trkpt><trkpt lat="16.2571972" lon="-61.3207001"><ele>40.0</ele><time>2026-03-22T12:34:52.987Z</time></trkpt><trkpt lat="16.2572648" lon="-61.3207311"><ele>40.0</ele><time>2026-03-22T12:34:53.997Z</time></trkpt><trkpt lat="16.2573391" lon="-61.320805"><ele>40.0</ele><time>2026-03-22T12:34:55.958Z</time></trkpt><trkpt lat="16.2573379" lon="-61.3208908"><ele>40.0</ele><time>2026-03-22T12:34:57.991Z</time></trkpt><trkpt lat="16.2572963" lon="-61.3210219"><ele>40.0</ele><time>2026-03-22T12:34:59.99Z</time></trkpt><trkpt lat="16.2572653" lon="-61.3211103"><ele>40.0</ele><time>2026-03-22T12:35:01.045Z</time></trkpt><trkpt lat="16.2572313" lon="-61.3212017"><ele>40.0</ele><time>2026-03-22T12:35:01.999Z</time></trkpt><trkpt lat="16.2571978" lon="-61.3213026"><ele>40.0</ele><time>2026-03-22T12:35:02.985Z</time></trkpt><trkpt lat="16.25716" lon="-61.3214129"><ele>40.0</ele><time>2026-03-22T12:35:03.978Z</time></trkpt><trkpt lat="16.2571197" lon="-61.3215339"><ele>39.25</ele><time>2026-03-22T12:35:04.977Z</time></trkpt><trkpt lat="16.2570761" lon="-61.3216597"><ele>38.5</ele><time>2026-03-22T12:35:05.975Z</time></trkpt><trkpt lat="16.2570308" lon="-61.3217969"><ele>37.75</ele><time>2026-03-22T12:35:07.048Z</time></trkpt><trkpt lat="16.2569887" lon="-61.3219301"><ele>37.0</ele><time>2026-03-22T12:35:08.072Z</time></trkpt><trkpt lat="16.2569496" lon="-61.3220565"><ele>37.0</ele><time>2026-03-22T12:35:08.99Z</time></trkpt><trkpt lat="16.2569057" lon="-61.3221863"><ele>37.0</ele><time>2026-03-22T12:35:09.987Z</time></trkpt><trkpt lat="16.2568654" lon="-61.3223106"><ele>37.0</ele><time>2026-03-22T12:35:10.99Z</time></trkpt><trkpt lat="16.2568228" lon="-61.3224281"><ele>37.0</ele><time>2026-03-22T12:35:11.98Z</time></trkpt><trkpt lat="16.2567818" lon="-61.3225504"><ele>38.5</ele><time>2026-03-22T12:35:12.985Z</time></trkpt><trkpt lat="16.2567447" lon="-61.3226675"><ele>40.0</ele><time>2026-03-22T12:35:13.954Z</time></trkpt><trkpt lat="16.2567084" lon="-61.3227942"><ele>41.5</ele><time>2026-03-22T12:35:14.99Z</time></trkpt><trkpt lat="16.256671" lon="-61.3229211"><ele>43.0</ele><time>2026-03-22T12:35:16.055Z</time></trkpt><trkpt lat="16.2566305" lon="-61.3230428"><ele>42.75</ele><time>2026-03-22T12:35:17.061Z</time></trkpt><trkpt lat="16.2565926" lon="-61.3231627"><ele>42.5</ele><time>2026-03-22T12:35:18.034Z</time></trkpt><trkpt lat="16.2565536" lon="-61.3232813"><ele>42.25</ele><time>2026-03-22T12:35:18.979Z</time></trkpt><trkpt lat="16.256515" lon="-61.3233958"><ele>42.0</ele><time>2026-03-22T12:35:19.989Z</time></trkpt><trkpt lat="16.2564807" lon="-61.3235129"><ele>42.0</ele><time>2026-03-22T12:35:20.963Z</time></trkpt><trkpt lat="16.2564495" lon="-61.3236263"><ele>42.0</ele><time>2026-03-22T12:35:21.967Z</time></trkpt><trkpt lat="16.2564199" lon="-61.3237362"><ele>42.0</ele><time>2026-03-22T12:35:22.981Z</time></trkpt><trkpt lat="16.2563811" lon="-61.3238445"><ele>42.0</ele><time>2026-03-22T12:35:23.995Z</time></trkpt><trkpt lat="16.2563437" lon="-61.3239556"><ele>42.0</ele><time>2026-03-22T12:35:24.965Z</time></trkpt><trkpt lat="16.2563114" lon="-61.3240702"><ele>42.0</ele><time>2026-03-22T12:35:25.956Z</time></trkpt><trkpt lat="16.2562778" lon="-61.3241826"><ele>42.0</ele><time>2026-03-22T12:35:26.996Z</time></trkpt><trkpt lat="16.2562423" lon="-61.3242909"><ele>42.0</ele><time>2026-03-22T12:35:27.999Z</time></trkpt><trkpt lat="16.2562089" lon="-61.3243957"><ele>42.0</ele><time>2026-03-22T12:35:28.995Z</time></trkpt><trkpt lat="16.2561813" lon="-61.3244996"><ele>42.0</ele><time>2026-03-22T12:35:29.999Z</time></trkpt><trkpt lat="16.2561516" lon="-61.324604"><ele>42.0</ele><time>2026-03-22T12:35:30.999Z</time></trkpt><trkpt lat="16.2561186" lon="-61.3247027"><ele>42.0</ele><time>2026-03-22T12:35:31.979Z</time></trkpt><trkpt lat="16.2560863" lon="-61.3248041"><ele>42.0</ele><time>2026-03-22T12:35:33.059Z</time></trkpt><trkpt lat="16.2560566" lon="-61.3249054"><ele>42.0</ele><time>2026-03-22T12:35:34.001Z</time></trkpt><trkpt lat="16.256032" lon="-61.3250083"><ele>42.0</ele><time>2026-03-22T12:35:35.036Z</time></trkpt><trkpt lat="16.2560083" lon="-61.3251044"><ele>42.0</ele><time>2026-03-22T12:35:36.014Z</time></trkpt><trkpt lat="16.2559872" lon="-61.3251909"><ele>42.0</ele><time>2026-03-22T12:35:37.008Z</time></trkpt><trkpt lat="16.255971" lon="-61.3252665"><ele>42.0</ele><time>2026-03-22T12:35:38.005Z</time></trkpt><trkpt lat="16.2559485" lon="-61.3253861"><ele>42.0</ele><time>2026-03-22T12:35:40Z</time></trkpt><trkpt lat="16.2559564" lon="-61.325458"><ele>42.0</ele><time>2026-03-22T12:35:41.06Z</time></trkpt><trkpt lat="16.2559748" lon="-61.325542"><ele>42.0</ele><time>2026-03-22T12:35:42.042Z</time></trkpt><trkpt lat="16.2560013" lon="-61.3256328"><ele>42.0</ele><time>2026-03-22T12:35:42.984Z</time></trkpt><trkpt lat="16.2560262" lon="-61.3257196"><ele>42.0</ele><time>2026-03-22T12:35:43.993Z</time></trkpt><trkpt lat="16.2560519" lon="-61.3258013"><ele>42.0</ele><time>2026-03-22T12:35:44.995Z</time></trkpt><trkpt lat="16.2560845" lon="-61.3258746"><ele>42.0</ele><time>2026-03-22T12:35:45.984Z</time></trkpt><trkpt lat="16.2561184" lon="-61.3259429"><ele>42.0</ele><time>2026-03-22T12:35:46.996Z</time></trkpt><trkpt lat="16.2561708" lon="-61.3260015"><ele>42.0</ele><time>2026-03-22T12:35:48.002Z</time></trkpt><trkpt lat="16.2562319" lon="-61.3260492"><ele>42.0</ele><time>2026-03-22T12:35:48.992Z</time></trkpt><trkpt lat="16.2563113" lon="-61.326087"><ele>42.0</ele><time>2026-03-22T12:35:50.054Z</time></trkpt><trkpt lat="16.2564021" lon="-61.3261241"><ele>42.0</ele><time>2026-03-22T12:35:50.97Z</time></trkpt><trkpt lat="16.2564939" lon="-61.3261587"><ele>42.0</ele><time>2026-03-22T12:35:51.983Z</time></trkpt><trkpt lat="16.2565879" lon="-61.3261878"><ele>42.0</ele><time>2026-03-22T12:35:52.99Z</time></trkpt><trkpt lat="16.256683" lon="-61.3262184"><ele>42.2</ele><time>2026-03-22T12:35:53.994Z</time></trkpt><trkpt lat="16.2567769" lon="-61.3262543"><ele>42.400000000000006</ele><time>2026-03-22T12:35:54.997Z</time></trkpt><trkpt lat="16.2568703" lon="-61.3262883"><ele>42.599999999999994</ele><time>2026-03-22T12:35:55.999Z</time></trkpt><trkpt lat="16.2569639" lon="-61.3263148"><ele>42.8</ele><time>2026-03-22T12:35:57.001Z</time></trkpt><trkpt lat="16.2570489" lon="-61.32634"><ele>43.0</ele><time>2026-03-22T12:35:58.004Z</time></trkpt><trkpt lat="16.2571202" lon="-61.326351"><ele>43.0</ele><time>2026-03-22T12:35:58.996Z</time></trkpt><trkpt lat="16.2571882" lon="-61.3263679"><ele>43.0</ele><time>2026-03-22T12:35:59.996Z</time></trkpt><trkpt lat="16.2572526" lon="-61.326389"><ele>43.0</ele><time>2026-03-22T12:36:00.986Z</time></trkpt><trkpt lat="16.2573157" lon="-61.3264136"><ele>43.0</ele><time>2026-03-22T12:36:02.002Z</time></trkpt><trkpt lat="16.257376" lon="-61.3264342"><ele>43.0</ele><time>2026-03-22T12:36:02.995Z</time></trkpt><trkpt lat="16.257483" lon="-61.3264513"><ele>43.0</ele><time>2026-03-22T12:36:05.004Z</time></trkpt><trkpt lat="16.2575822" lon="-61.3264254"><ele>42.833333333333336</ele><time>2026-03-22T12:36:07.004Z</time></trkpt><trkpt lat="16.2576442" lon="-61.3263996"><ele>42.66666666666667</ele><time>2026-03-22T12:36:09.002Z</time></trkpt><trkpt lat="16.2577177" lon="-61.3263798"><ele>42.5</ele><time>2026-03-22T12:36:12.987Z</time></trkpt><trkpt lat="16.2577881" lon="-61.3263593"><ele>42.333333333333336</ele><time>2026-03-22T12:36:16.981Z</time></trkpt><trkpt lat="16.2578687" lon="-61.3264154"><ele>42.166666666666664</ele><time>2026-03-22T12:36:19.979Z</time></trkpt><trkpt lat="16.2579608" lon="-61.3264981"><ele>42.0</ele><time>2026-03-22T12:36:21.995Z</time></trkpt><trkpt lat="16.2580133" lon="-61.3265403"><ele>42.0</ele><time>2026-03-22T12:36:23.002Z</time></trkpt><trkpt lat="16.2580641" lon="-61.3265819"><ele>42.0</ele><time>2026-03-22T12:36:24Z</time></trkpt><trkpt lat="16.2581478" lon="-61.3266639"><ele>42.0</ele><time>2026-03-22T12:36:25.997Z</time></trkpt><trkpt lat="16.2582318" lon="-61.3267209"><ele>42.0</ele><time>2026-03-22T12:36:28.005Z</time></trkpt><trkpt lat="16.2583496" lon="-61.3267638"><ele>42.0</ele><time>2026-03-22T12:36:30.001Z</time></trkpt><trkpt lat="16.2584194" lon="-61.3267957"><ele>42.0</ele><time>2026-03-22T12:36:31.006Z</time></trkpt><trkpt lat="16.2584902" lon="-61.3268206"><ele>42.0</ele><time>2026-03-22T12:36:32.004Z</time></trkpt><trkpt lat="16.2585704" lon="-61.3268452"><ele>42.0</ele><time>2026-03-22T12:36:32.997Z</time></trkpt><trkpt lat="16.2586543" lon="-61.3268693"><ele>42.0</ele><time>2026-03-22T12:36:33.988Z</time></trkpt><trkpt lat="16.2587473" lon="-61.326895"><ele>42.0</ele><time>2026-03-22T12:36:34.998Z</time></trkpt><trkpt lat="16.2588386" lon="-61.3269229"><ele>42.0</ele><time>2026-03-22T12:36:35.991Z</time></trkpt><trkpt lat="16.2589267" lon="-61.3269549"><ele>41.833333333333336</ele><time>2026-03-22T12:36:36.993Z</time></trkpt><trkpt lat="16.2590049" lon="-61.3269814"><ele>41.666666666666664</ele><time>2026-03-22T12:36:38.012Z</time></trkpt><trkpt lat="16.259083" lon="-61.3270075"><ele>41.5</ele><time>2026-03-22T12:36:38.998Z</time></trkpt><trkpt lat="16.2591629" lon="-61.3270322"><ele>41.33333333333333</ele><time>2026-03-22T12:36:40.003Z</time></trkpt><trkpt lat="16.2592345" lon="-61.3270559"><ele>41.166666666666664</ele><time>2026-03-22T12:36:40.994Z</time></trkpt><trkpt lat="16.2592969" lon="-61.3270815"><ele>41.0</ele><time>2026-03-22T12:36:41.985Z</time></trkpt><trkpt lat="16.2593668" lon="-61.32713"><ele>41.0</ele><time>2026-03-22T12:36:43.999Z</time></trkpt><trkpt lat="16.2593863" lon="-61.3272078"><ele>41.0</ele><time>2026-03-22T12:36:46.013Z</time></trkpt><trkpt lat="16.2593571" lon="-61.3272937"><ele>41.0</ele><time>2026-03-22T12:36:47.002Z</time></trkpt><trkpt lat="16.2593244" lon="-61.3273751"><ele>41.0</ele><time>2026-03-22T12:36:48.004Z</time></trkpt><trkpt lat="16.259303" lon="-61.3274561"><ele>41.0</ele><time>2026-03-22T12:36:48.995Z</time></trkpt><trkpt lat="16.2592701" lon="-61.3275408"><ele>41.0</ele><time>2026-03-22T12:36:49.998Z</time></trkpt><trkpt lat="16.2592373" lon="-61.3276256"><ele>40.8</ele><time>2026-03-22T12:36:50.989Z</time></trkpt><trkpt lat="16.2592036" lon="-61.327717"><ele>40.599999999999994</ele><time>2026-03-22T12:36:51.997Z</time></trkpt><trkpt lat="16.25917" lon="-61.3278154"><ele>40.4</ele><time>2026-03-22T12:36:53.002Z</time></trkpt><trkpt lat="16.2591328" lon="-61.3279004"><ele>40.2</ele><time>2026-03-22T12:36:53.963Z</time></trkpt><trkpt lat="16.2590978" lon="-61.3279921"><ele>40.0</ele><time>2026-03-22T12:36:54.997Z</time></trkpt><trkpt lat="16.2590698" lon="-61.3280864"><ele>40.4</ele><time>2026-03-22T12:36:55.996Z</time></trkpt><trkpt lat="16.2590374" lon="-61.3281778"><ele>40.8</ele><time>2026-03-22T12:36:56.973Z</time></trkpt><trkpt lat="16.259006" lon="-61.3282703"><ele>41.2</ele><time>2026-03-22T12:36:57.986Z</time></trkpt><trkpt lat="16.2589704" lon="-61.3283736"><ele>41.6</ele><time>2026-03-22T12:36:58.991Z</time></trkpt><trkpt lat="16.2589386" lon="-61.3284766"><ele>42.0</ele><time>2026-03-22T12:36:59.949Z</time></trkpt><trkpt lat="16.2589057" lon="-61.328574"><ele>42.400000000000006</ele><time>2026-03-22T12:37:00.961Z</time></trkpt><trkpt lat="16.2588565" lon="-61.3286722"><ele>42.800000000000004</ele><time>2026-03-22T12:37:01.991Z</time></trkpt><trkpt lat="16.2588139" lon="-61.3287649"><ele>43.2</ele><time>2026-03-22T12:37:02.962Z</time></trkpt><trkpt lat="16.2587761" lon="-61.3288581"><ele>43.6</ele><time>2026-03-22T12:37:03.999Z</time></trkpt><trkpt lat="16.2587478" lon="-61.3289445"><ele>44.0</ele><time>2026-03-22T12:37:04.982Z</time></trkpt><trkpt lat="16.2587128" lon="-61.3290329"><ele>44.400000000000006</ele><time>2026-03-22T12:37:06.005Z</time></trkpt><trkpt lat="16.2586803" lon="-61.3291239"><ele>44.8</ele><time>2026-03-22T12:37:06.997Z</time></trkpt><trkpt lat="16.2586453" lon="-61.3292177"><ele>45.2</ele><time>2026-03-22T12:37:07.994Z</time></trkpt><trkpt lat="16.2586107" lon="-61.3293101"><ele>45.599999999999994</ele><time>2026-03-22T12:37:08.985Z</time></trkpt><trkpt lat="16.2585769" lon="-61.3294001"><ele>46.0</ele><time>2026-03-22T12:37:09.994Z</time></trkpt><trkpt lat="16.2585518" lon="-61.3294845"><ele>46.0</ele><time>2026-03-22T12:37:10.98Z</time></trkpt><trkpt lat="16.2585201" lon="-61.3295737"><ele>46.0</ele><time>2026-03-22T12:37:11.964Z</time></trkpt><trkpt lat="16.2584925" lon="-61.3296642"><ele>46.0</ele><time>2026-03-22T12:37:12.988Z</time></trkpt><trkpt lat="16.2584578" lon="-61.3297492"><ele>46.0</ele><time>2026-03-22T12:37:13.984Z</time></trkpt><trkpt lat="16.2584231" lon="-61.3298319"><ele>46.0</ele><time>2026-03-22T12:37:15Z</time></trkpt><trkpt lat="16.2583814" lon="-61.3299106"><ele>46.0</ele><time>2026-03-22T12:37:16.008Z</time></trkpt><trkpt lat="16.2583284" lon="-61.3299756"><ele>45.5</ele><time>2026-03-22T12:37:17.007Z</time></trkpt><trkpt lat="16.2582733" lon="-61.330027"><ele>45.0</ele><time>2026-03-22T12:37:18.003Z</time></trkpt><trkpt lat="16.2582198" lon="-61.3300703"><ele>44.5</ele><time>2026-03-22T12:37:19.009Z</time></trkpt><trkpt lat="16.2581572" lon="-61.3301013"><ele>44.0</ele><time>2026-03-22T12:37:19.998Z</time></trkpt><trkpt lat="16.2580851" lon="-61.3301315"><ele>43.5</ele><time>2026-03-22T12:37:21.003Z</time></trkpt><trkpt lat="16.2580074" lon="-61.3301662"><ele>43.0</ele><time>2026-03-22T12:37:21.993Z</time></trkpt><trkpt lat="16.2579126" lon="-61.3302012"><ele>43.0</ele><time>2026-03-22T12:37:22.983Z</time></trkpt><trkpt lat="16.2578172" lon="-61.3302459"><ele>43.0</ele><time>2026-03-22T12:37:24.004Z</time></trkpt><trkpt lat="16.257723" lon="-61.3302969"><ele>43.0</ele><time>2026-03-22T12:37:24.999Z</time></trkpt><trkpt lat="16.2576186" lon="-61.3303397"><ele>43.0</ele><time>2026-03-22T12:37:26.007Z</time></trkpt><trkpt lat="16.2575103" lon="-61.3303788"><ele>43.0</ele><time>2026-03-22T12:37:27.009Z</time></trkpt><trkpt lat="16.2574084" lon="-61.3304152"><ele>43.0</ele><time>2026-03-22T12:37:28.005Z</time></trkpt><trkpt lat="16.2573091" lon="-61.3304525"><ele>43.0</ele><time>2026-03-22T12:37:28.995Z</time></trkpt><trkpt lat="16.2572184" lon="-61.3304762"><ele>43.0</ele><time>2026-03-22T12:37:30.004Z</time></trkpt><trkpt lat="16.2571289" lon="-61.330494"><ele>43.0</ele><time>2026-03-22T12:37:30.994Z</time></trkpt><trkpt lat="16.2570431" lon="-61.3305054"><ele>43.0</ele><time>2026-03-22T12:37:31.99Z</time></trkpt><trkpt lat="16.2569659" lon="-61.3305022"><ele>42.833333333333336</ele><time>2026-03-22T12:37:32.995Z</time></trkpt><trkpt lat="16.2568943" lon="-61.3304997"><ele>42.66666666666667</ele><time>2026-03-22T12:37:33.986Z</time></trkpt><trkpt lat="16.2568298" lon="-61.3304945"><ele>42.5</ele><time>2026-03-22T12:37:34.997Z</time></trkpt><trkpt lat="16.2567597" lon="-61.3304897"><ele>42.333333333333336</ele><time>2026-03-22T12:37:36.993Z</time></trkpt><trkpt lat="16.256695" lon="-61.3305214"><ele>42.166666666666664</ele><time>2026-03-22T12:37:54.997Z</time></trkpt><trkpt lat="16.2566732" lon="-61.3306347"><ele>42.0</ele><time>2026-03-22T12:37:56.973Z</time></trkpt><trkpt lat="16.2566894" lon="-61.3307101"><ele>41.4</ele><time>2026-03-22T12:37:57.998Z</time></trkpt><trkpt lat="16.2567146" lon="-61.3307961"><ele>40.800000000000004</ele><time>2026-03-22T12:37:59.01Z</time></trkpt><trkpt lat="16.2567492" lon="-61.3308881"><ele>40.2</ele><time>2026-03-22T12:38:00.001Z</time></trkpt><trkpt lat="16.2567847" lon="-61.3309774"><ele>39.6</ele><time>2026-03-22T12:38:00.996Z</time></trkpt><trkpt lat="16.2568201" lon="-61.3310713"><ele>39.0</ele><time>2026-03-22T12:38:02.003Z</time></trkpt><trkpt lat="16.2568624" lon="-61.3311724"><ele>39.0</ele><time>2026-03-22T12:38:02.996Z</time></trkpt><trkpt lat="16.2569022" lon="-61.3312829"><ele>39.0</ele><time>2026-03-22T12:38:04.004Z</time></trkpt><trkpt lat="16.2569435" lon="-61.3314088"><ele>39.0</ele><time>2026-03-22T12:38:04.999Z</time></trkpt><trkpt lat="16.2569717" lon="-61.331529"><ele>39.0</ele><time>2026-03-22T12:38:06.005Z</time></trkpt><trkpt lat="16.2569933" lon="-61.3316415"><ele>38.0</ele><time>2026-03-22T12:38:06.996Z</time></trkpt><trkpt lat="16.2570026" lon="-61.3317468"><ele>37.0</ele><time>2026-03-22T12:38:08.002Z</time></trkpt><trkpt lat="16.2569792" lon="-61.3318545"><ele>36.0</ele><time>2026-03-22T12:38:09.011Z</time></trkpt><trkpt lat="16.2569431" lon="-61.3319618"><ele>35.0</ele><time>2026-03-22T12:38:09.992Z</time></trkpt><trkpt lat="16.2568883" lon="-61.3320614"><ele>34.0</ele><time>2026-03-22T12:38:11.003Z</time></trkpt><trkpt lat="16.2568164" lon="-61.3321749"><ele>33.5</ele><time>2026-03-22T12:38:11.995Z</time></trkpt><trkpt lat="16.2567372" lon="-61.3322816"><ele>33.0</ele><time>2026-03-22T12:38:12.998Z</time></trkpt><trkpt lat="16.2566529" lon="-61.3323869"><ele>32.5</ele><time>2026-03-22T12:38:14.004Z</time></trkpt><trkpt lat="16.2565699" lon="-61.3324857"><ele>32.0</ele><time>2026-03-22T12:38:15.006Z</time></trkpt><trkpt lat="16.2564851" lon="-61.3325742"><ele>32.5</ele><time>2026-03-22T12:38:16.004Z</time></trkpt><trkpt lat="16.2563908" lon="-61.3326619"><ele>33.0</ele><time>2026-03-22T12:38:17.001Z</time></trkpt><trkpt lat="16.2562881" lon="-61.3327483"><ele>33.5</ele><time>2026-03-22T12:38:17.994Z</time></trkpt><trkpt lat="16.2561853" lon="-61.3328253"><ele>34.0</ele><time>2026-03-22T12:38:18.995Z</time></trkpt><trkpt lat="16.2560773" lon="-61.3328986"><ele>34.0</ele><time>2026-03-22T12:38:20.001Z</time></trkpt><trkpt lat="16.2559703" lon="-61.3329628"><ele>34.0</ele><time>2026-03-22T12:38:20.997Z</time></trkpt><trkpt lat="16.2558618" lon="-61.3330128"><ele>34.0</ele><time>2026-03-22T12:38:21.98Z</time></trkpt><trkpt lat="16.2557521" lon="-61.33306"><ele>34.0</ele><time>2026-03-22T12:38:23.002Z</time></trkpt><trkpt lat="16.2556483" lon="-61.3330972"><ele>30.4</ele><time>2026-03-22T12:38:23.999Z</time></trkpt><trkpt lat="16.2555499" lon="-61.3331327"><ele>26.799999999999997</ele><time>2026-03-22T12:38:25.003Z</time></trkpt><trkpt lat="16.2554617" lon="-61.3331653"><ele>23.200000000000003</ele><time>2026-03-22T12:38:26.006Z</time></trkpt><trkpt lat="16.255365" lon="-61.3331745"><ele>19.6</ele><time>2026-03-22T12:38:26.996Z</time></trkpt><trkpt lat="16.2552754" lon="-61.3331719"><ele>16.0</ele><time>2026-03-22T12:38:27.995Z</time></trkpt><trkpt lat="16.2551812" lon="-61.3331549"><ele>16.0</ele><time>2026-03-22T12:38:28.999Z</time></trkpt><trkpt lat="16.2550922" lon="-61.3331224"><ele>16.0</ele><time>2026-03-22T12:38:29.983Z</time></trkpt><trkpt lat="16.2550099" lon="-61.3330765"><ele>16.0</ele><time>2026-03-22T12:38:31.001Z</time></trkpt><trkpt lat="16.254927" lon="-61.3330355"><ele>16.0</ele><time>2026-03-22T12:38:32Z</time></trkpt><trkpt lat="16.2548402" lon="-61.3329971"><ele>16.0</ele><time>2026-03-22T12:38:33.005Z</time></trkpt><trkpt lat="16.2547577" lon="-61.3329693"><ele>15.166666666666666</ele><time>2026-03-22T12:38:33.988Z</time></trkpt><trkpt lat="16.2546706" lon="-61.3329474"><ele>14.333333333333332</ele><time>2026-03-22T12:38:34.984Z</time></trkpt><trkpt lat="16.2545907" lon="-61.3329251"><ele>13.5</ele><time>2026-03-22T12:38:35.987Z</time></trkpt><trkpt lat="16.2545194" lon="-61.3329152"><ele>12.666666666666666</ele><time>2026-03-22T12:38:37.001Z</time></trkpt><trkpt lat="16.2543932" lon="-61.3329137"><ele>11.833333333333332</ele><time>2026-03-22T12:38:39.007Z</time></trkpt><trkpt lat="16.2543148" lon="-61.3329102"><ele>11.0</ele><time>2026-03-22T12:38:39.997Z</time></trkpt><trkpt lat="16.2542315" lon="-61.3329131"><ele>11.0</ele><time>2026-03-22T12:38:41.003Z</time></trkpt><trkpt lat="16.2541416" lon="-61.3329194"><ele>11.0</ele><time>2026-03-22T12:38:42.002Z</time></trkpt><trkpt lat="16.2540339" lon="-61.3329324"><ele>11.0</ele><time>2026-03-22T12:38:43.005Z</time></trkpt><trkpt lat="16.2539289" lon="-61.3329322"><ele>11.0</ele><time>2026-03-22T12:38:44.006Z</time></trkpt><trkpt lat="16.2538241" lon="-61.3329324"><ele>11.0</ele><time>2026-03-22T12:38:45.002Z</time></trkpt><trkpt lat="16.2537355" lon="-61.3329345"><ele>10.5</ele><time>2026-03-22T12:38:46.011Z</time></trkpt><trkpt lat="16.2536528" lon="-61.3329417"><ele>10.0</ele><time>2026-03-22T12:38:47.014Z</time></trkpt><trkpt lat="16.2535661" lon="-61.3329447"><ele>9.5</ele><time>2026-03-22T12:38:48.001Z</time></trkpt><trkpt lat="16.2534901" lon="-61.3329708"><ele>9.0</ele><time>2026-03-22T12:38:49.009Z</time></trkpt><trkpt lat="16.2534188" lon="-61.3330342"><ele>8.5</ele><time>2026-03-22T12:38:50.01Z</time></trkpt><trkpt lat="16.2533522" lon="-61.3331054"><ele>8.0</ele><time>2026-03-22T12:38:51.002Z</time></trkpt><trkpt lat="16.2532945" lon="-61.3331675"><ele>8.0</ele><time>2026-03-22T12:38:52Z</time></trkpt><trkpt lat="16.2532355" lon="-61.3332215"><ele>7.999999999999999</ele><time>2026-03-22T12:38:53.004Z</time></trkpt><trkpt lat="16.2531873" lon="-61.3332718"><ele>8.0</ele><time>2026-03-22T12:38:54.005Z</time></trkpt><trkpt lat="16.2531448" lon="-61.3333244"><ele>8.0</ele><time>2026-03-22T12:38:55.02Z</time></trkpt><trkpt lat="16.2530955" lon="-61.3333888"><ele>7.999999999999999</ele><time>2026-03-22T12:38:56.988Z</time></trkpt><trkpt lat="16.2530358" lon="-61.333414"><ele>8.0</ele><time>2026-03-22T12:38:59.994Z</time></trkpt><trkpt lat="16.2529875" lon="-61.3333673"><ele>8.0</ele><time>2026-03-22T12:39:01.986Z</time></trkpt><trkpt lat="16.2528974" lon="-61.3332446"><ele>8.75</ele><time>2026-03-22T12:39:04.006Z</time></trkpt><trkpt lat="16.2528356" lon="-61.3331381"><ele>9.5</ele><time>2026-03-22T12:39:04.994Z</time></trkpt><trkpt lat="16.2527511" lon="-61.3329974"><ele>10.25</ele><time>2026-03-22T12:39:05.981Z</time></trkpt><trkpt lat="16.2526672" lon="-61.3328677"><ele>11.0</ele><time>2026-03-22T12:39:07.001Z</time></trkpt><trkpt lat="16.2525878" lon="-61.3327498"><ele>11.0</ele><time>2026-03-22T12:39:07.954Z</time></trkpt><trkpt lat="16.252504" lon="-61.3326271"><ele>11.0</ele><time>2026-03-22T12:39:08.966Z</time></trkpt><trkpt lat="16.2524139" lon="-61.3325105"><ele>11.0</ele><time>2026-03-22T12:39:09.998Z</time></trkpt><trkpt lat="16.2523171" lon="-61.3324018"><ele>11.0</ele><time>2026-03-22T12:39:11.005Z</time></trkpt><trkpt lat="16.2522035" lon="-61.3323091"><ele>13.0</ele><time>2026-03-22T12:39:11.996Z</time></trkpt><trkpt lat="16.2520831" lon="-61.3322233"><ele>15.0</ele><time>2026-03-22T12:39:12.988Z</time></trkpt><trkpt lat="16.2519597" lon="-61.3321581"><ele>17.0</ele><time>2026-03-22T12:39:13.997Z</time></trkpt><trkpt lat="16.2518348" lon="-61.3320917"><ele>19.0</ele><time>2026-03-22T12:39:14.986Z</time></trkpt><trkpt lat="16.251706" lon="-61.3320244"><ele>19.0</ele><time>2026-03-22T12:39:15.961Z</time></trkpt><trkpt lat="16.2515706" lon="-61.3319558"><ele>19.0</ele><time>2026-03-22T12:39:16.996Z</time></trkpt><trkpt lat="16.251432" lon="-61.3318992"><ele>19.0</ele><time>2026-03-22T12:39:17.989Z</time></trkpt><trkpt lat="16.2513027" lon="-61.3318585"><ele>19.0</ele><time>2026-03-22T12:39:18.998Z</time></trkpt><trkpt lat="16.2511875" lon="-61.3318341"><ele>20.5</ele><time>2026-03-22T12:39:19.989Z</time></trkpt><trkpt lat="16.2510775" lon="-61.3318183"><ele>22.0</ele><time>2026-03-22T12:39:20.995Z</time></trkpt><trkpt lat="16.2509589" lon="-61.3318031"><ele>23.5</ele><time>2026-03-22T12:39:22.001Z</time></trkpt><trkpt lat="16.2508371" lon="-61.3317922"><ele>25.0</ele><time>2026-03-22T12:39:22.998Z</time></trkpt><trkpt lat="16.2507092" lon="-61.3317771"><ele>25.0</ele><time>2026-03-22T12:39:23.997Z</time></trkpt><trkpt lat="16.25057" lon="-61.3317561"><ele>25.0</ele><time>2026-03-22T12:39:24.999Z</time></trkpt><trkpt lat="16.2504353" lon="-61.3317374"><ele>25.0</ele><time>2026-03-22T12:39:25.965Z</time></trkpt><trkpt lat="16.2502973" lon="-61.3317169"><ele>25.0</ele><time>2026-03-22T12:39:26.993Z</time></trkpt><trkpt lat="16.2501581" lon="-61.3316975"><ele>25.0</ele><time>2026-03-22T12:39:27.993Z</time></trkpt><trkpt lat="16.2500173" lon="-61.3316828"><ele>25.0</ele><time>2026-03-22T12:39:28.993Z</time></trkpt><trkpt lat="16.2498741" lon="-61.3316646"><ele>25.0</ele><time>2026-03-22T12:39:30.011Z</time></trkpt><trkpt lat="16.2497335" lon="-61.3316532"><ele>25.0</ele><time>2026-03-22T12:39:30.992Z</time></trkpt><trkpt lat="16.2495995" lon="-61.3316381"><ele>24.0</ele><time>2026-03-22T12:39:31.992Z</time></trkpt><trkpt lat="16.2494712" lon="-61.3316205"><ele>23.0</ele><time>2026-03-22T12:39:32.994Z</time></trkpt><trkpt lat="16.2493488" lon="-61.3316004"><ele>22.0</ele><time>2026-03-22T12:39:33.991Z</time></trkpt><trkpt lat="16.2492274" lon="-61.3315788"><ele>21.0</ele><time>2026-03-22T12:39:35.003Z</time></trkpt><trkpt lat="16.2490925" lon="-61.3315543"><ele>21.0</ele><time>2026-03-22T12:39:35.992Z</time></trkpt><trkpt lat="16.2489331" lon="-61.3315446"><ele>21.0</ele><time>2026-03-22T12:39:36.988Z</time></trkpt><trkpt lat="16.2487782" lon="-61.3315412"><ele>21.0</ele><time>2026-03-22T12:39:37.991Z</time></trkpt><trkpt lat="16.2486264" lon="-61.3315408"><ele>21.0</ele><time>2026-03-22T12:39:38.995Z</time></trkpt><trkpt lat="16.2484802" lon="-61.3315357"><ele>21.0</ele><time>2026-03-22T12:39:39.991Z</time></trkpt><trkpt lat="16.2483333" lon="-61.3315262"><ele>21.0</ele><time>2026-03-22T12:39:40.994Z</time></trkpt><trkpt lat="16.2481787" lon="-61.3315067"><ele>21.0</ele><time>2026-03-22T12:39:42Z</time></trkpt><trkpt lat="16.248023" lon="-61.3314765"><ele>21.0</ele><time>2026-03-22T12:39:43.002Z</time></trkpt><trkpt lat="16.2478747" lon="-61.331446"><ele>21.0</ele><time>2026-03-22T12:39:44Z</time></trkpt><trkpt lat="16.2477282" lon="-61.3314079"><ele>21.0</ele><time>2026-03-22T12:39:44.996Z</time></trkpt><trkpt lat="16.2475858" lon="-61.331374"><ele>21.0</ele><time>2026-03-22T12:39:45.996Z</time></trkpt><trkpt lat="16.2474442" lon="-61.3313348"><ele>20.75</ele><time>2026-03-22T12:39:47.001Z</time></trkpt><trkpt lat="16.2473112" lon="-61.3313032"><ele>20.5</ele><time>2026-03-22T12:39:47.996Z</time></trkpt><trkpt lat="16.2471763" lon="-61.3312865"><ele>20.25</ele><time>2026-03-22T12:39:48.993Z</time></trkpt><trkpt lat="16.2470396" lon="-61.331275"><ele>20.0</ele><time>2026-03-22T12:39:50.001Z</time></trkpt><trkpt lat="16.2469025" lon="-61.3312675"><ele>19.75</ele><time>2026-03-22T12:39:50.999Z</time></trkpt><trkpt lat="16.2467625" lon="-61.3312661"><ele>19.5</ele><time>2026-03-22T12:39:52.003Z</time></trkpt><trkpt lat="16.2466233" lon="-61.3312742"><ele>19.25</ele><time>2026-03-22T12:39:52.998Z</time></trkpt><trkpt lat="16.2464842" lon="-61.3312959"><ele>19.0</ele><time>2026-03-22T12:39:54.008Z</time></trkpt><trkpt lat="16.2463462" lon="-61.3313113"><ele>18.75</ele><time>2026-03-22T12:39:55.003Z</time></trkpt><trkpt lat="16.2462125" lon="-61.3313323"><ele>18.5</ele><time>2026-03-22T12:39:55.992Z</time></trkpt><trkpt lat="16.2460817" lon="-61.3313512"><ele>18.25</ele><time>2026-03-22T12:39:56.991Z</time></trkpt><trkpt lat="16.2459543" lon="-61.33136"><ele>18.0</ele><time>2026-03-22T12:39:58.004Z</time></trkpt><trkpt lat="16.2458328" lon="-61.3313632"><ele>18.0</ele><time>2026-03-22T12:39:59.008Z</time></trkpt><trkpt lat="16.2457155" lon="-61.3313472"><ele>18.0</ele><time>2026-03-22T12:40:00.008Z</time></trkpt><trkpt lat="16.2456028" lon="-61.3313016"><ele>18.0</ele><time>2026-03-22T12:40:00.99Z</time></trkpt><trkpt lat="16.2454941" lon="-61.3312478"><ele>18.0</ele><time>2026-03-22T12:40:01.998Z</time></trkpt><trkpt lat="16.2453864" lon="-61.3311866"><ele>17.0</ele><time>2026-03-22T12:40:03.002Z</time></trkpt><trkpt lat="16.2452879" lon="-61.3311245"><ele>16.0</ele><time>2026-03-22T12:40:03.994Z</time></trkpt><trkpt lat="16.245191" lon="-61.3310587"><ele>15.0</ele><time>2026-03-22T12:40:05.006Z</time></trkpt><trkpt lat="16.245093" lon="-61.330998"><ele>14.0</ele><time>2026-03-22T12:40:06.002Z</time></trkpt><trkpt lat="16.2449873" lon="-61.3309495"><ele>14.0</ele><time>2026-03-22T12:40:06.997Z</time></trkpt><trkpt lat="16.244874" lon="-61.3308986"><ele>14.0</ele><time>2026-03-22T12:40:08.002Z</time></trkpt><trkpt lat="16.2447734" lon="-61.3308568"><ele>14.0</ele><time>2026-03-22T12:40:09.003Z</time></trkpt><trkpt lat="16.244673" lon="-61.330813"><ele>14.0</ele><time>2026-03-22T12:40:09.999Z</time></trkpt><trkpt lat="16.2445628" lon="-61.3307776"><ele>14.2</ele><time>2026-03-22T12:40:11.008Z</time></trkpt><trkpt lat="16.2444574" lon="-61.3307385"><ele>14.399999999999999</ele><time>2026-03-22T12:40:12.003Z</time></trkpt><trkpt lat="16.2443558" lon="-61.330694"><ele>14.6</ele><time>2026-03-22T12:40:13Z</time></trkpt><trkpt lat="16.2442638" lon="-61.3306367"><ele>14.8</ele><time>2026-03-22T12:40:13.997Z</time></trkpt><trkpt lat="16.244192" lon="-61.3305666"><ele>15.0</ele><time>2026-03-22T12:40:15.002Z</time></trkpt><trkpt lat="16.2441259" lon="-61.3304884"><ele>15.0</ele><time>2026-03-22T12:40:16.002Z</time></trkpt><trkpt lat="16.244066" lon="-61.3304048"><ele>15.0</ele><time>2026-03-22T12:40:17.005Z</time></trkpt><trkpt lat="16.2440084" lon="-61.330331"><ele>15.0</ele><time>2026-03-22T12:40:18.005Z</time></trkpt><trkpt lat="16.2439485" lon="-61.3302466"><ele>15.0</ele><time>2026-03-22T12:40:19.005Z</time></trkpt><trkpt lat="16.2438907" lon="-61.3301583"><ele>15.0</ele><time>2026-03-22T12:40:20.002Z</time></trkpt><trkpt lat="16.2438341" lon="-61.3300527"><ele>15.0</ele><time>2026-03-22T12:40:21Z</time></trkpt><trkpt lat="16.2437829" lon="-61.3299487"><ele>15.0</ele><time>2026-03-22T12:40:21.994Z</time></trkpt><trkpt lat="16.2437417" lon="-61.3298396"><ele>15.0</ele><time>2026-03-22T12:40:23.004Z</time></trkpt><trkpt lat="16.2437055" lon="-61.329723"><ele>15.0</ele><time>2026-03-22T12:40:23.997Z</time></trkpt><trkpt lat="16.2436689" lon="-61.3296096"><ele>13.5</ele><time>2026-03-22T12:40:25.011Z</time></trkpt><trkpt lat="16.2436328" lon="-61.3294938"><ele>12.0</ele><time>2026-03-22T12:40:26.005Z</time></trkpt><trkpt lat="16.2435968" lon="-61.3293783"><ele>10.5</ele><time>2026-03-22T12:40:27.002Z</time></trkpt><trkpt lat="16.2435542" lon="-61.3292705"><ele>9.0</ele><time>2026-03-22T12:40:27.998Z</time></trkpt><trkpt lat="16.243517" lon="-61.3291664"><ele>9.0</ele><time>2026-03-22T12:40:28.999Z</time></trkpt><trkpt lat="16.2434753" lon="-61.3290667"><ele>9.0</ele><time>2026-03-22T12:40:29.992Z</time></trkpt><trkpt lat="16.2434399" lon="-61.3289739"><ele>9.0</ele><time>2026-03-22T12:40:31.004Z</time></trkpt><trkpt lat="16.2433998" lon="-61.3288963"><ele>9.0</ele><time>2026-03-22T12:40:32.008Z</time></trkpt><trkpt lat="16.2433581" lon="-61.3288229"><ele>9.0</ele><time>2026-03-22T12:40:33.007Z</time></trkpt><trkpt lat="16.2433122" lon="-61.3287682"><ele>9.0</ele><time>2026-03-22T12:40:34.005Z</time></trkpt><trkpt lat="16.2432238" lon="-61.3287404"><ele>9.0</ele><time>2026-03-22T12:40:36.017Z</time></trkpt><trkpt lat="16.2431832" lon="-61.3288789"><ele>9.0</ele><time>2026-03-22T12:40:37.998Z</time></trkpt><trkpt lat="16.2431742" lon="-61.3289645"><ele>9.0</ele><time>2026-03-22T12:40:38.997Z</time></trkpt><trkpt lat="16.2431764" lon="-61.3290629"><ele>9.0</ele><time>2026-03-22T12:40:39.986Z</time></trkpt><trkpt lat="16.2431745" lon="-61.3291726"><ele>9.0</ele><time>2026-03-22T12:40:41.034Z</time></trkpt><trkpt lat="16.2431714" lon="-61.3292813"><ele>9.0</ele><time>2026-03-22T12:40:42.032Z</time></trkpt><trkpt lat="16.243171" lon="-61.3293752"><ele>9.0</ele><time>2026-03-22T12:40:43.041Z</time></trkpt><trkpt lat="16.2431702" lon="-61.3294786"><ele>9.0</ele><time>2026-03-22T12:40:44.001Z</time></trkpt><trkpt lat="16.2431751" lon="-61.3296084"><ele>9.0</ele><time>2026-03-22T12:40:44.982Z</time></trkpt><trkpt lat="16.2431821" lon="-61.3297549"><ele>10.5</ele><time>2026-03-22T12:40:45.988Z</time></trkpt><trkpt lat="16.2431882" lon="-61.3299096"><ele>12.0</ele><time>2026-03-22T12:40:46.992Z</time></trkpt><trkpt lat="16.243202" lon="-61.3300497"><ele>13.5</ele><time>2026-03-22T12:40:47.994Z</time></trkpt><trkpt lat="16.2432137" lon="-61.3301778"><ele>15.0</ele><time>2026-03-22T12:40:48.973Z</time></trkpt><trkpt lat="16.2432177" lon="-61.3302909"><ele>15.0</ele><time>2026-03-22T12:40:50.005Z</time></trkpt><trkpt lat="16.2432174" lon="-61.3304006"><ele>15.0</ele><time>2026-03-22T12:40:50.984Z</time></trkpt><trkpt lat="16.2432184" lon="-61.3304985"><ele>15.0</ele><time>2026-03-22T12:40:51.983Z</time></trkpt><trkpt lat="16.2432135" lon="-61.3305862"><ele>15.0</ele><time>2026-03-22T12:40:52.998Z</time></trkpt><trkpt lat="16.2432095" lon="-61.330669"><ele>15.0</ele><time>2026-03-22T12:40:53.997Z</time></trkpt><trkpt lat="16.2432102" lon="-61.3307491"><ele>15.0</ele><time>2026-03-22T12:40:54.969Z</time></trkpt><trkpt lat="16.2432164" lon="-61.3308298"><ele>15.5</ele><time>2026-03-22T12:40:55.996Z</time></trkpt><trkpt lat="16.2432217" lon="-61.3309112"><ele>16.0</ele><time>2026-03-22T12:40:56.96Z</time></trkpt><trkpt lat="16.2432248" lon="-61.3309891"><ele>16.5</ele><time>2026-03-22T12:40:57.989Z</time></trkpt><trkpt lat="16.2432265" lon="-61.3310666"><ele>17.0</ele><time>2026-03-22T12:40:58.972Z</time></trkpt><trkpt lat="16.2432072" lon="-61.3311345"><ele>17.5</ele><time>2026-03-22T12:41:01.988Z</time></trkpt><trkpt lat="16.2431367" lon="-61.3311198"><ele>18.0</ele><time>2026-03-22T12:41:13.986Z</time></trkpt><trkpt lat="16.2430497" lon="-61.3311438"><ele>18.0</ele><time>2026-03-22T12:41:16.988Z</time></trkpt><trkpt lat="16.2429474" lon="-61.3311641"><ele>18.0</ele><time>2026-03-22T12:41:18.987Z</time></trkpt><trkpt lat="16.2428628" lon="-61.331176"><ele>18.0</ele><time>2026-03-22T12:41:21.053Z</time></trkpt><trkpt lat="16.2427828" lon="-61.3311833"><ele>18.0</ele><time>2026-03-22T12:41:22.989Z</time></trkpt><trkpt lat="16.2426986" lon="-61.3312015"><ele>18.0</ele><time>2026-03-22T12:41:24.969Z</time></trkpt><trkpt lat="16.2426231" lon="-61.3312162"><ele>18.0</ele><time>2026-03-22T12:41:26.98Z</time></trkpt><trkpt lat="16.2425496" lon="-61.3312359"><ele>18.0</ele><time>2026-03-22T12:41:28.986Z</time></trkpt><trkpt lat="16.2424711" lon="-61.3312537"><ele>18.0</ele><time>2026-03-22T12:41:31.055Z</time></trkpt><trkpt lat="16.2423826" lon="-61.331273"><ele>18.0</ele><time>2026-03-22T12:41:32.992Z</time></trkpt><trkpt lat="16.2422907" lon="-61.3313137"><ele>18.0</ele><time>2026-03-22T12:41:34.989Z</time></trkpt><trkpt lat="16.2422101" lon="-61.3313329"><ele>18.0</ele><time>2026-03-22T12:41:38.001Z</time></trkpt><trkpt lat="16.242126" lon="-61.3313522"><ele>18.0</ele><time>2026-03-22T12:41:41.036Z</time></trkpt><trkpt lat="16.242048" lon="-61.3313686"><ele>16.333333333333332</ele><time>2026-03-22T12:41:42.959Z</time></trkpt><trkpt lat="16.241976" lon="-61.3313853"><ele>14.666666666666666</ele><time>2026-03-22T12:41:44.971Z</time></trkpt><trkpt lat="16.2419203" lon="-61.3314176"><ele>13.0</ele><time>2026-03-22T12:41:46.983Z</time></trkpt><trkpt lat="16.2418615" lon="-61.3314532"><ele>11.333333333333332</ele><time>2026-03-22T12:41:48.997Z</time></trkpt><trkpt lat="16.2418066" lon="-61.3315055"><ele>9.666666666666666</ele><time>2026-03-22T12:41:50.987Z</time></trkpt><trkpt lat="16.2417968" lon="-61.3316151"><ele>8.0</ele><time>2026-03-22T12:41:52.989Z</time></trkpt><trkpt lat="16.2418112" lon="-61.3316955"><ele>7.6000000000000005</ele><time>2026-03-22T12:41:53.989Z</time></trkpt><trkpt lat="16.241856" lon="-61.331809"><ele>7.200000000000001</ele><time>2026-03-22T12:41:55.994Z</time></trkpt><trkpt lat="16.2418817" lon="-61.3319106"><ele>6.8</ele><time>2026-03-22T12:41:57.996Z</time></trkpt><trkpt lat="16.2419067" lon="-61.3320097"><ele>6.4</ele><time>2026-03-22T12:41:59.966Z</time></trkpt><trkpt lat="16.2419395" lon="-61.3321079"><ele>6.0</ele><time>2026-03-22T12:42:01.999Z</time></trkpt><trkpt lat="16.2419594" lon="-61.3322297"><ele>5.7142857142857135</ele><time>2026-03-22T12:42:03.994Z</time></trkpt><trkpt lat="16.2419672" lon="-61.3322967"><ele>5.428571428571429</ele><time>2026-03-22T12:42:04.988Z</time></trkpt><trkpt lat="16.2419693" lon="-61.3323629"><ele>5.142857142857142</ele><time>2026-03-22T12:42:05.993Z</time></trkpt><trkpt lat="16.2419795" lon="-61.332433"><ele>4.857142857142857</ele><time>2026-03-22T12:42:06.992Z</time></trkpt><trkpt lat="16.2419957" lon="-61.3325045"><ele>4.571428571428571</ele><time>2026-03-22T12:42:07.991Z</time></trkpt><trkpt lat="16.2420259" lon="-61.3325715"><ele>4.285714285714286</ele><time>2026-03-22T12:42:08.989Z</time></trkpt><trkpt lat="16.2420653" lon="-61.3326273"><ele>4.0</ele><time>2026-03-22T12:42:09.986Z</time></trkpt><trkpt lat="16.2420985" lon="-61.3326839"><ele>4.0</ele><time>2026-03-22T12:42:10.958Z</time></trkpt><trkpt lat="16.242135" lon="-61.3327657"><ele>4.0</ele><time>2026-03-22T12:42:12.996Z</time></trkpt><trkpt lat="16.2421928" lon="-61.3328805"><ele>4.0</ele><time>2026-03-22T12:42:14.986Z</time></trkpt><trkpt lat="16.2422366" lon="-61.3329985"><ele>4.0</ele><time>2026-03-22T12:42:16.986Z</time></trkpt><trkpt lat="16.2422802" lon="-61.3331064"><ele>4.0</ele><time>2026-03-22T12:42:18.989Z</time></trkpt><trkpt lat="16.2422922" lon="-61.3331922"><ele>3.6</ele><time>2026-03-22T12:42:20.996Z</time></trkpt><trkpt lat="16.2422509" lon="-61.3332696"><ele>3.2</ele><time>2026-03-22T12:42:22.98Z</time></trkpt><trkpt lat="16.2422009" lon="-61.3333811"><ele>2.8000000000000003</ele><time>2026-03-22T12:42:24.991Z</time></trkpt><trkpt lat="16.2421559" lon="-61.3335038"><ele>2.4000000000000004</ele><time>2026-03-22T12:42:26.994Z</time></trkpt><trkpt lat="16.2421138" lon="-61.3336152"><ele>2.0</ele><time>2026-03-22T12:42:28.976Z</time></trkpt><trkpt lat="16.242072" lon="-61.3336981"><ele>1.9999999999999998</ele><time>2026-03-22T12:42:31Z</time></trkpt><trkpt lat="16.2420351" lon="-61.3337541"><ele>2.0</ele><time>2026-03-22T12:42:33.966Z</time></trkpt><trkpt lat="16.2420097" lon="-61.333851"><ele>2.0</ele><time>2026-03-22T12:42:37.984Z</time></trkpt><trkpt lat="16.2420073" lon="-61.3339743"><ele>2.0</ele><time>2026-03-22T12:42:39.992Z</time></trkpt><trkpt lat="16.242004" lon="-61.3340458"><ele>1.9999999999999998</ele><time>2026-03-22T12:42:40.997Z</time></trkpt><trkpt lat="16.242" lon="-61.3341155"><ele>2.0</ele><time>2026-03-22T12:42:41.998Z</time></trkpt><trkpt lat="16.241997" lon="-61.3342445"><ele>2.5</ele><time>2026-03-22T12:42:43.995Z</time></trkpt><trkpt lat="16.2420057" lon="-61.3343451"><ele>3.0</ele><time>2026-03-22T12:42:45.996Z</time></trkpt><trkpt lat="16.2420089" lon="-61.3344366"><ele>3.5</ele><time>2026-03-22T12:42:47.987Z</time></trkpt><trkpt lat="16.2420049" lon="-61.3345027"><ele>4.0</ele><time>2026-03-22T12:42:49.979Z</time></trkpt><trkpt lat="16.2420029" lon="-61.334584"><ele>4.5</ele><time>2026-03-22T12:42:52.98Z</time></trkpt><trkpt lat="16.2419982" lon="-61.3346555"><ele>5.0</ele><time>2026-03-22T12:42:54.979Z</time></trkpt><trkpt lat="16.2419911" lon="-61.3347561"><ele>5.0</ele><time>2026-03-22T12:42:56.988Z</time></trkpt><trkpt lat="16.2419932" lon="-61.3348536"><ele>5.0</ele><time>2026-03-22T12:42:58.972Z</time></trkpt><trkpt lat="16.2420107" lon="-61.3349382"><ele>5.0</ele><time>2026-03-22T12:43:00.98Z</time></trkpt><trkpt lat="16.2420432" lon="-61.335006"><ele>5.0</ele><time>2026-03-22T12:43:02.993Z</time></trkpt><trkpt lat="16.2420648" lon="-61.3350702"><ele>5.0</ele><time>2026-03-22T12:43:04.993Z</time></trkpt><trkpt lat="16.2420788" lon="-61.3351595"><ele>5.0</ele><time>2026-03-22T12:43:06.995Z</time></trkpt><trkpt lat="16.2420923" lon="-61.3352707"><ele>5.0</ele><time>2026-03-22T12:43:08.995Z</time></trkpt><trkpt lat="16.2420972" lon="-61.3353852"><ele>5.0</ele><time>2026-03-22T12:43:10.99Z</time></trkpt><trkpt lat="16.2420941" lon="-61.3354935"><ele>5.0</ele><time>2026-03-22T12:43:12.992Z</time></trkpt><trkpt lat="16.2420897" lon="-61.3356047"><ele>5.0</ele><time>2026-03-22T12:43:15.002Z</time></trkpt><trkpt lat="16.2421062" lon="-61.3357207"><ele>5.0</ele><time>2026-03-22T12:43:16.993Z</time></trkpt><trkpt lat="16.2421027" lon="-61.3358023"><ele>5.166666666666667</ele><time>2026-03-22T12:43:18.999Z</time></trkpt><trkpt lat="16.2420459" lon="-61.3358498"><ele>5.333333333333334</ele><time>2026-03-22T12:43:22.961Z</time></trkpt><trkpt lat="16.2420022" lon="-61.3359003"><ele>5.5</ele><time>2026-03-22T12:43:27.001Z</time></trkpt><trkpt lat="16.2420553" lon="-61.3359622"><ele>5.666666666666667</ele><time>2026-03-22T12:44:07.989Z</time></trkpt><trkpt lat="16.2420785" lon="-61.3360359"><ele>5.833333333333333</ele><time>2026-03-22T12:44:31.984Z</time></trkpt><trkpt lat="16.242052" lon="-61.3361733"><ele>6.0</ele><time>2026-03-22T12:44:33.984Z</time></trkpt><trkpt lat="16.2420219" lon="-61.3362534"><ele>6.0</ele><time>2026-03-22T12:44:34.99Z</time></trkpt><trkpt lat="16.2420017" lon="-61.3363227"><ele>6.0</ele><time>2026-03-22T12:44:35.995Z</time></trkpt><trkpt lat="16.2419961" lon="-61.3363888"><ele>6.0</ele><time>2026-03-22T12:44:36.959Z</time></trkpt><trkpt lat="16.2419989" lon="-61.3364568"><ele>6.0</ele><time>2026-03-22T12:44:37.995Z</time></trkpt><trkpt lat="16.2419997" lon="-61.336562"><ele>6.0</ele><time>2026-03-22T12:44:39.974Z</time></trkpt><trkpt lat="16.2419875" lon="-61.3366697"><ele>6.0</ele><time>2026-03-22T12:44:41.986Z</time></trkpt><trkpt lat="16.2419983" lon="-61.3367884"><ele>5.833333333333333</ele><time>2026-03-22T12:44:43.995Z</time></trkpt><trkpt lat="16.2420027" lon="-61.336897"><ele>5.666666666666667</ele><time>2026-03-22T12:44:45.998Z</time></trkpt><trkpt lat="16.2420071" lon="-61.3369733"><ele>5.5</ele><time>2026-03-22T12:44:49.007Z</time></trkpt><trkpt lat="16.2420088" lon="-61.3370433"><ele>5.333333333333334</ele><time>2026-03-22T12:44:52.993Z</time></trkpt><trkpt lat="16.2420299" lon="-61.3371159"><ele>5.166666666666667</ele><time>2026-03-22T12:44:55.981Z</time></trkpt><trkpt lat="16.2420735" lon="-61.3371807"><ele>5.0</ele><time>2026-03-22T12:44:59.986Z</time></trkpt><trkpt lat="16.2421141" lon="-61.3372576"><ele>4.333333333333334</ele><time>2026-03-22T12:45:03.999Z</time></trkpt><trkpt lat="16.2421051" lon="-61.3373333"><ele>3.666666666666667</ele><time>2026-03-22T12:45:06.965Z</time></trkpt><trkpt lat="16.2421037" lon="-61.3374025"><ele>3.0</ele><time>2026-03-22T12:45:09.002Z</time></trkpt><trkpt lat="16.2421179" lon="-61.3374908"><ele>2.3333333333333335</ele><time>2026-03-22T12:45:10.997Z</time></trkpt><trkpt lat="16.2421313" lon="-61.3375691"><ele>1.6666666666666665</ele><time>2026-03-22T12:45:12.992Z</time></trkpt><trkpt lat="16.2421458" lon="-61.3376424"><ele>1.0</ele><time>2026-03-22T12:45:14.998Z</time></trkpt><trkpt lat="16.2421546" lon="-61.3377266"><ele>1.0</ele><time>2026-03-22T12:45:17.962Z</time></trkpt><trkpt lat="16.242125" lon="-61.3378028"><ele>0.9999999999999999</ele><time>2026-03-22T12:45:21.99Z</time></trkpt><trkpt lat="16.2421158" lon="-61.3378766"><ele>1.0</ele><time>2026-03-22T12:45:27.955Z</time></trkpt><trkpt lat="16.2421074" lon="-61.3379447"><ele>1.0</ele><time>2026-03-22T12:45:34.999Z</time></trkpt><trkpt lat="16.2421083" lon="-61.3380116"><ele>0.9999999999999999</ele><time>2026-03-22T12:45:37.996Z</time></trkpt><trkpt lat="16.2421117" lon="-61.3380938"><ele>1.0</ele><time>2026-03-22T12:45:42.979Z</time></trkpt><trkpt lat="16.2421111" lon="-61.338165"><ele>1.0</ele><time>2026-03-22T12:45:45.987Z</time></trkpt><trkpt lat="16.2420979" lon="-61.3382341"><ele>0.8571428571428571</ele><time>2026-03-22T12:45:48.986Z</time></trkpt><trkpt lat="16.2420995" lon="-61.338308"><ele>0.7142857142857142</ele><time>2026-03-22T12:45:50.999Z</time></trkpt><trkpt lat="16.2421196" lon="-61.3383927"><ele>0.5714285714285714</ele><time>2026-03-22T12:45:53.997Z</time></trkpt><trkpt lat="16.2421495" lon="-61.3384531"><ele>0.42857142857142855</ele><time>2026-03-22T12:45:56.966Z</time></trkpt><trkpt lat="16.2421554" lon="-61.3385227"><ele>0.2857142857142857</ele><time>2026-03-22T12:46:00.977Z</time></trkpt><trkpt lat="16.2421341" lon="-61.3386005"><ele>0.14285714285714285</ele><time>2026-03-22T12:46:04.985Z</time></trkpt><trkpt lat="16.2421161" lon="-61.3386638"><ele>0.0</ele><time>2026-03-22T12:46:08.96Z</time></trkpt><trkpt lat="16.2420774" lon="-61.3387174"><ele>0.0</ele><time>2026-03-22T12:46:13.951Z</time></trkpt><trkpt lat="16.2420453" lon="-61.3387864"><ele>0.0</ele><time>2026-03-22T12:46:16.968Z</time></trkpt><trkpt lat="16.2420666" lon="-61.3388721"><ele>0.0</ele><time>2026-03-22T12:46:18.971Z</time></trkpt><trkpt lat="16.2420618" lon="-61.3390019"><ele>0.0</ele><time>2026-03-22T12:46:20.97Z</time></trkpt><trkpt lat="16.242041" lon="-61.3391005"><ele>0.0</ele><time>2026-03-22T12:46:21.975Z</time></trkpt><trkpt lat="16.2420281" lon="-61.339172"><ele>0.3333333333333333</ele><time>2026-03-22T12:46:22.975Z</time></trkpt><trkpt lat="16.2419905" lon="-61.3392728"><ele>0.6666666666666666</ele><time>2026-03-22T12:46:24.988Z</time></trkpt><trkpt lat="16.2419689" lon="-61.3393555"><ele>1.0</ele><time>2026-03-22T12:46:27.032Z</time></trkpt><trkpt lat="16.2419581" lon="-61.3394349"><ele>1.3333333333333333</ele><time>2026-03-22T12:46:28.965Z</time></trkpt><trkpt lat="16.2418802" lon="-61.339466"><ele>1.6666666666666665</ele><time>2026-03-22T12:46:31.997Z</time></trkpt><trkpt lat="16.2418095" lon="-61.339464"><ele>2.0</ele><time>2026-03-22T12:46:32.978Z</time></trkpt><trkpt lat="16.2417324" lon="-61.3394585"><ele>1.9999999999999998</ele><time>2026-03-22T12:46:34.042Z</time></trkpt><trkpt lat="16.2416515" lon="-61.3394445"><ele>2.0</ele><time>2026-03-22T12:46:34.984Z</time></trkpt><trkpt lat="16.2415497" lon="-61.3394298"><ele>2.0</ele><time>2026-03-22T12:46:36.989Z</time></trkpt><trkpt lat="16.2414769" lon="-61.3394178"><ele>2.0</ele><time>2026-03-22T12:46:38.974Z</time></trkpt><trkpt lat="16.2414048" lon="-61.3393951"><ele>1.9999999999999998</ele><time>2026-03-22T12:46:40.974Z</time></trkpt><trkpt lat="16.2413347" lon="-61.3394156"><ele>2.0</ele><time>2026-03-22T12:46:42.982Z</time></trkpt><trkpt lat="16.2412531" lon="-61.3394805"><ele>2.1666666666666665</ele><time>2026-03-22T12:46:45.984Z</time></trkpt><trkpt lat="16.2411765" lon="-61.3394966"><ele>2.333333333333333</ele><time>2026-03-22T12:46:47.984Z</time></trkpt><trkpt lat="16.2410987" lon="-61.3394984"><ele>2.5</ele><time>2026-03-22T12:46:49.981Z</time></trkpt><trkpt lat="16.2410318" lon="-61.3395126"><ele>2.6666666666666665</ele><time>2026-03-22T12:46:51.982Z</time></trkpt><trkpt lat="16.240966" lon="-61.3395337"><ele>2.8333333333333335</ele><time>2026-03-22T12:46:53.986Z</time></trkpt><trkpt lat="16.2408961" lon="-61.3395681"><ele>3.0</ele><time>2026-03-22T12:46:56.975Z</time></trkpt><trkpt lat="16.2407557" lon="-61.3395625"><ele>3.0</ele><time>2026-03-22T12:47:00.987Z</time></trkpt><trkpt lat="16.2406955" lon="-61.3396017"><ele>3.0</ele><time>2026-03-22T12:47:02.982Z</time></trkpt><trkpt lat="16.240639" lon="-61.3396554"><ele>3.0</ele><time>2026-03-22T12:47:06.042Z</time></trkpt><trkpt lat="16.2405758" lon="-61.3396821"><ele>3.0</ele><time>2026-03-22T12:47:10.978Z</time></trkpt><trkpt lat="16.2404842" lon="-61.339711"><ele>3.0</ele><time>2026-03-22T12:47:25.017Z</time></trkpt><trkpt lat="16.2404505" lon="-61.3397732"><ele>3.0</ele><time>2026-03-22T12:47:31.99Z</time></trkpt><trkpt lat="16.2404532" lon="-61.3398524"><ele>3.5</ele><time>2026-03-22T12:47:36.972Z</time></trkpt><trkpt lat="16.2404778" lon="-61.3399369"><ele>4.0</ele><time>2026-03-22T12:47:45.986Z</time></trkpt><trkpt lat="16.2405105" lon="-61.3400132"><ele>4.5</ele><time>2026-03-22T12:47:50.982Z</time></trkpt><trkpt lat="16.2405542" lon="-61.3400987"><ele>5.0</ele><time>2026-03-22T12:47:58.991Z</time></trkpt><trkpt lat="16.240573" lon="-61.3401673"><ele>5.5</ele><time>2026-03-22T12:48:02.978Z</time></trkpt><trkpt lat="16.2405792" lon="-61.3402518"><ele>6.0</ele><time>2026-03-22T12:48:10.977Z</time></trkpt><trkpt lat="16.2405875" lon="-61.3403244"><ele>6.0</ele><time>2026-03-22T12:48:14.981Z</time></trkpt><trkpt lat="16.2406011" lon="-61.3404227"><ele>6.0</ele><time>2026-03-22T12:48:17.982Z</time></trkpt><trkpt lat="16.2406037" lon="-61.3404922"><ele>6.0</ele><time>2026-03-22T12:48:19.984Z</time></trkpt><trkpt lat="16.2406083" lon="-61.3405816"><ele>6.0</ele><time>2026-03-22T12:48:22.984Z</time></trkpt><trkpt lat="16.2406437" lon="-61.3406532"><ele>6.0</ele><time>2026-03-22T12:48:28.968Z</time></trkpt><trkpt lat="16.2406724" lon="-61.3407232"><ele>6.0</ele><time>2026-03-22T12:48:31.986Z</time></trkpt><trkpt lat="16.240702" lon="-61.3407903"><ele>6.5</ele><time>2026-03-22T12:48:34.987Z</time></trkpt><trkpt lat="16.2407516" lon="-61.3408595"><ele>7.0</ele><time>2026-03-22T12:48:37.994Z</time></trkpt><trkpt lat="16.2408141" lon="-61.3409223"><ele>7.5</ele><time>2026-03-22T12:48:41.003Z</time></trkpt><trkpt lat="16.2408616" lon="-61.3410265"><ele>8.0</ele><time>2026-03-22T12:48:45.981Z</time></trkpt><trkpt lat="16.2408207" lon="-61.3412088"><ele>8.0</ele><time>2026-03-22T12:48:50.993Z</time></trkpt><trkpt lat="16.2407729" lon="-61.3412686"><ele>7.999999999999999</ele><time>2026-03-22T12:48:52.987Z</time></trkpt><trkpt lat="16.2407177" lon="-61.3413212"><ele>8.0</ele><time>2026-03-22T12:48:56.041Z</time></trkpt><trkpt lat="16.2406842" lon="-61.3413777"><ele>8.0</ele><time>2026-03-22T12:48:59.986Z</time></trkpt><trkpt lat="16.2406499" lon="-61.3414472"><ele>7.999999999999999</ele><time>2026-03-22T12:49:03.998Z</time></trkpt><trkpt lat="16.2405939" lon="-61.341494"><ele>8.0</ele><time>2026-03-22T12:49:06.979Z</time></trkpt><trkpt lat="16.240535" lon="-61.3415567"><ele>8.0</ele><time>2026-03-22T12:49:09.992Z</time></trkpt><trkpt lat="16.240496" lon="-61.3416097"><ele>7.999999999999999</ele><time>2026-03-22T12:49:12.001Z</time></trkpt><trkpt lat="16.2404464" lon="-61.3416769"><ele>8.0</ele><time>2026-03-22T12:49:14.986Z</time></trkpt><trkpt lat="16.2403763" lon="-61.3417286"><ele>8.0</ele><time>2026-03-22T12:49:19.987Z</time></trkpt><trkpt lat="16.2403122" lon="-61.3417771"><ele>8.0</ele><time>2026-03-22T12:49:22.993Z</time></trkpt><trkpt lat="16.240237" lon="-61.3418271"><ele>7.999999999999999</ele><time>2026-03-22T12:49:25.968Z</time></trkpt><trkpt lat="16.2401826" lon="-61.3418668"><ele>8.0</ele><time>2026-03-22T12:49:27.993Z</time></trkpt><trkpt lat="16.2401088" lon="-61.3419015"><ele>7.999999999999999</ele><time>2026-03-22T12:49:29.988Z</time></trkpt><trkpt lat="16.240049" lon="-61.3419446"><ele>8.0</ele><time>2026-03-22T12:49:32Z</time></trkpt><trkpt lat="16.2399912" lon="-61.3420213"><ele>8.0</ele><time>2026-03-22T12:49:34.99Z</time></trkpt><trkpt lat="16.2399732" lon="-61.342094"><ele>8.0</ele><time>2026-03-22T12:49:36.977Z</time></trkpt><trkpt lat="16.2399554" lon="-61.3421716"><ele>7.999999999999999</ele><time>2026-03-22T12:49:39.975Z</time></trkpt><trkpt lat="16.2399293" lon="-61.3422532"><ele>8.0</ele><time>2026-03-22T12:49:47.988Z</time></trkpt><trkpt lat="16.2399072" lon="-61.3423228"><ele>8.0</ele><time>2026-03-22T12:49:59.971Z</time></trkpt><trkpt lat="16.2398752" lon="-61.3424171"><ele>7.999999999999999</ele><time>2026-03-22T12:50:05.969Z</time></trkpt><trkpt lat="16.2398876" lon="-61.3424891"><ele>8.0</ele><time>2026-03-22T12:50:09.964Z</time></trkpt><trkpt lat="16.2399005" lon="-61.3425561"><ele>8.0</ele><time>2026-03-22T12:50:12.973Z</time></trkpt><trkpt lat="16.2399203" lon="-61.3426256"><ele>7.999999999999999</ele><time>2026-03-22T12:50:15.983Z</time></trkpt><trkpt lat="16.2399361" lon="-61.3427063"><ele>8.0</ele><time>2026-03-22T12:50:19.98Z</time></trkpt><trkpt lat="16.2399081" lon="-61.3427713"><ele>8.0</ele><time>2026-03-22T12:50:22.983Z</time></trkpt><trkpt lat="16.2398917" lon="-61.3428478"><ele>8.0</ele><time>2026-03-22T12:50:26.072Z</time></trkpt><trkpt lat="16.2398881" lon="-61.3429328"><ele>7.999999999999999</ele><time>2026-03-22T12:50:29.975Z</time></trkpt><trkpt lat="16.2399009" lon="-61.343014"><ele>8.0</ele><time>2026-03-22T12:50:32.979Z</time></trkpt><trkpt lat="16.2398993" lon="-61.34308"><ele>8.0</ele><time>2026-03-22T12:50:36.982Z</time></trkpt><trkpt lat="16.2399125" lon="-61.3431496"><ele>7.999999999999999</ele><time>2026-03-22T12:50:50.985Z</time></trkpt><trkpt lat="16.2399497" lon="-61.343205"><ele>8.0</ele><time>2026-03-22T12:51:09.989Z</time></trkpt><trkpt lat="16.2399536" lon="-61.3431258"><ele>8.0</ele><time>2026-03-22T12:51:28.978Z</time></trkpt><trkpt lat="16.23997" lon="-61.3430442"><ele>7.999999999999999</ele><time>2026-03-22T12:51:34.986Z</time></trkpt><trkpt lat="16.2399735" lon="-61.3429777"><ele>8.0</ele><time>2026-03-22T12:51:37.977Z</time></trkpt><trkpt lat="16.2399742" lon="-61.3428948"><ele>8.0</ele><time>2026-03-22T12:51:41.988Z</time></trkpt><trkpt lat="16.2399657" lon="-61.3428206"><ele>8.0</ele><time>2026-03-22T12:51:45.982Z</time></trkpt><trkpt lat="16.2399586" lon="-61.3427478"><ele>7.999999999999999</ele><time>2026-03-22T12:51:49.983Z</time></trkpt><trkpt lat="16.2399293" lon="-61.3426606"><ele>8.0</ele><time>2026-03-22T12:51:53.987Z</time></trkpt><trkpt lat="16.2399151" lon="-61.3425808"><ele>7.999999999999999</ele><time>2026-03-22T12:51:56.963Z</time></trkpt><trkpt lat="16.2399142" lon="-61.3425146"><ele>8.0</ele><time>2026-03-22T12:52:00.994Z</time></trkpt><trkpt lat="16.2399397" lon="-61.3424207"><ele>8.0</ele><time>2026-03-22T12:52:16.991Z</time></trkpt><trkpt lat="16.2399443" lon="-61.3423202"><ele>8.0</ele><time>2026-03-22T12:53:35.019Z</time></trkpt><trkpt lat="16.2399901" lon="-61.3422158"><ele>7.999999999999999</ele><time>2026-03-22T12:54:25.004Z</time></trkpt><trkpt lat="16.2400223" lon="-61.3421448"><ele>8.0</ele><time>2026-03-22T12:54:27.028Z</time></trkpt><trkpt lat="16.2400587" lon="-61.3420867"><ele>8.0</ele><time>2026-03-22T12:54:29.011Z</time></trkpt><trkpt lat="16.2401091" lon="-61.3420286"><ele>7.999999999999999</ele><time>2026-03-22T12:54:32.013Z</time></trkpt><trkpt lat="16.2401718" lon="-61.342012"><ele>8.0</ele><time>2026-03-22T12:54:35.989Z</time></trkpt><trkpt lat="16.2402479" lon="-61.3420027"><ele>8.0</ele><time>2026-03-22T12:54:39.013Z</time></trkpt><trkpt lat="16.2403185" lon="-61.3419534"><ele>7.999999999999999</ele><time>2026-03-22T12:54:41.994Z</time></trkpt><trkpt lat="16.2403847" lon="-61.3419876"><ele>8.0</ele><time>2026-03-22T12:54:48.044Z</time></trkpt><trkpt lat="16.2404361" lon="-61.342033"><ele>8.0</ele><time>2026-03-22T12:54:53.026Z</time></trkpt><trkpt lat="16.2404876" lon="-61.3421137"><ele>7.999999999999999</ele><time>2026-03-22T12:54:56.02Z</time></trkpt><trkpt lat="16.2405391" lon="-61.3421877"><ele>8.0</ele><time>2026-03-22T12:54:59.027Z</time></trkpt><trkpt lat="16.240554" lon="-61.3422675"><ele>8.0</ele><time>2026-03-22T12:55:02.022Z</time></trkpt><trkpt lat="16.2405763" lon="-61.3423365"><ele>8.0</ele><time>2026-03-22T12:55:05.023Z</time></trkpt><trkpt lat="16.2406087" lon="-61.3424067"><ele>7.999999999999999</ele><time>2026-03-22T12:55:08.036Z</time></trkpt><trkpt lat="16.240632" lon="-61.3424986"><ele>8.0</ele><time>2026-03-22T12:55:11.027Z</time></trkpt><trkpt lat="16.2406509" lon="-61.3426009"><ele>8.5</ele><time>2026-03-22T12:55:13.001Z</time></trkpt><trkpt lat="16.2406762" lon="-61.3426678"><ele>9.0</ele><time>2026-03-22T12:55:15.029Z</time></trkpt><trkpt lat="16.240699" lon="-61.3427307"><ele>9.5</ele><time>2026-03-22T12:55:17.038Z</time></trkpt><trkpt lat="16.2407172" lon="-61.3428033"><ele>10.0</ele><time>2026-03-22T12:55:22.042Z</time></trkpt><trkpt lat="16.2407133" lon="-61.3428705"><ele>10.5</ele><time>2026-03-22T12:55:25.031Z</time></trkpt><trkpt lat="16.2407059" lon="-61.3429475"><ele>11.0</ele><time>2026-03-22T12:55:29.034Z</time></trkpt><trkpt lat="16.2406789" lon="-61.3430587"><ele>11.4</ele><time>2026-03-22T12:55:32.001Z</time></trkpt><trkpt lat="16.2406737" lon="-61.3431599"><ele>11.8</ele><time>2026-03-22T12:55:34.045Z</time></trkpt><trkpt lat="16.2406985" lon="-61.3432957"><ele>12.200000000000001</ele><time>2026-03-22T12:55:36.039Z</time></trkpt><trkpt lat="16.2407084" lon="-61.343369"><ele>12.600000000000001</ele><time>2026-03-22T12:55:37.039Z</time></trkpt><trkpt lat="16.2407225" lon="-61.3434784"><ele>13.0</ele><time>2026-03-22T12:55:39.038Z</time></trkpt><trkpt lat="16.2407444" lon="-61.3435469"><ele>12.999999999999998</ele><time>2026-03-22T12:55:40.048Z</time></trkpt><trkpt lat="16.2407742" lon="-61.3436349"><ele>13.0</ele><time>2026-03-22T12:55:41.024Z</time></trkpt><trkpt lat="16.2407921" lon="-61.3437137"><ele>13.0</ele><time>2026-03-22T12:55:42.046Z</time></trkpt><trkpt lat="16.2408156" lon="-61.3437913"><ele>13.0</ele><time>2026-03-22T12:55:43.041Z</time></trkpt><trkpt lat="16.2408246" lon="-61.3438792"><ele>12.999999999999998</ele><time>2026-03-22T12:55:45.035Z</time></trkpt><trkpt lat="16.2408037" lon="-61.343944"><ele>13.0</ele><time>2026-03-22T12:55:47.034Z</time></trkpt><trkpt lat="16.2407698" lon="-61.3440177"><ele>14.25</ele><time>2026-03-22T12:55:49.036Z</time></trkpt><trkpt lat="16.2407483" lon="-61.3441605"><ele>15.5</ele><time>2026-03-22T12:55:51.027Z</time></trkpt><trkpt lat="16.2407626" lon="-61.344358"><ele>16.75</ele><time>2026-03-22T12:55:53.03Z</time></trkpt><trkpt lat="16.2407894" lon="-61.3444382"><ele>18.0</ele><time>2026-03-22T12:55:54.032Z</time></trkpt><trkpt lat="16.2408169" lon="-61.3445159"><ele>18.000000000000004</ele><time>2026-03-22T12:55:55.041Z</time></trkpt><trkpt lat="16.2408458" lon="-61.3445958"><ele>18.0</ele><time>2026-03-22T12:55:56.042Z</time></trkpt><trkpt lat="16.2408675" lon="-61.3446707"><ele>18.0</ele><time>2026-03-22T12:55:57.031Z</time></trkpt><trkpt lat="16.2408624" lon="-61.344746"><ele>18.0</ele><time>2026-03-22T12:55:58.038Z</time></trkpt><trkpt lat="16.2408514" lon="-61.3448124"><ele>18.0</ele><time>2026-03-22T12:55:59.034Z</time></trkpt><trkpt lat="16.2408221" lon="-61.3448781"><ele>18.000000000000004</ele><time>2026-03-22T12:56:00.04Z</time></trkpt><trkpt lat="16.240783" lon="-61.3449398"><ele>18.0</ele><time>2026-03-22T12:56:01.042Z</time></trkpt><trkpt lat="16.240739" lon="-61.345007"><ele>18.5</ele><time>2026-03-22T12:56:02.042Z</time></trkpt><trkpt lat="16.2407025" lon="-61.3450741"><ele>19.0</ele><time>2026-03-22T12:56:03.047Z</time></trkpt><trkpt lat="16.2406785" lon="-61.3451451"><ele>19.5</ele><time>2026-03-22T12:56:04.027Z</time></trkpt><trkpt lat="16.2406457" lon="-61.3452248"><ele>20.0</ele><time>2026-03-22T12:56:05.038Z</time></trkpt><trkpt lat="16.2406181" lon="-61.3453065"><ele>20.5</ele><time>2026-03-22T12:56:06.042Z</time></trkpt><trkpt lat="16.2405867" lon="-61.3453894"><ele>21.0</ele><time>2026-03-22T12:56:07.047Z</time></trkpt><trkpt lat="16.240559" lon="-61.345465"><ele>19.166666666666668</ele><time>2026-03-22T12:56:08.046Z</time></trkpt><trkpt lat="16.2405378" lon="-61.3455412"><ele>17.333333333333332</ele><time>2026-03-22T12:56:09.045Z</time></trkpt><trkpt lat="16.2405191" lon="-61.3456083"><ele>15.5</ele><time>2026-03-22T12:56:10.047Z</time></trkpt><trkpt lat="16.2404877" lon="-61.3457014"><ele>13.666666666666668</ele><time>2026-03-22T12:56:12.041Z</time></trkpt><trkpt lat="16.2404676" lon="-61.3457764"><ele>11.833333333333334</ele><time>2026-03-22T12:56:15.039Z</time></trkpt><trkpt lat="16.2403984" lon="-61.3458236"><ele>10.0</ele><time>2026-03-22T12:57:14.03Z</time></trkpt><trkpt lat="16.2403374" lon="-61.3458665"><ele>9.5</ele><time>2026-03-22T12:57:16.023Z</time></trkpt><trkpt lat="16.2402899" lon="-61.3459157"><ele>9.0</ele><time>2026-03-22T12:57:18.03Z</time></trkpt><trkpt lat="16.2402496" lon="-61.3459802"><ele>8.5</ele><time>2026-03-22T12:57:20.039Z</time></trkpt><trkpt lat="16.2402298" lon="-61.3460466"><ele>8.0</ele><time>2026-03-22T12:57:22.026Z</time></trkpt><trkpt lat="16.240199" lon="-61.3461338"><ele>7.500000000000001</ele><time>2026-03-22T12:57:25.028Z</time></trkpt><trkpt lat="16.2401588" lon="-61.3462043"><ele>7.0</ele><time>2026-03-22T12:57:27.058Z</time></trkpt><trkpt lat="16.2401241" lon="-61.346275"><ele>7.000000000000001</ele><time>2026-03-22T12:57:29.037Z</time></trkpt><trkpt lat="16.2400721" lon="-61.3463333"><ele>7.0</ele><time>2026-03-22T12:57:31.025Z</time></trkpt><trkpt lat="16.2400063" lon="-61.3463729"><ele>7.0</ele><time>2026-03-22T12:57:33.025Z</time></trkpt><trkpt lat="16.2399345" lon="-61.346363"><ele>7.0</ele><time>2026-03-22T12:57:35.037Z</time></trkpt><trkpt lat="16.2398728" lon="-61.3463415"><ele>7.000000000000001</ele><time>2026-03-22T12:57:36.038Z</time></trkpt><trkpt lat="16.23981" lon="-61.3463281"><ele>7.0</ele><time>2026-03-22T12:57:37.036Z</time></trkpt><trkpt lat="16.2396921" lon="-61.3463665"><ele>5.8</ele><time>2026-03-22T12:57:39.046Z</time></trkpt><trkpt lat="16.2396105" lon="-61.3464687"><ele>4.6</ele><time>2026-03-22T12:57:41.03Z</time></trkpt><trkpt lat="16.2395648" lon="-61.3465276"><ele>3.4</ele><time>2026-03-22T12:57:42.029Z</time></trkpt><trkpt lat="16.2395203" lon="-61.3465808"><ele>2.2</ele><time>2026-03-22T12:57:43.041Z</time></trkpt><trkpt lat="16.2394133" lon="-61.3466404"><ele>1.0</ele><time>2026-03-22T12:57:45Z</time></trkpt><trkpt lat="16.2393466" lon="-61.3466618"><ele>0.9999999999999999</ele><time>2026-03-22T12:57:46.04Z</time></trkpt><trkpt lat="16.2392731" lon="-61.3466776"><ele>1.0</ele><time>2026-03-22T12:57:47.036Z</time></trkpt><trkpt lat="16.2391908" lon="-61.3466836"><ele>1.0</ele><time>2026-03-22T12:57:48.039Z</time></trkpt><trkpt lat="16.239104" lon="-61.3466703"><ele>1.0</ele><time>2026-03-22T12:57:49.044Z</time></trkpt><trkpt lat="16.2390178" lon="-61.3466497"><ele>0.9999999999999999</ele><time>2026-03-22T12:57:50.033Z</time></trkpt><trkpt lat="16.2389348" lon="-61.3466358"><ele>1.0</ele><time>2026-03-22T12:57:51.035Z</time></trkpt><trkpt lat="16.2388545" lon="-61.3466313"><ele>1.1428571428571428</ele><time>2026-03-22T12:57:52.054Z</time></trkpt><trkpt lat="16.2387829" lon="-61.3466382"><ele>1.2857142857142856</ele><time>2026-03-22T12:57:53.036Z</time></trkpt><trkpt lat="16.2387124" lon="-61.3466523"><ele>1.4285714285714284</ele><time>2026-03-22T12:57:54.044Z</time></trkpt><trkpt lat="16.2386407" lon="-61.3466621"><ele>1.5714285714285714</ele><time>2026-03-22T12:57:55.047Z</time></trkpt><trkpt lat="16.2385678" lon="-61.346664"><ele>1.714285714285714</ele><time>2026-03-22T12:57:56.038Z</time></trkpt><trkpt lat="16.2384995" lon="-61.3466525"><ele>1.857142857142857</ele><time>2026-03-22T12:57:57.034Z</time></trkpt><trkpt lat="16.2384435" lon="-61.3466199"><ele>2.0</ele><time>2026-03-22T12:57:58.042Z</time></trkpt><trkpt lat="16.2383958" lon="-61.3465572"><ele>1.9999999999999998</ele><time>2026-03-22T12:57:59.042Z</time></trkpt><trkpt lat="16.2383476" lon="-61.3464912"><ele>2.0</ele><time>2026-03-22T12:58:00.023Z</time></trkpt><trkpt lat="16.2382927" lon="-61.3464256"><ele>2.0</ele><time>2026-03-22T12:58:02.032Z</time></trkpt><trkpt lat="16.2382398" lon="-61.3463586"><ele>2.0</ele><time>2026-03-22T12:58:10.025Z</time></trkpt><trkpt lat="16.2381869" lon="-61.3462999"><ele>1.9999999999999998</ele><time>2026-03-22T12:58:13.021Z</time></trkpt><trkpt lat="16.2381279" lon="-61.346273"><ele>2.0</ele><time>2026-03-22T12:58:19.028Z</time></trkpt><trkpt lat="16.2380928" lon="-61.3463412"><ele>1.6666666666666665</ele><time>2026-03-22T12:58:21.025Z</time></trkpt><trkpt lat="16.2380554" lon="-61.3464058"><ele>1.3333333333333333</ele><time>2026-03-22T12:58:23.03Z</time></trkpt><trkpt lat="16.2380146" lon="-61.3464872"><ele>1.0</ele><time>2026-03-22T12:58:26.035Z</time></trkpt><trkpt lat="16.2379649" lon="-61.3465547"><ele>0.6666666666666666</ele><time>2026-03-22T12:58:28.026Z</time></trkpt><trkpt lat="16.2379174" lon="-61.3466222"><ele>0.3333333333333333</ele><time>2026-03-22T12:58:30.03Z</time></trkpt><trkpt lat="16.2378798" lon="-61.3466975"><ele>0.0</ele><time>2026-03-22T12:58:32.013Z</time></trkpt><trkpt lat="16.2378287" lon="-61.3467673"><ele>0.0</ele><time>2026-03-22T12:58:34.031Z</time></trkpt><trkpt lat="16.2377812" lon="-61.3468383"><ele>0.0</ele><time>2026-03-22T12:58:36.025Z</time></trkpt><trkpt lat="16.2377275" lon="-61.3469085"><ele>0.0</ele><time>2026-03-22T12:58:38.022Z</time></trkpt><trkpt lat="16.2376792" lon="-61.3469633"><ele>0.0</ele><time>2026-03-22T12:58:40.027Z</time></trkpt><trkpt lat="16.2376431" lon="-61.347031"><ele>0.0</ele><time>2026-03-22T12:58:43.025Z</time></trkpt><trkpt lat="16.2376211" lon="-61.3470935"><ele>0.0</ele><time>2026-03-22T12:58:47.027Z</time></trkpt><trkpt lat="16.2375532" lon="-61.3472226"><ele>0.2</ele><time>2026-03-22T12:58:50.018Z</time></trkpt><trkpt lat="16.2375311" lon="-61.3473211"><ele>0.4</ele><time>2026-03-22T12:58:51.015Z</time></trkpt><trkpt lat="16.2374991" lon="-61.3474296"><ele>0.6000000000000001</ele><time>2026-03-22T12:58:52.037Z</time></trkpt><trkpt lat="16.2374687" lon="-61.3474957"><ele>0.8</ele><time>2026-03-22T12:58:53.038Z</time></trkpt><trkpt lat="16.2374406" lon="-61.3475595"><ele>1.0</ele><time>2026-03-22T12:58:54.041Z</time></trkpt><trkpt lat="16.2374236" lon="-61.3476725"><ele>0.9999999999999999</ele><time>2026-03-22T12:58:56.043Z</time></trkpt><trkpt lat="16.23745" lon="-61.3477818"><ele>1.0</ele><time>2026-03-22T12:58:58.012Z</time></trkpt><trkpt lat="16.237455" lon="-61.3478522"><ele>1.0</ele><time>2026-03-22T12:58:59.035Z</time></trkpt><trkpt lat="16.2374334" lon="-61.347929"><ele>1.0</ele><time>2026-03-22T12:59:00.037Z</time></trkpt><trkpt lat="16.2374169" lon="-61.348008"><ele>0.9999999999999999</ele><time>2026-03-22T12:59:01.033Z</time></trkpt><trkpt lat="16.2373867" lon="-61.3481023"><ele>1.0</ele><time>2026-03-22T12:59:02.035Z</time></trkpt><trkpt lat="16.2373529" lon="-61.3482074"><ele>1.0</ele><time>2026-03-22T12:59:03.037Z</time></trkpt><trkpt lat="16.2373173" lon="-61.3483105"><ele>1.0</ele><time>2026-03-22T12:59:04.044Z</time></trkpt><trkpt lat="16.2372901" lon="-61.3484141"><ele>1.0</ele><time>2026-03-22T12:59:05.031Z</time></trkpt><trkpt lat="16.2372629" lon="-61.3485207"><ele>1.0</ele><time>2026-03-22T12:59:06.036Z</time></trkpt><trkpt lat="16.2372425" lon="-61.3486084"><ele>1.0</ele><time>2026-03-22T12:59:07.039Z</time></trkpt><trkpt lat="16.2372199" lon="-61.3486798"><ele>1.0</ele><time>2026-03-22T12:59:08.045Z</time></trkpt><trkpt lat="16.2371927" lon="-61.3487621"><ele>0.9999999999999999</ele><time>2026-03-22T12:59:10.044Z</time></trkpt><trkpt lat="16.2371795" lon="-61.3488387"><ele>1.0</ele><time>2026-03-22T12:59:15.031Z</time></trkpt><trkpt lat="16.2371455" lon="-61.3489039"><ele>1.0</ele><time>2026-03-22T12:59:18.036Z</time></trkpt><trkpt lat="16.2371127" lon="-61.3489682"><ele>0.9999999999999999</ele><time>2026-03-22T12:59:24.036Z</time></trkpt><trkpt lat="16.2370836" lon="-61.3490333"><ele>1.0</ele><time>2026-03-22T12:59:33.039Z</time></trkpt><trkpt lat="16.2370506" lon="-61.3491087"><ele>1.0</ele><time>2026-03-22T12:59:35.029Z</time></trkpt><trkpt lat="16.2370316" lon="-61.3491923"><ele>1.0</ele><time>2026-03-22T12:59:37.037Z</time></trkpt><trkpt lat="16.2370171" lon="-61.3492592"><ele>0.9999999999999999</ele><time>2026-03-22T12:59:39.04Z</time></trkpt><trkpt lat="16.2369865" lon="-61.349317"><ele>1.0</ele><time>2026-03-22T12:59:47.024Z</time></trkpt><trkpt lat="16.2369443" lon="-61.3493973"><ele>1.0</ele><time>2026-03-22T12:59:50.02Z</time></trkpt><trkpt lat="16.2369128" lon="-61.3494586"><ele>0.9999999999999999</ele><time>2026-03-22T12:59:53.017Z</time></trkpt><trkpt lat="16.2368927" lon="-61.3495235"><ele>1.0</ele><time>2026-03-22T12:59:56.032Z</time></trkpt><trkpt lat="16.2368518" lon="-61.3495941"><ele>1.0</ele><time>2026-03-22T12:59:59.027Z</time></trkpt><trkpt lat="16.2368279" lon="-61.3496577"><ele>1.5</ele><time>2026-03-22T13:00:03.033Z</time></trkpt><trkpt lat="16.2368353" lon="-61.3497444"><ele>2.0</ele><time>2026-03-22T13:00:11.029Z</time></trkpt><trkpt lat="16.2368196" lon="-61.3498303"><ele>2.5</ele><time>2026-03-22T13:00:14.028Z</time></trkpt><trkpt lat="16.2368111" lon="-61.349897"><ele>3.0</ele><time>2026-03-22T13:00:16.025Z</time></trkpt><trkpt lat="16.2368024" lon="-61.3499621"><ele>3.4999999999999996</ele><time>2026-03-22T13:00:18.019Z</time></trkpt><trkpt lat="16.2367947" lon="-61.3500375"><ele>4.0</ele><time>2026-03-22T13:00:20.025Z</time></trkpt><trkpt lat="16.2367536" lon="-61.3501562"><ele>3.9999999999999996</ele><time>2026-03-22T13:00:22.024Z</time></trkpt><trkpt lat="16.236733" lon="-61.3502239"><ele>4.0</ele><time>2026-03-22T13:00:23.024Z</time></trkpt><trkpt lat="16.2367092" lon="-61.3502919"><ele>4.0</ele><time>2026-03-22T13:00:24.02Z</time></trkpt><trkpt lat="16.2366866" lon="-61.3503827"><ele>4.0</ele><time>2026-03-22T13:00:25.031Z</time></trkpt><trkpt lat="16.2366589" lon="-61.3504896"><ele>3.9999999999999996</ele><time>2026-03-22T13:00:26.037Z</time></trkpt><trkpt lat="16.2366251" lon="-61.3505928"><ele>4.0</ele><time>2026-03-22T13:00:27.019Z</time></trkpt><trkpt lat="16.2365874" lon="-61.3506934"><ele>3.8000000000000003</ele><time>2026-03-22T13:00:28.033Z</time></trkpt><trkpt lat="16.2365549" lon="-61.3507875"><ele>3.6000000000000005</ele><time>2026-03-22T13:00:29.033Z</time></trkpt><trkpt lat="16.236525" lon="-61.3508833"><ele>3.4</ele><time>2026-03-22T13:00:30.013Z</time></trkpt><trkpt lat="16.2364907" lon="-61.3509784"><ele>3.2</ele><time>2026-03-22T13:00:31.034Z</time></trkpt><trkpt lat="16.2364648" lon="-61.3510651"><ele>3.0</ele><time>2026-03-22T13:00:32.037Z</time></trkpt><trkpt lat="16.2364452" lon="-61.3511522"><ele>3.0</ele><time>2026-03-22T13:00:33.04Z</time></trkpt><trkpt lat="16.236458" lon="-61.3512354"><ele>3.0</ele><time>2026-03-22T13:00:34.033Z</time></trkpt><trkpt lat="16.236491" lon="-61.351312"><ele>3.0</ele><time>2026-03-22T13:00:35.035Z</time></trkpt><trkpt lat="16.2365467" lon="-61.3513824"><ele>3.0</ele><time>2026-03-22T13:00:36.03Z</time></trkpt><trkpt lat="16.2366186" lon="-61.3514497"><ele>3.0</ele><time>2026-03-22T13:00:37.023Z</time></trkpt><trkpt lat="16.2366873" lon="-61.3515039"><ele>3.0</ele><time>2026-03-22T13:00:38.041Z</time></trkpt><trkpt lat="16.2367511" lon="-61.3515661"><ele>2.6666666666666665</ele><time>2026-03-22T13:00:39.035Z</time></trkpt><trkpt lat="16.2367915" lon="-61.3516431"><ele>2.3333333333333335</ele><time>2026-03-22T13:00:40.026Z</time></trkpt><trkpt lat="16.2368231" lon="-61.3517295"><ele>2.0</ele><time>2026-03-22T13:00:41.034Z</time></trkpt><trkpt lat="16.2368449" lon="-61.3518214"><ele>1.6666666666666665</ele><time>2026-03-22T13:00:42.013Z</time></trkpt><trkpt lat="16.2368608" lon="-61.3519092"><ele>1.3333333333333333</ele><time>2026-03-22T13:00:43.028Z</time></trkpt><trkpt lat="16.2368685" lon="-61.3519892"><ele>1.0</ele><time>2026-03-22T13:00:44.034Z</time></trkpt><trkpt lat="16.2368631" lon="-61.3520558"><ele>0.9999999999999999</ele><time>2026-03-22T13:00:45.026Z</time></trkpt><trkpt lat="16.2368339" lon="-61.3521302"><ele>1.0</ele><time>2026-03-22T13:00:47.029Z</time></trkpt><trkpt lat="16.2367615" lon="-61.3521458"><ele>1.0</ele><time>2026-03-22T13:00:49.032Z</time></trkpt><trkpt lat="16.2366981" lon="-61.3521414"><ele>1.0</ele><time>2026-03-22T13:00:50.021Z</time></trkpt><trkpt lat="16.2366271" lon="-61.3521337"><ele>0.9999999999999999</ele><time>2026-03-22T13:00:51.021Z</time></trkpt><trkpt lat="16.2365352" lon="-61.3521596"><ele>1.0</ele><time>2026-03-22T13:00:53.03Z</time></trkpt><trkpt lat="16.2364837" lon="-61.3522117"><ele>1.0</ele><time>2026-03-22T13:00:56.012Z</time></trkpt><trkpt lat="16.2364524" lon="-61.3522991"><ele>0.9999999999999999</ele><time>2026-03-22T13:00:58.994Z</time></trkpt><trkpt lat="16.2364279" lon="-61.3523624"><ele>1.0</ele><time>2026-03-22T13:01:01.027Z</time></trkpt><trkpt lat="16.2364034" lon="-61.3524315"><ele>1.0</ele><time>2026-03-22T13:01:03.043Z</time></trkpt><trkpt lat="16.2363955" lon="-61.3524995"><ele>0.9999999999999999</ele><time>2026-03-22T13:01:05.027Z</time></trkpt><trkpt lat="16.2363872" lon="-61.3525653"><ele>1.0</ele><time>2026-03-22T13:01:07.028Z</time></trkpt><trkpt lat="16.2363737" lon="-61.3526338"><ele>1.0</ele><time>2026-03-22T13:01:09.028Z</time></trkpt><trkpt lat="16.2363599" lon="-61.3526991"><ele>1.0</ele><time>2026-03-22T13:01:12.024Z</time></trkpt><trkpt lat="16.2363511" lon="-61.352785"><ele>1.0</ele><time>2026-03-22T13:01:15.994Z</time></trkpt><trkpt lat="16.2363376" lon="-61.3528917"><ele>1.0</ele><time>2026-03-22T13:01:19.011Z</time></trkpt><trkpt lat="16.2363162" lon="-61.3529555"><ele>1.0</ele><time>2026-03-22T13:01:20.034Z</time></trkpt><trkpt lat="16.2363117" lon="-61.3530544"><ele>1.0</ele><time>2026-03-22T13:01:22.032Z</time></trkpt><trkpt lat="16.2362953" lon="-61.353169"><ele>1.1666666666666665</ele><time>2026-03-22T13:01:24.021Z</time></trkpt><trkpt lat="16.2362857" lon="-61.3532373"><ele>1.3333333333333333</ele><time>2026-03-22T13:01:25.022Z</time></trkpt><trkpt lat="16.2362618" lon="-61.3533778"><ele>1.5</ele><time>2026-03-22T13:01:27.029Z</time></trkpt><trkpt lat="16.2362621" lon="-61.3534564"><ele>1.6666666666666665</ele><time>2026-03-22T13:01:28.024Z</time></trkpt><trkpt lat="16.2362611" lon="-61.3535317"><ele>1.8333333333333333</ele><time>2026-03-22T13:01:29.029Z</time></trkpt><trkpt lat="16.2362603" lon="-61.3536002"><ele>2.0</ele><time>2026-03-22T13:01:30.034Z</time></trkpt><trkpt lat="16.2362644" lon="-61.353705"><ele>1.9999999999999998</ele><time>2026-03-22T13:01:32.037Z</time></trkpt><trkpt lat="16.236268" lon="-61.3537878"><ele>2.0</ele><time>2026-03-22T13:01:34.026Z</time></trkpt><trkpt lat="16.2362865" lon="-61.3538611"><ele>2.0</ele><time>2026-03-22T13:01:36.023Z</time></trkpt><trkpt lat="16.2363634" lon="-61.3539441"><ele>2.0</ele><time>2026-03-22T13:01:38.034Z</time></trkpt><trkpt lat="16.2364246" lon="-61.3539858"><ele>1.9999999999999998</ele><time>2026-03-22T13:01:39.031Z</time></trkpt><trkpt lat="16.2364992" lon="-61.3540314"><ele>2.0</ele><time>2026-03-22T13:01:40.025Z</time></trkpt><trkpt lat="16.2365849" lon="-61.3540759"><ele>2.8</ele><time>2026-03-22T13:01:41.022Z</time></trkpt><trkpt lat="16.2366708" lon="-61.35412"><ele>3.6</ele><time>2026-03-22T13:01:42.03Z</time></trkpt><trkpt lat="16.2367548" lon="-61.3541583"><ele>4.3999999999999995</ele><time>2026-03-22T13:01:43.023Z</time></trkpt><trkpt lat="16.236843" lon="-61.3542022"><ele>5.2</ele><time>2026-03-22T13:01:43.998Z</time></trkpt><trkpt lat="16.2369371" lon="-61.3542366"><ele>6.0</ele><time>2026-03-22T13:01:45.042Z</time></trkpt><trkpt lat="16.237037" lon="-61.3542768"><ele>6.0</ele><time>2026-03-22T13:01:46.019Z</time></trkpt><trkpt lat="16.2371318" lon="-61.3543242"><ele>6.0</ele><time>2026-03-22T13:01:47.023Z</time></trkpt><trkpt lat="16.2372198" lon="-61.3543769"><ele>6.0</ele><time>2026-03-22T13:01:48.036Z</time></trkpt><trkpt lat="16.2372969" lon="-61.3544356"><ele>6.0</ele><time>2026-03-22T13:01:49.013Z</time></trkpt><trkpt lat="16.2373675" lon="-61.3544942"><ele>6.0</ele><time>2026-03-22T13:01:50.042Z</time></trkpt><trkpt lat="16.2374275" lon="-61.3545565"><ele>6.166666666666667</ele><time>2026-03-22T13:01:51.03Z</time></trkpt><trkpt lat="16.2374824" lon="-61.354617"><ele>6.333333333333334</ele><time>2026-03-22T13:01:52.024Z</time></trkpt><trkpt lat="16.2375299" lon="-61.3546693"><ele>6.5</ele><time>2026-03-22T13:01:53.027Z</time></trkpt><trkpt lat="16.2375797" lon="-61.3547227"><ele>6.666666666666667</ele><time>2026-03-22T13:01:55.023Z</time></trkpt><trkpt lat="16.2375993" lon="-61.3548263"><ele>6.833333333333334</ele><time>2026-03-22T13:01:58.041Z</time></trkpt><trkpt lat="16.2375644" lon="-61.3549019"><ele>7.0</ele><time>2026-03-22T13:01:59.027Z</time></trkpt><trkpt lat="16.2375053" lon="-61.3549772"><ele>7.0</ele><time>2026-03-22T13:02:00.011Z</time></trkpt><trkpt lat="16.2374286" lon="-61.3550489"><ele>7.0</ele><time>2026-03-22T13:02:01.034Z</time></trkpt><trkpt lat="16.2373548" lon="-61.3551503"><ele>7.0</ele><time>2026-03-22T13:02:02.03Z</time></trkpt><trkpt lat="16.237289" lon="-61.3552529"><ele>7.0</ele><time>2026-03-22T13:02:03.028Z</time></trkpt><trkpt lat="16.2372222" lon="-61.3553518"><ele>7.25</ele><time>2026-03-22T13:02:04.029Z</time></trkpt><trkpt lat="16.237157" lon="-61.3554587"><ele>7.5</ele><time>2026-03-22T13:02:05.028Z</time></trkpt><trkpt lat="16.2370996" lon="-61.3555672"><ele>7.75</ele><time>2026-03-22T13:02:06.031Z</time></trkpt><trkpt lat="16.2370458" lon="-61.3556699"><ele>8.0</ele><time>2026-03-22T13:02:07.017Z</time></trkpt><trkpt lat="16.236989" lon="-61.3557709"><ele>7.0</ele><time>2026-03-22T13:02:08.027Z</time></trkpt><trkpt lat="16.23693" lon="-61.3558822"><ele>6.0</ele><time>2026-03-22T13:02:09.03Z</time></trkpt><trkpt lat="16.236883" lon="-61.3559916"><ele>5.0</ele><time>2026-03-22T13:02:10.035Z</time></trkpt><trkpt lat="16.2368438" lon="-61.3561019"><ele>4.0</ele><time>2026-03-22T13:02:11.032Z</time></trkpt><trkpt lat="16.2368138" lon="-61.3562146"><ele>4.0</ele><time>2026-03-22T13:02:12.035Z</time></trkpt><trkpt lat="16.2368038" lon="-61.356322"><ele>4.0</ele><time>2026-03-22T13:02:13.034Z</time></trkpt><trkpt lat="16.2368164" lon="-61.3564293"><ele>4.0</ele><time>2026-03-22T13:02:14.026Z</time></trkpt><trkpt lat="16.2368418" lon="-61.3565377"><ele>4.0</ele><time>2026-03-22T13:02:15.029Z</time></trkpt><trkpt lat="16.2368744" lon="-61.3566432"><ele>4.0</ele><time>2026-03-22T13:02:16.032Z</time></trkpt><trkpt lat="16.2369048" lon="-61.3567446"><ele>4.2</ele><time>2026-03-22T13:02:17.016Z</time></trkpt><trkpt lat="16.2369285" lon="-61.3568467"><ele>4.4</ele><time>2026-03-22T13:02:18.03Z</time></trkpt><trkpt lat="16.2369508" lon="-61.356951"><ele>4.6</ele><time>2026-03-22T13:02:19.027Z</time></trkpt><trkpt lat="16.2369618" lon="-61.3570574"><ele>4.8</ele><time>2026-03-22T13:02:20.036Z</time></trkpt><trkpt lat="16.2369682" lon="-61.3571722"><ele>5.0</ele><time>2026-03-22T13:02:21.034Z</time></trkpt><trkpt lat="16.236961" lon="-61.3572922"><ele>5.0</ele><time>2026-03-22T13:02:22.019Z</time></trkpt><trkpt lat="16.236942" lon="-61.3574155"><ele>5.0</ele><time>2026-03-22T13:02:23.029Z</time></trkpt><trkpt lat="16.2369148" lon="-61.3575379"><ele>5.0</ele><time>2026-03-22T13:02:24.025Z</time></trkpt><trkpt lat="16.2368742" lon="-61.3576551"><ele>5.0</ele><time>2026-03-22T13:02:25.013Z</time></trkpt><trkpt lat="16.2368337" lon="-61.3577718"><ele>5.0</ele><time>2026-03-22T13:02:26.011Z</time></trkpt><trkpt lat="16.2367847" lon="-61.3578844"><ele>5.0</ele><time>2026-03-22T13:02:27.033Z</time></trkpt><trkpt lat="16.2367353" lon="-61.3579966"><ele>5.0</ele><time>2026-03-22T13:02:28.033Z</time></trkpt><trkpt lat="16.2366855" lon="-61.3581092"><ele>5.0</ele><time>2026-03-22T13:02:29.039Z</time></trkpt><trkpt lat="16.2366391" lon="-61.3582157"><ele>5.2</ele><time>2026-03-22T13:02:30.008Z</time></trkpt><trkpt lat="16.2365959" lon="-61.3583208"><ele>5.4</ele><time>2026-03-22T13:02:31.029Z</time></trkpt><trkpt lat="16.2365588" lon="-61.3584277"><ele>5.6</ele><time>2026-03-22T13:02:32.034Z</time></trkpt><trkpt lat="16.2365224" lon="-61.3585238"><ele>5.8</ele><time>2026-03-22T13:02:33.031Z</time></trkpt><trkpt lat="16.2364822" lon="-61.3586139"><ele>6.0</ele><time>2026-03-22T13:02:34.026Z</time></trkpt><trkpt lat="16.2364463" lon="-61.3587109"><ele>5.6</ele><time>2026-03-22T13:02:35.031Z</time></trkpt><trkpt lat="16.2364168" lon="-61.3588167"><ele>5.199999999999999</ele><time>2026-03-22T13:02:36.025Z</time></trkpt><trkpt lat="16.2363944" lon="-61.3589268"><ele>4.800000000000001</ele><time>2026-03-22T13:02:37.022Z</time></trkpt><trkpt lat="16.23639" lon="-61.3590349"><ele>4.4</ele><time>2026-03-22T13:02:38.03Z</time></trkpt><trkpt lat="16.2364033" lon="-61.3591473"><ele>4.0</ele><time>2026-03-22T13:02:39.027Z</time></trkpt><trkpt lat="16.2364292" lon="-61.3592519"><ele>4.0</ele><time>2026-03-22T13:02:40.031Z</time></trkpt><trkpt lat="16.2364522" lon="-61.3593648"><ele>4.0</ele><time>2026-03-22T13:02:41.027Z</time></trkpt><trkpt lat="16.2364831" lon="-61.3594729"><ele>4.0</ele><time>2026-03-22T13:02:42.03Z</time></trkpt><trkpt lat="16.2365103" lon="-61.3595777"><ele>4.0</ele><time>2026-03-22T13:02:43.033Z</time></trkpt><trkpt lat="16.2365372" lon="-61.3596798"><ele>4.0</ele><time>2026-03-22T13:02:44.03Z</time></trkpt><trkpt lat="16.2365704" lon="-61.3597871"><ele>4.5</ele><time>2026-03-22T13:02:44.994Z</time></trkpt><trkpt lat="16.2365994" lon="-61.3598906"><ele>5.0</ele><time>2026-03-22T13:02:46.003Z</time></trkpt><trkpt lat="16.2366263" lon="-61.3599757"><ele>5.5</ele><time>2026-03-22T13:02:47.023Z</time></trkpt><trkpt lat="16.2366506" lon="-61.3600496"><ele>6.0</ele><time>2026-03-22T13:02:48.034Z</time></trkpt><trkpt lat="16.2366765" lon="-61.360124"><ele>6.500000000000001</ele><time>2026-03-22T13:02:49.022Z</time></trkpt><trkpt lat="16.2366997" lon="-61.3602003"><ele>7.0</ele><time>2026-03-22T13:02:50.023Z</time></trkpt><trkpt lat="16.2367182" lon="-61.360267"><ele>7.000000000000001</ele><time>2026-03-22T13:02:51.034Z</time></trkpt><trkpt lat="16.2367513" lon="-61.3603391"><ele>7.0</ele><time>2026-03-22T13:02:53.035Z</time></trkpt><trkpt lat="16.2368081" lon="-61.3603713"><ele>7.0</ele><time>2026-03-22T13:02:56.02Z</time></trkpt><trkpt lat="16.2368735" lon="-61.3603106"><ele>7.0</ele><time>2026-03-22T13:02:58.037Z</time></trkpt><trkpt lat="16.2369067" lon="-61.3602515"><ele>7.000000000000001</ele><time>2026-03-22T13:02:59.026Z</time></trkpt><trkpt lat="16.2369466" lon="-61.3601885"><ele>7.0</ele><time>2026-03-22T13:03:00.036Z</time></trkpt><trkpt lat="16.2369871" lon="-61.3601048"><ele>7.000000000000001</ele><time>2026-03-22T13:03:01.032Z</time></trkpt><trkpt lat="16.2370355" lon="-61.3600399"><ele>7.0</ele><time>2026-03-22T13:03:02.026Z</time></trkpt><trkpt lat="16.2370931" lon="-61.3599935"><ele>7.0</ele><time>2026-03-22T13:03:03.033Z</time></trkpt><trkpt lat="16.2371684" lon="-61.3599605"><ele>7.0</ele><time>2026-03-22T13:03:04.042Z</time></trkpt><trkpt lat="16.2372476" lon="-61.3599274"><ele>7.000000000000001</ele><time>2026-03-22T13:03:05.019Z</time></trkpt><trkpt lat="16.2373129" lon="-61.3598828"><ele>7.0</ele><time>2026-03-22T13:03:06.03Z</time></trkpt><trkpt lat="16.2373551" lon="-61.3598086"><ele>7.666666666666667</ele><time>2026-03-22T13:03:07.032Z</time></trkpt><trkpt lat="16.2373827" lon="-61.3597323"><ele>8.333333333333334</ele><time>2026-03-22T13:03:08.034Z</time></trkpt><trkpt lat="16.2374079" lon="-61.3596587"><ele>9.0</ele><time>2026-03-22T13:03:09.033Z</time></trkpt><trkpt lat="16.2374324" lon="-61.3595798"><ele>9.666666666666666</ele><time>2026-03-22T13:03:10.041Z</time></trkpt><trkpt lat="16.2374548" lon="-61.359499"><ele>10.333333333333332</ele><time>2026-03-22T13:03:11.028Z</time></trkpt><trkpt lat="16.2374701" lon="-61.3594182"><ele>11.0</ele><time>2026-03-22T13:03:12.048Z</time></trkpt><trkpt lat="16.2374902" lon="-61.3593437"><ele>11.166666666666666</ele><time>2026-03-22T13:03:13.028Z</time></trkpt><trkpt lat="16.2375127" lon="-61.3592758"><ele>11.333333333333332</ele><time>2026-03-22T13:03:14.005Z</time></trkpt><trkpt lat="16.2375318" lon="-61.3592128"><ele>11.5</ele><time>2026-03-22T13:03:15.03Z</time></trkpt><trkpt lat="16.2375777" lon="-61.3591083"><ele>11.666666666666666</ele><time>2026-03-22T13:03:17.03Z</time></trkpt><trkpt lat="16.2376275" lon="-61.3590426"><ele>11.833333333333334</ele><time>2026-03-22T13:03:19.039Z</time></trkpt><trkpt lat="16.2377135" lon="-61.3589907"><ele>12.0</ele><time>2026-03-22T13:03:20.998Z</time></trkpt><trkpt lat="16.2378237" lon="-61.3589727"><ele>12.0</ele><time>2026-03-22T13:03:23.042Z</time></trkpt><trkpt lat="16.2379443" lon="-61.3589888"><ele>12.0</ele><time>2026-03-22T13:03:25.032Z</time></trkpt><trkpt lat="16.2380535" lon="-61.3590369"><ele>12.0</ele><time>2026-03-22T13:03:27.034Z</time></trkpt><trkpt lat="16.2381575" lon="-61.3590789"><ele>12.0</ele><time>2026-03-22T13:03:29.034Z</time></trkpt><trkpt lat="16.2382864" lon="-61.359106"><ele>12.714285714285714</ele><time>2026-03-22T13:03:31.041Z</time></trkpt><trkpt lat="16.2383546" lon="-61.3591207"><ele>13.428571428571427</ele><time>2026-03-22T13:03:32.039Z</time></trkpt><trkpt lat="16.2384216" lon="-61.3591413"><ele>14.142857142857142</ele><time>2026-03-22T13:03:33.042Z</time></trkpt><trkpt lat="16.2384882" lon="-61.3591633"><ele>14.857142857142856</ele><time>2026-03-22T13:03:34.028Z</time></trkpt><trkpt lat="16.2385555" lon="-61.3591819"><ele>15.571428571428571</ele><time>2026-03-22T13:03:35.03Z</time></trkpt><trkpt lat="16.2386258" lon="-61.3592041"><ele>16.285714285714285</ele><time>2026-03-22T13:03:36.039Z</time></trkpt><trkpt lat="16.2386937" lon="-61.3592224"><ele>17.0</ele><time>2026-03-22T13:03:37.028Z</time></trkpt><trkpt lat="16.2387599" lon="-61.3592319"><ele>16.999999999999996</ele><time>2026-03-22T13:03:38.014Z</time></trkpt><trkpt lat="16.2388256" lon="-61.3592483"><ele>17.0</ele><time>2026-03-22T13:03:38.995Z</time></trkpt><trkpt lat="16.2388967" lon="-61.3592597"><ele>17.0</ele><time>2026-03-22T13:03:40.031Z</time></trkpt><trkpt lat="16.2389671" lon="-61.3592752"><ele>17.0</ele><time>2026-03-22T13:03:41.036Z</time></trkpt><trkpt lat="16.239028" lon="-61.3592924"><ele>17.0</ele><time>2026-03-22T13:03:42.033Z</time></trkpt><trkpt lat="16.2390954" lon="-61.3593099"><ele>16.999999999999996</ele><time>2026-03-22T13:03:43.011Z</time></trkpt><trkpt lat="16.2391593" lon="-61.3593288"><ele>17.0</ele><time>2026-03-22T13:03:44.024Z</time></trkpt><trkpt lat="16.2392857" lon="-61.3593632"><ele>18.142857142857142</ele><time>2026-03-22T13:03:46.035Z</time></trkpt><trkpt lat="16.2393497" lon="-61.3593742"><ele>19.285714285714285</ele><time>2026-03-22T13:03:47.034Z</time></trkpt><trkpt lat="16.2394201" lon="-61.3593861"><ele>20.42857142857143</ele><time>2026-03-22T13:03:48.041Z</time></trkpt><trkpt lat="16.2394828" lon="-61.3593968"><ele>21.57142857142857</ele><time>2026-03-22T13:03:49.025Z</time></trkpt><trkpt lat="16.2395504" lon="-61.3593949"><ele>22.714285714285715</ele><time>2026-03-22T13:03:51.02Z</time></trkpt><trkpt lat="16.2396253" lon="-61.3593249"><ele>23.857142857142858</ele><time>2026-03-22T13:03:54.067Z</time></trkpt><trkpt lat="16.2396482" lon="-61.3592617"><ele>25.0</ele><time>2026-03-22T13:03:55.017Z</time></trkpt><trkpt lat="16.2396693" lon="-61.3591946"><ele>25.000000000000004</ele><time>2026-03-22T13:03:56.033Z</time></trkpt><trkpt lat="16.2396812" lon="-61.3591281"><ele>25.0</ele><time>2026-03-22T13:03:57.035Z</time></trkpt><trkpt lat="16.2396939" lon="-61.3590629"><ele>25.0</ele><time>2026-03-22T13:03:58.028Z</time></trkpt><trkpt lat="16.2397186" lon="-61.3589295"><ele>25.0</ele><time>2026-03-22T13:04:00.006Z</time></trkpt><trkpt lat="16.239729" lon="-61.3588577"><ele>25.000000000000004</ele><time>2026-03-22T13:04:01.01Z</time></trkpt><trkpt lat="16.2397411" lon="-61.3587857"><ele>25.0</ele><time>2026-03-22T13:04:01.983Z</time></trkpt><trkpt lat="16.239751" lon="-61.3587205"><ele>25.0</ele><time>2026-03-22T13:04:03.051Z</time></trkpt><trkpt lat="16.2397886" lon="-61.358618"><ele>25.0</ele><time>2026-03-22T13:04:04.993Z</time></trkpt><trkpt lat="16.2398136" lon="-61.3584945"><ele>25.0</ele><time>2026-03-22T13:04:06.991Z</time></trkpt><trkpt lat="16.239825" lon="-61.3583838"><ele>25.0</ele><time>2026-03-22T13:04:08.993Z</time></trkpt><trkpt lat="16.2398428" lon="-61.3582995"><ele>25.0</ele><time>2026-03-22T13:04:12.009Z</time></trkpt><trkpt lat="16.2398482" lon="-61.3582112"><ele>24.833333333333336</ele><time>2026-03-22T13:04:13.999Z</time></trkpt><trkpt lat="16.2398641" lon="-61.3580964"><ele>24.666666666666668</ele><time>2026-03-22T13:04:15.988Z</time></trkpt><trkpt lat="16.2398803" lon="-61.3580023"><ele>24.5</ele><time>2026-03-22T13:04:17.998Z</time></trkpt><trkpt lat="16.2399137" lon="-61.3579193"><ele>24.333333333333336</ele><time>2026-03-22T13:04:20.994Z</time></trkpt><trkpt lat="16.2399305" lon="-61.3578521"><ele>24.166666666666668</ele><time>2026-03-22T13:04:22.992Z</time></trkpt><trkpt lat="16.2399512" lon="-61.3577877"><ele>24.0</ele><time>2026-03-22T13:04:24.999Z</time></trkpt><trkpt lat="16.2399791" lon="-61.3576912"><ele>24.0</ele><time>2026-03-22T13:04:27.982Z</time></trkpt><trkpt lat="16.2400099" lon="-61.3576279"><ele>24.0</ele><time>2026-03-22T13:04:29.994Z</time></trkpt><trkpt lat="16.2400335" lon="-61.3575468"><ele>24.0</ele><time>2026-03-22T13:04:31.989Z</time></trkpt><trkpt lat="16.24005" lon="-61.3574666"><ele>24.0</ele><time>2026-03-22T13:04:33.99Z</time></trkpt><trkpt lat="16.2400735" lon="-61.3573826"><ele>24.0</ele><time>2026-03-22T13:04:35.996Z</time></trkpt><trkpt lat="16.2400876" lon="-61.3573058"><ele>24.0</ele><time>2026-03-22T13:04:37.991Z</time></trkpt><trkpt lat="16.2400945" lon="-61.3572363"><ele>23.857142857142854</ele><time>2026-03-22T13:04:39.992Z</time></trkpt><trkpt lat="16.240099" lon="-61.3571631"><ele>23.714285714285715</ele><time>2026-03-22T13:04:43.061Z</time></trkpt><trkpt lat="16.2401169" lon="-61.3570897"><ele>23.57142857142857</ele><time>2026-03-22T13:04:45.993Z</time></trkpt><trkpt lat="16.2401634" lon="-61.3570427"><ele>23.428571428571427</ele><time>2026-03-22T13:04:51.986Z</time></trkpt><trkpt lat="16.2401966" lon="-61.3569859"><ele>23.285714285714285</ele><time>2026-03-22T13:05:09.99Z</time></trkpt><trkpt lat="16.2402045" lon="-61.3569066"><ele>23.142857142857142</ele><time>2026-03-22T13:05:11.996Z</time></trkpt><trkpt lat="16.2402079" lon="-61.3568036"><ele>23.0</ele><time>2026-03-22T13:05:13.984Z</time></trkpt><trkpt lat="16.2402051" lon="-61.3566814"><ele>23.0</ele><time>2026-03-22T13:05:15.961Z</time></trkpt><trkpt lat="16.2402057" lon="-61.3566145"><ele>23.0</ele><time>2026-03-22T13:05:16.988Z</time></trkpt><trkpt lat="16.2402062" lon="-61.3564888"><ele>23.0</ele><time>2026-03-22T13:05:19.005Z</time></trkpt><trkpt lat="16.2402258" lon="-61.3563973"><ele>23.0</ele><time>2026-03-22T13:05:20.987Z</time></trkpt><trkpt lat="16.2402586" lon="-61.3562982"><ele>23.0</ele><time>2026-03-22T13:05:22.983Z</time></trkpt><trkpt lat="16.2402906" lon="-61.3561752"><ele>23.333333333333336</ele><time>2026-03-22T13:05:24.978Z</time></trkpt><trkpt lat="16.2403037" lon="-61.3561103"><ele>23.666666666666668</ele><time>2026-03-22T13:05:25.987Z</time></trkpt><trkpt lat="16.2403203" lon="-61.3560445"><ele>24.0</ele><time>2026-03-22T13:05:26.991Z</time></trkpt><trkpt lat="16.2403512" lon="-61.3559251"><ele>24.333333333333336</ele><time>2026-03-22T13:05:28.976Z</time></trkpt><trkpt lat="16.2403708" lon="-61.3558591"><ele>24.666666666666668</ele><time>2026-03-22T13:05:29.99Z</time></trkpt><trkpt lat="16.2403846" lon="-61.3557863"><ele>25.0</ele><time>2026-03-22T13:05:30.978Z</time></trkpt><trkpt lat="16.2403949" lon="-61.3557181"><ele>25.0</ele><time>2026-03-22T13:05:31.99Z</time></trkpt><trkpt lat="16.2403992" lon="-61.3555896"><ele>25.0</ele><time>2026-03-22T13:05:33.996Z</time></trkpt><trkpt lat="16.2404081" lon="-61.3555226"><ele>25.0</ele><time>2026-03-22T13:05:34.991Z</time></trkpt><trkpt lat="16.2404243" lon="-61.3553817"><ele>25.0</ele><time>2026-03-22T13:05:36.988Z</time></trkpt><trkpt lat="16.2404124" lon="-61.3553104"><ele>25.0</ele><time>2026-03-22T13:05:37.951Z</time></trkpt><trkpt lat="16.240406" lon="-61.3552382"><ele>25.166666666666668</ele><time>2026-03-22T13:05:38.993Z</time></trkpt><trkpt lat="16.2403939" lon="-61.3551605"><ele>25.333333333333336</ele><time>2026-03-22T13:05:39.995Z</time></trkpt><trkpt lat="16.2403896" lon="-61.3550835"><ele>25.5</ele><time>2026-03-22T13:05:40.993Z</time></trkpt><trkpt lat="16.2403852" lon="-61.3549975"><ele>25.666666666666664</ele><time>2026-03-22T13:05:41.986Z</time></trkpt><trkpt lat="16.2403852" lon="-61.3549105"><ele>25.833333333333332</ele><time>2026-03-22T13:05:42.964Z</time></trkpt><trkpt lat="16.2403925" lon="-61.3548193"><ele>26.0</ele><time>2026-03-22T13:05:43.986Z</time></trkpt><trkpt lat="16.240409" lon="-61.3547236"><ele>25.833333333333332</ele><time>2026-03-22T13:05:44.968Z</time></trkpt><trkpt lat="16.2404183" lon="-61.354637"><ele>25.666666666666664</ele><time>2026-03-22T13:05:45.986Z</time></trkpt><trkpt lat="16.2404259" lon="-61.3545437"><ele>25.5</ele><time>2026-03-22T13:05:46.994Z</time></trkpt><trkpt lat="16.2404347" lon="-61.3544529"><ele>25.333333333333336</ele><time>2026-03-22T13:05:48Z</time></trkpt><trkpt lat="16.2404491" lon="-61.3543582"><ele>25.166666666666668</ele><time>2026-03-22T13:05:49.001Z</time></trkpt><trkpt lat="16.2404693" lon="-61.3542715"><ele>25.0</ele><time>2026-03-22T13:05:49.992Z</time></trkpt><trkpt lat="16.2404868" lon="-61.3541941"><ele>25.0</ele><time>2026-03-22T13:05:50.986Z</time></trkpt><trkpt lat="16.2405102" lon="-61.3540692"><ele>25.0</ele><time>2026-03-22T13:05:52.985Z</time></trkpt><trkpt lat="16.2405182" lon="-61.3539439"><ele>25.0</ele><time>2026-03-22T13:05:54.998Z</time></trkpt><trkpt lat="16.2405186" lon="-61.3538751"><ele>25.0</ele><time>2026-03-22T13:05:55.996Z</time></trkpt><trkpt lat="16.2405039" lon="-61.3537527"><ele>25.0</ele><time>2026-03-22T13:05:57.985Z</time></trkpt><trkpt lat="16.2404962" lon="-61.3536339"><ele>24.000000000000004</ele><time>2026-03-22T13:05:59.998Z</time></trkpt><trkpt lat="16.2404968" lon="-61.3535672"><ele>23.0</ele><time>2026-03-22T13:06:00.982Z</time></trkpt><trkpt lat="16.2404971" lon="-61.3535008"><ele>22.0</ele><time>2026-03-22T13:06:01.985Z</time></trkpt><trkpt lat="16.2405046" lon="-61.3534308"><ele>21.0</ele><time>2026-03-22T13:06:02.999Z</time></trkpt><trkpt lat="16.2405361" lon="-61.3533035"><ele>20.0</ele><time>2026-03-22T13:06:04.994Z</time></trkpt><trkpt lat="16.2405478" lon="-61.3532337"><ele>19.0</ele><time>2026-03-22T13:06:05.983Z</time></trkpt><trkpt lat="16.2405458" lon="-61.3531656"><ele>19.0</ele><time>2026-03-22T13:06:06.988Z</time></trkpt><trkpt lat="16.2405292" lon="-61.3530968"><ele>19.0</ele><time>2026-03-22T13:06:07.996Z</time></trkpt><trkpt lat="16.2405017" lon="-61.3530336"><ele>19.0</ele><time>2026-03-22T13:06:09.005Z</time></trkpt><trkpt lat="16.2404472" lon="-61.3529325"><ele>19.0</ele><time>2026-03-22T13:06:11.001Z</time></trkpt><trkpt lat="16.2404329" lon="-61.3528682"><ele>19.0</ele><time>2026-03-22T13:06:12.985Z</time></trkpt><trkpt lat="16.2404941" lon="-61.3527908"><ele>19.0</ele><time>2026-03-22T13:06:15.988Z</time></trkpt><trkpt lat="16.2405422" lon="-61.352743"><ele>19.5</ele><time>2026-03-22T13:06:17.001Z</time></trkpt><trkpt lat="16.2405923" lon="-61.3526886"><ele>20.0</ele><time>2026-03-22T13:06:17.991Z</time></trkpt><trkpt lat="16.240638" lon="-61.3526317"><ele>20.5</ele><time>2026-03-22T13:06:18.994Z</time></trkpt><trkpt lat="16.2406853" lon="-61.352575"><ele>21.0</ele><time>2026-03-22T13:06:19.983Z</time></trkpt><trkpt lat="16.24074" lon="-61.3525197"><ele>21.5</ele><time>2026-03-22T13:06:20.999Z</time></trkpt><trkpt lat="16.2408004" lon="-61.3524558"><ele>22.0</ele><time>2026-03-22T13:06:21.975Z</time></trkpt><trkpt lat="16.240861" lon="-61.3523807"><ele>22.166666666666664</ele><time>2026-03-22T13:06:22.997Z</time></trkpt><trkpt lat="16.2409196" lon="-61.3523099"><ele>22.333333333333332</ele><time>2026-03-22T13:06:23.999Z</time></trkpt><trkpt lat="16.2409708" lon="-61.3522324"><ele>22.5</ele><time>2026-03-22T13:06:24.996Z</time></trkpt><trkpt lat="16.2410214" lon="-61.3521614"><ele>22.666666666666668</ele><time>2026-03-22T13:06:25.987Z</time></trkpt><trkpt lat="16.2410746" lon="-61.3520889"><ele>22.833333333333336</ele><time>2026-03-22T13:06:26.996Z</time></trkpt><trkpt lat="16.2411235" lon="-61.3520217"><ele>23.0</ele><time>2026-03-22T13:06:27.996Z</time></trkpt><trkpt lat="16.2411713" lon="-61.3519713"><ele>23.5</ele><time>2026-03-22T13:06:28.991Z</time></trkpt><trkpt lat="16.2412664" lon="-61.3519243"><ele>24.0</ele><time>2026-03-22T13:06:30.995Z</time></trkpt><trkpt lat="16.2413289" lon="-61.3519324"><ele>24.5</ele><time>2026-03-22T13:06:31.992Z</time></trkpt><trkpt lat="16.2414017" lon="-61.3519574"><ele>25.0</ele><time>2026-03-22T13:06:32.993Z</time></trkpt><trkpt lat="16.2414756" lon="-61.3519798"><ele>25.499999999999996</ele><time>2026-03-22T13:06:33.997Z</time></trkpt><trkpt lat="16.2415477" lon="-61.352"><ele>26.0</ele><time>2026-03-22T13:06:34.989Z</time></trkpt><trkpt lat="16.2416189" lon="-61.3520185"><ele>26.8</ele><time>2026-03-22T13:06:35.989Z</time></trkpt><trkpt lat="16.2416852" lon="-61.3520226"><ele>27.6</ele><time>2026-03-22T13:06:36.984Z</time></trkpt><trkpt lat="16.2417509" lon="-61.3520226"><ele>28.4</ele><time>2026-03-22T13:06:37.989Z</time></trkpt><trkpt lat="16.2418523" lon="-61.3519526"><ele>29.2</ele><time>2026-03-22T13:06:39.994Z</time></trkpt><trkpt lat="16.2419" lon="-61.3518681"><ele>30.0</ele><time>2026-03-22T13:06:40.988Z</time></trkpt><trkpt lat="16.2419647" lon="-61.3517693"><ele>30.0</ele><time>2026-03-22T13:06:41.991Z</time></trkpt><trkpt lat="16.2420382" lon="-61.3516736"><ele>30.0</ele><time>2026-03-22T13:06:42.988Z</time></trkpt><trkpt lat="16.2421251" lon="-61.3515933"><ele>30.0</ele><time>2026-03-22T13:06:44.004Z</time></trkpt><trkpt lat="16.2422147" lon="-61.3515275"><ele>30.0</ele><time>2026-03-22T13:06:44.994Z</time></trkpt><trkpt lat="16.242298" lon="-61.3514717"><ele>30.0</ele><time>2026-03-22T13:06:45.993Z</time></trkpt><trkpt lat="16.2423855" lon="-61.3514306"><ele>30.0</ele><time>2026-03-22T13:06:46.997Z</time></trkpt><trkpt lat="16.2424838" lon="-61.3514059"><ele>30.0</ele><time>2026-03-22T13:06:47.989Z</time></trkpt><trkpt lat="16.2425841" lon="-61.3513918"><ele>30.0</ele><time>2026-03-22T13:06:48.987Z</time></trkpt><trkpt lat="16.2426769" lon="-61.3513875"><ele>30.0</ele><time>2026-03-22T13:06:49.988Z</time></trkpt><trkpt lat="16.2427616" lon="-61.3513772"><ele>30.0</ele><time>2026-03-22T13:06:50.979Z</time></trkpt><trkpt lat="16.2428408" lon="-61.3513724"><ele>30.0</ele><time>2026-03-22T13:06:51.99Z</time></trkpt><trkpt lat="16.2429201" lon="-61.3513871"><ele>30.0</ele><time>2026-03-22T13:06:52.994Z</time></trkpt><trkpt lat="16.243001" lon="-61.3514204"><ele>30.0</ele><time>2026-03-22T13:06:53.988Z</time></trkpt><trkpt lat="16.243068" lon="-61.3514747"><ele>30.0</ele><time>2026-03-22T13:06:55Z</time></trkpt><trkpt lat="16.2431353" lon="-61.3515342"><ele>30.0</ele><time>2026-03-22T13:06:55.996Z</time></trkpt><trkpt lat="16.2432055" lon="-61.3515929"><ele>30.0</ele><time>2026-03-22T13:06:56.991Z</time></trkpt><trkpt lat="16.243272" lon="-61.3516444"><ele>30.0</ele><time>2026-03-22T13:06:57.996Z</time></trkpt><trkpt lat="16.2433379" lon="-61.3517032"><ele>30.0</ele><time>2026-03-22T13:06:58.993Z</time></trkpt><trkpt lat="16.2433988" lon="-61.351761"><ele>30.0</ele><time>2026-03-22T13:06:59.986Z</time></trkpt><trkpt lat="16.2434645" lon="-61.3518248"><ele>30.0</ele><time>2026-03-22T13:07:00.988Z</time></trkpt><trkpt lat="16.2435316" lon="-61.3518956"><ele>30.0</ele><time>2026-03-22T13:07:01.995Z</time></trkpt><trkpt lat="16.2436004" lon="-61.3519719"><ele>30.0</ele><time>2026-03-22T13:07:02.996Z</time></trkpt><trkpt lat="16.2436722" lon="-61.3520459"><ele>30.0</ele><time>2026-03-22T13:07:03.996Z</time></trkpt><trkpt lat="16.2437333" lon="-61.3521216"><ele>30.0</ele><time>2026-03-22T13:07:05.003Z</time></trkpt><trkpt lat="16.2437898" lon="-61.3522008"><ele>30.0</ele><time>2026-03-22T13:07:06.007Z</time></trkpt><trkpt lat="16.243839" lon="-61.3522842"><ele>30.0</ele><time>2026-03-22T13:07:06.992Z</time></trkpt><trkpt lat="16.2438887" lon="-61.352373"><ele>30.2</ele><time>2026-03-22T13:07:08.006Z</time></trkpt><trkpt lat="16.2439407" lon="-61.3524645"><ele>30.4</ele><time>2026-03-22T13:07:08.992Z</time></trkpt><trkpt lat="16.2439963" lon="-61.3525657"><ele>30.6</ele><time>2026-03-22T13:07:10.002Z</time></trkpt><trkpt lat="16.2440597" lon="-61.3526648"><ele>30.8</ele><time>2026-03-22T13:07:10.987Z</time></trkpt><trkpt lat="16.2441343" lon="-61.3527614"><ele>31.0</ele><time>2026-03-22T13:07:11.988Z</time></trkpt><trkpt lat="16.2442099" lon="-61.3528518"><ele>31.0</ele><time>2026-03-22T13:07:12.996Z</time></trkpt><trkpt lat="16.2442834" lon="-61.3529327"><ele>31.0</ele><time>2026-03-22T13:07:13.996Z</time></trkpt><trkpt lat="16.2443585" lon="-61.3530159"><ele>31.0</ele><time>2026-03-22T13:07:14.976Z</time></trkpt><trkpt lat="16.2444332" lon="-61.353101"><ele>31.0</ele><time>2026-03-22T13:07:15.975Z</time></trkpt><trkpt lat="16.2445117" lon="-61.353188"><ele>31.0</ele><time>2026-03-22T13:07:16.995Z</time></trkpt><trkpt lat="16.2445924" lon="-61.3532755"><ele>30.75</ele><time>2026-03-22T13:07:17.994Z</time></trkpt><trkpt lat="16.244675" lon="-61.3533642"><ele>30.5</ele><time>2026-03-22T13:07:18.99Z</time></trkpt><trkpt lat="16.2447573" lon="-61.3534522"><ele>30.25</ele><time>2026-03-22T13:07:20Z</time></trkpt><trkpt lat="16.2448409" lon="-61.3535391"><ele>30.0</ele><time>2026-03-22T13:07:21.003Z</time></trkpt><trkpt lat="16.2449224" lon="-61.3536288"><ele>30.0</ele><time>2026-03-22T13:07:21.999Z</time></trkpt><trkpt lat="16.2450019" lon="-61.3537214"><ele>30.0</ele><time>2026-03-22T13:07:22.995Z</time></trkpt><trkpt lat="16.2450822" lon="-61.3538076"><ele>30.0</ele><time>2026-03-22T13:07:23.994Z</time></trkpt><trkpt lat="16.2451617" lon="-61.353896"><ele>30.0</ele><time>2026-03-22T13:07:24.991Z</time></trkpt><trkpt lat="16.2452419" lon="-61.3539807"><ele>29.5</ele><time>2026-03-22T13:07:25.997Z</time></trkpt><trkpt lat="16.2453229" lon="-61.3540676"><ele>29.0</ele><time>2026-03-22T13:07:26.992Z</time></trkpt><trkpt lat="16.2454013" lon="-61.3541511"><ele>28.5</ele><time>2026-03-22T13:07:27.996Z</time></trkpt><trkpt lat="16.2454802" lon="-61.3542375"><ele>28.0</ele><time>2026-03-22T13:07:28.997Z</time></trkpt><trkpt lat="16.2455515" lon="-61.3543301"><ele>28.0</ele><time>2026-03-22T13:07:29.993Z</time></trkpt><trkpt lat="16.2456148" lon="-61.3544273"><ele>28.0</ele><time>2026-03-22T13:07:30.992Z</time></trkpt><trkpt lat="16.2456741" lon="-61.3545278"><ele>28.0</ele><time>2026-03-22T13:07:31.987Z</time></trkpt><trkpt lat="16.2457297" lon="-61.3546392"><ele>28.0</ele><time>2026-03-22T13:07:32.996Z</time></trkpt><trkpt lat="16.2457786" lon="-61.3547497"><ele>29.5</ele><time>2026-03-22T13:07:33.994Z</time></trkpt><trkpt lat="16.2458221" lon="-61.3548637"><ele>31.0</ele><time>2026-03-22T13:07:35.005Z</time></trkpt><trkpt lat="16.2458691" lon="-61.3549773"><ele>32.5</ele><time>2026-03-22T13:07:35.999Z</time></trkpt><trkpt lat="16.2459155" lon="-61.3550925"><ele>34.0</ele><time>2026-03-22T13:07:37.003Z</time></trkpt><trkpt lat="16.2459566" lon="-61.3552138"><ele>34.0</ele><time>2026-03-22T13:07:37.993Z</time></trkpt><trkpt lat="16.2459897" lon="-61.3553336"><ele>34.0</ele><time>2026-03-22T13:07:38.998Z</time></trkpt><trkpt lat="16.246028" lon="-61.3554438"><ele>34.0</ele><time>2026-03-22T13:07:39.996Z</time></trkpt><trkpt lat="16.2460727" lon="-61.355558"><ele>34.0</ele><time>2026-03-22T13:07:40.986Z</time></trkpt><trkpt lat="16.246129" lon="-61.3556683"><ele>33.5</ele><time>2026-03-22T13:07:41.996Z</time></trkpt><trkpt lat="16.2461847" lon="-61.3557745"><ele>33.0</ele><time>2026-03-22T13:07:42.998Z</time></trkpt><trkpt lat="16.2462434" lon="-61.355874"><ele>32.5</ele><time>2026-03-22T13:07:43.999Z</time></trkpt><trkpt lat="16.2463051" lon="-61.3559662"><ele>32.0</ele><time>2026-03-22T13:07:45.001Z</time></trkpt><trkpt lat="16.2463734" lon="-61.3560676"><ele>32.0</ele><time>2026-03-22T13:07:45.996Z</time></trkpt><trkpt lat="16.2464484" lon="-61.3561655"><ele>32.0</ele><time>2026-03-22T13:07:47.001Z</time></trkpt><trkpt lat="16.2465181" lon="-61.3562648"><ele>32.0</ele><time>2026-03-22T13:07:47.993Z</time></trkpt><trkpt lat="16.2465884" lon="-61.3563607"><ele>32.0</ele><time>2026-03-22T13:07:48.989Z</time></trkpt><trkpt lat="16.2466641" lon="-61.3564486"><ele>31.400000000000002</ele><time>2026-03-22T13:07:50.002Z</time></trkpt><trkpt lat="16.2467419" lon="-61.3565303"><ele>30.800000000000004</ele><time>2026-03-22T13:07:50.983Z</time></trkpt><trkpt lat="16.2468244" lon="-61.3566075"><ele>30.2</ele><time>2026-03-22T13:07:51.994Z</time></trkpt><trkpt lat="16.2469083" lon="-61.356685"><ele>29.6</ele><time>2026-03-22T13:07:52.994Z</time></trkpt><trkpt lat="16.2469908" lon="-61.3567572"><ele>29.0</ele><time>2026-03-22T13:07:53.984Z</time></trkpt><trkpt lat="16.2470755" lon="-61.3568343"><ele>29.0</ele><time>2026-03-22T13:07:55.007Z</time></trkpt><trkpt lat="16.2471632" lon="-61.3569141"><ele>29.0</ele><time>2026-03-22T13:07:55.993Z</time></trkpt><trkpt lat="16.247254" lon="-61.3569907"><ele>29.0</ele><time>2026-03-22T13:07:56.999Z</time></trkpt><trkpt lat="16.2473413" lon="-61.357066"><ele>29.0</ele><time>2026-03-22T13:07:57.987Z</time></trkpt><trkpt lat="16.2474272" lon="-61.357141"><ele>29.0</ele><time>2026-03-22T13:07:58.99Z</time></trkpt><trkpt lat="16.2475159" lon="-61.3572161"><ele>29.0</ele><time>2026-03-22T13:08:00.003Z</time></trkpt><trkpt lat="16.2476223" lon="-61.3573074"><ele>29.0</ele><time>2026-03-22T13:08:00.999Z</time></trkpt><trkpt lat="16.2477266" lon="-61.3574244"><ele>29.0</ele><time>2026-03-22T13:08:01.987Z</time></trkpt><trkpt lat="16.2478264" lon="-61.3575759"><ele>29.0</ele><time>2026-03-22T13:08:03.002Z</time></trkpt><trkpt lat="16.2479031" lon="-61.3577245"><ele>29.0</ele><time>2026-03-22T13:08:03.995Z</time></trkpt><trkpt lat="16.2479657" lon="-61.35787"><ele>29.0</ele><time>2026-03-22T13:08:04.992Z</time></trkpt><trkpt lat="16.2480252" lon="-61.3580111"><ele>28.75</ele><time>2026-03-22T13:08:05.996Z</time></trkpt><trkpt lat="16.2480857" lon="-61.3581486"><ele>28.5</ele><time>2026-03-22T13:08:07.002Z</time></trkpt><trkpt lat="16.248145" lon="-61.3582894"><ele>28.25</ele><time>2026-03-22T13:08:08.002Z</time></trkpt><trkpt lat="16.2481998" lon="-61.3584277"><ele>28.0</ele><time>2026-03-22T13:08:08.993Z</time></trkpt><trkpt lat="16.2482579" lon="-61.3585502"><ele>27.0</ele><time>2026-03-22T13:08:09.997Z</time></trkpt><trkpt lat="16.2483203" lon="-61.3586457"><ele>25.999999999999996</ele><time>2026-03-22T13:08:10.999Z</time></trkpt><trkpt lat="16.2483821" lon="-61.3587254"><ele>25.0</ele><time>2026-03-22T13:08:11.994Z</time></trkpt><trkpt lat="16.2484491" lon="-61.3587923"><ele>24.0</ele><time>2026-03-22T13:08:12.988Z</time></trkpt><trkpt lat="16.2485184" lon="-61.358823"><ele>23.0</ele><time>2026-03-22T13:08:13.999Z</time></trkpt><trkpt lat="16.2485895" lon="-61.3588383"><ele>23.0</ele><time>2026-03-22T13:08:14.998Z</time></trkpt><trkpt lat="16.2486715" lon="-61.3588411"><ele>23.0</ele><time>2026-03-22T13:08:15.991Z</time></trkpt><trkpt lat="16.2487476" lon="-61.3588154"><ele>23.0</ele><time>2026-03-22T13:08:17.002Z</time></trkpt><trkpt lat="16.2488053" lon="-61.358767"><ele>23.0</ele><time>2026-03-22T13:08:17.994Z</time></trkpt><trkpt lat="16.2488482" lon="-61.3587064"><ele>23.0</ele><time>2026-03-22T13:08:18.997Z</time></trkpt><trkpt lat="16.2488928" lon="-61.3586519"><ele>23.0</ele><time>2026-03-22T13:08:19.985Z</time></trkpt><trkpt lat="16.2489417" lon="-61.3585992"><ele>23.0</ele><time>2026-03-22T13:08:21.002Z</time></trkpt><trkpt lat="16.2490136" lon="-61.3585242"><ele>22.0</ele><time>2026-03-22T13:08:22.996Z</time></trkpt><trkpt lat="16.249076" lon="-61.3584744"><ele>21.0</ele><time>2026-03-22T13:08:24.999Z</time></trkpt><trkpt lat="16.2491636" lon="-61.3584679"><ele>20.0</ele><time>2026-03-22T13:08:26.995Z</time></trkpt><trkpt lat="16.2492569" lon="-61.3584404"><ele>19.0</ele><time>2026-03-22T13:08:28.997Z</time></trkpt><trkpt lat="16.2493407" lon="-61.3584349"><ele>18.0</ele><time>2026-03-22T13:09:16.987Z</time></trkpt><trkpt lat="16.2494278" lon="-61.3584521"><ele>17.0</ele><time>2026-03-22T13:09:20.001Z</time></trkpt><trkpt lat="16.2495141" lon="-61.3584851"><ele>17.0</ele><time>2026-03-22T13:09:21.992Z</time></trkpt><trkpt lat="16.2496211" lon="-61.358522"><ele>17.0</ele><time>2026-03-22T13:09:23.999Z</time></trkpt><trkpt lat="16.2497072" lon="-61.3585513"><ele>17.0</ele><time>2026-03-22T13:09:25.994Z</time></trkpt><trkpt lat="16.24977" lon="-61.358591"><ele>17.0</ele><time>2026-03-22T13:09:27.984Z</time></trkpt><trkpt lat="16.2498405" lon="-61.35866"><ele>17.0</ele><time>2026-03-22T13:09:29.995Z</time></trkpt><trkpt lat="16.2498947" lon="-61.3587011"><ele>17.0</ele><time>2026-03-22T13:09:30.988Z</time></trkpt><trkpt lat="16.2499545" lon="-61.3587378"><ele>17.833333333333336</ele><time>2026-03-22T13:09:31.992Z</time></trkpt><trkpt lat="16.2500101" lon="-61.3587747"><ele>18.666666666666668</ele><time>2026-03-22T13:09:32.994Z</time></trkpt><trkpt lat="16.2500994" lon="-61.3588349"><ele>19.5</ele><time>2026-03-22T13:09:34.995Z</time></trkpt><trkpt lat="16.2501565" lon="-61.3589054"><ele>20.333333333333332</ele><time>2026-03-22T13:09:36.985Z</time></trkpt><trkpt lat="16.2502277" lon="-61.3589613"><ele>21.166666666666664</ele><time>2026-03-22T13:09:38.997Z</time></trkpt><trkpt lat="16.2502957" lon="-61.3589707"><ele>22.0</ele><time>2026-03-22T13:09:40.969Z</time></trkpt><trkpt lat="16.2503599" lon="-61.3589676"><ele>22.0</ele><time>2026-03-22T13:09:42.996Z</time></trkpt><trkpt lat="16.2504431" lon="-61.358942"><ele>22.0</ele><time>2026-03-22T13:09:45.986Z</time></trkpt><trkpt lat="16.2504377" lon="-61.3588641"><ele>22.0</ele><time>2026-03-22T13:09:59.991Z</time></trkpt><trkpt lat="16.2504525" lon="-61.3587845"><ele>22.0</ele><time>2026-03-22T13:10:02.009Z</time></trkpt><trkpt lat="16.2504684" lon="-61.358701"><ele>22.0</ele><time>2026-03-22T13:10:03.956Z</time></trkpt><trkpt lat="16.2505225" lon="-61.3586609"><ele>22.0</ele><time>2026-03-22T13:10:06.97Z</time></trkpt><trkpt lat="16.2506051" lon="-61.3587255"><ele>23.0</ele><time>2026-03-22T13:10:08.987Z</time></trkpt><trkpt lat="16.2506613" lon="-61.358757"><ele>24.0</ele><time>2026-03-22T13:10:09.965Z</time></trkpt><trkpt lat="16.250755" lon="-61.3587426"><ele>25.000000000000004</ele><time>2026-03-22T13:10:11.956Z</time></trkpt><trkpt lat="16.2508379" lon="-61.3587589"><ele>26.0</ele><time>2026-03-22T13:10:13.959Z</time></trkpt><trkpt lat="16.2509313" lon="-61.3588292"><ele>27.0</ele><time>2026-03-22T13:10:15.998Z</time></trkpt><trkpt lat="16.2509975" lon="-61.3589023"><ele>27.666666666666668</ele><time>2026-03-22T13:10:17.982Z</time></trkpt><trkpt lat="16.2509895" lon="-61.3589882"><ele>28.333333333333336</ele><time>2026-03-22T13:10:20.953Z</time></trkpt><trkpt lat="16.2510064" lon="-61.3590685"><ele>29.0</ele><time>2026-03-22T13:10:24.996Z</time></trkpt><trkpt lat="16.2510769" lon="-61.3590335"><ele>29.666666666666668</ele><time>2026-03-22T13:10:33.978Z</time></trkpt><trkpt lat="16.2511425" lon="-61.3590551"><ele>30.333333333333336</ele><time>2026-03-22T13:10:36.959Z</time></trkpt><trkpt lat="16.2512263" lon="-61.3590654"><ele>31.0</ele><time>2026-03-22T13:10:39.995Z</time></trkpt><trkpt lat="16.2513002" lon="-61.3590676"><ele>31.000000000000004</ele><time>2026-03-22T13:10:43.966Z</time></trkpt><trkpt lat="16.2513705" lon="-61.3590707"><ele>31.0</ele><time>2026-03-22T13:10:45.99Z</time></trkpt><trkpt lat="16.2514416" lon="-61.3590741"><ele>31.0</ele><time>2026-03-22T13:10:47.997Z</time></trkpt><trkpt lat="16.2515302" lon="-61.359074"><ele>31.0</ele><time>2026-03-22T13:10:49.959Z</time></trkpt><trkpt lat="16.2516086" lon="-61.3590918"><ele>31.000000000000004</ele><time>2026-03-22T13:10:51.987Z</time></trkpt><trkpt lat="16.2516749" lon="-61.3591047"><ele>31.0</ele><time>2026-03-22T13:10:53.966Z</time></trkpt><trkpt lat="16.2517511" lon="-61.3591464"><ele>31.000000000000004</ele><time>2026-03-22T13:10:56.992Z</time></trkpt><trkpt lat="16.2518115" lon="-61.3591872"><ele>31.0</ele><time>2026-03-22T13:10:59.986Z</time></trkpt><trkpt lat="16.2518448" lon="-61.3592552"><ele>31.0</ele><time>2026-03-22T13:11:35.993Z</time></trkpt><trkpt lat="16.2519161" lon="-61.3592865"><ele>31.0</ele><time>2026-03-22T13:11:37.972Z</time></trkpt><trkpt lat="16.2520058" lon="-61.359391"><ele>31.000000000000004</ele><time>2026-03-22T13:11:40.005Z</time></trkpt><trkpt lat="16.252056" lon="-61.3594706"><ele>31.0</ele><time>2026-03-22T13:11:41.003Z</time></trkpt><trkpt lat="16.2520966" lon="-61.3595406"><ele>31.0</ele><time>2026-03-22T13:11:41.985Z</time></trkpt><trkpt lat="16.2521177" lon="-61.359607"><ele>31.0</ele><time>2026-03-22T13:11:42.979Z</time></trkpt><trkpt lat="16.2521305" lon="-61.3596745"><ele>31.0</ele><time>2026-03-22T13:11:43.993Z</time></trkpt><trkpt lat="16.2521419" lon="-61.3597969"><ele>31.0</ele><time>2026-03-22T13:11:46.002Z</time></trkpt><trkpt lat="16.2521607" lon="-61.3599097"><ele>31.0</ele><time>2026-03-22T13:11:47.994Z</time></trkpt><trkpt lat="16.2521774" lon="-61.3600251"><ele>30.6</ele><time>2026-03-22T13:11:49.998Z</time></trkpt><trkpt lat="16.252188" lon="-61.3601331"><ele>30.200000000000003</ele><time>2026-03-22T13:11:51.999Z</time></trkpt><trkpt lat="16.2521912" lon="-61.3602318"><ele>29.799999999999997</ele><time>2026-03-22T13:11:53.999Z</time></trkpt><trkpt lat="16.2521847" lon="-61.3603582"><ele>29.4</ele><time>2026-03-22T13:11:55.985Z</time></trkpt><trkpt lat="16.2521821" lon="-61.3604239"><ele>29.0</ele><time>2026-03-22T13:11:56.99Z</time></trkpt><trkpt lat="16.2521999" lon="-61.3605548"><ele>29.142857142857146</ele><time>2026-03-22T13:11:58.994Z</time></trkpt><trkpt lat="16.2522215" lon="-61.3606261"><ele>29.285714285714285</ele><time>2026-03-22T13:11:59.992Z</time></trkpt><trkpt lat="16.2522438" lon="-61.360692"><ele>29.42857142857143</ele><time>2026-03-22T13:12:00.999Z</time></trkpt><trkpt lat="16.2522626" lon="-61.3607561"><ele>29.571428571428573</ele><time>2026-03-22T13:12:02.008Z</time></trkpt><trkpt lat="16.2522725" lon="-61.3608229"><ele>29.714285714285715</ele><time>2026-03-22T13:12:03.001Z</time></trkpt><trkpt lat="16.2522779" lon="-61.3608888"><ele>29.857142857142858</ele><time>2026-03-22T13:12:04Z</time></trkpt><trkpt lat="16.2522811" lon="-61.3609593"><ele>30.0</ele><time>2026-03-22T13:12:04.997Z</time></trkpt><trkpt lat="16.2522959" lon="-61.3610314"><ele>30.0</ele><time>2026-03-22T13:12:05.996Z</time></trkpt><trkpt lat="16.2523171" lon="-61.361102"><ele>30.0</ele><time>2026-03-22T13:12:06.998Z</time></trkpt><trkpt lat="16.2523366" lon="-61.3611691"><ele>30.0</ele><time>2026-03-22T13:12:07.992Z</time></trkpt><trkpt lat="16.2523129" lon="-61.3612943"><ele>30.0</ele><time>2026-03-22T13:12:10Z</time></trkpt><trkpt lat="16.2522906" lon="-61.3614099"><ele>30.0</ele><time>2026-03-22T13:12:11.997Z</time></trkpt><trkpt lat="16.2522719" lon="-61.3615296"><ele>30.2</ele><time>2026-03-22T13:12:14.001Z</time></trkpt><trkpt lat="16.2522562" lon="-61.3615976"><ele>30.4</ele><time>2026-03-22T13:12:15Z</time></trkpt><trkpt lat="16.2522377" lon="-61.3617253"><ele>30.6</ele><time>2026-03-22T13:12:17Z</time></trkpt><trkpt lat="16.2522253" lon="-61.3618296"><ele>30.8</ele><time>2026-03-22T13:12:18.983Z</time></trkpt><trkpt lat="16.2522306" lon="-61.3619234"><ele>31.0</ele><time>2026-03-22T13:12:20.992Z</time></trkpt><trkpt lat="16.2522834" lon="-61.3620151"><ele>31.000000000000004</ele><time>2026-03-22T13:12:22.984Z</time></trkpt><trkpt lat="16.2523431" lon="-61.3621017"><ele>31.0</ele><time>2026-03-22T13:12:24.983Z</time></trkpt><trkpt lat="16.252428" lon="-61.3621958"><ele>31.0</ele><time>2026-03-22T13:12:26.986Z</time></trkpt><trkpt lat="16.2524743" lon="-61.3622525"><ele>31.0</ele><time>2026-03-22T13:12:27.996Z</time></trkpt><trkpt lat="16.2525132" lon="-61.3623107"><ele>31.000000000000004</ele><time>2026-03-22T13:12:28.995Z</time></trkpt><trkpt lat="16.2525473" lon="-61.3623738"><ele>31.0</ele><time>2026-03-22T13:12:29.995Z</time></trkpt><trkpt lat="16.2525799" lon="-61.3624394"><ele>31.000000000000004</ele><time>2026-03-22T13:12:30.995Z</time></trkpt><trkpt lat="16.252605" lon="-61.3625038"><ele>31.0</ele><time>2026-03-22T13:12:31.984Z</time></trkpt><trkpt lat="16.2526258" lon="-61.3625723"><ele>31.0</ele><time>2026-03-22T13:12:32.992Z</time></trkpt><trkpt lat="16.2526438" lon="-61.3627092"><ele>31.0</ele><time>2026-03-22T13:12:34.961Z</time></trkpt><trkpt lat="16.2526512" lon="-61.3627893"><ele>31.000000000000004</ele><time>2026-03-22T13:12:35.985Z</time></trkpt><trkpt lat="16.2526602" lon="-61.3628671"><ele>31.0</ele><time>2026-03-22T13:12:36.982Z</time></trkpt><trkpt lat="16.2526727" lon="-61.3629442"><ele>31.000000000000004</ele><time>2026-03-22T13:12:37.994Z</time></trkpt><trkpt lat="16.2526771" lon="-61.3630143"><ele>31.0</ele><time>2026-03-22T13:12:38.995Z</time></trkpt><trkpt lat="16.2526906" lon="-61.3631473"><ele>31.0</ele><time>2026-03-22T13:12:41Z</time></trkpt><trkpt lat="16.2526969" lon="-61.3632186"><ele>31.0</ele><time>2026-03-22T13:12:41.997Z</time></trkpt><trkpt lat="16.2527071" lon="-61.3632875"><ele>31.000000000000004</ele><time>2026-03-22T13:12:43.002Z</time></trkpt><trkpt lat="16.2527107" lon="-61.3633644"><ele>31.0</ele><time>2026-03-22T13:12:43.999Z</time></trkpt><trkpt lat="16.2527193" lon="-61.3634461"><ele>32.0</ele><time>2026-03-22T13:12:44.997Z</time></trkpt><trkpt lat="16.2527335" lon="-61.3635328"><ele>33.0</ele><time>2026-03-22T13:12:46.009Z</time></trkpt><trkpt lat="16.2527474" lon="-61.3636158"><ele>34.0</ele><time>2026-03-22T13:12:46.997Z</time></trkpt><trkpt lat="16.2527577" lon="-61.3636912"><ele>35.0</ele><time>2026-03-22T13:12:48Z</time></trkpt><trkpt lat="16.2527657" lon="-61.363764"><ele>36.0</ele><time>2026-03-22T13:12:49.005Z</time></trkpt><trkpt lat="16.2527831" lon="-61.3638601"><ele>37.0</ele><time>2026-03-22T13:12:50.998Z</time></trkpt><trkpt lat="16.2527892" lon="-61.3639487"><ele>37.8</ele><time>2026-03-22T13:12:53.009Z</time></trkpt><trkpt lat="16.2527843" lon="-61.3640204"><ele>38.6</ele><time>2026-03-22T13:12:54.999Z</time></trkpt><trkpt lat="16.2527839" lon="-61.3641114"><ele>39.4</ele><time>2026-03-22T13:12:58.005Z</time></trkpt><trkpt lat="16.2527788" lon="-61.3642099"><ele>40.199999999999996</ele><time>2026-03-22T13:12:59.986Z</time></trkpt><trkpt lat="16.2527636" lon="-61.3643201"><ele>41.0</ele><time>2026-03-22T13:13:01.987Z</time></trkpt><trkpt lat="16.252745" lon="-61.3644223"><ele>41.0</ele><time>2026-03-22T13:13:03.956Z</time></trkpt><trkpt lat="16.2527215" lon="-61.3645501"><ele>41.0</ele><time>2026-03-22T13:13:06.002Z</time></trkpt><trkpt lat="16.252704" lon="-61.3646669"><ele>41.0</ele><time>2026-03-22T13:13:08.014Z</time></trkpt><trkpt lat="16.2526818" lon="-61.3647656"><ele>41.0</ele><time>2026-03-22T13:13:10Z</time></trkpt><trkpt lat="16.2526658" lon="-61.3648392"><ele>41.0</ele><time>2026-03-22T13:13:12.982Z</time></trkpt><trkpt lat="16.2526855" lon="-61.3649172"><ele>40.599999999999994</ele><time>2026-03-22T13:13:31.995Z</time></trkpt><trkpt lat="16.2527503" lon="-61.3649493"><ele>40.199999999999996</ele><time>2026-03-22T13:13:34Z</time></trkpt><trkpt lat="16.2528452" lon="-61.3649966"><ele>39.8</ele><time>2026-03-22T13:13:35.995Z</time></trkpt><trkpt lat="16.2529541" lon="-61.3650475"><ele>39.4</ele><time>2026-03-22T13:13:37.997Z</time></trkpt><trkpt lat="16.2530469" lon="-61.3651074"><ele>39.0</ele><time>2026-03-22T13:13:39.993Z</time></trkpt><trkpt lat="16.2531377" lon="-61.3651483"><ele>37.6</ele><time>2026-03-22T13:13:41.991Z</time></trkpt><trkpt lat="16.2532409" lon="-61.3651738"><ele>36.2</ele><time>2026-03-22T13:13:43.963Z</time></trkpt><trkpt lat="16.253339" lon="-61.365176"><ele>34.800000000000004</ele><time>2026-03-22T13:13:45.982Z</time></trkpt><trkpt lat="16.2534313" lon="-61.3651376"><ele>33.4</ele><time>2026-03-22T13:13:47.991Z</time></trkpt><trkpt lat="16.2535255" lon="-61.365072"><ele>32.0</ele><time>2026-03-22T13:13:49.992Z</time></trkpt><trkpt lat="16.2535945" lon="-61.3650035"><ele>32.0</ele><time>2026-03-22T13:13:51.987Z</time></trkpt><trkpt lat="16.2536356" lon="-61.3649474"><ele>31.999999999999996</ele><time>2026-03-22T13:13:53.964Z</time></trkpt><trkpt lat="16.25368" lon="-61.3648818"><ele>32.0</ele><time>2026-03-22T13:13:56.979Z</time></trkpt><trkpt lat="16.2537072" lon="-61.3648093"><ele>32.0</ele><time>2026-03-22T13:13:58.991Z</time></trkpt><trkpt lat="16.2537135" lon="-61.3647367"><ele>31.999999999999996</ele><time>2026-03-22T13:13:59.992Z</time></trkpt><trkpt lat="16.2537205" lon="-61.3646662"><ele>32.0</ele><time>2026-03-22T13:14:01.004Z</time></trkpt><trkpt lat="16.253724" lon="-61.3645908"><ele>32.0</ele><time>2026-03-22T13:14:02.004Z</time></trkpt><trkpt lat="16.2537384" lon="-61.3644895"><ele>31.833333333333332</ele><time>2026-03-22T13:14:03.996Z</time></trkpt><trkpt lat="16.2537661" lon="-61.3644082"><ele>31.666666666666664</ele><time>2026-03-22T13:14:06Z</time></trkpt><trkpt lat="16.2538131" lon="-61.3643183"><ele>31.5</ele><time>2026-03-22T13:14:07.975Z</time></trkpt><trkpt lat="16.2538807" lon="-61.3642401"><ele>31.333333333333336</ele><time>2026-03-22T13:14:10.002Z</time></trkpt><trkpt lat="16.2539387" lon="-61.3641689"><ele>31.166666666666668</ele><time>2026-03-22T13:14:11.993Z</time></trkpt><trkpt lat="16.2539863" lon="-61.364106"><ele>31.0</ele><time>2026-03-22T13:14:13.996Z</time></trkpt><trkpt lat="16.2540154" lon="-61.364044"><ele>29.6</ele><time>2026-03-22T13:14:15.986Z</time></trkpt><trkpt lat="16.2540816" lon="-61.3639868"><ele>28.200000000000003</ele><time>2026-03-22T13:14:17.982Z</time></trkpt><trkpt lat="16.2541681" lon="-61.3638867"><ele>26.799999999999997</ele><time>2026-03-22T13:14:19.997Z</time></trkpt><trkpt lat="16.2542338" lon="-61.3638045"><ele>25.4</ele><time>2026-03-22T13:14:22.005Z</time></trkpt><trkpt lat="16.2542989" lon="-61.3637731"><ele>24.0</ele><time>2026-03-22T13:14:25.996Z</time></trkpt><trkpt lat="16.254355" lon="-61.3638475"><ele>24.0</ele><time>2026-03-22T13:14:28.992Z</time></trkpt><trkpt lat="16.2544023" lon="-61.3639256"><ele>24.0</ele><time>2026-03-22T13:14:31.006Z</time></trkpt><trkpt lat="16.2544482" lon="-61.3640192"><ele>24.0</ele><time>2026-03-22T13:14:32.986Z</time></trkpt><trkpt lat="16.2544831" lon="-61.3641262"><ele>24.0</ele><time>2026-03-22T13:14:35.001Z</time></trkpt><trkpt lat="16.2545111" lon="-61.3642466"><ele>24.0</ele><time>2026-03-22T13:14:37.004Z</time></trkpt><trkpt lat="16.2545063" lon="-61.3643709"><ele>23.999999999999996</ele><time>2026-03-22T13:14:39.001Z</time></trkpt><trkpt lat="16.2544913" lon="-61.3644385"><ele>24.0</ele><time>2026-03-22T13:14:39.989Z</time></trkpt><trkpt lat="16.2544772" lon="-61.3645044"><ele>24.0</ele><time>2026-03-22T13:14:41.001Z</time></trkpt><trkpt lat="16.2544569" lon="-61.3645759"><ele>24.0</ele><time>2026-03-22T13:14:41.988Z</time></trkpt><trkpt lat="16.2544364" lon="-61.364648"><ele>24.0</ele><time>2026-03-22T13:14:43.005Z</time></trkpt><trkpt lat="16.2544258" lon="-61.3647154"><ele>23.999999999999996</ele><time>2026-03-22T13:14:43.997Z</time></trkpt><trkpt lat="16.2544081" lon="-61.3647797"><ele>24.0</ele><time>2026-03-22T13:14:44.995Z</time></trkpt><trkpt lat="16.2543907" lon="-61.3648505"><ele>24.0</ele><time>2026-03-22T13:14:45.996Z</time></trkpt><trkpt lat="16.2543771" lon="-61.3649173"><ele>24.0</ele><time>2026-03-22T13:14:47Z</time></trkpt><trkpt lat="16.2543572" lon="-61.3649853"><ele>24.0</ele><time>2026-03-22T13:14:48Z</time></trkpt><trkpt lat="16.2543375" lon="-61.3650493"><ele>24.0</ele><time>2026-03-22T13:14:49.005Z</time></trkpt><trkpt lat="16.2543209" lon="-61.3651137"><ele>24.0</ele><time>2026-03-22T13:14:50.01Z</time></trkpt><trkpt lat="16.2542976" lon="-61.3652361"><ele>24.0</ele><time>2026-03-22T13:14:51.988Z</time></trkpt><trkpt lat="16.2542869" lon="-61.365352"><ele>24.0</ele><time>2026-03-22T13:14:53.998Z</time></trkpt><trkpt lat="16.2542943" lon="-61.3654637"><ele>24.0</ele><time>2026-03-22T13:14:55.992Z</time></trkpt><trkpt lat="16.2543421" lon="-61.3655446"><ele>24.0</ele><time>2026-03-22T13:14:57.995Z</time></trkpt><trkpt lat="16.2544027" lon="-61.3656265"><ele>24.0</ele><time>2026-03-22T13:14:59.992Z</time></trkpt><trkpt lat="16.2544587" lon="-61.3656871"><ele>24.0</ele><time>2026-03-22T13:15:01.994Z</time></trkpt><trkpt lat="16.2545341" lon="-61.3657555"><ele>24.2</ele><time>2026-03-22T13:15:03.991Z</time></trkpt><trkpt lat="16.2546259" lon="-61.3658347"><ele>24.4</ele><time>2026-03-22T13:15:05.996Z</time></trkpt><trkpt lat="16.2547019" lon="-61.3659189"><ele>24.6</ele><time>2026-03-22T13:15:08.002Z</time></trkpt><trkpt lat="16.2547872" lon="-61.3660205"><ele>24.8</ele><time>2026-03-22T13:15:09.976Z</time></trkpt><trkpt lat="16.2548439" lon="-61.3660671"><ele>25.0</ele><time>2026-03-22T13:15:10.992Z</time></trkpt><trkpt lat="16.2549061" lon="-61.3661167"><ele>25.4</ele><time>2026-03-22T13:15:11.985Z</time></trkpt><trkpt lat="16.2549667" lon="-61.3661608"><ele>25.8</ele><time>2026-03-22T13:15:12.992Z</time></trkpt><trkpt lat="16.255019" lon="-61.3662103"><ele>26.200000000000003</ele><time>2026-03-22T13:15:13.989Z</time></trkpt><trkpt lat="16.2550694" lon="-61.3662602"><ele>26.6</ele><time>2026-03-22T13:15:14.989Z</time></trkpt><trkpt lat="16.2551587" lon="-61.3663449"><ele>27.0</ele><time>2026-03-22T13:15:16.998Z</time></trkpt><trkpt lat="16.2552457" lon="-61.3664269"><ele>27.142857142857142</ele><time>2026-03-22T13:15:19.001Z</time></trkpt><trkpt lat="16.2552839" lon="-61.3664805"><ele>27.285714285714285</ele><time>2026-03-22T13:15:20.001Z</time></trkpt><trkpt lat="16.2553125" lon="-61.3665419"><ele>27.42857142857143</ele><time>2026-03-22T13:15:20.995Z</time></trkpt><trkpt lat="16.255342" lon="-61.3666047"><ele>27.57142857142857</ele><time>2026-03-22T13:15:21.993Z</time></trkpt><trkpt lat="16.2553681" lon="-61.3666683"><ele>27.714285714285715</ele><time>2026-03-22T13:15:22.981Z</time></trkpt><trkpt lat="16.2553995" lon="-61.3667351"><ele>27.857142857142858</ele><time>2026-03-22T13:15:23.955Z</time></trkpt><trkpt lat="16.2554304" lon="-61.3668011"><ele>28.0</ele><time>2026-03-22T13:15:24.977Z</time></trkpt><trkpt lat="16.2554547" lon="-61.3668678"><ele>28.0</ele><time>2026-03-22T13:15:25.992Z</time></trkpt><trkpt lat="16.2554818" lon="-61.366988"><ele>27.999999999999996</ele><time>2026-03-22T13:15:27.954Z</time></trkpt><trkpt lat="16.2555095" lon="-61.3671149"><ele>27.999999999999996</ele><time>2026-03-22T13:15:29.985Z</time></trkpt><trkpt lat="16.2555504" lon="-61.3672272"><ele>28.0</ele><time>2026-03-22T13:15:31.987Z</time></trkpt><trkpt lat="16.2555809" lon="-61.3672935"><ele>28.0</ele><time>2026-03-22T13:15:33.006Z</time></trkpt><trkpt lat="16.2556186" lon="-61.3673475"><ele>27.0</ele><time>2026-03-22T13:15:34.001Z</time></trkpt><trkpt lat="16.255699" lon="-61.3674095"><ele>25.999999999999996</ele><time>2026-03-22T13:15:35.996Z</time></trkpt><trkpt lat="16.2557821" lon="-61.3674874"><ele>25.0</ele><time>2026-03-22T13:15:38.001Z</time></trkpt><trkpt lat="16.2558606" lon="-61.367584"><ele>24.0</ele><time>2026-03-22T13:15:39.991Z</time></trkpt><trkpt lat="16.2559218" lon="-61.3676639"><ele>23.0</ele><time>2026-03-22T13:15:41.992Z</time></trkpt><trkpt lat="16.2559807" lon="-61.3677711"><ele>23.0</ele><time>2026-03-22T13:15:44.014Z</time></trkpt><trkpt lat="16.2560079" lon="-61.3678867"><ele>23.0</ele><time>2026-03-22T13:15:45.999Z</time></trkpt><trkpt lat="16.2559947" lon="-61.3680032"><ele>23.0</ele><time>2026-03-22T13:15:47.991Z</time></trkpt><trkpt lat="16.2559644" lon="-61.3681233"><ele>23.0</ele><time>2026-03-22T13:15:49.999Z</time></trkpt><trkpt lat="16.2559469" lon="-61.3681881"><ele>23.0</ele><time>2026-03-22T13:15:50.98Z</time></trkpt><trkpt lat="16.2559331" lon="-61.3683202"><ele>23.5</ele><time>2026-03-22T13:15:52.997Z</time></trkpt><trkpt lat="16.2559115" lon="-61.3683975"><ele>24.0</ele><time>2026-03-22T13:15:53.973Z</time></trkpt><trkpt lat="16.2558934" lon="-61.3684816"><ele>24.5</ele><time>2026-03-22T13:15:54.999Z</time></trkpt><trkpt lat="16.2558912" lon="-61.3685688"><ele>25.0</ele><time>2026-03-22T13:15:55.999Z</time></trkpt><trkpt lat="16.2558887" lon="-61.3686517"><ele>25.499999999999996</ele><time>2026-03-22T13:15:56.996Z</time></trkpt><trkpt lat="16.2558903" lon="-61.3687268"><ele>26.0</ele><time>2026-03-22T13:15:57.976Z</time></trkpt><trkpt lat="16.2558933" lon="-61.3688073"><ele>26.499999999999996</ele><time>2026-03-22T13:15:58.982Z</time></trkpt><trkpt lat="16.2559045" lon="-61.3688837"><ele>27.0</ele><time>2026-03-22T13:16:00.004Z</time></trkpt><trkpt lat="16.2559144" lon="-61.3689646"><ele>27.5</ele><time>2026-03-22T13:16:00.992Z</time></trkpt><trkpt lat="16.2559315" lon="-61.3690419"><ele>28.0</ele><time>2026-03-22T13:16:01.997Z</time></trkpt><trkpt lat="16.2559506" lon="-61.369121"><ele>28.499999999999996</ele><time>2026-03-22T13:16:02.986Z</time></trkpt><trkpt lat="16.2559673" lon="-61.3691967"><ele>29.0</ele><time>2026-03-22T13:16:03.995Z</time></trkpt><trkpt lat="16.2559955" lon="-61.3692676"><ele>28.999999999999996</ele><time>2026-03-22T13:16:04.994Z</time></trkpt><trkpt lat="16.2560319" lon="-61.3693267"><ele>29.0</ele><time>2026-03-22T13:16:05.989Z</time></trkpt><trkpt lat="16.2560792" lon="-61.3693757"><ele>29.0</ele><time>2026-03-22T13:16:06.983Z</time></trkpt><trkpt lat="16.2561319" lon="-61.3694168"><ele>29.0</ele><time>2026-03-22T13:16:07.993Z</time></trkpt><trkpt lat="16.2562247" lon="-61.3694655"><ele>28.999999999999996</ele><time>2026-03-22T13:16:09.993Z</time></trkpt><trkpt lat="16.2562965" lon="-61.3695226"><ele>29.0</ele><time>2026-03-22T13:16:11.999Z</time></trkpt><trkpt lat="16.2563326" lon="-61.3695767"><ele>28.999999999999996</ele><time>2026-03-22T13:16:12.99Z</time></trkpt><trkpt lat="16.2563653" lon="-61.3696364"><ele>29.0</ele><time>2026-03-22T13:16:13.99Z</time></trkpt><trkpt lat="16.2563942" lon="-61.369702"><ele>29.0</ele><time>2026-03-22T13:16:14.996Z</time></trkpt><trkpt lat="16.2564296" lon="-61.3697757"><ele>29.0</ele><time>2026-03-22T13:16:15.997Z</time></trkpt><trkpt lat="16.2564919" lon="-61.3698767"><ele>28.999999999999996</ele><time>2026-03-22T13:16:17.995Z</time></trkpt><trkpt lat="16.2565357" lon="-61.369926"><ele>29.0</ele><time>2026-03-22T13:16:19.976Z</time></trkpt><trkpt lat="16.2566126" lon="-61.3699199"><ele>28.999999999999996</ele><time>2026-03-22T13:16:21.974Z</time></trkpt><trkpt lat="16.2566763" lon="-61.3698915"><ele>29.0</ele><time>2026-03-22T13:16:22.992Z</time></trkpt><trkpt lat="16.2567396" lon="-61.3698364"><ele>29.0</ele><time>2026-03-22T13:16:23.971Z</time></trkpt><trkpt lat="16.2568007" lon="-61.3697773"><ele>29.0</ele><time>2026-03-22T13:16:24.989Z</time></trkpt><trkpt lat="16.2568651" lon="-61.3697151"><ele>28.999999999999996</ele><time>2026-03-22T13:16:26.001Z</time></trkpt><trkpt lat="16.2569194" lon="-61.3696531"><ele>29.0</ele><time>2026-03-22T13:16:26.985Z</time></trkpt><trkpt lat="16.2569711" lon="-61.3695815"><ele>28.666666666666664</ele><time>2026-03-22T13:16:27.995Z</time></trkpt><trkpt lat="16.2570184" lon="-61.3695069"><ele>28.333333333333332</ele><time>2026-03-22T13:16:28.957Z</time></trkpt><trkpt lat="16.2570599" lon="-61.3694332"><ele>28.0</ele><time>2026-03-22T13:16:29.964Z</time></trkpt><trkpt lat="16.2570871" lon="-61.3693604"><ele>27.666666666666664</ele><time>2026-03-22T13:16:31Z</time></trkpt><trkpt lat="16.2570971" lon="-61.3692391"><ele>27.333333333333332</ele><time>2026-03-22T13:16:32.986Z</time></trkpt><trkpt lat="16.2570783" lon="-61.3691688"><ele>27.0</ele><time>2026-03-22T13:16:33.994Z</time></trkpt><trkpt lat="16.2570608" lon="-61.3691019"><ele>27.0</ele><time>2026-03-22T13:16:34.986Z</time></trkpt><trkpt lat="16.2570528" lon="-61.3690257"><ele>27.0</ele><time>2026-03-22T13:16:35.989Z</time></trkpt><trkpt lat="16.257047" lon="-61.3689465"><ele>27.0</ele><time>2026-03-22T13:16:37Z</time></trkpt><trkpt lat="16.2570516" lon="-61.3688693"><ele>27.0</ele><time>2026-03-22T13:16:37.999Z</time></trkpt><trkpt lat="16.2571006" lon="-61.36876"><ele>27.0</ele><time>2026-03-22T13:16:39.995Z</time></trkpt><trkpt lat="16.2571079" lon="-61.3686681"><ele>27.0</ele><time>2026-03-22T13:16:41.986Z</time></trkpt><trkpt lat="16.2571088" lon="-61.36856"><ele>27.333333333333332</ele><time>2026-03-22T13:16:43.994Z</time></trkpt><trkpt lat="16.2571076" lon="-61.3684901"><ele>27.666666666666664</ele><time>2026-03-22T13:16:44.995Z</time></trkpt><trkpt lat="16.2570952" lon="-61.368419"><ele>28.0</ele><time>2026-03-22T13:16:46.007Z</time></trkpt><trkpt lat="16.2570797" lon="-61.3683513"><ele>28.333333333333332</ele><time>2026-03-22T13:16:46.998Z</time></trkpt><trkpt lat="16.2570759" lon="-61.3682793"><ele>28.666666666666664</ele><time>2026-03-22T13:16:47.995Z</time></trkpt><trkpt lat="16.2570777" lon="-61.3681571"><ele>29.0</ele><time>2026-03-22T13:16:49.986Z</time></trkpt><trkpt lat="16.2570727" lon="-61.3680901"><ele>29.0</ele><time>2026-03-22T13:16:51.001Z</time></trkpt><trkpt lat="16.257058" lon="-61.3679657"><ele>29.0</ele><time>2026-03-22T13:16:52.989Z</time></trkpt><trkpt lat="16.2570429" lon="-61.3678971"><ele>29.0</ele><time>2026-03-22T13:16:54.002Z</time></trkpt><trkpt lat="16.2570014" lon="-61.3677886"><ele>29.0</ele><time>2026-03-22T13:16:56.001Z</time></trkpt><trkpt lat="16.2570325" lon="-61.3677"><ele>29.0</ele><time>2026-03-22T13:16:58.983Z</time></trkpt><trkpt lat="16.2570855" lon="-61.3676065"><ele>28.999999999999996</ele><time>2026-03-22T13:17:00.978Z</time></trkpt><trkpt lat="16.2571298" lon="-61.367541"><ele>29.0</ele><time>2026-03-22T13:17:03Z</time></trkpt><trkpt lat="16.2571736" lon="-61.3674835"><ele>29.0</ele><time>2026-03-22T13:17:04.981Z</time></trkpt><trkpt lat="16.2572067" lon="-61.3674085"><ele>29.0</ele><time>2026-03-22T13:17:06.985Z</time></trkpt><trkpt lat="16.2572076" lon="-61.367307"><ele>28.999999999999996</ele><time>2026-03-22T13:17:08.978Z</time></trkpt><trkpt lat="16.257192" lon="-61.3672301"><ele>29.0</ele><time>2026-03-22T13:17:10.995Z</time></trkpt><trkpt lat="16.257192" lon="-61.3671433"><ele>29.499999999999996</ele><time>2026-03-22T13:17:13.998Z</time></trkpt><trkpt lat="16.2571774" lon="-61.3670673"><ele>30.0</ele><time>2026-03-22T13:17:16.992Z</time></trkpt><trkpt lat="16.2571429" lon="-61.3670072"><ele>30.5</ele><time>2026-03-22T13:17:20.004Z</time></trkpt><trkpt lat="16.2571292" lon="-61.366943"><ele>31.0</ele><time>2026-03-22T13:17:22.007Z</time></trkpt><trkpt lat="16.2571254" lon="-61.3668366"><ele>31.499999999999996</ele><time>2026-03-22T13:17:23.996Z</time></trkpt><trkpt lat="16.257111" lon="-61.3667127"><ele>32.0</ele><time>2026-03-22T13:17:25.994Z</time></trkpt><trkpt lat="16.2570994" lon="-61.3665962"><ele>31.999999999999996</ele><time>2026-03-22T13:17:28Z</time></trkpt><trkpt lat="16.2571107" lon="-61.3665108"><ele>32.0</ele><time>2026-03-22T13:17:29.999Z</time></trkpt><trkpt lat="16.2571229" lon="-61.3664328"><ele>32.0</ele><time>2026-03-22T13:17:32Z</time></trkpt><trkpt lat="16.2571262" lon="-61.3663611"><ele>32.0</ele><time>2026-03-22T13:17:33.998Z</time></trkpt><trkpt lat="16.2570825" lon="-61.3662775"><ele>31.999999999999996</ele><time>2026-03-22T13:17:36.993Z</time></trkpt><trkpt lat="16.2570185" lon="-61.3662"><ele>32.0</ele><time>2026-03-22T13:17:38.977Z</time></trkpt><trkpt lat="16.2569752" lon="-61.3661488"><ele>31.0</ele><time>2026-03-22T13:17:39.992Z</time></trkpt><trkpt lat="16.2569017" lon="-61.3660479"><ele>30.000000000000004</ele><time>2026-03-22T13:17:41.997Z</time></trkpt><trkpt lat="16.2568188" lon="-61.3659676"><ele>29.000000000000004</ele><time>2026-03-22T13:17:44.008Z</time></trkpt><trkpt lat="16.256767" lon="-61.3658987"><ele>28.0</ele><time>2026-03-22T13:17:45.982Z</time></trkpt><trkpt lat="16.2567335" lon="-61.3658355"><ele>27.0</ele><time>2026-03-22T13:17:47.968Z</time></trkpt><trkpt lat="16.2567001" lon="-61.3657479"><ele>27.0</ele><time>2026-03-22T13:17:49.989Z</time></trkpt><trkpt lat="16.2566567" lon="-61.3656349"><ele>27.0</ele><time>2026-03-22T13:17:52Z</time></trkpt><trkpt lat="16.2566229" lon="-61.365561"><ele>27.0</ele><time>2026-03-22T13:17:53.993Z</time></trkpt><trkpt lat="16.2565837" lon="-61.3654681"><ele>27.0</ele><time>2026-03-22T13:17:55.98Z</time></trkpt><trkpt lat="16.2565727" lon="-61.3653975"><ele>27.0</ele><time>2026-03-22T13:17:57.992Z</time></trkpt><trkpt lat="16.2565567" lon="-61.3653251"><ele>27.0</ele><time>2026-03-22T13:17:59.987Z</time></trkpt><trkpt lat="16.2565253" lon="-61.3652609"><ele>26.6</ele><time>2026-03-22T13:18:01.99Z</time></trkpt><trkpt lat="16.2564893" lon="-61.3651662"><ele>26.200000000000003</ele><time>2026-03-22T13:18:03.976Z</time></trkpt><trkpt lat="16.2564471" lon="-61.3650681"><ele>25.8</ele><time>2026-03-22T13:18:05.994Z</time></trkpt><trkpt lat="16.2564204" lon="-61.3650044"><ele>25.4</ele><time>2026-03-22T13:18:07.988Z</time></trkpt><trkpt lat="16.2563894" lon="-61.3648948"><ele>25.0</ele><time>2026-03-22T13:18:09.971Z</time></trkpt><trkpt lat="16.2563479" lon="-61.3647765"><ele>25.8</ele><time>2026-03-22T13:18:12.003Z</time></trkpt><trkpt lat="16.2563226" lon="-61.3646555"><ele>26.6</ele><time>2026-03-22T13:18:13.984Z</time></trkpt><trkpt lat="16.256307" lon="-61.3645887"><ele>27.4</ele><time>2026-03-22T13:18:14.993Z</time></trkpt><trkpt lat="16.2562686" lon="-61.3644864"><ele>28.2</ele><time>2026-03-22T13:18:16.993Z</time></trkpt><trkpt lat="16.2562441" lon="-61.3643813"><ele>29.0</ele><time>2026-03-22T13:18:19.04Z</time></trkpt><trkpt lat="16.2562627" lon="-61.3643022"><ele>28.999999999999996</ele><time>2026-03-22T13:18:20.997Z</time></trkpt><trkpt lat="16.2562904" lon="-61.3642051"><ele>29.0</ele><time>2026-03-22T13:18:23.041Z</time></trkpt><trkpt lat="16.2562793" lon="-61.3640957"><ele>29.0</ele><time>2026-03-22T13:18:25.029Z</time></trkpt><trkpt lat="16.2562485" lon="-61.3640331"><ele>29.0</ele><time>2026-03-22T13:18:26.985Z</time></trkpt><trkpt lat="16.2561902" lon="-61.3640061"><ele>28.999999999999996</ele><time>2026-03-22T13:18:30.037Z</time></trkpt><trkpt lat="16.2561166" lon="-61.3639777"><ele>29.0</ele><time>2026-03-22T13:18:31.981Z</time></trkpt><trkpt lat="16.2560507" lon="-61.3639517"><ele>28.999999999999996</ele><time>2026-03-22T13:18:33.97Z</time></trkpt><trkpt lat="16.2560393" lon="-61.3638826"><ele>29.0</ele><time>2026-03-22T13:18:36.98Z</time></trkpt><trkpt lat="16.25602" lon="-61.3638161"><ele>29.0</ele><time>2026-03-22T13:18:38.993Z</time></trkpt><trkpt lat="16.2559965" lon="-61.3637527"><ele>29.0</ele><time>2026-03-22T13:18:40.98Z</time></trkpt><trkpt lat="16.2559853" lon="-61.3636727"><ele>28.999999999999996</ele><time>2026-03-22T13:18:42.992Z</time></trkpt><trkpt lat="16.2559765" lon="-61.3635807"><ele>29.0</ele><time>2026-03-22T13:18:44.983Z</time></trkpt><trkpt lat="16.2559904" lon="-61.3634913"><ele>28.833333333333332</ele><time>2026-03-22T13:18:46.992Z</time></trkpt><trkpt lat="16.2560163" lon="-61.3634093"><ele>28.666666666666664</ele><time>2026-03-22T13:18:48.974Z</time></trkpt><trkpt lat="16.2560518" lon="-61.3633397"><ele>28.5</ele><time>2026-03-22T13:18:51.054Z</time></trkpt><trkpt lat="16.2560795" lon="-61.3632583"><ele>28.333333333333336</ele><time>2026-03-22T13:18:52.994Z</time></trkpt><trkpt lat="16.2560862" lon="-61.3631857"><ele>28.166666666666668</ele><time>2026-03-22T13:18:54.977Z</time></trkpt><trkpt lat="16.256086" lon="-61.3631075"><ele>28.0</ele><time>2026-03-22T13:18:59.977Z</time></trkpt><trkpt lat="16.2561182" lon="-61.3630393"><ele>27.333333333333336</ele><time>2026-03-22T13:19:03.995Z</time></trkpt><trkpt lat="16.2561245" lon="-61.3629709"><ele>26.666666666666668</ele><time>2026-03-22T13:19:05.983Z</time></trkpt><trkpt lat="16.2561256" lon="-61.3628911"><ele>26.0</ele><time>2026-03-22T13:19:07.987Z</time></trkpt><trkpt lat="16.2561423" lon="-61.3627955"><ele>25.333333333333336</ele><time>2026-03-22T13:19:10.981Z</time></trkpt><trkpt lat="16.2561568" lon="-61.3627214"><ele>24.666666666666668</ele><time>2026-03-22T13:19:12.988Z</time></trkpt><trkpt lat="16.2561682" lon="-61.3626185"><ele>24.0</ele><time>2026-03-22T13:19:14.98Z</time></trkpt><trkpt lat="16.2561827" lon="-61.3625236"><ele>24.0</ele><time>2026-03-22T13:19:16.983Z</time></trkpt><trkpt lat="16.2561881" lon="-61.3624384"><ele>24.0</ele><time>2026-03-22T13:19:18.997Z</time></trkpt><trkpt lat="16.2562083" lon="-61.3623702"><ele>24.0</ele><time>2026-03-22T13:19:21.991Z</time></trkpt><trkpt lat="16.2562279" lon="-61.362275"><ele>24.0</ele><time>2026-03-22T13:19:24.979Z</time></trkpt><trkpt lat="16.2562166" lon="-61.3621827"><ele>24.0</ele><time>2026-03-22T13:19:26.978Z</time></trkpt><trkpt lat="16.2561725" lon="-61.3621012"><ele>24.0</ele><time>2026-03-22T13:19:30.034Z</time></trkpt><trkpt lat="16.2561166" lon="-61.362061"><ele>24.0</ele><time>2026-03-22T13:19:31.977Z</time></trkpt><trkpt lat="16.25608" lon="-61.3620053"><ele>24.0</ele><time>2026-03-22T13:19:34.977Z</time></trkpt><trkpt lat="16.2560868" lon="-61.361908"><ele>24.0</ele><time>2026-03-22T13:19:38.003Z</time></trkpt><trkpt lat="16.2560969" lon="-61.3617658"><ele>24.0</ele><time>2026-03-22T13:19:40.992Z</time></trkpt><trkpt lat="16.2561374" lon="-61.3616912"><ele>24.0</ele><time>2026-03-22T13:19:42.998Z</time></trkpt><trkpt lat="16.2561847" lon="-61.3616445"><ele>24.0</ele><time>2026-03-22T13:19:44.979Z</time></trkpt><trkpt lat="16.2562501" lon="-61.3616006"><ele>24.0</ele><time>2026-03-22T13:19:46.982Z</time></trkpt><trkpt lat="16.2563185" lon="-61.3615608"><ele>24.0</ele><time>2026-03-22T13:19:49.005Z</time></trkpt><trkpt lat="16.2563925" lon="-61.3615403"><ele>24.0</ele><time>2026-03-22T13:19:50.988Z</time></trkpt><trkpt lat="16.2564581" lon="-61.3615191"><ele>24.0</ele><time>2026-03-22T13:19:52.997Z</time></trkpt><trkpt lat="16.2565128" lon="-61.3614747"><ele>24.0</ele><time>2026-03-22T13:19:54.979Z</time></trkpt><trkpt lat="16.2565674" lon="-61.3614087"><ele>24.0</ele><time>2026-03-22T13:19:56.969Z</time></trkpt><trkpt lat="16.2566133" lon="-61.3613312"><ele>25.0</ele><time>2026-03-22T13:19:59.038Z</time></trkpt><trkpt lat="16.2566755" lon="-61.3612799"><ele>26.0</ele><time>2026-03-22T13:20:06.953Z</time></trkpt><trkpt lat="16.2567301" lon="-61.3612312"><ele>27.0</ele><time>2026-03-22T13:21:02.977Z</time></trkpt><trkpt lat="16.2567519" lon="-61.3611651"><ele>28.0</ele><time>2026-03-22T13:21:04.994Z</time></trkpt><trkpt lat="16.2567674" lon="-61.3610826"><ele>29.000000000000004</ele><time>2026-03-22T13:21:06.999Z</time></trkpt><trkpt lat="16.2567874" lon="-61.3610059"><ele>30.0</ele><time>2026-03-22T13:21:09.984Z</time></trkpt><trkpt lat="16.2568453" lon="-61.360974"><ele>31.0</ele><time>2026-03-22T13:21:14.011Z</time></trkpt><trkpt lat="16.2569202" lon="-61.360953"><ele>31.000000000000004</ele><time>2026-03-22T13:21:17.98Z</time></trkpt><trkpt lat="16.2570006" lon="-61.36095"><ele>31.0</ele><time>2026-03-22T13:21:20.979Z</time></trkpt><trkpt lat="16.2570799" lon="-61.3609441"><ele>31.0</ele><time>2026-03-22T13:21:24.993Z</time></trkpt><trkpt lat="16.2571436" lon="-61.3609561"><ele>31.0</ele><time>2026-03-22T13:21:28.983Z</time></trkpt><trkpt lat="16.2572196" lon="-61.360991"><ele>31.000000000000004</ele><time>2026-03-22T13:21:33.008Z</time></trkpt><trkpt lat="16.257292" lon="-61.3610408"><ele>31.0</ele><time>2026-03-22T13:21:35.986Z</time></trkpt><trkpt lat="16.2573842" lon="-61.3610626"><ele>31.000000000000004</ele><time>2026-03-22T13:21:38.971Z</time></trkpt><trkpt lat="16.2574559" lon="-61.3610815"><ele>31.0</ele><time>2026-03-22T13:21:40.982Z</time></trkpt><trkpt lat="16.2575296" lon="-61.3611056"><ele>31.0</ele><time>2026-03-22T13:21:42.996Z</time></trkpt><trkpt lat="16.2576115" lon="-61.3611349"><ele>31.0</ele><time>2026-03-22T13:21:45Z</time></trkpt><trkpt lat="16.2576799" lon="-61.3611546"><ele>31.000000000000004</ele><time>2026-03-22T13:21:46.989Z</time></trkpt><trkpt lat="16.257763" lon="-61.3611709"><ele>31.0</ele><time>2026-03-22T13:21:48.987Z</time></trkpt><trkpt lat="16.257885" lon="-61.3611897"><ele>31.0</ele><time>2026-03-22T13:21:51.046Z</time></trkpt><trkpt lat="16.2579491" lon="-61.3611979"><ele>31.000000000000004</ele><time>2026-03-22T13:21:51.989Z</time></trkpt><trkpt lat="16.2580167" lon="-61.3612116"><ele>31.0</ele><time>2026-03-22T13:21:53.003Z</time></trkpt><trkpt lat="16.2580824" lon="-61.3612231"><ele>31.0</ele><time>2026-03-22T13:21:53.98Z</time></trkpt><trkpt lat="16.2581534" lon="-61.3612319"><ele>31.000000000000004</ele><time>2026-03-22T13:21:54.988Z</time></trkpt><trkpt lat="16.2582296" lon="-61.3612411"><ele>31.0</ele><time>2026-03-22T13:21:56.004Z</time></trkpt><trkpt lat="16.258302" lon="-61.3612456"><ele>31.0</ele><time>2026-03-22T13:21:57.006Z</time></trkpt><trkpt lat="16.2583682" lon="-61.3612502"><ele>30.8</ele><time>2026-03-22T13:21:58.004Z</time></trkpt><trkpt lat="16.2584712" lon="-61.3612528"><ele>30.6</ele><time>2026-03-22T13:22:00.077Z</time></trkpt><trkpt lat="16.2585745" lon="-61.3612385"><ele>30.4</ele><time>2026-03-22T13:22:01.989Z</time></trkpt><trkpt lat="16.2586623" lon="-61.3611986"><ele>30.2</ele><time>2026-03-22T13:22:04.063Z</time></trkpt><trkpt lat="16.2587453" lon="-61.3611563"><ele>30.0</ele><time>2026-03-22T13:22:05.992Z</time></trkpt><trkpt lat="16.25868" lon="-61.3611607"><ele>30.0</ele><time>2026-03-22T13:22:22.999Z</time></trkpt><trkpt lat="16.2585929" lon="-61.361186"><ele>30.0</ele><time>2026-03-22T13:22:34.003Z</time></trkpt><trkpt lat="16.2585154" lon="-61.3612278"><ele>30.0</ele><time>2026-03-22T13:22:36.012Z</time></trkpt><trkpt lat="16.2584873" lon="-61.3612883"><ele>30.0</ele><time>2026-03-22T13:22:37.984Z</time></trkpt><trkpt lat="16.2584766" lon="-61.361382"><ele>30.0</ele><time>2026-03-22T13:22:39.987Z</time></trkpt><trkpt lat="16.2584174" lon="-61.3614687"><ele>30.0</ele><time>2026-03-22T13:22:42.014Z</time></trkpt><trkpt lat="16.258343" lon="-61.361525"><ele>31.166666666666668</ele><time>2026-03-22T13:22:44.02Z</time></trkpt><trkpt lat="16.2583257" lon="-61.3616078"><ele>32.333333333333336</ele><time>2026-03-22T13:22:47.002Z</time></trkpt><trkpt lat="16.258391" lon="-61.3616505"><ele>33.5</ele><time>2026-03-22T13:22:48.997Z</time></trkpt><trkpt lat="16.2585072" lon="-61.3616694"><ele>34.66666666666667</ele><time>2026-03-22T13:22:50.998Z</time></trkpt><trkpt lat="16.2585721" lon="-61.3616849"><ele>35.833333333333336</ele><time>2026-03-22T13:22:52.004Z</time></trkpt><trkpt lat="16.2586364" lon="-61.3616981"><ele>37.0</ele><time>2026-03-22T13:22:53.003Z</time></trkpt><trkpt lat="16.2587011" lon="-61.361713"><ele>37.0</ele><time>2026-03-22T13:22:53.996Z</time></trkpt><trkpt lat="16.2587648" lon="-61.3617316"><ele>37.0</ele><time>2026-03-22T13:22:55.005Z</time></trkpt><trkpt lat="16.258831" lon="-61.3617522"><ele>37.0</ele><time>2026-03-22T13:22:55.991Z</time></trkpt><trkpt lat="16.2588996" lon="-61.3617702"><ele>37.0</ele><time>2026-03-22T13:22:57.007Z</time></trkpt><trkpt lat="16.258973" lon="-61.3617926"><ele>37.0</ele><time>2026-03-22T13:22:57.998Z</time></trkpt><trkpt lat="16.2590502" lon="-61.361812"><ele>37.0</ele><time>2026-03-22T13:22:59.008Z</time></trkpt><trkpt lat="16.2591309" lon="-61.3618399"><ele>37.0</ele><time>2026-03-22T13:23:00.006Z</time></trkpt><trkpt lat="16.2592005" lon="-61.3618615"><ele>37.285714285714285</ele><time>2026-03-22T13:23:01.006Z</time></trkpt><trkpt lat="16.2592748" lon="-61.3618869"><ele>37.57142857142857</ele><time>2026-03-22T13:23:02.003Z</time></trkpt><trkpt lat="16.2593415" lon="-61.3619032"><ele>37.85714285714286</ele><time>2026-03-22T13:23:03.009Z</time></trkpt><trkpt lat="16.2594078" lon="-61.3619172"><ele>38.14285714285714</ele><time>2026-03-22T13:23:04.015Z</time></trkpt><trkpt lat="16.2594784" lon="-61.3619328"><ele>38.42857142857142</ele><time>2026-03-22T13:23:05.013Z</time></trkpt><trkpt lat="16.2595548" lon="-61.3619493"><ele>38.714285714285715</ele><time>2026-03-22T13:23:06.007Z</time></trkpt><trkpt lat="16.259629" lon="-61.3619621"><ele>39.0</ele><time>2026-03-22T13:23:07.01Z</time></trkpt><trkpt lat="16.2597051" lon="-61.3619796"><ele>39.0</ele><time>2026-03-22T13:23:08.012Z</time></trkpt><trkpt lat="16.2597843" lon="-61.3619962"><ele>39.0</ele><time>2026-03-22T13:23:08.973Z</time></trkpt><trkpt lat="16.2598644" lon="-61.362018"><ele>39.0</ele><time>2026-03-22T13:23:09.995Z</time></trkpt><trkpt lat="16.2599484" lon="-61.3620356"><ele>39.0</ele><time>2026-03-22T13:23:11.011Z</time></trkpt><trkpt lat="16.2600305" lon="-61.3620543"><ele>39.0</ele><time>2026-03-22T13:23:11.994Z</time></trkpt><trkpt lat="16.2601084" lon="-61.3620706"><ele>39.0</ele><time>2026-03-22T13:23:12.999Z</time></trkpt><trkpt lat="16.2601804" lon="-61.3620831"><ele>39.0</ele><time>2026-03-22T13:23:13.968Z</time></trkpt><trkpt lat="16.2602546" lon="-61.3621025"><ele>39.0</ele><time>2026-03-22T13:23:16.002Z</time></trkpt><trkpt lat="16.2603218" lon="-61.3621495"><ele>39.0</ele><time>2026-03-22T13:23:30.995Z</time></trkpt><trkpt lat="16.2603105" lon="-61.3622441"><ele>39.0</ele><time>2026-03-22T13:23:33.001Z</time></trkpt><trkpt lat="16.2603059" lon="-61.3623158"><ele>39.0</ele><time>2026-03-22T13:23:34.002Z</time></trkpt><trkpt lat="16.2603042" lon="-61.3623905"><ele>39.0</ele><time>2026-03-22T13:23:35.007Z</time></trkpt><trkpt lat="16.2603175" lon="-61.3624796"><ele>39.4</ele><time>2026-03-22T13:23:36.009Z</time></trkpt><trkpt lat="16.2603416" lon="-61.3625853"><ele>39.8</ele><time>2026-03-22T13:23:37.011Z</time></trkpt><trkpt lat="16.2603776" lon="-61.3626884"><ele>40.199999999999996</ele><time>2026-03-22T13:23:38.011Z</time></trkpt><trkpt lat="16.260424" lon="-61.3627901"><ele>40.599999999999994</ele><time>2026-03-22T13:23:39.011Z</time></trkpt><trkpt lat="16.2604944" lon="-61.3628911"><ele>41.0</ele><time>2026-03-22T13:23:40.004Z</time></trkpt><trkpt lat="16.2605703" lon="-61.3629883"><ele>40.75</ele><time>2026-03-22T13:23:41.004Z</time></trkpt><trkpt lat="16.2606545" lon="-61.3630821"><ele>40.5</ele><time>2026-03-22T13:23:42.012Z</time></trkpt><trkpt lat="16.2607324" lon="-61.3631714"><ele>40.25</ele><time>2026-03-22T13:23:43.003Z</time></trkpt><trkpt lat="16.2608021" lon="-61.363268"><ele>40.0</ele><time>2026-03-22T13:23:44.011Z</time></trkpt><trkpt lat="16.260858" lon="-61.3633633"><ele>40.0</ele><time>2026-03-22T13:23:45.008Z</time></trkpt><trkpt lat="16.2608968" lon="-61.3634732"><ele>40.0</ele><time>2026-03-22T13:23:46.002Z</time></trkpt><trkpt lat="16.2609121" lon="-61.3635864"><ele>40.0</ele><time>2026-03-22T13:23:47.007Z</time></trkpt><trkpt lat="16.2609181" lon="-61.3637077"><ele>40.0</ele><time>2026-03-22T13:23:47.966Z</time></trkpt><trkpt lat="16.2609251" lon="-61.3638201"><ele>40.0</ele><time>2026-03-22T13:23:49.005Z</time></trkpt><trkpt lat="16.2609204" lon="-61.3639395"><ele>39.25</ele><time>2026-03-22T13:23:50.009Z</time></trkpt><trkpt lat="16.2609165" lon="-61.3640576"><ele>38.5</ele><time>2026-03-22T13:23:51.008Z</time></trkpt><trkpt lat="16.26092" lon="-61.3641738"><ele>37.75</ele><time>2026-03-22T13:23:52.007Z</time></trkpt><trkpt lat="16.2609196" lon="-61.3642933"><ele>37.0</ele><time>2026-03-22T13:23:53.009Z</time></trkpt><trkpt lat="16.2609191" lon="-61.3644131"><ele>37.0</ele><time>2026-03-22T13:23:54.01Z</time></trkpt><trkpt lat="16.2609215" lon="-61.3645246"><ele>37.0</ele><time>2026-03-22T13:23:55.003Z</time></trkpt><trkpt lat="16.2609212" lon="-61.364639"><ele>37.0</ele><time>2026-03-22T13:23:56.004Z</time></trkpt><trkpt lat="16.2609211" lon="-61.364764"><ele>37.0</ele><time>2026-03-22T13:23:57.007Z</time></trkpt><trkpt lat="16.2609237" lon="-61.3648759"><ele>37.0</ele><time>2026-03-22T13:23:58.011Z</time></trkpt><trkpt lat="16.2609304" lon="-61.3649826"><ele>37.333333333333336</ele><time>2026-03-22T13:23:59.002Z</time></trkpt><trkpt lat="16.2609312" lon="-61.365069"><ele>37.66666666666667</ele><time>2026-03-22T13:24:00.007Z</time></trkpt><trkpt lat="16.2609332" lon="-61.3651419"><ele>38.0</ele><time>2026-03-22T13:24:00.974Z</time></trkpt><trkpt lat="16.2609545" lon="-61.3652577"><ele>38.333333333333336</ele><time>2026-03-22T13:24:03Z</time></trkpt><trkpt lat="16.2610035" lon="-61.3653119"><ele>38.666666666666664</ele><time>2026-03-22T13:24:05.004Z</time></trkpt><trkpt lat="16.2610654" lon="-61.3653411"><ele>39.0</ele><time>2026-03-22T13:24:06.991Z</time></trkpt><trkpt lat="16.2611438" lon="-61.3653769"><ele>39.0</ele><time>2026-03-22T13:24:09.003Z</time></trkpt><trkpt lat="16.2612016" lon="-61.3654093"><ele>39.0</ele><time>2026-03-22T13:24:10Z</time></trkpt><trkpt lat="16.2612708" lon="-61.3654363"><ele>39.0</ele><time>2026-03-22T13:24:11.004Z</time></trkpt><trkpt lat="16.2613902" lon="-61.365438"><ele>39.0</ele><time>2026-03-22T13:24:12.995Z</time></trkpt><trkpt lat="16.2615006" lon="-61.3654396"><ele>39.0</ele><time>2026-03-22T13:24:15.009Z</time></trkpt><trkpt lat="16.2616032" lon="-61.365449"><ele>39.8</ele><time>2026-03-22T13:24:17.009Z</time></trkpt><trkpt lat="16.2616993" lon="-61.3654601"><ele>40.599999999999994</ele><time>2026-03-22T13:24:19.007Z</time></trkpt><trkpt lat="16.2617887" lon="-61.3654623"><ele>41.4</ele><time>2026-03-22T13:24:21.003Z</time></trkpt><trkpt lat="16.2618875" lon="-61.3654732"><ele>42.199999999999996</ele><time>2026-03-22T13:24:22.99Z</time></trkpt><trkpt lat="16.2619771" lon="-61.3654695"><ele>43.0</ele><time>2026-03-22T13:24:25.016Z</time></trkpt><trkpt lat="16.2620522" lon="-61.3654333"><ele>43.0</ele><time>2026-03-22T13:24:27.007Z</time></trkpt><trkpt lat="16.2621022" lon="-61.3653657"><ele>43.0</ele><time>2026-03-22T13:24:29.989Z</time></trkpt><trkpt lat="16.2621561" lon="-61.365302"><ele>43.0</ele><time>2026-03-22T13:24:32.007Z</time></trkpt><trkpt lat="16.2622085" lon="-61.3652226"><ele>43.0</ele><time>2026-03-22T13:24:33.974Z</time></trkpt><trkpt lat="16.2622532" lon="-61.3651427"><ele>43.0</ele><time>2026-03-22T13:24:36.006Z</time></trkpt><trkpt lat="16.2623091" lon="-61.3650493"><ele>42.0</ele><time>2026-03-22T13:24:38.012Z</time></trkpt><trkpt lat="16.2623447" lon="-61.3649938"><ele>41.0</ele><time>2026-03-22T13:24:39.998Z</time></trkpt><trkpt lat="16.2623939" lon="-61.3649428"><ele>40.0</ele><time>2026-03-22T13:24:44.981Z</time></trkpt><trkpt lat="16.2624427" lon="-61.3648644"><ele>39.0</ele><time>2026-03-22T13:24:48.985Z</time></trkpt><trkpt lat="16.2624733" lon="-61.3647943"><ele>38.0</ele><time>2026-03-22T13:24:50.983Z</time></trkpt><trkpt lat="16.2624904" lon="-61.3647009"><ele>37.0</ele><time>2026-03-22T13:24:52.982Z</time></trkpt><trkpt lat="16.2625082" lon="-61.3645993"><ele>36.0</ele><time>2026-03-22T13:24:54.984Z</time></trkpt><trkpt lat="16.262515" lon="-61.3644771"><ele>35.0</ele><time>2026-03-22T13:24:56.996Z</time></trkpt><trkpt lat="16.2625312" lon="-61.3643592"><ele>34.0</ele><time>2026-03-22T13:24:59.005Z</time></trkpt><trkpt lat="16.2625638" lon="-61.3642365"><ele>33.0</ele><time>2026-03-22T13:25:00.991Z</time></trkpt><trkpt lat="16.2626011" lon="-61.3641199"><ele>33.0</ele><time>2026-03-22T13:25:03.005Z</time></trkpt><trkpt lat="16.2626703" lon="-61.3640228"><ele>33.0</ele><time>2026-03-22T13:25:05.004Z</time></trkpt><trkpt lat="16.2627565" lon="-61.3639337"><ele>33.0</ele><time>2026-03-22T13:25:07.003Z</time></trkpt><trkpt lat="16.2628549" lon="-61.3638569"><ele>33.0</ele><time>2026-03-22T13:25:09.069Z</time></trkpt><trkpt lat="16.2629697" lon="-61.3638006"><ele>33.285714285714285</ele><time>2026-03-22T13:25:11.05Z</time></trkpt><trkpt lat="16.2630307" lon="-61.3637822"><ele>33.57142857142857</ele><time>2026-03-22T13:25:11.98Z</time></trkpt><trkpt lat="16.2630992" lon="-61.3637675"><ele>33.85714285714286</ele><time>2026-03-22T13:25:12.998Z</time></trkpt><trkpt lat="16.263167" lon="-61.3637524"><ele>34.14285714285714</ele><time>2026-03-22T13:25:13.985Z</time></trkpt><trkpt lat="16.2632299" lon="-61.3637442"><ele>34.42857142857143</ele><time>2026-03-22T13:25:15.064Z</time></trkpt><trkpt lat="16.2633177" lon="-61.3637051"><ele>34.714285714285715</ele><time>2026-03-22T13:25:16.982Z</time></trkpt><trkpt lat="16.2633651" lon="-61.3636485"><ele>35.0</ele><time>2026-03-22T13:25:19.979Z</time></trkpt><trkpt lat="16.2633507" lon="-61.3635731"><ele>33.166666666666664</ele><time>2026-03-22T13:25:30.995Z</time></trkpt><trkpt lat="16.2633344" lon="-61.3634887"><ele>31.333333333333332</ele><time>2026-03-22T13:25:32.975Z</time></trkpt><trkpt lat="16.2633093" lon="-61.3634036"><ele>29.5</ele><time>2026-03-22T13:25:34.973Z</time></trkpt><trkpt lat="16.2632808" lon="-61.3633178"><ele>27.666666666666664</ele><time>2026-03-22T13:25:36.979Z</time></trkpt><trkpt lat="16.2632596" lon="-61.3632353"><ele>25.833333333333332</ele><time>2026-03-22T13:25:38.993Z</time></trkpt><trkpt lat="16.2632408" lon="-61.3631518"><ele>24.0</ele><time>2026-03-22T13:25:40.979Z</time></trkpt><trkpt lat="16.2632285" lon="-61.3630317"><ele>23.5</ele><time>2026-03-22T13:25:42.986Z</time></trkpt><trkpt lat="16.2632135" lon="-61.3629592"><ele>23.0</ele><time>2026-03-22T13:25:43.995Z</time></trkpt><trkpt lat="16.2631946" lon="-61.3628848"><ele>22.5</ele><time>2026-03-22T13:25:44.993Z</time></trkpt><trkpt lat="16.2631678" lon="-61.3627775"><ele>22.0</ele><time>2026-03-22T13:25:46.984Z</time></trkpt><trkpt lat="16.2631516" lon="-61.3627115"><ele>21.5</ele><time>2026-03-22T13:25:47.989Z</time></trkpt><trkpt lat="16.2631379" lon="-61.3626468"><ele>21.0</ele><time>2026-03-22T13:25:48.988Z</time></trkpt><trkpt lat="16.2631231" lon="-61.3625324"><ele>21.0</ele><time>2026-03-22T13:25:50.994Z</time></trkpt><trkpt lat="16.2631234" lon="-61.36243"><ele>21.0</ele><time>2026-03-22T13:25:52.995Z</time></trkpt><trkpt lat="16.2631095" lon="-61.3623201"><ele>21.0</ele><time>2026-03-22T13:25:54.993Z</time></trkpt><trkpt lat="16.2630935" lon="-61.3622539"><ele>21.0</ele><time>2026-03-22T13:25:55.994Z</time></trkpt><trkpt lat="16.2630828" lon="-61.3621816"><ele>21.0</ele><time>2026-03-22T13:25:56.996Z</time></trkpt><trkpt lat="16.2630792" lon="-61.3621141"><ele>21.0</ele><time>2026-03-22T13:25:57.999Z</time></trkpt><trkpt lat="16.2630882" lon="-61.3620126"><ele>21.166666666666668</ele><time>2026-03-22T13:25:59.99Z</time></trkpt><trkpt lat="16.2631211" lon="-61.36194"><ele>21.333333333333332</ele><time>2026-03-22T13:26:02.978Z</time></trkpt><trkpt lat="16.2631783" lon="-61.3618955"><ele>21.5</ele><time>2026-03-22T13:26:05.004Z</time></trkpt><trkpt lat="16.263255" lon="-61.3618689"><ele>21.666666666666664</ele><time>2026-03-22T13:26:07.004Z</time></trkpt><trkpt lat="16.26338" lon="-61.3618507"><ele>21.833333333333332</ele><time>2026-03-22T13:26:08.964Z</time></trkpt><trkpt lat="16.2634526" lon="-61.3618304"><ele>22.0</ele><time>2026-03-22T13:26:09.991Z</time></trkpt><trkpt lat="16.2635629" lon="-61.3617876"><ele>22.0</ele><time>2026-03-22T13:26:11.995Z</time></trkpt><trkpt lat="16.2636392" lon="-61.3617756"><ele>22.0</ele><time>2026-03-22T13:26:13.036Z</time></trkpt><trkpt lat="16.2637072" lon="-61.3617635"><ele>22.0</ele><time>2026-03-22T13:26:13.986Z</time></trkpt><trkpt lat="16.2637808" lon="-61.3617583"><ele>22.0</ele><time>2026-03-22T13:26:14.997Z</time></trkpt><trkpt lat="16.2638528" lon="-61.3617566"><ele>22.0</ele><time>2026-03-22T13:26:15.999Z</time></trkpt><trkpt lat="16.2639226" lon="-61.3617429"><ele>22.0</ele><time>2026-03-22T13:26:16.99Z</time></trkpt><trkpt lat="16.2640449" lon="-61.3617197"><ele>22.5</ele><time>2026-03-22T13:26:19.063Z</time></trkpt><trkpt lat="16.2641778" lon="-61.3617103"><ele>23.0</ele><time>2026-03-22T13:26:21.033Z</time></trkpt><trkpt lat="16.2642997" lon="-61.3617066"><ele>23.5</ele><time>2026-03-22T13:26:22.998Z</time></trkpt><trkpt lat="16.2644193" lon="-61.3616944"><ele>24.0</ele><time>2026-03-22T13:26:25.059Z</time></trkpt><trkpt lat="16.2644935" lon="-61.3617076"><ele>24.0</ele><time>2026-03-22T13:26:26.976Z</time></trkpt><trkpt lat="16.2645568" lon="-61.3616606"><ele>24.0</ele><time>2026-03-22T13:26:31.948Z</time></trkpt><trkpt lat="16.2646333" lon="-61.3615967"><ele>24.0</ele><time>2026-03-22T13:26:33.982Z</time></trkpt><trkpt lat="16.264709" lon="-61.3615192"><ele>24.0</ele><time>2026-03-22T13:26:35.98Z</time></trkpt><trkpt lat="16.264758" lon="-61.361478"><ele>24.0</ele><time>2026-03-22T13:26:36.977Z</time></trkpt><trkpt lat="16.2648415" lon="-61.3613942"><ele>25.0</ele><time>2026-03-22T13:26:38.987Z</time></trkpt><trkpt lat="16.2648888" lon="-61.3613369"><ele>26.0</ele><time>2026-03-22T13:26:39.96Z</time></trkpt><trkpt lat="16.2649385" lon="-61.3612899"><ele>27.0</ele><time>2026-03-22T13:26:41.033Z</time></trkpt><trkpt lat="16.2649917" lon="-61.3612451"><ele>28.0</ele><time>2026-03-22T13:26:41.982Z</time></trkpt><trkpt lat="16.2650401" lon="-61.3612013"><ele>29.0</ele><time>2026-03-22T13:26:42.992Z</time></trkpt><trkpt lat="16.2651369" lon="-61.3611318"><ele>30.0</ele><time>2026-03-22T13:26:45.011Z</time></trkpt><trkpt lat="16.265241" lon="-61.3610836"><ele>30.0</ele><time>2026-03-22T13:26:46.995Z</time></trkpt><trkpt lat="16.2653626" lon="-61.3610467"><ele>30.0</ele><time>2026-03-22T13:26:48.996Z</time></trkpt><trkpt lat="16.2654237" lon="-61.3610253"><ele>30.0</ele><time>2026-03-22T13:26:50.061Z</time></trkpt><trkpt lat="16.2654857" lon="-61.3610051"><ele>30.0</ele><time>2026-03-22T13:26:51.064Z</time></trkpt><trkpt lat="16.2655484" lon="-61.3609942"><ele>30.0</ele><time>2026-03-22T13:26:51.992Z</time></trkpt><trkpt lat="16.265672" lon="-61.3609757"><ele>30.0</ele><time>2026-03-22T13:26:53.99Z</time></trkpt><trkpt lat="16.2657422" lon="-61.3609764"><ele>29.333333333333332</ele><time>2026-03-22T13:26:55.056Z</time></trkpt><trkpt lat="16.265813" lon="-61.3609766"><ele>28.666666666666664</ele><time>2026-03-22T13:26:56.045Z</time></trkpt><trkpt lat="16.2658764" lon="-61.3609753"><ele>28.0</ele><time>2026-03-22T13:26:57.005Z</time></trkpt><trkpt lat="16.2659404" lon="-61.3609824"><ele>27.333333333333332</ele><time>2026-03-22T13:26:58.005Z</time></trkpt><trkpt lat="16.2660037" lon="-61.3609861"><ele>26.666666666666664</ele><time>2026-03-22T13:26:59.001Z</time></trkpt><trkpt lat="16.2661095" lon="-61.3609827"><ele>26.0</ele><time>2026-03-22T13:27:01.038Z</time></trkpt><trkpt lat="16.2662088" lon="-61.3609767"><ele>25.999999999999996</ele><time>2026-03-22T13:27:02.985Z</time></trkpt><trkpt lat="16.2663203" lon="-61.3609388"><ele>26.0</ele><time>2026-03-22T13:27:04.999Z</time></trkpt><trkpt lat="16.2663698" lon="-61.3608948"><ele>26.0</ele><time>2026-03-22T13:27:05.986Z</time></trkpt><trkpt lat="16.2664075" lon="-61.3608345"><ele>26.0</ele><time>2026-03-22T13:27:06.986Z</time></trkpt><trkpt lat="16.2664358" lon="-61.3607697"><ele>25.999999999999996</ele><time>2026-03-22T13:27:07.957Z</time></trkpt><trkpt lat="16.2664611" lon="-61.3607003"><ele>26.0</ele><time>2026-03-22T13:27:08.958Z</time></trkpt><trkpt lat="16.2664788" lon="-61.36061"><ele>26.200000000000003</ele><time>2026-03-22T13:27:09.955Z</time></trkpt><trkpt lat="16.2664851" lon="-61.360505"><ele>26.400000000000002</ele><time>2026-03-22T13:27:10.966Z</time></trkpt><trkpt lat="16.2664773" lon="-61.3604012"><ele>26.6</ele><time>2026-03-22T13:27:11.969Z</time></trkpt><trkpt lat="16.2664592" lon="-61.3602991"><ele>26.8</ele><time>2026-03-22T13:27:12.981Z</time></trkpt><trkpt lat="16.2664353" lon="-61.3601874"><ele>27.0</ele><time>2026-03-22T13:27:14.016Z</time></trkpt><trkpt lat="16.2664074" lon="-61.3601102"><ele>27.400000000000002</ele><time>2026-03-22T13:27:15.028Z</time></trkpt><trkpt lat="16.2663545" lon="-61.3600004"><ele>27.800000000000004</ele><time>2026-03-22T13:27:16.974Z</time></trkpt><trkpt lat="16.2662711" lon="-61.3599121"><ele>28.2</ele><time>2026-03-22T13:27:18.99Z</time></trkpt><trkpt lat="16.2661744" lon="-61.3598475"><ele>28.6</ele><time>2026-03-22T13:27:21Z</time></trkpt><trkpt lat="16.2661142" lon="-61.3598171"><ele>29.0</ele><time>2026-03-22T13:27:21.986Z</time></trkpt><trkpt lat="16.266044" lon="-61.359791"><ele>29.0</ele><time>2026-03-22T13:27:22.991Z</time></trkpt><trkpt lat="16.2659791" lon="-61.3597709"><ele>29.0</ele><time>2026-03-22T13:27:24.084Z</time></trkpt><trkpt lat="16.2658454" lon="-61.3597758"><ele>29.0</ele><time>2026-03-22T13:27:26.044Z</time></trkpt><trkpt lat="16.2657333" lon="-61.3597974"><ele>29.0</ele><time>2026-03-22T13:27:27.991Z</time></trkpt><trkpt lat="16.2656408" lon="-61.3598192"><ele>29.0</ele><time>2026-03-22T13:27:29.995Z</time></trkpt><trkpt lat="16.2655757" lon="-61.3598234"><ele>29.833333333333332</ele><time>2026-03-22T13:27:32.978Z</time></trkpt><trkpt lat="16.2655875" lon="-61.3597397"><ele>30.666666666666664</ele><time>2026-03-22T13:27:35.981Z</time></trkpt><trkpt lat="16.2656154" lon="-61.3596493"><ele>31.5</ele><time>2026-03-22T13:27:37.984Z</time></trkpt><trkpt lat="16.2656379" lon="-61.3595814"><ele>32.333333333333336</ele><time>2026-03-22T13:27:38.99Z</time></trkpt><trkpt lat="16.2657116" lon="-61.3594738"><ele>33.16666666666667</ele><time>2026-03-22T13:27:40.97Z</time></trkpt><trkpt lat="16.2657703" lon="-61.3594373"><ele>34.0</ele><time>2026-03-22T13:27:41.983Z</time></trkpt><trkpt lat="16.2658296" lon="-61.3594025"><ele>33.99999999999999</ele><time>2026-03-22T13:27:42.986Z</time></trkpt><trkpt lat="16.2658975" lon="-61.3593862"><ele>34.0</ele><time>2026-03-22T13:27:43.984Z</time></trkpt><trkpt lat="16.26597" lon="-61.3593814"><ele>34.0</ele><time>2026-03-22T13:27:44.997Z</time></trkpt><trkpt lat="16.2660476" lon="-61.359376"><ele>34.0</ele><time>2026-03-22T13:27:45.987Z</time></trkpt><trkpt lat="16.2661201" lon="-61.3593664"><ele>34.0</ele><time>2026-03-22T13:27:46.992Z</time></trkpt><trkpt lat="16.266187" lon="-61.359344"><ele>33.99999999999999</ele><time>2026-03-22T13:27:47.997Z</time></trkpt><trkpt lat="16.2662489" lon="-61.3593092"><ele>34.0</ele><time>2026-03-22T13:27:48.981Z</time></trkpt><trkpt lat="16.2663264" lon="-61.3592034"><ele>34.0</ele><time>2026-03-22T13:27:50.977Z</time></trkpt><trkpt lat="16.2663605" lon="-61.3590874"><ele>34.0</ele><time>2026-03-22T13:27:52.989Z</time></trkpt><trkpt lat="16.2663734" lon="-61.358944"><ele>34.0</ele><time>2026-03-22T13:27:54.997Z</time></trkpt><trkpt lat="16.266374" lon="-61.3588727"><ele>34.0</ele><time>2026-03-22T13:27:55.997Z</time></trkpt><trkpt lat="16.2663657" lon="-61.3587996"><ele>34.0</ele><time>2026-03-22T13:27:57.988Z</time></trkpt><trkpt lat="16.2663579" lon="-61.3587345"><ele>34.2</ele><time>2026-03-22T13:28:07.965Z</time></trkpt><trkpt lat="16.266238" lon="-61.3586572"><ele>34.4</ele><time>2026-03-22T13:28:09.988Z</time></trkpt><trkpt lat="16.2661567" lon="-61.3586178"><ele>34.6</ele><time>2026-03-22T13:28:10.99Z</time></trkpt><trkpt lat="16.2660764" lon="-61.3585768"><ele>34.8</ele><time>2026-03-22T13:28:12.001Z</time></trkpt><trkpt lat="16.2660142" lon="-61.3585314"><ele>35.0</ele><time>2026-03-22T13:28:12.983Z</time></trkpt><trkpt lat="16.2659757" lon="-61.3584426"><ele>35.0</ele><time>2026-03-22T13:28:14.998Z</time></trkpt><trkpt lat="16.2660149" lon="-61.3583306"><ele>35.0</ele><time>2026-03-22T13:28:16.995Z</time></trkpt><trkpt lat="16.2660526" lon="-61.3581888"><ele>35.0</ele><time>2026-03-22T13:28:19.006Z</time></trkpt><trkpt lat="16.2660785" lon="-61.3580994"><ele>35.0</ele><time>2026-03-22T13:28:19.982Z</time></trkpt><trkpt lat="16.2661" lon="-61.3580092"><ele>35.0</ele><time>2026-03-22T13:28:20.993Z</time></trkpt><trkpt lat="16.2661222" lon="-61.3579178"><ele>34.0</ele><time>2026-03-22T13:28:21.996Z</time></trkpt><trkpt lat="16.2661453" lon="-61.357819"><ele>33.0</ele><time>2026-03-22T13:28:22.995Z</time></trkpt><trkpt lat="16.2661677" lon="-61.3577222"><ele>32.0</ele><time>2026-03-22T13:28:23.993Z</time></trkpt><trkpt lat="16.26619" lon="-61.3576317"><ele>31.0</ele><time>2026-03-22T13:28:24.996Z</time></trkpt><trkpt lat="16.2662071" lon="-61.3575395"><ele>30.0</ele><time>2026-03-22T13:28:25.998Z</time></trkpt><trkpt lat="16.2662249" lon="-61.357451"><ele>30.0</ele><time>2026-03-22T13:28:27.002Z</time></trkpt><trkpt lat="16.2662404" lon="-61.3573646"><ele>30.0</ele><time>2026-03-22T13:28:28.054Z</time></trkpt><trkpt lat="16.2662595" lon="-61.3572861"><ele>30.0</ele><time>2026-03-22T13:28:29.042Z</time></trkpt><trkpt lat="16.2662787" lon="-61.3572047"><ele>30.0</ele><time>2026-03-22T13:28:29.988Z</time></trkpt><trkpt lat="16.2662973" lon="-61.3571214"><ele>30.0</ele><time>2026-03-22T13:28:31.024Z</time></trkpt><trkpt lat="16.2663223" lon="-61.3570387"><ele>30.0</ele><time>2026-03-22T13:28:31.987Z</time></trkpt><trkpt lat="16.2663437" lon="-61.356954"><ele>29.833333333333332</ele><time>2026-03-22T13:28:32.989Z</time></trkpt><trkpt lat="16.2663618" lon="-61.3568798"><ele>29.666666666666664</ele><time>2026-03-22T13:28:34.048Z</time></trkpt><trkpt lat="16.2663813" lon="-61.3568027"><ele>29.5</ele><time>2026-03-22T13:28:35.023Z</time></trkpt><trkpt lat="16.2663958" lon="-61.3567229"><ele>29.333333333333332</ele><time>2026-03-22T13:28:36.018Z</time></trkpt><trkpt lat="16.2664071" lon="-61.3566449"><ele>29.166666666666664</ele><time>2026-03-22T13:28:36.989Z</time></trkpt><trkpt lat="16.2664105" lon="-61.3565584"><ele>29.0</ele><time>2026-03-22T13:28:37.98Z</time></trkpt><trkpt lat="16.2664096" lon="-61.3564722"><ele>29.0</ele><time>2026-03-22T13:28:38.991Z</time></trkpt><trkpt lat="16.2664074" lon="-61.3563733"><ele>29.0</ele><time>2026-03-22T13:28:39.992Z</time></trkpt><trkpt lat="16.2664028" lon="-61.3562796"><ele>29.0</ele><time>2026-03-22T13:28:40.992Z</time></trkpt><trkpt lat="16.2664001" lon="-61.356184"><ele>29.0</ele><time>2026-03-22T13:28:41.993Z</time></trkpt><trkpt lat="16.2663934" lon="-61.3560896"><ele>29.0</ele><time>2026-03-22T13:28:42.992Z</time></trkpt><trkpt lat="16.2663893" lon="-61.3560004"><ele>28.833333333333332</ele><time>2026-03-22T13:28:43.999Z</time></trkpt><trkpt lat="16.2663856" lon="-61.3559277"><ele>28.666666666666664</ele><time>2026-03-22T13:28:44.993Z</time></trkpt><trkpt lat="16.2663772" lon="-61.3558421"><ele>28.5</ele><time>2026-03-22T13:28:47.002Z</time></trkpt><trkpt lat="16.2664227" lon="-61.3557814"><ele>28.333333333333336</ele><time>2026-03-22T13:28:48.991Z</time></trkpt><trkpt lat="16.2665191" lon="-61.3557118"><ele>28.166666666666668</ele><time>2026-03-22T13:28:51.052Z</time></trkpt><trkpt lat="16.2665771" lon="-61.3556713"><ele>28.0</ele><time>2026-03-22T13:28:51.987Z</time></trkpt><trkpt lat="16.2666447" lon="-61.3556199"><ele>27.166666666666668</ele><time>2026-03-22T13:28:52.981Z</time></trkpt><trkpt lat="16.266711" lon="-61.3555702"><ele>26.333333333333336</ele><time>2026-03-22T13:28:53.995Z</time></trkpt><trkpt lat="16.2667668" lon="-61.3555349"><ele>25.5</ele><time>2026-03-22T13:28:55.002Z</time></trkpt><trkpt lat="16.2668229" lon="-61.3554511"><ele>24.666666666666668</ele><time>2026-03-22T13:28:56.996Z</time></trkpt><trkpt lat="16.2668122" lon="-61.3553265"><ele>23.833333333333336</ele><time>2026-03-22T13:28:59.037Z</time></trkpt><trkpt lat="16.2667777" lon="-61.3552569"><ele>23.0</ele><time>2026-03-22T13:29:00.031Z</time></trkpt><trkpt lat="16.2667304" lon="-61.3551757"><ele>23.0</ele><time>2026-03-22T13:29:01.061Z</time></trkpt><trkpt lat="16.2666774" lon="-61.3550922"><ele>23.0</ele><time>2026-03-22T13:29:01.992Z</time></trkpt><trkpt lat="16.2666335" lon="-61.3550148"><ele>23.0</ele><time>2026-03-22T13:29:03.001Z</time></trkpt><trkpt lat="16.2666006" lon="-61.3549494"><ele>23.0</ele><time>2026-03-22T13:29:04.01Z</time></trkpt><trkpt lat="16.2665992" lon="-61.3548271"><ele>23.0</ele><time>2026-03-22T13:29:05.992Z</time></trkpt><trkpt lat="16.2666218" lon="-61.3547557"><ele>23.0</ele><time>2026-03-22T13:29:06.995Z</time></trkpt><trkpt lat="16.2666376" lon="-61.3546818"><ele>24.166666666666668</ele><time>2026-03-22T13:29:08.001Z</time></trkpt><trkpt lat="16.266653" lon="-61.3546009"><ele>25.333333333333336</ele><time>2026-03-22T13:29:08.992Z</time></trkpt><trkpt lat="16.266662" lon="-61.3545324"><ele>26.5</ele><time>2026-03-22T13:29:09.994Z</time></trkpt><trkpt lat="16.2666369" lon="-61.3544139"><ele>27.666666666666668</ele><time>2026-03-22T13:29:11.99Z</time></trkpt><trkpt lat="16.2666231" lon="-61.3543175"><ele>28.833333333333332</ele><time>2026-03-22T13:29:13.995Z</time></trkpt><trkpt lat="16.2666299" lon="-61.3542288"><ele>30.0</ele><time>2026-03-22T13:29:16.033Z</time></trkpt><trkpt lat="16.2666363" lon="-61.3541605"><ele>30.0</ele><time>2026-03-22T13:29:17.987Z</time></trkpt><trkpt lat="16.2666479" lon="-61.3540736"><ele>30.0</ele><time>2026-03-22T13:29:20.037Z</time></trkpt><trkpt lat="16.2666345" lon="-61.3539685"><ele>30.0</ele><time>2026-03-22T13:29:21.992Z</time></trkpt><trkpt lat="16.2666173" lon="-61.3538451"><ele>30.0</ele><time>2026-03-22T13:29:23.989Z</time></trkpt><trkpt lat="16.266621" lon="-61.3537767"><ele>30.0</ele><time>2026-03-22T13:29:24.995Z</time></trkpt><trkpt lat="16.266619" lon="-61.3537086"><ele>30.0</ele><time>2026-03-22T13:29:26.001Z</time></trkpt><trkpt lat="16.2666134" lon="-61.353638"><ele>30.833333333333332</ele><time>2026-03-22T13:29:26.993Z</time></trkpt><trkpt lat="16.2665923" lon="-61.3535149"><ele>31.666666666666664</ele><time>2026-03-22T13:29:28.992Z</time></trkpt><trkpt lat="16.2665773" lon="-61.3534436"><ele>32.5</ele><time>2026-03-22T13:29:30.045Z</time></trkpt><trkpt lat="16.2665602" lon="-61.353377"><ele>33.33333333333333</ele><time>2026-03-22T13:29:30.994Z</time></trkpt><trkpt lat="16.2665384" lon="-61.3533087"><ele>34.166666666666664</ele><time>2026-03-22T13:29:32.002Z</time></trkpt><trkpt lat="16.2664999" lon="-61.3532417"><ele>35.0</ele><time>2026-03-22T13:29:32.994Z</time></trkpt><trkpt lat="16.2664633" lon="-61.3531849"><ele>34.0</ele><time>2026-03-22T13:29:33.975Z</time></trkpt><trkpt lat="16.2664103" lon="-61.3530983"><ele>33.0</ele><time>2026-03-22T13:29:36Z</time></trkpt><trkpt lat="16.2663938" lon="-61.3530346"><ele>32.0</ele><time>2026-03-22T13:29:37.999Z</time></trkpt><trkpt lat="16.2663689" lon="-61.3529709"><ele>31.0</ele><time>2026-03-22T13:29:39.991Z</time></trkpt><trkpt lat="16.2663082" lon="-61.3528908"><ele>29.999999999999996</ele><time>2026-03-22T13:29:42.004Z</time></trkpt><trkpt lat="16.2662666" lon="-61.3528376"><ele>29.0</ele><time>2026-03-22T13:29:42.959Z</time></trkpt><trkpt lat="16.2662349" lon="-61.3527761"><ele>28.999999999999996</ele><time>2026-03-22T13:29:43.996Z</time></trkpt><trkpt lat="16.2662187" lon="-61.3527047"><ele>29.0</ele><time>2026-03-22T13:29:44.993Z</time></trkpt><trkpt lat="16.2662119" lon="-61.3526313"><ele>29.0</ele><time>2026-03-22T13:29:45.99Z</time></trkpt><trkpt lat="16.2662207" lon="-61.3525628"><ele>29.0</ele><time>2026-03-22T13:29:47.003Z</time></trkpt><trkpt lat="16.2662292" lon="-61.352494"><ele>28.999999999999996</ele><time>2026-03-22T13:29:47.994Z</time></trkpt><trkpt lat="16.2662557" lon="-61.3523737"><ele>29.0</ele><time>2026-03-22T13:29:49.99Z</time></trkpt><trkpt lat="16.2662633" lon="-61.3522622"><ele>28.166666666666664</ele><time>2026-03-22T13:29:51.999Z</time></trkpt><trkpt lat="16.2662338" lon="-61.3521643"><ele>27.333333333333332</ele><time>2026-03-22T13:29:53.979Z</time></trkpt><trkpt lat="16.2662134" lon="-61.3520885"><ele>26.5</ele><time>2026-03-22T13:29:55.994Z</time></trkpt><trkpt lat="16.2661759" lon="-61.3520214"><ele>25.666666666666664</ele><time>2026-03-22T13:29:57.975Z</time></trkpt><trkpt lat="16.2661422" lon="-61.3519468"><ele>24.833333333333332</ele><time>2026-03-22T13:29:59.997Z</time></trkpt><trkpt lat="16.266129" lon="-61.3518718"><ele>24.0</ele><time>2026-03-22T13:30:01.982Z</time></trkpt><trkpt lat="16.266122" lon="-61.3517812"><ele>24.0</ele><time>2026-03-22T13:30:03.974Z</time></trkpt><trkpt lat="16.2661" lon="-61.3517012"><ele>24.0</ele><time>2026-03-22T13:30:05.974Z</time></trkpt><trkpt lat="16.2660624" lon="-61.3516475"><ele>24.0</ele><time>2026-03-22T13:30:25.002Z</time></trkpt><trkpt lat="16.2660375" lon="-61.3515824"><ele>24.0</ele><time>2026-03-22T13:30:48.98Z</time></trkpt><trkpt lat="16.2660439" lon="-61.3514885"><ele>24.0</ele><time>2026-03-22T13:30:51.999Z</time></trkpt><trkpt lat="16.2660574" lon="-61.3513833"><ele>24.0</ele><time>2026-03-22T13:30:53.983Z</time></trkpt><trkpt lat="16.2660714" lon="-61.3513124"><ele>23.666666666666668</ele><time>2026-03-22T13:30:54.987Z</time></trkpt><trkpt lat="16.2660897" lon="-61.3512186"><ele>23.333333333333332</ele><time>2026-03-22T13:30:55.99Z</time></trkpt><trkpt lat="16.2660935" lon="-61.3511311"><ele>23.0</ele><time>2026-03-22T13:30:56.997Z</time></trkpt><trkpt lat="16.2660806" lon="-61.3510363"><ele>22.666666666666664</ele><time>2026-03-22T13:30:58.979Z</time></trkpt><trkpt lat="16.2660743" lon="-61.3509475"><ele>22.333333333333332</ele><time>2026-03-22T13:31:01.988Z</time></trkpt><trkpt lat="16.2660727" lon="-61.3508807"><ele>22.0</ele><time>2026-03-22T13:31:03.989Z</time></trkpt><trkpt lat="16.2660733" lon="-61.350775"><ele>22.0</ele><time>2026-03-22T13:31:05.991Z</time></trkpt><trkpt lat="16.2660673" lon="-61.3506835"><ele>22.0</ele><time>2026-03-22T13:31:06.997Z</time></trkpt><trkpt lat="16.2660559" lon="-61.3505911"><ele>22.0</ele><time>2026-03-22T13:31:07.993Z</time></trkpt><trkpt lat="16.266045" lon="-61.3504896"><ele>22.0</ele><time>2026-03-22T13:31:10.002Z</time></trkpt><trkpt lat="16.266041" lon="-61.3504047"><ele>22.0</ele><time>2026-03-22T13:31:13.971Z</time></trkpt><trkpt lat="16.2660527" lon="-61.3503385"><ele>22.0</ele><time>2026-03-22T13:31:26.973Z</time></trkpt><trkpt lat="16.2661021" lon="-61.3502891"><ele>23.166666666666664</ele><time>2026-03-22T13:31:28.98Z</time></trkpt><trkpt lat="16.2661603" lon="-61.3502498"><ele>24.333333333333332</ele><time>2026-03-22T13:31:30.989Z</time></trkpt><trkpt lat="16.2662176" lon="-61.3501712"><ele>25.5</ele><time>2026-03-22T13:31:33.975Z</time></trkpt><trkpt lat="16.2662138" lon="-61.3500752"><ele>26.666666666666664</ele><time>2026-03-22T13:31:37.005Z</time></trkpt><trkpt lat="16.2662072" lon="-61.3499894"><ele>27.833333333333332</ele><time>2026-03-22T13:31:39.991Z</time></trkpt><trkpt lat="16.2662078" lon="-61.3499148"><ele>29.0</ele><time>2026-03-22T13:31:41.993Z</time></trkpt><trkpt lat="16.2662193" lon="-61.3497956"><ele>28.999999999999996</ele><time>2026-03-22T13:31:43.99Z</time></trkpt><trkpt lat="16.2662273" lon="-61.34972"><ele>29.0</ele><time>2026-03-22T13:31:44.992Z</time></trkpt><trkpt lat="16.2662352" lon="-61.3496511"><ele>29.0</ele><time>2026-03-22T13:31:46Z</time></trkpt><trkpt lat="16.2662575" lon="-61.3495324"><ele>29.0</ele><time>2026-03-22T13:31:48.005Z</time></trkpt><trkpt lat="16.2662743" lon="-61.3494626"><ele>28.999999999999996</ele><time>2026-03-22T13:31:48.991Z</time></trkpt><trkpt lat="16.2662823" lon="-61.3493961"><ele>29.0</ele><time>2026-03-22T13:31:49.997Z</time></trkpt><trkpt lat="16.2663084" lon="-61.3492684"><ele>29.333333333333332</ele><time>2026-03-22T13:31:51.999Z</time></trkpt><trkpt lat="16.2663201" lon="-61.3491897"><ele>29.666666666666664</ele><time>2026-03-22T13:31:52.99Z</time></trkpt><trkpt lat="16.2663298" lon="-61.3491238"><ele>30.0</ele><time>2026-03-22T13:31:53.994Z</time></trkpt><trkpt lat="16.2663405" lon="-61.3490434"><ele>30.333333333333336</ele><time>2026-03-22T13:31:55.985Z</time></trkpt><trkpt lat="16.2663727" lon="-61.3489801"><ele>30.666666666666668</ele><time>2026-03-22T13:31:58.994Z</time></trkpt><trkpt lat="16.2664521" lon="-61.3489619"><ele>31.0</ele><time>2026-03-22T13:32:15.001Z</time></trkpt><trkpt lat="16.2665957" lon="-61.3490026"><ele>33.0</ele><time>2026-03-22T13:32:16.993Z</time></trkpt><trkpt lat="16.2667149" lon="-61.3490356"><ele>35.0</ele><time>2026-03-22T13:32:17.99Z</time></trkpt><trkpt lat="16.2668581" lon="-61.3490744"><ele>37.0</ele><time>2026-03-22T13:32:18.992Z</time></trkpt><trkpt lat="16.2670037" lon="-61.3491151"><ele>39.0</ele><time>2026-03-22T13:32:19.993Z</time></trkpt><trkpt lat="16.2671242" lon="-61.3491454"><ele>39.0</ele><time>2026-03-22T13:32:20.993Z</time></trkpt><trkpt lat="16.2672305" lon="-61.3491801"><ele>39.0</ele><time>2026-03-22T13:32:22.005Z</time></trkpt><trkpt lat="16.267316" lon="-61.3491853"><ele>39.0</ele><time>2026-03-22T13:32:22.997Z</time></trkpt><trkpt lat="16.2673807" lon="-61.3491654"><ele>39.0</ele><time>2026-03-22T13:32:24.006Z</time></trkpt><trkpt lat="16.2674372" lon="-61.3491333"><ele>39.0</ele><time>2026-03-22T13:32:25.006Z</time></trkpt><trkpt lat="16.2675051" lon="-61.3490932"><ele>39.0</ele><time>2026-03-22T13:32:25.996Z</time></trkpt><trkpt lat="16.2675817" lon="-61.3490595"><ele>39.0</ele><time>2026-03-22T13:32:26.987Z</time></trkpt><trkpt lat="16.2676519" lon="-61.3490389"><ele>39.0</ele><time>2026-03-22T13:32:28.004Z</time></trkpt><trkpt lat="16.2677309" lon="-61.3490287"><ele>39.0</ele><time>2026-03-22T13:32:28.994Z</time></trkpt><trkpt lat="16.2678117" lon="-61.3490264"><ele>39.0</ele><time>2026-03-22T13:32:29.996Z</time></trkpt><trkpt lat="16.2679009" lon="-61.3490336"><ele>39.0</ele><time>2026-03-22T13:32:31.001Z</time></trkpt><trkpt lat="16.2679897" lon="-61.3490404"><ele>39.0</ele><time>2026-03-22T13:32:32.002Z</time></trkpt><trkpt lat="16.2680829" lon="-61.3490532"><ele>38.6</ele><time>2026-03-22T13:32:33.004Z</time></trkpt><trkpt lat="16.2681759" lon="-61.349071"><ele>38.2</ele><time>2026-03-22T13:32:34.002Z</time></trkpt><trkpt lat="16.2682693" lon="-61.3490983"><ele>37.800000000000004</ele><time>2026-03-22T13:32:34.995Z</time></trkpt><trkpt lat="16.2683638" lon="-61.3491341"><ele>37.4</ele><time>2026-03-22T13:32:36.006Z</time></trkpt><trkpt lat="16.268465" lon="-61.3491696"><ele>37.0</ele><time>2026-03-22T13:32:36.993Z</time></trkpt><trkpt lat="16.268564" lon="-61.3492103"><ele>37.0</ele><time>2026-03-22T13:32:37.998Z</time></trkpt><trkpt lat="16.2686582" lon="-61.3492688"><ele>37.0</ele><time>2026-03-22T13:32:38.996Z</time></trkpt><trkpt lat="16.2687579" lon="-61.3493367"><ele>37.0</ele><time>2026-03-22T13:32:39.996Z</time></trkpt><trkpt lat="16.2688418" lon="-61.3494055"><ele>37.0</ele><time>2026-03-22T13:32:40.99Z</time></trkpt><trkpt lat="16.2689294" lon="-61.3494849"><ele>36.800000000000004</ele><time>2026-03-22T13:32:42.035Z</time></trkpt><trkpt lat="16.2690153" lon="-61.3495626"><ele>36.6</ele><time>2026-03-22T13:32:42.967Z</time></trkpt><trkpt lat="16.2690972" lon="-61.3496273"><ele>36.400000000000006</ele><time>2026-03-22T13:32:43.991Z</time></trkpt><trkpt lat="16.2691857" lon="-61.3496951"><ele>36.2</ele><time>2026-03-22T13:32:44.996Z</time></trkpt><trkpt lat="16.2692718" lon="-61.3497445"><ele>36.0</ele><time>2026-03-22T13:32:45.996Z</time></trkpt><trkpt lat="16.2693643" lon="-61.3497864"><ele>36.6</ele><time>2026-03-22T13:32:46.996Z</time></trkpt><trkpt lat="16.2694596" lon="-61.3498266"><ele>37.2</ele><time>2026-03-22T13:32:47.994Z</time></trkpt><trkpt lat="16.2695525" lon="-61.3498656"><ele>37.8</ele><time>2026-03-22T13:32:49.032Z</time></trkpt><trkpt lat="16.2696398" lon="-61.349906"><ele>38.4</ele><time>2026-03-22T13:32:49.996Z</time></trkpt><trkpt lat="16.2697089" lon="-61.3499366"><ele>39.0</ele><time>2026-03-22T13:32:51.05Z</time></trkpt><trkpt lat="16.2697951" lon="-61.3499518"><ele>39.2</ele><time>2026-03-22T13:32:52.995Z</time></trkpt><trkpt lat="16.2698025" lon="-61.3498749"><ele>39.4</ele><time>2026-03-22T13:32:54.991Z</time></trkpt><trkpt lat="16.2697918" lon="-61.3497972"><ele>39.6</ele><time>2026-03-22T13:32:55.994Z</time></trkpt><trkpt lat="16.2697845" lon="-61.3497058"><ele>39.8</ele><time>2026-03-22T13:32:56.972Z</time></trkpt><trkpt lat="16.2697834" lon="-61.3495941"><ele>40.0</ele><time>2026-03-22T13:32:57.994Z</time></trkpt><trkpt lat="16.2697903" lon="-61.3494698"><ele>39.25</ele><time>2026-03-22T13:32:58.996Z</time></trkpt><trkpt lat="16.2697926" lon="-61.3493375"><ele>38.5</ele><time>2026-03-22T13:33:00.002Z</time></trkpt><trkpt lat="16.2697887" lon="-61.3492089"><ele>37.75</ele><time>2026-03-22T13:33:00.999Z</time></trkpt><trkpt lat="16.2697915" lon="-61.349082"><ele>37.0</ele><time>2026-03-22T13:33:01.986Z</time></trkpt><trkpt lat="16.2697993" lon="-61.3489606"><ele>37.25</ele><time>2026-03-22T13:33:02.992Z</time></trkpt><trkpt lat="16.2698004" lon="-61.3488399"><ele>37.5</ele><time>2026-03-22T13:33:03.995Z</time></trkpt><trkpt lat="16.2698063" lon="-61.3487146"><ele>37.75</ele><time>2026-03-22T13:33:04.985Z</time></trkpt><trkpt lat="16.2698057" lon="-61.3485889"><ele>38.0</ele><time>2026-03-22T13:33:05.998Z</time></trkpt><trkpt lat="16.2698032" lon="-61.3484643"><ele>38.0</ele><time>2026-03-22T13:33:07.002Z</time></trkpt><trkpt lat="16.2698048" lon="-61.3483441"><ele>38.0</ele><time>2026-03-22T13:33:07.999Z</time></trkpt><trkpt lat="16.2698048" lon="-61.3482306"><ele>38.0</ele><time>2026-03-22T13:33:09.003Z</time></trkpt><trkpt lat="16.2698026" lon="-61.3481209"><ele>38.0</ele><time>2026-03-22T13:33:09.989Z</time></trkpt><trkpt lat="16.2697972" lon="-61.3480095"><ele>38.0</ele><time>2026-03-22T13:33:11.006Z</time></trkpt><trkpt lat="16.269796" lon="-61.347891"><ele>38.199999999999996</ele><time>2026-03-22T13:33:11.988Z</time></trkpt><trkpt lat="16.2697945" lon="-61.3477768"><ele>38.4</ele><time>2026-03-22T13:33:12.997Z</time></trkpt><trkpt lat="16.2697947" lon="-61.3476671"><ele>38.599999999999994</ele><time>2026-03-22T13:33:14.001Z</time></trkpt><trkpt lat="16.2697917" lon="-61.3475547"><ele>38.8</ele><time>2026-03-22T13:33:14.995Z</time></trkpt><trkpt lat="16.2697868" lon="-61.3474344"><ele>39.0</ele><time>2026-03-22T13:33:16Z</time></trkpt><trkpt lat="16.26978" lon="-61.3473256"><ele>37.8</ele><time>2026-03-22T13:33:17.003Z</time></trkpt><trkpt lat="16.2697695" lon="-61.3472185"><ele>36.599999999999994</ele><time>2026-03-22T13:33:17.998Z</time></trkpt><trkpt lat="16.2697626" lon="-61.3471093"><ele>35.4</ele><time>2026-03-22T13:33:18.994Z</time></trkpt><trkpt lat="16.2697538" lon="-61.3469955"><ele>34.199999999999996</ele><time>2026-03-22T13:33:19.983Z</time></trkpt><trkpt lat="16.2697521" lon="-61.3468783"><ele>33.0</ele><time>2026-03-22T13:33:20.995Z</time></trkpt><trkpt lat="16.2697484" lon="-61.3467593"><ele>33.0</ele><time>2026-03-22T13:33:21.961Z</time></trkpt><trkpt lat="16.2697391" lon="-61.3466373"><ele>33.0</ele><time>2026-03-22T13:33:22.997Z</time></trkpt><trkpt lat="16.2697297" lon="-61.3465241"><ele>33.0</ele><time>2026-03-22T13:33:24.001Z</time></trkpt><trkpt lat="16.2697208" lon="-61.3464158"><ele>33.0</ele><time>2026-03-22T13:33:24.996Z</time></trkpt><trkpt lat="16.2697126" lon="-61.3463234"><ele>33.0</ele><time>2026-03-22T13:33:25.985Z</time></trkpt><trkpt lat="16.2697032" lon="-61.3462361"><ele>33.0</ele><time>2026-03-22T13:33:26.997Z</time></trkpt><trkpt lat="16.2696969" lon="-61.3461664"><ele>33.0</ele><time>2026-03-22T13:33:28.007Z</time></trkpt><trkpt lat="16.269694" lon="-61.3460815"><ele>33.0</ele><time>2026-03-22T13:33:30.008Z</time></trkpt><trkpt lat="16.2697049" lon="-61.3460121"><ele>33.0</ele><time>2026-03-22T13:33:31.985Z</time></trkpt><trkpt lat="16.2697636" lon="-61.3459602"><ele>33.0</ele><time>2026-03-22T13:33:34.002Z</time></trkpt><trkpt lat="16.2698737" lon="-61.3459376"><ele>33.0</ele><time>2026-03-22T13:33:35.979Z</time></trkpt><trkpt lat="16.2700102" lon="-61.3459192"><ele>34.599999999999994</ele><time>2026-03-22T13:33:37.989Z</time></trkpt><trkpt lat="16.2701008" lon="-61.3459198"><ele>36.199999999999996</ele><time>2026-03-22T13:33:38.987Z</time></trkpt><trkpt lat="16.2702097" lon="-61.345922"><ele>37.8</ele><time>2026-03-22T13:33:39.999Z</time></trkpt><trkpt lat="16.2703096" lon="-61.3459208"><ele>39.4</ele><time>2026-03-22T13:33:40.987Z</time></trkpt><trkpt lat="16.2703968" lon="-61.3459126"><ele>41.0</ele><time>2026-03-22T13:33:41.98Z</time></trkpt><trkpt lat="16.2704936" lon="-61.3458774"><ele>41.0</ele><time>2026-03-22T13:33:43.963Z</time></trkpt><trkpt lat="16.270557" lon="-61.3458473"><ele>41.0</ele><time>2026-03-22T13:33:46Z</time></trkpt><trkpt lat="16.2706271" lon="-61.3458751"><ele>41.0</ele><time>2026-03-22T13:33:47.981Z</time></trkpt><trkpt lat="16.2707026" lon="-61.3459106"><ele>41.0</ele><time>2026-03-22T13:33:49.988Z</time></trkpt><trkpt lat="16.2707991" lon="-61.3459268"><ele>41.0</ele><time>2026-03-22T13:33:51.997Z</time></trkpt><trkpt lat="16.270898" lon="-61.3458988"><ele>41.0</ele><time>2026-03-22T13:33:53.982Z</time></trkpt><trkpt lat="16.2710013" lon="-61.3458669"><ele>42.0</ele><time>2026-03-22T13:33:55.972Z</time></trkpt><trkpt lat="16.2711091" lon="-61.345851"><ele>43.0</ele><time>2026-03-22T13:33:57.995Z</time></trkpt><trkpt lat="16.2712213" lon="-61.3458266"><ele>44.0</ele><time>2026-03-22T13:33:59.994Z</time></trkpt><trkpt lat="16.2713316" lon="-61.3457894"><ele>45.0</ele><time>2026-03-22T13:34:01.985Z</time></trkpt><trkpt lat="16.2713862" lon="-61.3457561"><ele>46.0</ele><time>2026-03-22T13:34:02.975Z</time></trkpt><trkpt lat="16.2714375" lon="-61.3457176"><ele>45.8</ele><time>2026-03-22T13:34:03.997Z</time></trkpt><trkpt lat="16.2714961" lon="-61.3456837"><ele>45.599999999999994</ele><time>2026-03-22T13:34:04.987Z</time></trkpt><trkpt lat="16.2715876" lon="-61.3456032"><ele>45.4</ele><time>2026-03-22T13:34:06.992Z</time></trkpt><trkpt lat="16.2716243" lon="-61.3455463"><ele>45.2</ele><time>2026-03-22T13:34:07.977Z</time></trkpt><trkpt lat="16.2716712" lon="-61.3454402"><ele>45.0</ele><time>2026-03-22T13:34:09.986Z</time></trkpt><trkpt lat="16.2716861" lon="-61.3453264"><ele>44.833333333333336</ele><time>2026-03-22T13:34:12.007Z</time></trkpt><trkpt lat="16.2716836" lon="-61.3451958"><ele>44.666666666666664</ele><time>2026-03-22T13:34:14.055Z</time></trkpt><trkpt lat="16.2716824" lon="-61.3451196"><ele>44.5</ele><time>2026-03-22T13:34:15.066Z</time></trkpt><trkpt lat="16.2716784" lon="-61.3450393"><ele>44.33333333333333</ele><time>2026-03-22T13:34:16.045Z</time></trkpt><trkpt lat="16.2716709" lon="-61.344955"><ele>44.166666666666664</ele><time>2026-03-22T13:34:17.062Z</time></trkpt><trkpt lat="16.2716708" lon="-61.3448694"><ele>44.0</ele><time>2026-03-22T13:34:17.99Z</time></trkpt><trkpt lat="16.2716788" lon="-61.3447761"><ele>44.0</ele><time>2026-03-22T13:34:19.002Z</time></trkpt><trkpt lat="16.2716864" lon="-61.344681"><ele>44.0</ele><time>2026-03-22T13:34:19.985Z</time></trkpt><trkpt lat="16.2716965" lon="-61.3445886"><ele>44.0</ele><time>2026-03-22T13:34:21.06Z</time></trkpt><trkpt lat="16.2717148" lon="-61.3444981"><ele>44.0</ele><time>2026-03-22T13:34:22.054Z</time></trkpt><trkpt lat="16.2717258" lon="-61.3444072"><ele>44.0</ele><time>2026-03-22T13:34:23.005Z</time></trkpt><trkpt lat="16.271749" lon="-61.3443173"><ele>44.0</ele><time>2026-03-22T13:34:24.057Z</time></trkpt><trkpt lat="16.2717714" lon="-61.3442228"><ele>44.0</ele><time>2026-03-22T13:34:25.047Z</time></trkpt><trkpt lat="16.2717852" lon="-61.3441202"><ele>44.0</ele><time>2026-03-22T13:34:26.036Z</time></trkpt><trkpt lat="16.2717924" lon="-61.3440177"><ele>44.0</ele><time>2026-03-22T13:34:27.032Z</time></trkpt><trkpt lat="16.2717934" lon="-61.3439279"><ele>44.0</ele><time>2026-03-22T13:34:27.989Z</time></trkpt><trkpt lat="16.2718031" lon="-61.3438287"><ele>44.0</ele><time>2026-03-22T13:34:28.988Z</time></trkpt><trkpt lat="16.2718124" lon="-61.3437318"><ele>44.0</ele><time>2026-03-22T13:34:29.984Z</time></trkpt><trkpt lat="16.2718166" lon="-61.3436298"><ele>44.0</ele><time>2026-03-22T13:34:31.047Z</time></trkpt><trkpt lat="16.2718173" lon="-61.3435193"><ele>44.0</ele><time>2026-03-22T13:34:31.979Z</time></trkpt><trkpt lat="16.2718237" lon="-61.3434102"><ele>44.0</ele><time>2026-03-22T13:34:32.997Z</time></trkpt><trkpt lat="16.2718381" lon="-61.3433"><ele>44.0</ele><time>2026-03-22T13:34:33.995Z</time></trkpt><trkpt lat="16.2718575" lon="-61.3431892"><ele>44.0</ele><time>2026-03-22T13:34:35.062Z</time></trkpt><trkpt lat="16.2718671" lon="-61.3430821"><ele>44.0</ele><time>2026-03-22T13:34:36.041Z</time></trkpt><trkpt lat="16.2718745" lon="-61.3429776"><ele>44.0</ele><time>2026-03-22T13:34:37.052Z</time></trkpt><trkpt lat="16.2718819" lon="-61.3428838"><ele>44.0</ele><time>2026-03-22T13:34:37.976Z</time></trkpt><trkpt lat="16.2718897" lon="-61.3427958"><ele>44.0</ele><time>2026-03-22T13:34:38.992Z</time></trkpt><trkpt lat="16.2718945" lon="-61.3427213"><ele>43.666666666666664</ele><time>2026-03-22T13:34:40.003Z</time></trkpt><trkpt lat="16.2718999" lon="-61.3426331"><ele>43.33333333333333</ele><time>2026-03-22T13:34:42.006Z</time></trkpt><trkpt lat="16.2719841" lon="-61.3425835"><ele>43.0</ele><time>2026-03-22T13:34:46.053Z</time></trkpt><trkpt lat="16.2720551" lon="-61.3425939"><ele>42.666666666666664</ele><time>2026-03-22T13:34:47.025Z</time></trkpt><trkpt lat="16.2721389" lon="-61.3426001"><ele>42.333333333333336</ele><time>2026-03-22T13:34:47.982Z</time></trkpt><trkpt lat="16.2722417" lon="-61.3426174"><ele>42.0</ele><time>2026-03-22T13:34:48.992Z</time></trkpt><trkpt lat="16.2723448" lon="-61.3426242"><ele>41.333333333333336</ele><time>2026-03-22T13:34:49.992Z</time></trkpt><trkpt lat="16.2724339" lon="-61.3426302"><ele>40.666666666666664</ele><time>2026-03-22T13:34:50.985Z</time></trkpt><trkpt lat="16.2725162" lon="-61.3426373"><ele>40.0</ele><time>2026-03-22T13:34:52.004Z</time></trkpt><trkpt lat="16.2725982" lon="-61.3426483"><ele>39.33333333333333</ele><time>2026-03-22T13:34:52.993Z</time></trkpt><trkpt lat="16.2726786" lon="-61.3426669"><ele>38.666666666666664</ele><time>2026-03-22T13:34:53.967Z</time></trkpt><trkpt lat="16.2727644" lon="-61.3426892"><ele>38.0</ele><time>2026-03-22T13:34:54.99Z</time></trkpt><trkpt lat="16.2728542" lon="-61.3427082"><ele>38.0</ele><time>2026-03-22T13:34:56.036Z</time></trkpt><trkpt lat="16.2729442" lon="-61.3427269"><ele>38.0</ele><time>2026-03-22T13:34:57.056Z</time></trkpt><trkpt lat="16.2730391" lon="-61.3427413"><ele>38.0</ele><time>2026-03-22T13:34:57.985Z</time></trkpt><trkpt lat="16.273125" lon="-61.3427572"><ele>38.0</ele><time>2026-03-22T13:34:58.981Z</time></trkpt><trkpt lat="16.2732068" lon="-61.3427664"><ele>38.0</ele><time>2026-03-22T13:34:59.992Z</time></trkpt><trkpt lat="16.2732825" lon="-61.3427723"><ele>38.0</ele><time>2026-03-22T13:35:00.993Z</time></trkpt><trkpt lat="16.2733582" lon="-61.3427687"><ele>38.166666666666664</ele><time>2026-03-22T13:35:01.993Z</time></trkpt><trkpt lat="16.2734273" lon="-61.3427546"><ele>38.33333333333333</ele><time>2026-03-22T13:35:02.994Z</time></trkpt><trkpt lat="16.2734998" lon="-61.3427212"><ele>38.5</ele><time>2026-03-22T13:35:03.99Z</time></trkpt><trkpt lat="16.2735702" lon="-61.3426783"><ele>38.666666666666664</ele><time>2026-03-22T13:35:04.99Z</time></trkpt><trkpt lat="16.2736422" lon="-61.3426323"><ele>38.833333333333336</ele><time>2026-03-22T13:35:06.055Z</time></trkpt><trkpt lat="16.2737118" lon="-61.3425798"><ele>39.0</ele><time>2026-03-22T13:35:07.057Z</time></trkpt><trkpt lat="16.2737888" lon="-61.3425237"><ele>39.0</ele><time>2026-03-22T13:35:08.013Z</time></trkpt><trkpt lat="16.2738727" lon="-61.3424696"><ele>39.0</ele><time>2026-03-22T13:35:09.001Z</time></trkpt><trkpt lat="16.27396" lon="-61.3424181"><ele>39.0</ele><time>2026-03-22T13:35:10.023Z</time></trkpt><trkpt lat="16.2740637" lon="-61.342378"><ele>39.0</ele><time>2026-03-22T13:35:11.056Z</time></trkpt><trkpt lat="16.2741682" lon="-61.3423507"><ele>39.0</ele><time>2026-03-22T13:35:12.052Z</time></trkpt><trkpt lat="16.2742789" lon="-61.3423413"><ele>39.75</ele><time>2026-03-22T13:35:12.986Z</time></trkpt><trkpt lat="16.2743931" lon="-61.3423353"><ele>40.5</ele><time>2026-03-22T13:35:14.054Z</time></trkpt><trkpt lat="16.2745089" lon="-61.3423206"><ele>41.25</ele><time>2026-03-22T13:35:15.042Z</time></trkpt><trkpt lat="16.2746279" lon="-61.3423161"><ele>42.0</ele><time>2026-03-22T13:35:16.049Z</time></trkpt><trkpt lat="16.2747445" lon="-61.3423104"><ele>42.0</ele><time>2026-03-22T13:35:17.047Z</time></trkpt><trkpt lat="16.2748638" lon="-61.3423029"><ele>42.0</ele><time>2026-03-22T13:35:17.986Z</time></trkpt><trkpt lat="16.2749719" lon="-61.3422902"><ele>42.0</ele><time>2026-03-22T13:35:19.07Z</time></trkpt><trkpt lat="16.2750648" lon="-61.3422902"><ele>42.0</ele><time>2026-03-22T13:35:20.062Z</time></trkpt><trkpt lat="16.2751379" lon="-61.3422886"><ele>42.0</ele><time>2026-03-22T13:35:21.033Z</time></trkpt><trkpt lat="16.275214" lon="-61.3422835"><ele>42.0</ele><time>2026-03-22T13:35:23.002Z</time></trkpt><trkpt lat="16.2753304" lon="-61.3422886"><ele>42.0</ele><time>2026-03-22T13:35:29.977Z</time></trkpt><trkpt lat="16.2754001" lon="-61.3423246"><ele>42.0</ele><time>2026-03-22T13:35:30.98Z</time></trkpt><trkpt lat="16.2754634" lon="-61.3423635"><ele>42.0</ele><time>2026-03-22T13:35:31.991Z</time></trkpt><trkpt lat="16.2755368" lon="-61.3423938"><ele>42.0</ele><time>2026-03-22T13:35:32.999Z</time></trkpt><trkpt lat="16.2756212" lon="-61.3424232"><ele>42.0</ele><time>2026-03-22T13:35:33.997Z</time></trkpt><trkpt lat="16.2757226" lon="-61.3424559"><ele>41.75</ele><time>2026-03-22T13:35:34.991Z</time></trkpt><trkpt lat="16.2758339" lon="-61.3424964"><ele>41.5</ele><time>2026-03-22T13:35:35.992Z</time></trkpt><trkpt lat="16.2759547" lon="-61.3425348"><ele>41.25</ele><time>2026-03-22T13:35:36.989Z</time></trkpt><trkpt lat="16.2760944" lon="-61.3425817"><ele>41.0</ele><time>2026-03-22T13:35:37.987Z</time></trkpt><trkpt lat="16.2762433" lon="-61.3426347"><ele>41.0</ele><time>2026-03-22T13:35:38.986Z</time></trkpt><trkpt lat="16.2764073" lon="-61.3426935"><ele>41.0</ele><time>2026-03-22T13:35:39.965Z</time></trkpt><trkpt lat="16.2765875" lon="-61.3427592"><ele>41.0</ele><time>2026-03-22T13:35:40.997Z</time></trkpt><trkpt lat="16.2767849" lon="-61.3428265"><ele>41.0</ele><time>2026-03-22T13:35:42.005Z</time></trkpt><trkpt lat="16.2769814" lon="-61.3428976"><ele>41.0</ele><time>2026-03-22T13:35:42.989Z</time></trkpt><trkpt lat="16.2771622" lon="-61.3429723"><ele>41.0</ele><time>2026-03-22T13:35:43.995Z</time></trkpt><trkpt lat="16.2773382" lon="-61.3430405"><ele>40.666666666666664</ele><time>2026-03-22T13:35:44.992Z</time></trkpt><trkpt lat="16.2774956" lon="-61.3430912"><ele>40.333333333333336</ele><time>2026-03-22T13:35:46.067Z</time></trkpt><trkpt lat="16.2776456" lon="-61.3431469"><ele>40.0</ele><time>2026-03-22T13:35:47.034Z</time></trkpt><trkpt lat="16.2777827" lon="-61.3431947"><ele>40.0</ele><time>2026-03-22T13:35:47.982Z</time></trkpt><trkpt lat="16.2779202" lon="-61.3432389"><ele>40.0</ele><time>2026-03-22T13:35:48.996Z</time></trkpt><trkpt lat="16.2780481" lon="-61.3432894"><ele>40.0</ele><time>2026-03-22T13:35:49.993Z</time></trkpt><trkpt lat="16.2781786" lon="-61.343336"><ele>40.0</ele><time>2026-03-22T13:35:51.004Z</time></trkpt><trkpt lat="16.2783059" lon="-61.3433813"><ele>40.25</ele><time>2026-03-22T13:35:51.999Z</time></trkpt><trkpt lat="16.2784348" lon="-61.3434234"><ele>40.5</ele><time>2026-03-22T13:35:52.995Z</time></trkpt><trkpt lat="16.2785574" lon="-61.343465"><ele>40.75</ele><time>2026-03-22T13:35:54.003Z</time></trkpt><trkpt lat="16.2786737" lon="-61.3435041"><ele>41.0</ele><time>2026-03-22T13:35:54.993Z</time></trkpt><trkpt lat="16.2787861" lon="-61.343541"><ele>41.0</ele><time>2026-03-22T13:35:55.996Z</time></trkpt><trkpt lat="16.2788953" lon="-61.3435823"><ele>41.0</ele><time>2026-03-22T13:35:56.969Z</time></trkpt><trkpt lat="16.2790066" lon="-61.3436211"><ele>41.0</ele><time>2026-03-22T13:35:58.001Z</time></trkpt><trkpt lat="16.2791123" lon="-61.3436581"><ele>41.0</ele><time>2026-03-22T13:35:58.988Z</time></trkpt><trkpt lat="16.2792189" lon="-61.3436978"><ele>41.4</ele><time>2026-03-22T13:35:59.993Z</time></trkpt><trkpt lat="16.2793254" lon="-61.3437322"><ele>41.8</ele><time>2026-03-22T13:36:00.99Z</time></trkpt><trkpt lat="16.2794293" lon="-61.343763"><ele>42.199999999999996</ele><time>2026-03-22T13:36:01.967Z</time></trkpt><trkpt lat="16.2795294" lon="-61.3437964"><ele>42.599999999999994</ele><time>2026-03-22T13:36:03Z</time></trkpt><trkpt lat="16.2796327" lon="-61.3438336"><ele>43.0</ele><time>2026-03-22T13:36:03.991Z</time></trkpt><trkpt lat="16.2797333" lon="-61.3438672"><ele>42.8</ele><time>2026-03-22T13:36:04.989Z</time></trkpt><trkpt lat="16.2798285" lon="-61.3438942"><ele>42.599999999999994</ele><time>2026-03-22T13:36:06Z</time></trkpt><trkpt lat="16.2799223" lon="-61.3439234"><ele>42.400000000000006</ele><time>2026-03-22T13:36:06.998Z</time></trkpt><trkpt lat="16.2800122" lon="-61.3439577"><ele>42.2</ele><time>2026-03-22T13:36:07.998Z</time></trkpt><trkpt lat="16.2800953" lon="-61.3439845"><ele>42.0</ele><time>2026-03-22T13:36:09.06Z</time></trkpt><trkpt lat="16.280175" lon="-61.3440038"><ele>42.0</ele><time>2026-03-22T13:36:10.068Z</time></trkpt><trkpt lat="16.2802427" lon="-61.3440229"><ele>42.0</ele><time>2026-03-22T13:36:10.975Z</time></trkpt><trkpt lat="16.2803437" lon="-61.3440447"><ele>42.0</ele><time>2026-03-22T13:36:12.984Z</time></trkpt><trkpt lat="16.280411" lon="-61.3440049"><ele>42.0</ele><time>2026-03-22T13:36:14.988Z</time></trkpt><trkpt lat="16.2804181" lon="-61.3439395"><ele>42.0</ele><time>2026-03-22T13:36:15.991Z</time></trkpt><trkpt lat="16.2804409" lon="-61.3438466"><ele>42.0</ele><time>2026-03-22T13:36:16.973Z</time></trkpt><trkpt lat="16.2804689" lon="-61.3437411"><ele>42.0</ele><time>2026-03-22T13:36:17.993Z</time></trkpt><trkpt lat="16.2804983" lon="-61.3436299"><ele>42.0</ele><time>2026-03-22T13:36:18.987Z</time></trkpt><trkpt lat="16.2805391" lon="-61.3435117"><ele>42.0</ele><time>2026-03-22T13:36:19.977Z</time></trkpt><trkpt lat="16.2805809" lon="-61.3433899"><ele>42.0</ele><time>2026-03-22T13:36:20.992Z</time></trkpt><trkpt lat="16.2806223" lon="-61.3432661"><ele>42.75</ele><time>2026-03-22T13:36:21.996Z</time></trkpt><trkpt lat="16.2806577" lon="-61.3431292"><ele>43.5</ele><time>2026-03-22T13:36:22.983Z</time></trkpt><trkpt lat="16.2807016" lon="-61.3429798"><ele>44.25</ele><time>2026-03-22T13:36:23.989Z</time></trkpt><trkpt lat="16.2807491" lon="-61.3428253"><ele>45.0</ele><time>2026-03-22T13:36:25.072Z</time></trkpt><trkpt lat="16.2808317" lon="-61.3425368"><ele>45.0</ele><time>2026-03-22T13:36:27.047Z</time></trkpt><trkpt lat="16.2808749" lon="-61.3424026"><ele>45.0</ele><time>2026-03-22T13:36:27.986Z</time></trkpt><trkpt lat="16.2809145" lon="-61.3422807"><ele>45.0</ele><time>2026-03-22T13:36:29.003Z</time></trkpt><trkpt lat="16.280954" lon="-61.3421573"><ele>45.0</ele><time>2026-03-22T13:36:29.982Z</time></trkpt><trkpt lat="16.2809969" lon="-61.3420312"><ele>45.0</ele><time>2026-03-22T13:36:31.001Z</time></trkpt><trkpt lat="16.281037" lon="-61.341916"><ele>45.0</ele><time>2026-03-22T13:36:31.996Z</time></trkpt><trkpt lat="16.2810784" lon="-61.3418014"><ele>45.0</ele><time>2026-03-22T13:36:33.004Z</time></trkpt><trkpt lat="16.2811203" lon="-61.3416847"><ele>45.0</ele><time>2026-03-22T13:36:34.069Z</time></trkpt><trkpt lat="16.2811616" lon="-61.3415641"><ele>45.0</ele><time>2026-03-22T13:36:35.044Z</time></trkpt><trkpt lat="16.2812025" lon="-61.3414362"><ele>45.0</ele><time>2026-03-22T13:36:35.989Z</time></trkpt><trkpt lat="16.2812423" lon="-61.3413099"><ele>45.0</ele><time>2026-03-22T13:36:36.998Z</time></trkpt><trkpt lat="16.2812864" lon="-61.3411858"><ele>45.0</ele><time>2026-03-22T13:36:37.986Z</time></trkpt><trkpt lat="16.2813241" lon="-61.3410651"><ele>45.25</ele><time>2026-03-22T13:36:38.997Z</time></trkpt><trkpt lat="16.281358" lon="-61.3409496"><ele>45.5</ele><time>2026-03-22T13:36:40.102Z</time></trkpt><trkpt lat="16.2814231" lon="-61.3407382"><ele>45.75</ele><time>2026-03-22T13:36:42.068Z</time></trkpt><trkpt lat="16.2814504" lon="-61.3406378"><ele>46.0</ele><time>2026-03-22T13:36:42.989Z</time></trkpt><trkpt lat="16.2814785" lon="-61.3405447"><ele>45.599999999999994</ele><time>2026-03-22T13:36:44.001Z</time></trkpt><trkpt lat="16.2815038" lon="-61.3404568"><ele>45.2</ele><time>2026-03-22T13:36:44.997Z</time></trkpt><trkpt lat="16.2815305" lon="-61.3403788"><ele>44.8</ele><time>2026-03-22T13:36:46.061Z</time></trkpt><trkpt lat="16.2815584" lon="-61.34032"><ele>44.400000000000006</ele><time>2026-03-22T13:36:47.061Z</time></trkpt><trkpt lat="16.2816642" lon="-61.3402265"><ele>44.0</ele><time>2026-03-22T13:36:49Z</time></trkpt><trkpt lat="16.281749" lon="-61.3401747"><ele>44.0</ele><time>2026-03-22T13:36:49.996Z</time></trkpt><trkpt lat="16.2818316" lon="-61.3401182"><ele>44.0</ele><time>2026-03-22T13:36:50.988Z</time></trkpt><trkpt lat="16.2818955" lon="-61.3400455"><ele>44.0</ele><time>2026-03-22T13:36:52.041Z</time></trkpt><trkpt lat="16.2819558" lon="-61.3399581"><ele>44.0</ele><time>2026-03-22T13:36:52.978Z</time></trkpt><trkpt lat="16.2820162" lon="-61.3398669"><ele>44.0</ele><time>2026-03-22T13:36:53.995Z</time></trkpt><trkpt lat="16.2820582" lon="-61.3398036"><ele>44.0</ele><time>2026-03-22T13:36:54.991Z</time></trkpt><trkpt lat="16.2821442" lon="-61.3397306"><ele>44.0</ele><time>2026-03-22T13:36:56.984Z</time></trkpt><trkpt lat="16.282221" lon="-61.3397461"><ele>44.0</ele><time>2026-03-22T13:36:58.986Z</time></trkpt><trkpt lat="16.2823341" lon="-61.3398072"><ele>44.0</ele><time>2026-03-22T13:37:00.971Z</time></trkpt><trkpt lat="16.2824146" lon="-61.339841"><ele>44.0</ele><time>2026-03-22T13:37:01.998Z</time></trkpt><trkpt lat="16.282511" lon="-61.3398757"><ele>44.2</ele><time>2026-03-22T13:37:02.989Z</time></trkpt><trkpt lat="16.2826095" lon="-61.3399114"><ele>44.400000000000006</ele><time>2026-03-22T13:37:03.994Z</time></trkpt><trkpt lat="16.2827057" lon="-61.3399397"><ele>44.6</ele><time>2026-03-22T13:37:04.988Z</time></trkpt><trkpt lat="16.2828042" lon="-61.339964"><ele>44.8</ele><time>2026-03-22T13:37:05.983Z</time></trkpt><trkpt lat="16.2828853" lon="-61.3399668"><ele>45.0</ele><time>2026-03-22T13:37:07.002Z</time></trkpt><trkpt lat="16.2829573" lon="-61.3399536"><ele>45.0</ele><time>2026-03-22T13:37:07.995Z</time></trkpt><trkpt lat="16.2830073" lon="-61.3399135"><ele>45.0</ele><time>2026-03-22T13:37:08.969Z</time></trkpt><trkpt lat="16.2830372" lon="-61.3398335"><ele>45.0</ele><time>2026-03-22T13:37:09.993Z</time></trkpt><trkpt lat="16.2830589" lon="-61.3397134"><ele>45.0</ele><time>2026-03-22T13:37:10.987Z</time></trkpt><trkpt lat="16.2830736" lon="-61.339571"><ele>45.0</ele><time>2026-03-22T13:37:12.066Z</time></trkpt><trkpt lat="16.2830846" lon="-61.3394328"><ele>43.75</ele><time>2026-03-22T13:37:12.981Z</time></trkpt><trkpt lat="16.2831048" lon="-61.3392898"><ele>42.5</ele><time>2026-03-22T13:37:13.982Z</time></trkpt><trkpt lat="16.2831178" lon="-61.3391386"><ele>41.25</ele><time>2026-03-22T13:37:14.99Z</time></trkpt><trkpt lat="16.2831262" lon="-61.3389987"><ele>40.0</ele><time>2026-03-22T13:37:15.997Z</time></trkpt><trkpt lat="16.2831376" lon="-61.3388633"><ele>40.0</ele><time>2026-03-22T13:37:16.99Z</time></trkpt><trkpt lat="16.2831568" lon="-61.338726"><ele>40.0</ele><time>2026-03-22T13:37:17.985Z</time></trkpt><trkpt lat="16.2831838" lon="-61.3385899"><ele>40.0</ele><time>2026-03-22T13:37:18.996Z</time></trkpt><trkpt lat="16.2832123" lon="-61.338459"><ele>40.0</ele><time>2026-03-22T13:37:20.089Z</time></trkpt><trkpt lat="16.2832374" lon="-61.3383533"><ele>40.0</ele><time>2026-03-22T13:37:21.038Z</time></trkpt><trkpt lat="16.2832657" lon="-61.3382557"><ele>40.0</ele><time>2026-03-22T13:37:22.031Z</time></trkpt><trkpt lat="16.283286" lon="-61.3381509"><ele>40.0</ele><time>2026-03-22T13:37:22.992Z</time></trkpt><trkpt lat="16.2833126" lon="-61.3380392"><ele>40.0</ele><time>2026-03-22T13:37:23.996Z</time></trkpt><trkpt lat="16.2833395" lon="-61.3379291"><ele>40.0</ele><time>2026-03-22T13:37:24.985Z</time></trkpt><trkpt lat="16.2833625" lon="-61.3378215"><ele>40.2</ele><time>2026-03-22T13:37:26.04Z</time></trkpt><trkpt lat="16.2833869" lon="-61.3377116"><ele>40.4</ele><time>2026-03-22T13:37:27.036Z</time></trkpt><trkpt lat="16.2834072" lon="-61.3376145"><ele>40.599999999999994</ele><time>2026-03-22T13:37:28.007Z</time></trkpt><trkpt lat="16.2834339" lon="-61.3375112"><ele>40.8</ele><time>2026-03-22T13:37:29.009Z</time></trkpt><trkpt lat="16.2834677" lon="-61.337405"><ele>41.0</ele><time>2026-03-22T13:37:30.018Z</time></trkpt><trkpt lat="16.2835032" lon="-61.3373023"><ele>40.4</ele><time>2026-03-22T13:37:31.06Z</time></trkpt><trkpt lat="16.283537" lon="-61.3371988"><ele>39.8</ele><time>2026-03-22T13:37:32.051Z</time></trkpt><trkpt lat="16.2835687" lon="-61.3370971"><ele>39.199999999999996</ele><time>2026-03-22T13:37:32.994Z</time></trkpt><trkpt lat="16.283597" lon="-61.3369955"><ele>38.599999999999994</ele><time>2026-03-22T13:37:34.001Z</time></trkpt><trkpt lat="16.2836349" lon="-61.3368987"><ele>38.0</ele><time>2026-03-22T13:37:35.004Z</time></trkpt><trkpt lat="16.2836734" lon="-61.3368027"><ele>38.0</ele><time>2026-03-22T13:37:36.054Z</time></trkpt><trkpt lat="16.2837145" lon="-61.336697"><ele>38.0</ele><time>2026-03-22T13:37:36.995Z</time></trkpt><trkpt lat="16.2837528" lon="-61.3365926"><ele>38.0</ele><time>2026-03-22T13:37:37.958Z</time></trkpt><trkpt lat="16.283792" lon="-61.3364898"><ele>38.0</ele><time>2026-03-22T13:37:38.991Z</time></trkpt><trkpt lat="16.2838326" lon="-61.3363957"><ele>38.0</ele><time>2026-03-22T13:37:39.979Z</time></trkpt><trkpt lat="16.2838748" lon="-61.336308"><ele>38.166666666666664</ele><time>2026-03-22T13:37:41.09Z</time></trkpt><trkpt lat="16.2839171" lon="-61.3362187"><ele>38.33333333333333</ele><time>2026-03-22T13:37:42.024Z</time></trkpt><trkpt lat="16.2839571" lon="-61.3361319"><ele>38.5</ele><time>2026-03-22T13:37:42.988Z</time></trkpt><trkpt lat="16.2839975" lon="-61.3360502"><ele>38.666666666666664</ele><time>2026-03-22T13:37:43.989Z</time></trkpt><trkpt lat="16.2840393" lon="-61.3359759"><ele>38.833333333333336</ele><time>2026-03-22T13:37:44.972Z</time></trkpt><trkpt lat="16.284089" lon="-61.3359151"><ele>39.0</ele><time>2026-03-22T13:37:46Z</time></trkpt><trkpt lat="16.2841478" lon="-61.3358697"><ele>39.0</ele><time>2026-03-22T13:37:46.98Z</time></trkpt><trkpt lat="16.2842168" lon="-61.3358225"><ele>39.0</ele><time>2026-03-22T13:37:47.994Z</time></trkpt><trkpt lat="16.2842902" lon="-61.3357811"><ele>39.0</ele><time>2026-03-22T13:37:48.995Z</time></trkpt><trkpt lat="16.2843668" lon="-61.3357508"><ele>39.0</ele><time>2026-03-22T13:37:49.996Z</time></trkpt><trkpt lat="16.2844468" lon="-61.3357299"><ele>39.0</ele><time>2026-03-22T13:37:51.017Z</time></trkpt><trkpt lat="16.2845257" lon="-61.3357207"><ele>39.0</ele><time>2026-03-22T13:37:52.04Z</time></trkpt><trkpt lat="16.2846033" lon="-61.3357122"><ele>39.0</ele><time>2026-03-22T13:37:52.99Z</time></trkpt><trkpt lat="16.2846824" lon="-61.3357083"><ele>39.0</ele><time>2026-03-22T13:37:53.979Z</time></trkpt><trkpt lat="16.2847603" lon="-61.3357006"><ele>39.0</ele><time>2026-03-22T13:37:54.981Z</time></trkpt><trkpt lat="16.2848281" lon="-61.3356761"><ele>39.0</ele><time>2026-03-22T13:37:55.977Z</time></trkpt><trkpt lat="16.2848734" lon="-61.3356273"><ele>39.0</ele><time>2026-03-22T13:37:57.002Z</time></trkpt><trkpt lat="16.2849127" lon="-61.335558"><ele>39.0</ele><time>2026-03-22T13:37:57.999Z</time></trkpt><trkpt lat="16.2849378" lon="-61.3354851"><ele>39.0</ele><time>2026-03-22T13:37:59.073Z</time></trkpt><trkpt lat="16.284953" lon="-61.3354007"><ele>37.8</ele><time>2026-03-22T13:38:00.03Z</time></trkpt><trkpt lat="16.28498" lon="-61.3353023"><ele>36.599999999999994</ele><time>2026-03-22T13:38:01.05Z</time></trkpt><trkpt lat="16.2850088" lon="-61.3351983"><ele>35.4</ele><time>2026-03-22T13:38:01.986Z</time></trkpt><trkpt lat="16.2850403" lon="-61.33509"><ele>34.199999999999996</ele><time>2026-03-22T13:38:02.991Z</time></trkpt><trkpt lat="16.2850686" lon="-61.3349764"><ele>33.0</ele><time>2026-03-22T13:38:03.988Z</time></trkpt><trkpt lat="16.2850974" lon="-61.3348656"><ele>33.0</ele><time>2026-03-22T13:38:04.993Z</time></trkpt><trkpt lat="16.2851241" lon="-61.3347538"><ele>33.0</ele><time>2026-03-22T13:38:05.996Z</time></trkpt><trkpt lat="16.2851501" lon="-61.3346456"><ele>33.0</ele><time>2026-03-22T13:38:07.007Z</time></trkpt><trkpt lat="16.2851738" lon="-61.3345418"><ele>33.0</ele><time>2026-03-22T13:38:07.99Z</time></trkpt><trkpt lat="16.2851953" lon="-61.3344382"><ele>33.0</ele><time>2026-03-22T13:38:08.995Z</time></trkpt><trkpt lat="16.2852207" lon="-61.3343361"><ele>32.833333333333336</ele><time>2026-03-22T13:38:09.979Z</time></trkpt><trkpt lat="16.2852493" lon="-61.3342358"><ele>32.666666666666664</ele><time>2026-03-22T13:38:10.996Z</time></trkpt><trkpt lat="16.2852806" lon="-61.33414"><ele>32.5</ele><time>2026-03-22T13:38:11.984Z</time></trkpt><trkpt lat="16.2853064" lon="-61.3340575"><ele>32.33333333333333</ele><time>2026-03-22T13:38:12.989Z</time></trkpt><trkpt lat="16.2853243" lon="-61.3339912"><ele>32.166666666666664</ele><time>2026-03-22T13:38:13.989Z</time></trkpt><trkpt lat="16.285358" lon="-61.3338985"><ele>32.0</ele><time>2026-03-22T13:38:16.062Z</time></trkpt><trkpt lat="16.2854132" lon="-61.3337988"><ele>31.999999999999996</ele><time>2026-03-22T13:38:17.99Z</time></trkpt><trkpt lat="16.2854598" lon="-61.3337384"><ele>32.0</ele><time>2026-03-22T13:38:19.002Z</time></trkpt><trkpt lat="16.2855103" lon="-61.3336681"><ele>32.0</ele><time>2026-03-22T13:38:19.979Z</time></trkpt><trkpt lat="16.285562" lon="-61.3335972"><ele>32.0</ele><time>2026-03-22T13:38:21.073Z</time></trkpt><trkpt lat="16.2856325" lon="-61.3335366"><ele>31.999999999999996</ele><time>2026-03-22T13:38:22.04Z</time></trkpt><trkpt lat="16.2857217" lon="-61.3334838"><ele>32.0</ele><time>2026-03-22T13:38:22.996Z</time></trkpt><trkpt lat="16.285826" lon="-61.3334436"><ele>31.8</ele><time>2026-03-22T13:38:24.001Z</time></trkpt><trkpt lat="16.285918" lon="-61.3333975"><ele>31.6</ele><time>2026-03-22T13:38:25.016Z</time></trkpt><trkpt lat="16.286008" lon="-61.3333627"><ele>31.400000000000002</ele><time>2026-03-22T13:38:26.057Z</time></trkpt><trkpt lat="16.2860893" lon="-61.3333079"><ele>31.200000000000003</ele><time>2026-03-22T13:38:27.048Z</time></trkpt><trkpt lat="16.2861518" lon="-61.3332478"><ele>31.0</ele><time>2026-03-22T13:38:27.99Z</time></trkpt><trkpt lat="16.2862205" lon="-61.3331753"><ele>31.0</ele><time>2026-03-22T13:38:29.001Z</time></trkpt><trkpt lat="16.2862848" lon="-61.3331011"><ele>31.0</ele><time>2026-03-22T13:38:29.982Z</time></trkpt><trkpt lat="16.2863422" lon="-61.33302"><ele>31.0</ele><time>2026-03-22T13:38:31.064Z</time></trkpt><trkpt lat="16.2863838" lon="-61.3329308"><ele>31.0</ele><time>2026-03-22T13:38:32.042Z</time></trkpt><trkpt lat="16.286403" lon="-61.3328254"><ele>31.0</ele><time>2026-03-22T13:38:32.99Z</time></trkpt><trkpt lat="16.2864025" lon="-61.3327108"><ele>31.200000000000003</ele><time>2026-03-22T13:38:33.999Z</time></trkpt><trkpt lat="16.2863858" lon="-61.3326079"><ele>31.400000000000002</ele><time>2026-03-22T13:38:35.002Z</time></trkpt><trkpt lat="16.2863638" lon="-61.3325073"><ele>31.6</ele><time>2026-03-22T13:38:35.99Z</time></trkpt><trkpt lat="16.2863356" lon="-61.332407"><ele>31.8</ele><time>2026-03-22T13:38:36.986Z</time></trkpt><trkpt lat="16.2863011" lon="-61.3323174"><ele>32.0</ele><time>2026-03-22T13:38:38.001Z</time></trkpt><trkpt lat="16.2862555" lon="-61.3322265"><ele>31.75</ele><time>2026-03-22T13:38:39.008Z</time></trkpt><trkpt lat="16.2861868" lon="-61.3321208"><ele>31.5</ele><time>2026-03-22T13:38:40.058Z</time></trkpt><trkpt lat="16.2861178" lon="-61.3320215"><ele>31.25</ele><time>2026-03-22T13:38:40.994Z</time></trkpt><trkpt lat="16.286056" lon="-61.3319221"><ele>31.0</ele><time>2026-03-22T13:38:42.039Z</time></trkpt><trkpt lat="16.2860066" lon="-61.3318243"><ele>31.0</ele><time>2026-03-22T13:38:42.974Z</time></trkpt><trkpt lat="16.2859618" lon="-61.3317303"><ele>31.0</ele><time>2026-03-22T13:38:43.995Z</time></trkpt><trkpt lat="16.2859274" lon="-61.3316416"><ele>31.0</ele><time>2026-03-22T13:38:44.995Z</time></trkpt><trkpt lat="16.2859057" lon="-61.3315465"><ele>31.0</ele><time>2026-03-22T13:38:45.998Z</time></trkpt><trkpt lat="16.2858795" lon="-61.3314441"><ele>31.0</ele><time>2026-03-22T13:38:46.999Z</time></trkpt><trkpt lat="16.2858584" lon="-61.3313389"><ele>30.8</ele><time>2026-03-22T13:38:48.006Z</time></trkpt><trkpt lat="16.2858386" lon="-61.3312268"><ele>30.6</ele><time>2026-03-22T13:38:49.063Z</time></trkpt><trkpt lat="16.285836" lon="-61.3311156"><ele>30.4</ele><time>2026-03-22T13:38:49.968Z</time></trkpt><trkpt lat="16.2858475" lon="-61.3310136"><ele>30.2</ele><time>2026-03-22T13:38:51.039Z</time></trkpt><trkpt lat="16.2858687" lon="-61.3309205"><ele>30.0</ele><time>2026-03-22T13:38:51.984Z</time></trkpt><trkpt lat="16.2859012" lon="-61.3308401"><ele>30.0</ele><time>2026-03-22T13:38:52.988Z</time></trkpt><trkpt lat="16.2859359" lon="-61.3307524"><ele>30.0</ele><time>2026-03-22T13:38:53.985Z</time></trkpt><trkpt lat="16.2859745" lon="-61.3306635"><ele>30.0</ele><time>2026-03-22T13:38:54.989Z</time></trkpt><trkpt lat="16.2859876" lon="-61.3305854"><ele>30.0</ele><time>2026-03-22T13:38:55.982Z</time></trkpt><trkpt lat="16.2859945" lon="-61.330514"><ele>30.0</ele><time>2026-03-22T13:38:56.995Z</time></trkpt><trkpt lat="16.2859861" lon="-61.3304433"><ele>30.0</ele><time>2026-03-22T13:38:57.987Z</time></trkpt><trkpt lat="16.2859591" lon="-61.3303716"><ele>29.666666666666668</ele><time>2026-03-22T13:38:58.997Z</time></trkpt><trkpt lat="16.2859148" lon="-61.3302894"><ele>29.333333333333336</ele><time>2026-03-22T13:39:00.043Z</time></trkpt><trkpt lat="16.2858658" lon="-61.3302016"><ele>29.0</ele><time>2026-03-22T13:39:01.042Z</time></trkpt><trkpt lat="16.2858233" lon="-61.3301148"><ele>28.666666666666668</ele><time>2026-03-22T13:39:02.027Z</time></trkpt><trkpt lat="16.2857952" lon="-61.3300365"><ele>28.333333333333336</ele><time>2026-03-22T13:39:02.983Z</time></trkpt><trkpt lat="16.2857735" lon="-61.3299657"><ele>28.0</ele><time>2026-03-22T13:39:03.977Z</time></trkpt><trkpt lat="16.2857634" lon="-61.329899"><ele>28.000000000000004</ele><time>2026-03-22T13:39:04.993Z</time></trkpt><trkpt lat="16.2857619" lon="-61.329832"><ele>28.0</ele><time>2026-03-22T13:39:06.004Z</time></trkpt><trkpt lat="16.2857604" lon="-61.3297652"><ele>28.0</ele><time>2026-03-22T13:39:06.991Z</time></trkpt><trkpt lat="16.2857659" lon="-61.3296882"><ele>28.0</ele><time>2026-03-22T13:39:07.993Z</time></trkpt><trkpt lat="16.2857729" lon="-61.3296051"><ele>28.000000000000004</ele><time>2026-03-22T13:39:08.994Z</time></trkpt><trkpt lat="16.2857867" lon="-61.3295144"><ele>28.0</ele><time>2026-03-22T13:39:09.978Z</time></trkpt><trkpt lat="16.2858061" lon="-61.329416"><ele>28.0</ele><time>2026-03-22T13:39:10.987Z</time></trkpt><trkpt lat="16.2858149" lon="-61.3293161"><ele>27.999999999999996</ele><time>2026-03-22T13:39:12Z</time></trkpt><trkpt lat="16.2858126" lon="-61.3292099"><ele>27.999999999999996</ele><time>2026-03-22T13:39:12.99Z</time></trkpt><trkpt lat="16.2858126" lon="-61.3291042"><ele>28.0</ele><time>2026-03-22T13:39:14.081Z</time></trkpt><trkpt lat="16.2858154" lon="-61.328997"><ele>28.0</ele><time>2026-03-22T13:39:15.04Z</time></trkpt><trkpt lat="16.2858209" lon="-61.3288865"><ele>28.0</ele><time>2026-03-22T13:39:16.049Z</time></trkpt><trkpt lat="16.2858218" lon="-61.328766"><ele>27.999999999999996</ele><time>2026-03-22T13:39:17.048Z</time></trkpt><trkpt lat="16.2858241" lon="-61.3286533"><ele>27.999999999999996</ele><time>2026-03-22T13:39:17.989Z</time></trkpt><trkpt lat="16.2858254" lon="-61.3285545"><ele>28.0</ele><time>2026-03-22T13:39:18.998Z</time></trkpt><trkpt lat="16.2858272" lon="-61.3284655"><ele>28.0</ele><time>2026-03-22T13:39:19.966Z</time></trkpt><trkpt lat="16.2858239" lon="-61.3283795"><ele>28.000000000000004</ele><time>2026-03-22T13:39:21.04Z</time></trkpt><trkpt lat="16.2858229" lon="-61.3283"><ele>28.0</ele><time>2026-03-22T13:39:22.038Z</time></trkpt><trkpt lat="16.2858149" lon="-61.3282145"><ele>28.0</ele><time>2026-03-22T13:39:23.004Z</time></trkpt><trkpt lat="16.2858098" lon="-61.3281286"><ele>28.0</ele><time>2026-03-22T13:39:24.001Z</time></trkpt><trkpt lat="16.2858006" lon="-61.3280382"><ele>28.000000000000004</ele><time>2026-03-22T13:39:24.981Z</time></trkpt><trkpt lat="16.2857955" lon="-61.3279469"><ele>28.0</ele><time>2026-03-22T13:39:25.994Z</time></trkpt><trkpt lat="16.2857934" lon="-61.3278447"><ele>28.2</ele><time>2026-03-22T13:39:26.993Z</time></trkpt><trkpt lat="16.2857899" lon="-61.3277347"><ele>28.4</ele><time>2026-03-22T13:39:27.992Z</time></trkpt><trkpt lat="16.2857912" lon="-61.3276333"><ele>28.599999999999998</ele><time>2026-03-22T13:39:28.995Z</time></trkpt><trkpt lat="16.2857895" lon="-61.3275292"><ele>28.799999999999997</ele><time>2026-03-22T13:39:30.059Z</time></trkpt><trkpt lat="16.2857903" lon="-61.3274233"><ele>29.0</ele><time>2026-03-22T13:39:31.055Z</time></trkpt><trkpt lat="16.2857906" lon="-61.3273257"><ele>29.0</ele><time>2026-03-22T13:39:31.987Z</time></trkpt><trkpt lat="16.2857986" lon="-61.3272287"><ele>29.0</ele><time>2026-03-22T13:39:32.989Z</time></trkpt><trkpt lat="16.2858054" lon="-61.3271322"><ele>29.0</ele><time>2026-03-22T13:39:33.993Z</time></trkpt><trkpt lat="16.2858116" lon="-61.3270334"><ele>29.0</ele><time>2026-03-22T13:39:34.973Z</time></trkpt><trkpt lat="16.2858146" lon="-61.3269383"><ele>29.0</ele><time>2026-03-22T13:39:35.997Z</time></trkpt><trkpt lat="16.2858194" lon="-61.3268364"><ele>29.4</ele><time>2026-03-22T13:39:37.005Z</time></trkpt><trkpt lat="16.2858224" lon="-61.3267277"><ele>29.799999999999997</ele><time>2026-03-22T13:39:38.004Z</time></trkpt><trkpt lat="16.2858203" lon="-61.3266232"><ele>30.200000000000003</ele><time>2026-03-22T13:39:39.038Z</time></trkpt><trkpt lat="16.2858196" lon="-61.3265188"><ele>30.6</ele><time>2026-03-22T13:39:40.042Z</time></trkpt><trkpt lat="16.2858254" lon="-61.3264112"><ele>31.0</ele><time>2026-03-22T13:39:41.04Z</time></trkpt><trkpt lat="16.2858351" lon="-61.3263049"><ele>31.200000000000003</ele><time>2026-03-22T13:39:41.983Z</time></trkpt><trkpt lat="16.285846" lon="-61.3261988"><ele>31.400000000000002</ele><time>2026-03-22T13:39:42.956Z</time></trkpt><trkpt lat="16.285856" lon="-61.3260963"><ele>31.6</ele><time>2026-03-22T13:39:43.958Z</time></trkpt><trkpt lat="16.285872" lon="-61.3259939"><ele>31.8</ele><time>2026-03-22T13:39:44.988Z</time></trkpt><trkpt lat="16.2858945" lon="-61.325876"><ele>32.0</ele><time>2026-03-22T13:39:45.975Z</time></trkpt><trkpt lat="16.2859242" lon="-61.3257557"><ele>32.0</ele><time>2026-03-22T13:39:46.986Z</time></trkpt><trkpt lat="16.2859537" lon="-61.3256341"><ele>32.0</ele><time>2026-03-22T13:39:47.981Z</time></trkpt><trkpt lat="16.285987" lon="-61.3255101"><ele>32.0</ele><time>2026-03-22T13:39:48.957Z</time></trkpt><trkpt lat="16.2860152" lon="-61.3253857"><ele>32.0</ele><time>2026-03-22T13:39:49.97Z</time></trkpt><trkpt lat="16.2860457" lon="-61.3252638"><ele>32.5</ele><time>2026-03-22T13:39:51.039Z</time></trkpt><trkpt lat="16.2860825" lon="-61.3251394"><ele>33.0</ele><time>2026-03-22T13:39:52.027Z</time></trkpt><trkpt lat="16.2861158" lon="-61.3250179"><ele>33.5</ele><time>2026-03-22T13:39:52.97Z</time></trkpt><trkpt lat="16.2861485" lon="-61.3248942"><ele>34.0</ele><time>2026-03-22T13:39:53.963Z</time></trkpt><trkpt lat="16.2861847" lon="-61.32477"><ele>33.0</ele><time>2026-03-22T13:39:54.95Z</time></trkpt><trkpt lat="16.2862215" lon="-61.32464"><ele>32.0</ele><time>2026-03-22T13:39:55.966Z</time></trkpt><trkpt lat="16.2862565" lon="-61.3245103"><ele>31.0</ele><time>2026-03-22T13:39:57.029Z</time></trkpt><trkpt lat="16.2862896" lon="-61.3243881"><ele>30.0</ele><time>2026-03-22T13:39:57.98Z</time></trkpt><trkpt lat="16.2863206" lon="-61.3242747"><ele>30.0</ele><time>2026-03-22T13:39:58.98Z</time></trkpt><trkpt lat="16.2863553" lon="-61.3241587"><ele>30.0</ele><time>2026-03-22T13:39:59.973Z</time></trkpt><trkpt lat="16.286392" lon="-61.3240448"><ele>30.0</ele><time>2026-03-22T13:40:01.03Z</time></trkpt><trkpt lat="16.2864239" lon="-61.323935"><ele>30.0</ele><time>2026-03-22T13:40:02.026Z</time></trkpt><trkpt lat="16.2864524" lon="-61.3238254"><ele>30.4</ele><time>2026-03-22T13:40:02.995Z</time></trkpt><trkpt lat="16.2864891" lon="-61.3237249"><ele>30.8</ele><time>2026-03-22T13:40:03.992Z</time></trkpt><trkpt lat="16.2865228" lon="-61.3236353"><ele>31.200000000000003</ele><time>2026-03-22T13:40:04.974Z</time></trkpt><trkpt lat="16.2865559" lon="-61.3235481"><ele>31.6</ele><time>2026-03-22T13:40:06.048Z</time></trkpt><trkpt lat="16.2865886" lon="-61.3234564"><ele>32.0</ele><time>2026-03-22T13:40:07.034Z</time></trkpt><trkpt lat="16.2866185" lon="-61.3233537"><ele>32.0</ele><time>2026-03-22T13:40:08.005Z</time></trkpt><trkpt lat="16.2866468" lon="-61.3232374"><ele>32.0</ele><time>2026-03-22T13:40:09.005Z</time></trkpt><trkpt lat="16.2866731" lon="-61.3231257"><ele>32.0</ele><time>2026-03-22T13:40:10.005Z</time></trkpt><trkpt lat="16.2866999" lon="-61.323016"><ele>32.0</ele><time>2026-03-22T13:40:11.067Z</time></trkpt><trkpt lat="16.2867322" lon="-61.3228939"><ele>32.75</ele><time>2026-03-22T13:40:11.985Z</time></trkpt><trkpt lat="16.2867668" lon="-61.3227676"><ele>33.5</ele><time>2026-03-22T13:40:12.976Z</time></trkpt><trkpt lat="16.286805" lon="-61.3226392"><ele>34.25</ele><time>2026-03-22T13:40:13.988Z</time></trkpt><trkpt lat="16.2868453" lon="-61.3225172"><ele>35.0</ele><time>2026-03-22T13:40:14.986Z</time></trkpt><trkpt lat="16.2868815" lon="-61.3223951"><ele>35.0</ele><time>2026-03-22T13:40:15.989Z</time></trkpt><trkpt lat="16.2869219" lon="-61.3222772"><ele>35.0</ele><time>2026-03-22T13:40:16.998Z</time></trkpt><trkpt lat="16.286964" lon="-61.322153"><ele>35.0</ele><time>2026-03-22T13:40:17.991Z</time></trkpt><trkpt lat="16.2870039" lon="-61.3220289"><ele>35.0</ele><time>2026-03-22T13:40:18.977Z</time></trkpt><trkpt lat="16.2870423" lon="-61.3219072"><ele>35.25</ele><time>2026-03-22T13:40:19.989Z</time></trkpt><trkpt lat="16.2870766" lon="-61.321792"><ele>35.5</ele><time>2026-03-22T13:40:20.992Z</time></trkpt><trkpt lat="16.2871157" lon="-61.3216723"><ele>35.75</ele><time>2026-03-22T13:40:22.051Z</time></trkpt><trkpt lat="16.2871527" lon="-61.3215529"><ele>36.0</ele><time>2026-03-22T13:40:22.991Z</time></trkpt><trkpt lat="16.2871866" lon="-61.3214375"><ele>36.0</ele><time>2026-03-22T13:40:23.998Z</time></trkpt><trkpt lat="16.2872207" lon="-61.3213205"><ele>36.0</ele><time>2026-03-22T13:40:24.989Z</time></trkpt><trkpt lat="16.2872511" lon="-61.3212058"><ele>36.0</ele><time>2026-03-22T13:40:25.988Z</time></trkpt><trkpt lat="16.2872793" lon="-61.3210935"><ele>36.0</ele><time>2026-03-22T13:40:26.997Z</time></trkpt><trkpt lat="16.2873046" lon="-61.320982"><ele>36.0</ele><time>2026-03-22T13:40:27.99Z</time></trkpt><trkpt lat="16.2873345" lon="-61.3208719"><ele>36.0</ele><time>2026-03-22T13:40:28.997Z</time></trkpt><trkpt lat="16.2873618" lon="-61.3207755"><ele>36.0</ele><time>2026-03-22T13:40:30.062Z</time></trkpt><trkpt lat="16.2873881" lon="-61.3206866"><ele>36.0</ele><time>2026-03-22T13:40:31.036Z</time></trkpt><trkpt lat="16.2874093" lon="-61.3206099"><ele>36.0</ele><time>2026-03-22T13:40:31.994Z</time></trkpt><trkpt lat="16.2874312" lon="-61.3205465"><ele>36.0</ele><time>2026-03-22T13:40:33.003Z</time></trkpt><trkpt lat="16.2874506" lon="-61.3204835"><ele>36.0</ele><time>2026-03-22T13:40:35.005Z</time></trkpt><trkpt lat="16.2875292" lon="-61.3204426"><ele>36.0</ele><time>2026-03-22T13:41:43.001Z</time></trkpt><trkpt lat="16.2876551" lon="-61.3204539"><ele>36.0</ele><time>2026-03-22T13:41:44.985Z</time></trkpt><trkpt lat="16.2877437" lon="-61.3204858"><ele>36.0</ele><time>2026-03-22T13:41:45.978Z</time></trkpt><trkpt lat="16.2878536" lon="-61.3205258"><ele>36.0</ele><time>2026-03-22T13:41:47.003Z</time></trkpt><trkpt lat="16.2879709" lon="-61.3205679"><ele>36.5</ele><time>2026-03-22T13:41:47.995Z</time></trkpt><trkpt lat="16.2880973" lon="-61.3206105"><ele>37.0</ele><time>2026-03-22T13:41:48.986Z</time></trkpt><trkpt lat="16.2882341" lon="-61.3206514"><ele>37.5</ele><time>2026-03-22T13:41:49.994Z</time></trkpt><trkpt lat="16.2883705" lon="-61.3206914"><ele>38.0</ele><time>2026-03-22T13:41:50.993Z</time></trkpt><trkpt lat="16.2885044" lon="-61.3207266"><ele>38.0</ele><time>2026-03-22T13:41:51.994Z</time></trkpt><trkpt lat="16.2886278" lon="-61.3207638"><ele>38.0</ele><time>2026-03-22T13:41:52.962Z</time></trkpt><trkpt lat="16.2887534" lon="-61.3207993"><ele>38.0</ele><time>2026-03-22T13:41:53.998Z</time></trkpt><trkpt lat="16.288886" lon="-61.3208366"><ele>38.0</ele><time>2026-03-22T13:41:55.001Z</time></trkpt><trkpt lat="16.2890189" lon="-61.3208743"><ele>38.5</ele><time>2026-03-22T13:41:55.958Z</time></trkpt><trkpt lat="16.2891555" lon="-61.3209077"><ele>39.0</ele><time>2026-03-22T13:41:56.989Z</time></trkpt><trkpt lat="16.2892929" lon="-61.3209474"><ele>39.5</ele><time>2026-03-22T13:41:57.992Z</time></trkpt><trkpt lat="16.2894317" lon="-61.3209874"><ele>40.0</ele><time>2026-03-22T13:41:58.991Z</time></trkpt><trkpt lat="16.28957" lon="-61.3210264"><ele>40.0</ele><time>2026-03-22T13:41:59.996Z</time></trkpt><trkpt lat="16.2897073" lon="-61.3210639"><ele>40.0</ele><time>2026-03-22T13:42:00.983Z</time></trkpt><trkpt lat="16.2898457" lon="-61.3211076"><ele>40.0</ele><time>2026-03-22T13:42:01.994Z</time></trkpt><trkpt lat="16.2899797" lon="-61.3211538"><ele>40.0</ele><time>2026-03-22T13:42:02.997Z</time></trkpt><trkpt lat="16.290119" lon="-61.3211966"><ele>40.25</ele><time>2026-03-22T13:42:04.06Z</time></trkpt><trkpt lat="16.2902574" lon="-61.32124"><ele>40.5</ele><time>2026-03-22T13:42:05.051Z</time></trkpt><trkpt lat="16.290391" lon="-61.3212814"><ele>40.75</ele><time>2026-03-22T13:42:06.039Z</time></trkpt><trkpt lat="16.2905205" lon="-61.3213223"><ele>41.0</ele><time>2026-03-22T13:42:07.041Z</time></trkpt><trkpt lat="16.2906415" lon="-61.3213522"><ele>41.0</ele><time>2026-03-22T13:42:07.999Z</time></trkpt><trkpt lat="16.290761" lon="-61.3213851"><ele>41.0</ele><time>2026-03-22T13:42:08.998Z</time></trkpt><trkpt lat="16.2908739" lon="-61.3214248"><ele>41.0</ele><time>2026-03-22T13:42:09.99Z</time></trkpt><trkpt lat="16.2909771" lon="-61.3214563"><ele>41.0</ele><time>2026-03-22T13:42:11.057Z</time></trkpt><trkpt lat="16.2910678" lon="-61.3214786"><ele>41.0</ele><time>2026-03-22T13:42:12.063Z</time></trkpt><trkpt lat="16.2911919" lon="-61.3214666"><ele>40.599999999999994</ele><time>2026-03-22T13:42:13.984Z</time></trkpt><trkpt lat="16.2912266" lon="-61.3213631"><ele>40.199999999999996</ele><time>2026-03-22T13:42:16.044Z</time></trkpt><trkpt lat="16.2912483" lon="-61.3212688"><ele>39.8</ele><time>2026-03-22T13:42:17.068Z</time></trkpt><trkpt lat="16.2912878" lon="-61.321161"><ele>39.4</ele><time>2026-03-22T13:42:17.988Z</time></trkpt><trkpt lat="16.2913323" lon="-61.3210276"><ele>39.0</ele><time>2026-03-22T13:42:18.992Z</time></trkpt><trkpt lat="16.2913796" lon="-61.3208953"><ele>39.0</ele><time>2026-03-22T13:42:20.005Z</time></trkpt><trkpt lat="16.2914274" lon="-61.3207644"><ele>39.0</ele><time>2026-03-22T13:42:21.056Z</time></trkpt><trkpt lat="16.291473" lon="-61.3206403"><ele>39.0</ele><time>2026-03-22T13:42:22.037Z</time></trkpt><trkpt lat="16.2915198" lon="-61.3205152"><ele>39.0</ele><time>2026-03-22T13:42:22.995Z</time></trkpt><trkpt lat="16.2915642" lon="-61.3203921"><ele>39.2</ele><time>2026-03-22T13:42:23.991Z</time></trkpt><trkpt lat="16.2916069" lon="-61.3202704"><ele>39.4</ele><time>2026-03-22T13:42:24.965Z</time></trkpt><trkpt lat="16.2916477" lon="-61.3201532"><ele>39.6</ele><time>2026-03-22T13:42:25.986Z</time></trkpt><trkpt lat="16.2916766" lon="-61.3200498"><ele>39.8</ele><time>2026-03-22T13:42:26.993Z</time></trkpt><trkpt lat="16.2917003" lon="-61.319966"><ele>40.0</ele><time>2026-03-22T13:42:27.987Z</time></trkpt><trkpt lat="16.2917207" lon="-61.3199022"><ele>40.0</ele><time>2026-03-22T13:42:28.977Z</time></trkpt><trkpt lat="16.2917762" lon="-61.3198557"><ele>40.0</ele><time>2026-03-22T13:42:31.01Z</time></trkpt><trkpt lat="16.291843" lon="-61.3198814"><ele>40.0</ele><time>2026-03-22T13:42:32.981Z</time></trkpt><trkpt lat="16.2919338" lon="-61.3199253"><ele>40.0</ele><time>2026-03-22T13:42:34.982Z</time></trkpt><trkpt lat="16.2920414" lon="-61.3199642"><ele>40.0</ele><time>2026-03-22T13:42:36.972Z</time></trkpt><trkpt lat="16.29215" lon="-61.3199969"><ele>40.0</ele><time>2026-03-22T13:42:38.973Z</time></trkpt><trkpt lat="16.2922494" lon="-61.3200313"><ele>40.0</ele><time>2026-03-22T13:42:40.99Z</time></trkpt><trkpt lat="16.2923566" lon="-61.320066"><ele>40.0</ele><time>2026-03-22T13:42:42.967Z</time></trkpt><trkpt lat="16.2924234" lon="-61.3200891"><ele>40.0</ele><time>2026-03-22T13:42:43.995Z</time></trkpt><trkpt lat="16.2924923" lon="-61.3201239"><ele>40.0</ele><time>2026-03-22T13:42:44.991Z</time></trkpt><trkpt lat="16.2925601" lon="-61.3201584"><ele>40.0</ele><time>2026-03-22T13:42:46Z</time></trkpt><trkpt lat="16.29263" lon="-61.3201905"><ele>40.0</ele><time>2026-03-22T13:42:47.044Z</time></trkpt><trkpt lat="16.2926935" lon="-61.3202193"><ele>40.0</ele><time>2026-03-22T13:42:47.957Z</time></trkpt><trkpt lat="16.2927626" lon="-61.3202478"><ele>40.0</ele><time>2026-03-22T13:42:48.989Z</time></trkpt><trkpt lat="16.2928298" lon="-61.3202917"><ele>40.0</ele><time>2026-03-22T13:42:50.079Z</time></trkpt><trkpt lat="16.2928984" lon="-61.3203496"><ele>40.0</ele><time>2026-03-22T13:42:51.039Z</time></trkpt><trkpt lat="16.2929848" lon="-61.3204074"><ele>40.0</ele><time>2026-03-22T13:42:52.042Z</time></trkpt><trkpt lat="16.2930704" lon="-61.3204514"><ele>39.8</ele><time>2026-03-22T13:42:52.989Z</time></trkpt><trkpt lat="16.2931551" lon="-61.3204905"><ele>39.6</ele><time>2026-03-22T13:42:54.057Z</time></trkpt><trkpt lat="16.2932431" lon="-61.3205304"><ele>39.4</ele><time>2026-03-22T13:42:55.052Z</time></trkpt><trkpt lat="16.2933309" lon="-61.3205668"><ele>39.2</ele><time>2026-03-22T13:42:55.993Z</time></trkpt><trkpt lat="16.293424" lon="-61.3205966"><ele>39.0</ele><time>2026-03-22T13:42:57.011Z</time></trkpt><trkpt lat="16.2935161" lon="-61.3206155"><ele>39.0</ele><time>2026-03-22T13:42:57.981Z</time></trkpt><trkpt lat="16.2936079" lon="-61.3206343"><ele>39.0</ele><time>2026-03-22T13:42:58.993Z</time></trkpt><trkpt lat="16.2936984" lon="-61.3206557"><ele>39.0</ele><time>2026-03-22T13:43:00.05Z</time></trkpt><trkpt lat="16.2937818" lon="-61.3206757"><ele>39.0</ele><time>2026-03-22T13:43:00.977Z</time></trkpt><trkpt lat="16.2938658" lon="-61.3207054"><ele>39.0</ele><time>2026-03-22T13:43:02.054Z</time></trkpt><trkpt lat="16.2939457" lon="-61.3207326"><ele>39.0</ele><time>2026-03-22T13:43:02.995Z</time></trkpt><trkpt lat="16.2940364" lon="-61.3207646"><ele>38.4</ele><time>2026-03-22T13:43:04.028Z</time></trkpt><trkpt lat="16.2941291" lon="-61.3207977"><ele>37.8</ele><time>2026-03-22T13:43:05.03Z</time></trkpt><trkpt lat="16.2942254" lon="-61.3208322"><ele>37.2</ele><time>2026-03-22T13:43:06.02Z</time></trkpt><trkpt lat="16.2943136" lon="-61.3208651"><ele>36.6</ele><time>2026-03-22T13:43:07.023Z</time></trkpt><trkpt lat="16.2943962" lon="-61.320895"><ele>36.0</ele><time>2026-03-22T13:43:07.967Z</time></trkpt><trkpt lat="16.2944836" lon="-61.3209292"><ele>36.0</ele><time>2026-03-22T13:43:08.991Z</time></trkpt><trkpt lat="16.2945691" lon="-61.3209647"><ele>36.0</ele><time>2026-03-22T13:43:09.979Z</time></trkpt><trkpt lat="16.294655" lon="-61.3209992"><ele>36.0</ele><time>2026-03-22T13:43:10.983Z</time></trkpt><trkpt lat="16.2947497" lon="-61.3210312"><ele>36.0</ele><time>2026-03-22T13:43:11.959Z</time></trkpt><trkpt lat="16.2948425" lon="-61.3210542"><ele>36.0</ele><time>2026-03-22T13:43:12.972Z</time></trkpt><trkpt lat="16.294934" lon="-61.3210768"><ele>35.57142857142858</ele><time>2026-03-22T13:43:13.987Z</time></trkpt><trkpt lat="16.295013" lon="-61.3210998"><ele>35.142857142857146</ele><time>2026-03-22T13:43:14.992Z</time></trkpt><trkpt lat="16.2950796" lon="-61.3211293"><ele>34.714285714285715</ele><time>2026-03-22T13:43:15.977Z</time></trkpt><trkpt lat="16.295136" lon="-61.3211592"><ele>34.28571428571429</ele><time>2026-03-22T13:43:16.981Z</time></trkpt><trkpt lat="16.2952125" lon="-61.3211871"><ele>33.85714285714286</ele><time>2026-03-22T13:43:18.985Z</time></trkpt><trkpt lat="16.2952745" lon="-61.3211678"><ele>33.42857142857143</ele><time>2026-03-22T13:43:20.977Z</time></trkpt><trkpt lat="16.2953074" lon="-61.3211052"><ele>33.0</ele><time>2026-03-22T13:43:22.022Z</time></trkpt><trkpt lat="16.2953455" lon="-61.3210278"><ele>33.0</ele><time>2026-03-22T13:43:22.989Z</time></trkpt><trkpt lat="16.2953966" lon="-61.320924"><ele>33.0</ele><time>2026-03-22T13:43:23.991Z</time></trkpt><trkpt lat="16.2954459" lon="-61.3208057"><ele>33.0</ele><time>2026-03-22T13:43:24.967Z</time></trkpt><trkpt lat="16.2954943" lon="-61.3206857"><ele>33.0</ele><time>2026-03-22T13:43:25.996Z</time></trkpt><trkpt lat="16.2955438" lon="-61.3205703"><ele>32.199999999999996</ele><time>2026-03-22T13:43:26.976Z</time></trkpt><trkpt lat="16.2955885" lon="-61.3204556"><ele>31.4</ele><time>2026-03-22T13:43:27.988Z</time></trkpt><trkpt lat="16.2956217" lon="-61.3203473"><ele>30.599999999999998</ele><time>2026-03-22T13:43:29.001Z</time></trkpt><trkpt lat="16.295649" lon="-61.3202503"><ele>29.799999999999997</ele><time>2026-03-22T13:43:29.962Z</time></trkpt><trkpt lat="16.2956777" lon="-61.3201396"><ele>29.0</ele><time>2026-03-22T13:43:30.954Z</time></trkpt><trkpt lat="16.2957" lon="-61.3200231"><ele>29.0</ele><time>2026-03-22T13:43:32.053Z</time></trkpt><trkpt lat="16.2957081" lon="-61.3198992"><ele>29.0</ele><time>2026-03-22T13:43:32.971Z</time></trkpt><trkpt lat="16.2957021" lon="-61.3197798"><ele>29.0</ele><time>2026-03-22T13:43:33.997Z</time></trkpt><trkpt lat="16.2956906" lon="-61.31965"><ele>29.0</ele><time>2026-03-22T13:43:34.988Z</time></trkpt><trkpt lat="16.2956614" lon="-61.3195261"><ele>29.25</ele><time>2026-03-22T13:43:35.977Z</time></trkpt><trkpt lat="16.2956221" lon="-61.3194066"><ele>29.5</ele><time>2026-03-22T13:43:36.99Z</time></trkpt><trkpt lat="16.2955862" lon="-61.3192856"><ele>29.75</ele><time>2026-03-22T13:43:37.998Z</time></trkpt><trkpt lat="16.2955385" lon="-61.3191657"><ele>30.0</ele><time>2026-03-22T13:43:39.007Z</time></trkpt><trkpt lat="16.2954903" lon="-61.3190466"><ele>30.0</ele><time>2026-03-22T13:43:39.984Z</time></trkpt><trkpt lat="16.2954375" lon="-61.3189205"><ele>30.0</ele><time>2026-03-22T13:43:40.984Z</time></trkpt><trkpt lat="16.2953806" lon="-61.3187989"><ele>30.0</ele><time>2026-03-22T13:43:41.988Z</time></trkpt><trkpt lat="16.2953279" lon="-61.3186707"><ele>30.0</ele><time>2026-03-22T13:43:42.99Z</time></trkpt><trkpt lat="16.2952799" lon="-61.3185397"><ele>31.0</ele><time>2026-03-22T13:43:43.989Z</time></trkpt><trkpt lat="16.2952272" lon="-61.3184072"><ele>32.0</ele><time>2026-03-22T13:43:45.005Z</time></trkpt><trkpt lat="16.2951762" lon="-61.3182721"><ele>33.0</ele><time>2026-03-22T13:43:45.992Z</time></trkpt><trkpt lat="16.2951225" lon="-61.3181354"><ele>34.0</ele><time>2026-03-22T13:43:46.982Z</time></trkpt><trkpt lat="16.2950695" lon="-61.3179947"><ele>34.0</ele><time>2026-03-22T13:43:47.987Z</time></trkpt><trkpt lat="16.2950201" lon="-61.3178629"><ele>34.0</ele><time>2026-03-22T13:43:48.991Z</time></trkpt><trkpt lat="16.2949736" lon="-61.3177297"><ele>34.0</ele><time>2026-03-22T13:43:49.985Z</time></trkpt><trkpt lat="16.2949243" lon="-61.317596"><ele>34.0</ele><time>2026-03-22T13:43:50.988Z</time></trkpt><trkpt lat="16.2948748" lon="-61.3174573"><ele>34.0</ele><time>2026-03-22T13:43:52.039Z</time></trkpt><trkpt lat="16.2948248" lon="-61.3173146"><ele>34.0</ele><time>2026-03-22T13:43:52.978Z</time></trkpt><trkpt lat="16.2947778" lon="-61.3171764"><ele>34.0</ele><time>2026-03-22T13:43:53.993Z</time></trkpt><trkpt lat="16.2947325" lon="-61.3170372"><ele>34.0</ele><time>2026-03-22T13:43:54.965Z</time></trkpt><trkpt lat="16.2946971" lon="-61.3169022"><ele>33.0</ele><time>2026-03-22T13:43:56.065Z</time></trkpt><trkpt lat="16.2946664" lon="-61.3167816"><ele>32.0</ele><time>2026-03-22T13:43:57.047Z</time></trkpt><trkpt lat="16.2946604" lon="-61.3166747"><ele>31.0</ele><time>2026-03-22T13:43:57.993Z</time></trkpt><trkpt lat="16.2946634" lon="-61.3165765"><ele>30.0</ele><time>2026-03-22T13:43:58.995Z</time></trkpt><trkpt lat="16.2946704" lon="-61.3164921"><ele>29.0</ele><time>2026-03-22T13:43:59.996Z</time></trkpt><trkpt lat="16.2946776" lon="-61.316413"><ele>29.6</ele><time>2026-03-22T13:44:01.002Z</time></trkpt><trkpt lat="16.2946894" lon="-61.3163224"><ele>30.2</ele><time>2026-03-22T13:44:02.004Z</time></trkpt><trkpt lat="16.2947048" lon="-61.3162138"><ele>30.800000000000004</ele><time>2026-03-22T13:44:02.998Z</time></trkpt><trkpt lat="16.2947239" lon="-61.3160996"><ele>31.400000000000002</ele><time>2026-03-22T13:44:03.996Z</time></trkpt><trkpt lat="16.2947401" lon="-61.3159772"><ele>32.0</ele><time>2026-03-22T13:44:04.993Z</time></trkpt><trkpt lat="16.2947558" lon="-61.3158553"><ele>32.0</ele><time>2026-03-22T13:44:05.982Z</time></trkpt><trkpt lat="16.2947668" lon="-61.3157264"><ele>32.0</ele><time>2026-03-22T13:44:06.988Z</time></trkpt><trkpt lat="16.2947692" lon="-61.3156062"><ele>32.0</ele><time>2026-03-22T13:44:07.986Z</time></trkpt><trkpt lat="16.2947664" lon="-61.3154888"><ele>32.0</ele><time>2026-03-22T13:44:08.999Z</time></trkpt><trkpt lat="16.2947586" lon="-61.3153726"><ele>32.800000000000004</ele><time>2026-03-22T13:44:10Z</time></trkpt><trkpt lat="16.294746" lon="-61.3152595"><ele>33.6</ele><time>2026-03-22T13:44:10.998Z</time></trkpt><trkpt lat="16.2947168" lon="-61.3151553"><ele>34.400000000000006</ele><time>2026-03-22T13:44:11.97Z</time></trkpt><trkpt lat="16.2946891" lon="-61.3150495"><ele>35.2</ele><time>2026-03-22T13:44:12.987Z</time></trkpt><trkpt lat="16.2946597" lon="-61.3149424"><ele>36.0</ele><time>2026-03-22T13:44:13.989Z</time></trkpt><trkpt lat="16.2946352" lon="-61.3148325"><ele>35.2</ele><time>2026-03-22T13:44:14.992Z</time></trkpt><trkpt lat="16.2946017" lon="-61.3147305"><ele>34.400000000000006</ele><time>2026-03-22T13:44:15.991Z</time></trkpt><trkpt lat="16.2945812" lon="-61.3146313"><ele>33.6</ele><time>2026-03-22T13:44:16.987Z</time></trkpt><trkpt lat="16.2945561" lon="-61.3145398"><ele>32.800000000000004</ele><time>2026-03-22T13:44:17.994Z</time></trkpt><trkpt lat="16.2945429" lon="-61.3144547"><ele>32.0</ele><time>2026-03-22T13:44:18.998Z</time></trkpt><trkpt lat="16.2945196" lon="-61.3143659"><ele>32.0</ele><time>2026-03-22T13:44:20.066Z</time></trkpt><trkpt lat="16.294491" lon="-61.3142747"><ele>32.0</ele><time>2026-03-22T13:44:20.996Z</time></trkpt><trkpt lat="16.2944594" lon="-61.3141854"><ele>32.0</ele><time>2026-03-22T13:44:21.989Z</time></trkpt><trkpt lat="16.2944335" lon="-61.3140811"><ele>32.0</ele><time>2026-03-22T13:44:22.995Z</time></trkpt><trkpt lat="16.2944011" lon="-61.3139773"><ele>32.0</ele><time>2026-03-22T13:44:24.066Z</time></trkpt><trkpt lat="16.2943625" lon="-61.3138841"><ele>32.2</ele><time>2026-03-22T13:44:24.974Z</time></trkpt><trkpt lat="16.2943264" lon="-61.3137908"><ele>32.400000000000006</ele><time>2026-03-22T13:44:26.061Z</time></trkpt><trkpt lat="16.294295" lon="-61.3137002"><ele>32.599999999999994</ele><time>2026-03-22T13:44:27.038Z</time></trkpt><trkpt lat="16.2942673" lon="-61.3136077"><ele>32.8</ele><time>2026-03-22T13:44:28.001Z</time></trkpt><trkpt lat="16.2942392" lon="-61.3135142"><ele>33.0</ele><time>2026-03-22T13:44:28.995Z</time></trkpt><trkpt lat="16.2942172" lon="-61.3134194"><ele>33.0</ele><time>2026-03-22T13:44:29.964Z</time></trkpt><trkpt lat="16.2941949" lon="-61.3133217"><ele>33.0</ele><time>2026-03-22T13:44:30.964Z</time></trkpt><trkpt lat="16.2941849" lon="-61.3132345"><ele>33.0</ele><time>2026-03-22T13:44:32.047Z</time></trkpt><trkpt lat="16.2941795" lon="-61.3131397"><ele>33.0</ele><time>2026-03-22T13:44:32.993Z</time></trkpt><trkpt lat="16.2941756" lon="-61.3130427"><ele>33.0</ele><time>2026-03-22T13:44:33.998Z</time></trkpt><trkpt lat="16.2941809" lon="-61.3129353"><ele>33.199999999999996</ele><time>2026-03-22T13:44:34.997Z</time></trkpt><trkpt lat="16.2941916" lon="-61.3128242"><ele>33.4</ele><time>2026-03-22T13:44:36.044Z</time></trkpt><trkpt lat="16.2942096" lon="-61.3127175"><ele>33.599999999999994</ele><time>2026-03-22T13:44:37.054Z</time></trkpt><trkpt lat="16.2942333" lon="-61.3126083"><ele>33.8</ele><time>2026-03-22T13:44:37.986Z</time></trkpt><trkpt lat="16.2942475" lon="-61.3124979"><ele>34.0</ele><time>2026-03-22T13:44:38.996Z</time></trkpt><trkpt lat="16.2942665" lon="-61.3123799"><ele>34.0</ele><time>2026-03-22T13:44:39.978Z</time></trkpt><trkpt lat="16.2942826" lon="-61.3122738"><ele>34.0</ele><time>2026-03-22T13:44:41.051Z</time></trkpt><trkpt lat="16.2943017" lon="-61.3121775"><ele>34.0</ele><time>2026-03-22T13:44:42.061Z</time></trkpt><trkpt lat="16.2943196" lon="-61.3120888"><ele>34.0</ele><time>2026-03-22T13:44:42.995Z</time></trkpt><trkpt lat="16.294335" lon="-61.3120023"><ele>34.0</ele><time>2026-03-22T13:44:43.988Z</time></trkpt><trkpt lat="16.2943487" lon="-61.3119112"><ele>33.4</ele><time>2026-03-22T13:44:44.969Z</time></trkpt><trkpt lat="16.2943652" lon="-61.3118158"><ele>32.8</ele><time>2026-03-22T13:44:46.059Z</time></trkpt><trkpt lat="16.2943844" lon="-61.3117255"><ele>32.2</ele><time>2026-03-22T13:44:47.035Z</time></trkpt><trkpt lat="16.2944027" lon="-61.3116311"><ele>31.6</ele><time>2026-03-22T13:44:47.995Z</time></trkpt><trkpt lat="16.2944214" lon="-61.311539"><ele>31.0</ele><time>2026-03-22T13:44:48.985Z</time></trkpt><trkpt lat="16.2944375" lon="-61.3114437"><ele>30.8</ele><time>2026-03-22T13:44:49.998Z</time></trkpt><trkpt lat="16.2944508" lon="-61.3113474"><ele>30.6</ele><time>2026-03-22T13:44:51.004Z</time></trkpt><trkpt lat="16.2944628" lon="-61.3112471"><ele>30.4</ele><time>2026-03-22T13:44:51.984Z</time></trkpt><trkpt lat="16.2944761" lon="-61.311145"><ele>30.2</ele><time>2026-03-22T13:44:52.997Z</time></trkpt><trkpt lat="16.2944908" lon="-61.3110376"><ele>30.0</ele><time>2026-03-22T13:44:54.045Z</time></trkpt><trkpt lat="16.2945048" lon="-61.3109331"><ele>30.0</ele><time>2026-03-22T13:44:54.981Z</time></trkpt><trkpt lat="16.2945215" lon="-61.3108346"><ele>30.0</ele><time>2026-03-22T13:44:55.988Z</time></trkpt><trkpt lat="16.2945345" lon="-61.310738"><ele>30.0</ele><time>2026-03-22T13:44:57.004Z</time></trkpt><trkpt lat="16.294554" lon="-61.3106388"><ele>30.0</ele><time>2026-03-22T13:44:57.987Z</time></trkpt><trkpt lat="16.2945799" lon="-61.3105508"><ele>30.0</ele><time>2026-03-22T13:44:59.004Z</time></trkpt><trkpt lat="16.2946043" lon="-61.3104642"><ele>30.166666666666668</ele><time>2026-03-22T13:44:59.994Z</time></trkpt><trkpt lat="16.294627" lon="-61.3103828"><ele>30.333333333333336</ele><time>2026-03-22T13:45:00.998Z</time></trkpt><trkpt lat="16.2946464" lon="-61.3103029"><ele>30.5</ele><time>2026-03-22T13:45:02.061Z</time></trkpt><trkpt lat="16.2946691" lon="-61.3102199"><ele>30.666666666666668</ele><time>2026-03-22T13:45:02.992Z</time></trkpt><trkpt lat="16.2946908" lon="-61.3101254"><ele>30.833333333333336</ele><time>2026-03-22T13:45:04.001Z</time></trkpt><trkpt lat="16.2947102" lon="-61.3100241"><ele>31.0</ele><time>2026-03-22T13:45:04.986Z</time></trkpt><trkpt lat="16.2947288" lon="-61.3099222"><ele>31.0</ele><time>2026-03-22T13:45:05.987Z</time></trkpt><trkpt lat="16.2947491" lon="-61.3098249"><ele>31.0</ele><time>2026-03-22T13:45:06.988Z</time></trkpt><trkpt lat="16.2947742" lon="-61.3097323"><ele>31.0</ele><time>2026-03-22T13:45:07.993Z</time></trkpt><trkpt lat="16.2948032" lon="-61.3096358"><ele>31.0</ele><time>2026-03-22T13:45:08.995Z</time></trkpt><trkpt lat="16.2948305" lon="-61.309549"><ele>31.0</ele><time>2026-03-22T13:45:10.03Z</time></trkpt><trkpt lat="16.2948532" lon="-61.3094705"><ele>30.200000000000003</ele><time>2026-03-22T13:45:11.035Z</time></trkpt><trkpt lat="16.2948679" lon="-61.309404"><ele>29.400000000000002</ele><time>2026-03-22T13:45:12.037Z</time></trkpt><trkpt lat="16.2948897" lon="-61.3092959"><ele>28.6</ele><time>2026-03-22T13:45:14.002Z</time></trkpt><trkpt lat="16.2949154" lon="-61.3092171"><ele>27.8</ele><time>2026-03-22T13:45:16.001Z</time></trkpt><trkpt lat="16.2949762" lon="-61.3091586"><ele>27.0</ele><time>2026-03-22T13:45:17.991Z</time></trkpt><trkpt lat="16.2951018" lon="-61.3091301"><ele>27.0</ele><time>2026-03-22T13:45:20.04Z</time></trkpt><trkpt lat="16.2951851" lon="-61.3091118"><ele>27.000000000000004</ele><time>2026-03-22T13:45:21.079Z</time></trkpt><trkpt lat="16.2952858" lon="-61.309102"><ele>27.000000000000004</ele><time>2026-03-22T13:45:21.995Z</time></trkpt><trkpt lat="16.2953802" lon="-61.3090873"><ele>27.0</ele><time>2026-03-22T13:45:22.991Z</time></trkpt><trkpt lat="16.2954769" lon="-61.309079"><ele>27.0</ele><time>2026-03-22T13:45:23.988Z</time></trkpt><trkpt lat="16.2955724" lon="-61.3090636"><ele>27.6</ele><time>2026-03-22T13:45:24.997Z</time></trkpt><trkpt lat="16.295664" lon="-61.3090567"><ele>28.200000000000003</ele><time>2026-03-22T13:45:26.001Z</time></trkpt><trkpt lat="16.2957523" lon="-61.309051"><ele>28.8</ele><time>2026-03-22T13:45:26.979Z</time></trkpt><trkpt lat="16.2958472" lon="-61.3090488"><ele>29.4</ele><time>2026-03-22T13:45:27.991Z</time></trkpt><trkpt lat="16.2959415" lon="-61.3090469"><ele>30.0</ele><time>2026-03-22T13:45:29.005Z</time></trkpt><trkpt lat="16.2960285" lon="-61.3090312"><ele>30.0</ele><time>2026-03-22T13:45:30.083Z</time></trkpt><trkpt lat="16.2961087" lon="-61.3090096"><ele>30.0</ele><time>2026-03-22T13:45:30.989Z</time></trkpt><trkpt lat="16.2961894" lon="-61.3090068"><ele>30.0</ele><time>2026-03-22T13:45:31.98Z</time></trkpt><trkpt lat="16.2962634" lon="-61.3090032"><ele>30.0</ele><time>2026-03-22T13:45:32.99Z</time></trkpt><trkpt lat="16.2963329" lon="-61.3089958"><ele>30.0</ele><time>2026-03-22T13:45:33.985Z</time></trkpt><trkpt lat="16.2964012" lon="-61.3089815"><ele>30.0</ele><time>2026-03-22T13:45:34.999Z</time></trkpt><trkpt lat="16.2964736" lon="-61.3089645"><ele>29.833333333333332</ele><time>2026-03-22T13:45:35.988Z</time></trkpt><trkpt lat="16.2965533" lon="-61.3089485"><ele>29.666666666666664</ele><time>2026-03-22T13:45:36.994Z</time></trkpt><trkpt lat="16.2966331" lon="-61.3089236"><ele>29.5</ele><time>2026-03-22T13:45:37.995Z</time></trkpt><trkpt lat="16.296714" lon="-61.3089079"><ele>29.333333333333332</ele><time>2026-03-22T13:45:38.98Z</time></trkpt><trkpt lat="16.2968008" lon="-61.3088951"><ele>29.166666666666664</ele><time>2026-03-22T13:45:39.995Z</time></trkpt><trkpt lat="16.2968962" lon="-61.3088804"><ele>29.0</ele><time>2026-03-22T13:45:41.001Z</time></trkpt><trkpt lat="16.2969968" lon="-61.3088618"><ele>29.0</ele><time>2026-03-22T13:45:41.991Z</time></trkpt><trkpt lat="16.2970945" lon="-61.3088392"><ele>29.0</ele><time>2026-03-22T13:45:42.992Z</time></trkpt><trkpt lat="16.2971937" lon="-61.3088068"><ele>29.0</ele><time>2026-03-22T13:45:43.986Z</time></trkpt><trkpt lat="16.2972899" lon="-61.308772"><ele>29.0</ele><time>2026-03-22T13:45:44.992Z</time></trkpt><trkpt lat="16.2973781" lon="-61.3087411"><ele>29.0</ele><time>2026-03-22T13:45:45.994Z</time></trkpt><trkpt lat="16.2974482" lon="-61.3087185"><ele>30.0</ele><time>2026-03-22T13:45:46.99Z</time></trkpt><trkpt lat="16.2975089" lon="-61.3086998"><ele>31.0</ele><time>2026-03-22T13:45:47.993Z</time></trkpt><trkpt lat="16.2975831" lon="-61.308648"><ele>32.0</ele><time>2026-03-22T13:45:49.987Z</time></trkpt><trkpt lat="16.2975846" lon="-61.3085537"><ele>33.0</ele><time>2026-03-22T13:45:59.986Z</time></trkpt><trkpt lat="16.2975424" lon="-61.3084225"><ele>34.0</ele><time>2026-03-22T13:46:01.988Z</time></trkpt><trkpt lat="16.2975128" lon="-61.3083443"><ele>34.0</ele><time>2026-03-22T13:46:02.995Z</time></trkpt><trkpt lat="16.2974881" lon="-61.3082613"><ele>34.0</ele><time>2026-03-22T13:46:03.983Z</time></trkpt><trkpt lat="16.2974692" lon="-61.3081862"><ele>34.0</ele><time>2026-03-22T13:46:04.99Z</time></trkpt><trkpt lat="16.2974485" lon="-61.3080797"><ele>34.0</ele><time>2026-03-22T13:46:06.993Z</time></trkpt><trkpt lat="16.2974878" lon="-61.3080171"><ele>34.0</ele><time>2026-03-22T13:46:08.977Z</time></trkpt><trkpt lat="16.2975833" lon="-61.3080023"><ele>34.0</ele><time>2026-03-22T13:46:10.98Z</time></trkpt><trkpt lat="16.297656" lon="-61.3079862"><ele>33.66666666666667</ele><time>2026-03-22T13:46:26.986Z</time></trkpt><trkpt lat="16.2977431" lon="-61.3079646"><ele>33.333333333333336</ele><time>2026-03-22T13:46:30.004Z</time></trkpt><trkpt lat="16.297825" lon="-61.3079472"><ele>33.0</ele><time>2026-03-22T13:46:32.976Z</time></trkpt><trkpt lat="16.2979019" lon="-61.3079283"><ele>32.666666666666664</ele><time>2026-03-22T13:46:35.99Z</time></trkpt><trkpt lat="16.2979695" lon="-61.3079329"><ele>32.33333333333333</ele><time>2026-03-22T13:46:39.986Z</time></trkpt><trkpt lat="16.2979993" lon="-61.3078581"><ele>32.0</ele><time>2026-03-22T13:46:43.988Z</time></trkpt><trkpt lat="16.2979363" lon="-61.3078897"><ele>31.999999999999996</ele><time>2026-03-22T13:46:52.986Z</time></trkpt><trkpt lat="16.2978676" lon="-61.3079186"><ele>32.0</ele><time>2026-03-22T13:46:55.987Z</time></trkpt><trkpt lat="16.2977691" lon="-61.3079317"><ele>32.0</ele><time>2026-03-22T13:46:57.994Z</time></trkpt><trkpt lat="16.2976803" lon="-61.3079561"><ele>32.0</ele><time>2026-03-22T13:46:59.986Z</time></trkpt><trkpt lat="16.2975877" lon="-61.3079803"><ele>31.999999999999996</ele><time>2026-03-22T13:47:01.989Z</time></trkpt><trkpt lat="16.2975184" lon="-61.3079842"><ele>32.0</ele><time>2026-03-22T13:47:03.975Z</time></trkpt><trkpt lat="16.2974506" lon="-61.3080253"><ele>32.5</ele><time>2026-03-22T13:47:07.99Z</time></trkpt><trkpt lat="16.297464" lon="-61.3081601"><ele>33.0</ele><time>2026-03-22T13:47:09.986Z</time></trkpt><trkpt lat="16.2974919" lon="-61.308259"><ele>33.5</ele><time>2026-03-22T13:47:10.992Z</time></trkpt><trkpt lat="16.2975226" lon="-61.3083752"><ele>34.0</ele><time>2026-03-22T13:47:11.986Z</time></trkpt><trkpt lat="16.2975488" lon="-61.3084823"><ele>34.0</ele><time>2026-03-22T13:47:12.986Z</time></trkpt><trkpt lat="16.2975664" lon="-61.3085626"><ele>34.0</ele><time>2026-03-22T13:47:13.994Z</time></trkpt><trkpt lat="16.2975845" lon="-61.3086279"><ele>34.0</ele><time>2026-03-22T13:47:14.992Z</time></trkpt><trkpt lat="16.2976202" lon="-61.3087184"><ele>34.0</ele><time>2026-03-22T13:47:16.985Z</time></trkpt><trkpt lat="16.2976416" lon="-61.3087821"><ele>34.0</ele><time>2026-03-22T13:47:17.993Z</time></trkpt><trkpt lat="16.2976702" lon="-61.3088631"><ele>34.0</ele><time>2026-03-22T13:47:18.994Z</time></trkpt><trkpt lat="16.2976999" lon="-61.3089575"><ele>33.6</ele><time>2026-03-22T13:47:19.986Z</time></trkpt><trkpt lat="16.2977286" lon="-61.3090569"><ele>33.2</ele><time>2026-03-22T13:47:20.998Z</time></trkpt><trkpt lat="16.2977667" lon="-61.3091611"><ele>32.800000000000004</ele><time>2026-03-22T13:47:21.987Z</time></trkpt><trkpt lat="16.2977964" lon="-61.3092633"><ele>32.4</ele><time>2026-03-22T13:47:22.991Z</time></trkpt><trkpt lat="16.2978241" lon="-61.309361"><ele>32.0</ele><time>2026-03-22T13:47:23.995Z</time></trkpt><trkpt lat="16.29785" lon="-61.3094456"><ele>31.999999999999996</ele><time>2026-03-22T13:47:24.984Z</time></trkpt><trkpt lat="16.297873" lon="-61.3095311"><ele>32.0</ele><time>2026-03-22T13:47:25.986Z</time></trkpt><trkpt lat="16.2978946" lon="-61.309617"><ele>32.0</ele><time>2026-03-22T13:47:27.006Z</time></trkpt><trkpt lat="16.2979272" lon="-61.3097075"><ele>32.0</ele><time>2026-03-22T13:47:27.99Z</time></trkpt><trkpt lat="16.2979565" lon="-61.3097999"><ele>31.999999999999996</ele><time>2026-03-22T13:47:28.992Z</time></trkpt><trkpt lat="16.2979817" lon="-61.3098882"><ele>32.0</ele><time>2026-03-22T13:47:29.997Z</time></trkpt><trkpt lat="16.2980091" lon="-61.3099766"><ele>31.8</ele><time>2026-03-22T13:47:30.99Z</time></trkpt><trkpt lat="16.2980308" lon="-61.3100529"><ele>31.6</ele><time>2026-03-22T13:47:31.996Z</time></trkpt><trkpt lat="16.298057" lon="-61.3101312"><ele>31.400000000000002</ele><time>2026-03-22T13:47:33.999Z</time></trkpt><trkpt lat="16.2981197" lon="-61.3101914"><ele>31.200000000000003</ele><time>2026-03-22T13:47:36.991Z</time></trkpt><trkpt lat="16.2982034" lon="-61.3101798"><ele>31.0</ele><time>2026-03-22T13:47:38.995Z</time></trkpt><trkpt lat="16.2983411" lon="-61.3101518"><ele>31.333333333333336</ele><time>2026-03-22T13:47:40.994Z</time></trkpt><trkpt lat="16.2984206" lon="-61.310113"><ele>31.666666666666668</ele><time>2026-03-22T13:47:42.001Z</time></trkpt><trkpt lat="16.2985007" lon="-61.3100663"><ele>32.0</ele><time>2026-03-22T13:47:42.982Z</time></trkpt><trkpt lat="16.2985723" lon="-61.3100163"><ele>32.333333333333336</ele><time>2026-03-22T13:47:43.975Z</time></trkpt><trkpt lat="16.2986352" lon="-61.3099716"><ele>32.666666666666664</ele><time>2026-03-22T13:47:44.999Z</time></trkpt><trkpt lat="16.2986798" lon="-61.3099249"><ele>33.0</ele><time>2026-03-22T13:47:45.987Z</time></trkpt><trkpt lat="16.2987297" lon="-61.3098818"><ele>33.0</ele><time>2026-03-22T13:47:48Z</time></trkpt><trkpt lat="16.2986568" lon="-61.3099474"><ele>33.0</ele><time>2026-03-22T13:47:56.99Z</time></trkpt><trkpt lat="16.2985848" lon="-61.3099875"><ele>33.0</ele><time>2026-03-22T13:47:57.998Z</time></trkpt><trkpt lat="16.2985152" lon="-61.3100341"><ele>33.0</ele><time>2026-03-22T13:47:58.998Z</time></trkpt><trkpt lat="16.2984373" lon="-61.3100874"><ele>33.0</ele><time>2026-03-22T13:47:59.993Z</time></trkpt><trkpt lat="16.2983556" lon="-61.310137"><ele>33.0</ele><time>2026-03-22T13:48:00.964Z</time></trkpt><trkpt lat="16.2982662" lon="-61.3101747"><ele>33.0</ele><time>2026-03-22T13:48:01.991Z</time></trkpt><trkpt lat="16.2981912" lon="-61.3101915"><ele>33.0</ele><time>2026-03-22T13:48:02.995Z</time></trkpt><trkpt lat="16.2981276" lon="-61.3102003"><ele>33.0</ele><time>2026-03-22T13:48:03.99Z</time></trkpt><trkpt lat="16.2980597" lon="-61.3101912"><ele>33.0</ele><time>2026-03-22T13:48:05.993Z</time></trkpt><trkpt lat="16.2980082" lon="-61.3101171"><ele>33.0</ele><time>2026-03-22T13:48:07.988Z</time></trkpt><trkpt lat="16.2979631" lon="-61.3100038"><ele>33.0</ele><time>2026-03-22T13:48:09.989Z</time></trkpt><trkpt lat="16.2979239" lon="-61.3098891"><ele>32.833333333333336</ele><time>2026-03-22T13:48:11.998Z</time></trkpt><trkpt lat="16.2978959" lon="-61.3097548"><ele>32.666666666666664</ele><time>2026-03-22T13:48:13.993Z</time></trkpt><trkpt lat="16.2978698" lon="-61.3096903"><ele>32.5</ele><time>2026-03-22T13:48:14.984Z</time></trkpt><trkpt lat="16.2978475" lon="-61.3096152"><ele>32.33333333333333</ele><time>2026-03-22T13:48:15.964Z</time></trkpt><trkpt lat="16.2978245" lon="-61.3095352"><ele>32.166666666666664</ele><time>2026-03-22T13:48:16.994Z</time></trkpt><trkpt lat="16.2978093" lon="-61.3094639"><ele>32.0</ele><time>2026-03-22T13:48:18.002Z</time></trkpt><trkpt lat="16.2977926" lon="-61.3093666"><ele>31.999999999999996</ele><time>2026-03-22T13:48:19.982Z</time></trkpt><trkpt lat="16.2978816" lon="-61.3093209"><ele>32.0</ele><time>2026-03-22T13:48:22.978Z</time></trkpt><trkpt lat="16.2979477" lon="-61.3093056"><ele>32.0</ele><time>2026-03-22T13:48:23.97Z</time></trkpt><trkpt lat="16.2980239" lon="-61.3092883"><ele>32.0</ele><time>2026-03-22T13:48:24.994Z</time></trkpt><trkpt lat="16.298098" lon="-61.3092613"><ele>31.999999999999996</ele><time>2026-03-22T13:48:26.006Z</time></trkpt><trkpt lat="16.2981799" lon="-61.3092366"><ele>32.0</ele><time>2026-03-22T13:48:27.006Z</time></trkpt><trkpt lat="16.2982613" lon="-61.3092105"><ele>32.33333333333333</ele><time>2026-03-22T13:48:27.993Z</time></trkpt><trkpt lat="16.2983363" lon="-61.3091863"><ele>32.666666666666664</ele><time>2026-03-22T13:48:28.99Z</time></trkpt><trkpt lat="16.2984063" lon="-61.3091612"><ele>33.0</ele><time>2026-03-22T13:48:29.993Z</time></trkpt><trkpt lat="16.2984748" lon="-61.3091373"><ele>33.333333333333336</ele><time>2026-03-22T13:48:30.99Z</time></trkpt><trkpt lat="16.2985382" lon="-61.3091027"><ele>33.66666666666667</ele><time>2026-03-22T13:48:32Z</time></trkpt><trkpt lat="16.2986106" lon="-61.3090583"><ele>34.0</ele><time>2026-03-22T13:48:33Z</time></trkpt><trkpt lat="16.29868" lon="-61.3089989"><ele>34.0</ele><time>2026-03-22T13:48:33.996Z</time></trkpt><trkpt lat="16.2987378" lon="-61.308935"><ele>34.0</ele><time>2026-03-22T13:48:34.991Z</time></trkpt><trkpt lat="16.2987776" lon="-61.3088687"><ele>34.0</ele><time>2026-03-22T13:48:36.004Z</time></trkpt><trkpt lat="16.2988265" lon="-61.3087538"><ele>34.0</ele><time>2026-03-22T13:48:38.005Z</time></trkpt><trkpt lat="16.2989058" lon="-61.3087096"><ele>34.0</ele><time>2026-03-22T13:48:39.996Z</time></trkpt><trkpt lat="16.2990295" lon="-61.3087044"><ele>34.5</ele><time>2026-03-22T13:48:41.992Z</time></trkpt><trkpt lat="16.2991008" lon="-61.3087062"><ele>35.0</ele><time>2026-03-22T13:48:42.996Z</time></trkpt><trkpt lat="16.2991703" lon="-61.3087061"><ele>35.5</ele><time>2026-03-22T13:48:43.995Z</time></trkpt><trkpt lat="16.2992379" lon="-61.3087072"><ele>36.0</ele><time>2026-03-22T13:48:44.959Z</time></trkpt><trkpt lat="16.2993431" lon="-61.3086997"><ele>36.5</ele><time>2026-03-22T13:48:46.991Z</time></trkpt><trkpt lat="16.2994403" lon="-61.3086651"><ele>37.0</ele><time>2026-03-22T13:48:48.971Z</time></trkpt><trkpt lat="16.2995062" lon="-61.3086454"><ele>37.0</ele><time>2026-03-22T13:48:49.986Z</time></trkpt><trkpt lat="16.2995788" lon="-61.3086287"><ele>37.0</ele><time>2026-03-22T13:48:50.992Z</time></trkpt><trkpt lat="16.2996498" lon="-61.3086099"><ele>37.0</ele><time>2026-03-22T13:48:51.993Z</time></trkpt><trkpt lat="16.2997186" lon="-61.3085867"><ele>37.0</ele><time>2026-03-22T13:48:52.99Z</time></trkpt><trkpt lat="16.2997819" lon="-61.30857"><ele>37.0</ele><time>2026-03-22T13:48:54.003Z</time></trkpt><trkpt lat="16.2998747" lon="-61.3085472"><ele>37.0</ele><time>2026-03-22T13:48:55.991Z</time></trkpt><trkpt lat="16.2999134" lon="-61.3084915"><ele>37.0</ele><time>2026-03-22T13:48:58.989Z</time></trkpt><trkpt lat="16.2999587" lon="-61.3085626"><ele>36.66666666666667</ele><time>2026-03-22T13:49:14.987Z</time></trkpt><trkpt lat="16.2999888" lon="-61.3086226"><ele>36.333333333333336</ele><time>2026-03-22T13:49:21.988Z</time></trkpt><trkpt lat="16.3000514" lon="-61.308637"><ele>36.0</ele><time>2026-03-22T13:49:25.984Z</time></trkpt><trkpt lat="16.3001218" lon="-61.3086202"><ele>35.666666666666664</ele><time>2026-03-22T13:49:27.99Z</time></trkpt><trkpt lat="16.3002368" lon="-61.3085949"><ele>35.33333333333333</ele><time>2026-03-22T13:49:29.989Z</time></trkpt><trkpt lat="16.3003528" lon="-61.3085729"><ele>35.0</ele><time>2026-03-22T13:49:31.994Z</time></trkpt><trkpt lat="16.3004178" lon="-61.3085668"><ele>35.0</ele><time>2026-03-22T13:49:32.998Z</time></trkpt><trkpt lat="16.3005267" lon="-61.3085483"><ele>35.0</ele><time>2026-03-22T13:49:34.979Z</time></trkpt><trkpt lat="16.300646" lon="-61.3085182"><ele>35.0</ele><time>2026-03-22T13:49:37.001Z</time></trkpt><trkpt lat="16.3007212" lon="-61.3085019"><ele>35.0</ele><time>2026-03-22T13:49:38.002Z</time></trkpt><trkpt lat="16.3007958" lon="-61.308487"><ele>35.0</ele><time>2026-03-22T13:49:39Z</time></trkpt><trkpt lat="16.3008651" lon="-61.3084648"><ele>34.857142857142854</ele><time>2026-03-22T13:49:40Z</time></trkpt><trkpt lat="16.3009362" lon="-61.3084459"><ele>34.714285714285715</ele><time>2026-03-22T13:49:40.991Z</time></trkpt><trkpt lat="16.3010043" lon="-61.3084314"><ele>34.57142857142857</ele><time>2026-03-22T13:49:42.004Z</time></trkpt><trkpt lat="16.3010754" lon="-61.3084174"><ele>34.42857142857143</ele><time>2026-03-22T13:49:42.995Z</time></trkpt><trkpt lat="16.3011491" lon="-61.3084045"><ele>34.285714285714285</ele><time>2026-03-22T13:49:44.008Z</time></trkpt><trkpt lat="16.3012199" lon="-61.3083911"><ele>34.14285714285714</ele><time>2026-03-22T13:49:44.99Z</time></trkpt><trkpt lat="16.3012958" lon="-61.3083785"><ele>34.0</ele><time>2026-03-22T13:49:45.991Z</time></trkpt><trkpt lat="16.3013732" lon="-61.3083654"><ele>34.8</ele><time>2026-03-22T13:49:46.987Z</time></trkpt><trkpt lat="16.3014605" lon="-61.3083502"><ele>35.599999999999994</ele><time>2026-03-22T13:49:47.998Z</time></trkpt><trkpt lat="16.3015475" lon="-61.3083379"><ele>36.4</ele><time>2026-03-22T13:49:49.003Z</time></trkpt><trkpt lat="16.3016373" lon="-61.3083248"><ele>37.199999999999996</ele><time>2026-03-22T13:49:49.964Z</time></trkpt><trkpt lat="16.301729" lon="-61.3083162"><ele>38.0</ele><time>2026-03-22T13:49:50.988Z</time></trkpt><trkpt lat="16.3018222" lon="-61.3083035"><ele>38.0</ele><time>2026-03-22T13:49:51.997Z</time></trkpt><trkpt lat="16.3019138" lon="-61.3082889"><ele>38.0</ele><time>2026-03-22T13:49:52.972Z</time></trkpt><trkpt lat="16.3019983" lon="-61.3082748"><ele>38.0</ele><time>2026-03-22T13:49:53.996Z</time></trkpt><trkpt lat="16.3020836" lon="-61.3082612"><ele>38.0</ele><time>2026-03-22T13:49:55Z</time></trkpt><trkpt lat="16.3021699" lon="-61.3082474"><ele>38.0</ele><time>2026-03-22T13:49:56.002Z</time></trkpt><trkpt lat="16.3022561" lon="-61.308232"><ele>38.0</ele><time>2026-03-22T13:49:56.998Z</time></trkpt><trkpt lat="16.302341" lon="-61.3082171"><ele>37.83333333333333</ele><time>2026-03-22T13:49:57.986Z</time></trkpt><trkpt lat="16.302427" lon="-61.3082032"><ele>37.666666666666664</ele><time>2026-03-22T13:49:58.998Z</time></trkpt><trkpt lat="16.3025145" lon="-61.3081891"><ele>37.5</ele><time>2026-03-22T13:49:59.992Z</time></trkpt><trkpt lat="16.3025963" lon="-61.3081754"><ele>37.333333333333336</ele><time>2026-03-22T13:50:00.957Z</time></trkpt><trkpt lat="16.3026797" lon="-61.308163"><ele>37.16666666666667</ele><time>2026-03-22T13:50:01.988Z</time></trkpt><trkpt lat="16.3027609" lon="-61.3081489"><ele>37.0</ele><time>2026-03-22T13:50:02.993Z</time></trkpt><trkpt lat="16.3028484" lon="-61.3081362"><ele>37.0</ele><time>2026-03-22T13:50:04.003Z</time></trkpt><trkpt lat="16.3029383" lon="-61.3081203"><ele>37.0</ele><time>2026-03-22T13:50:04.983Z</time></trkpt><trkpt lat="16.3030211" lon="-61.3081104"><ele>37.0</ele><time>2026-03-22T13:50:05.979Z</time></trkpt><trkpt lat="16.303092" lon="-61.3081052"><ele>37.0</ele><time>2026-03-22T13:50:06.978Z</time></trkpt><trkpt lat="16.3031683" lon="-61.3081019"><ele>37.0</ele><time>2026-03-22T13:50:07.998Z</time></trkpt><trkpt lat="16.3032488" lon="-61.3080934"><ele>37.0</ele><time>2026-03-22T13:50:08.965Z</time></trkpt><trkpt lat="16.3033322" lon="-61.3080847"><ele>37.16666666666667</ele><time>2026-03-22T13:50:09.975Z</time></trkpt><trkpt lat="16.30342" lon="-61.3080761"><ele>37.333333333333336</ele><time>2026-03-22T13:50:10.993Z</time></trkpt><trkpt lat="16.3035044" lon="-61.3080669"><ele>37.5</ele><time>2026-03-22T13:50:11.993Z</time></trkpt><trkpt lat="16.3035879" lon="-61.3080548"><ele>37.666666666666664</ele><time>2026-03-22T13:50:12.966Z</time></trkpt><trkpt lat="16.3036704" lon="-61.3080445"><ele>37.83333333333333</ele><time>2026-03-22T13:50:13.982Z</time></trkpt><trkpt lat="16.3037527" lon="-61.3080322"><ele>38.0</ele><time>2026-03-22T13:50:14.996Z</time></trkpt><trkpt lat="16.3038404" lon="-61.3080119"><ele>38.33333333333333</ele><time>2026-03-22T13:50:15.987Z</time></trkpt><trkpt lat="16.3039308" lon="-61.3079991"><ele>38.666666666666664</ele><time>2026-03-22T13:50:16.989Z</time></trkpt><trkpt lat="16.3040132" lon="-61.3079849"><ele>39.0</ele><time>2026-03-22T13:50:17.963Z</time></trkpt><trkpt lat="16.3040955" lon="-61.307972"><ele>39.333333333333336</ele><time>2026-03-22T13:50:18.987Z</time></trkpt><trkpt lat="16.3041774" lon="-61.3079447"><ele>39.66666666666667</ele><time>2026-03-22T13:50:19.995Z</time></trkpt><trkpt lat="16.3042637" lon="-61.3079162"><ele>40.0</ele><time>2026-03-22T13:50:21.001Z</time></trkpt><trkpt lat="16.3043564" lon="-61.3078927"><ele>40.0</ele><time>2026-03-22T13:50:21.963Z</time></trkpt><trkpt lat="16.3044445" lon="-61.3078658"><ele>40.0</ele><time>2026-03-22T13:50:22.997Z</time></trkpt><trkpt lat="16.3045276" lon="-61.3078428"><ele>40.0</ele><time>2026-03-22T13:50:23.996Z</time></trkpt><trkpt lat="16.3046156" lon="-61.3078192"><ele>40.0</ele><time>2026-03-22T13:50:24.98Z</time></trkpt><trkpt lat="16.3047022" lon="-61.3077915"><ele>40.0</ele><time>2026-03-22T13:50:25.988Z</time></trkpt><trkpt lat="16.3047873" lon="-61.3077651"><ele>40.0</ele><time>2026-03-22T13:50:26.986Z</time></trkpt><trkpt lat="16.304872" lon="-61.3077452"><ele>39.833333333333336</ele><time>2026-03-22T13:50:27.975Z</time></trkpt><trkpt lat="16.3049634" lon="-61.307725"><ele>39.66666666666667</ele><time>2026-03-22T13:50:28.989Z</time></trkpt><trkpt lat="16.305055" lon="-61.3077063"><ele>39.5</ele><time>2026-03-22T13:50:30.004Z</time></trkpt><trkpt lat="16.3051406" lon="-61.3076797"><ele>39.333333333333336</ele><time>2026-03-22T13:50:31Z</time></trkpt><trkpt lat="16.3052247" lon="-61.3076509"><ele>39.166666666666664</ele><time>2026-03-22T13:50:31.994Z</time></trkpt><trkpt lat="16.3053066" lon="-61.3076293"><ele>39.0</ele><time>2026-03-22T13:50:32.996Z</time></trkpt><trkpt lat="16.3053895" lon="-61.3076058"><ele>39.0</ele><time>2026-03-22T13:50:34.003Z</time></trkpt><trkpt lat="16.3054773" lon="-61.3075837"><ele>39.0</ele><time>2026-03-22T13:50:35.003Z</time></trkpt><trkpt lat="16.3055611" lon="-61.3075693"><ele>39.0</ele><time>2026-03-22T13:50:35.984Z</time></trkpt><trkpt lat="16.3056389" lon="-61.3075608"><ele>39.0</ele><time>2026-03-22T13:50:37.004Z</time></trkpt><trkpt lat="16.3057041" lon="-61.3075466"><ele>39.0</ele><time>2026-03-22T13:50:37.981Z</time></trkpt><trkpt lat="16.3057644" lon="-61.3075089"><ele>39.0</ele><time>2026-03-22T13:50:40.992Z</time></trkpt><trkpt lat="16.3057567" lon="-61.307433"><ele>38.666666666666664</ele><time>2026-03-22T13:50:52.953Z</time></trkpt><trkpt lat="16.3057319" lon="-61.3073589"><ele>38.333333333333336</ele><time>2026-03-22T13:51:21.979Z</time></trkpt><trkpt lat="16.305695" lon="-61.3072869"><ele>38.0</ele><time>2026-03-22T13:51:23.978Z</time></trkpt><trkpt lat="16.3056822" lon="-61.3072064"><ele>37.66666666666667</ele><time>2026-03-22T13:51:25.978Z</time></trkpt><trkpt lat="16.3056549" lon="-61.3071155"><ele>37.333333333333336</ele><time>2026-03-22T13:51:27.971Z</time></trkpt><trkpt lat="16.3056173" lon="-61.3069982"><ele>37.0</ele><time>2026-03-22T13:51:29.992Z</time></trkpt><trkpt lat="16.3055976" lon="-61.3069357"><ele>37.0</ele><time>2026-03-22T13:51:31.001Z</time></trkpt><trkpt lat="16.3055747" lon="-61.3068273"><ele>37.0</ele><time>2026-03-22T13:51:32.998Z</time></trkpt><trkpt lat="16.3055455" lon="-61.3067241"><ele>37.0</ele><time>2026-03-22T13:51:34.989Z</time></trkpt><trkpt lat="16.3055224" lon="-61.3066296"><ele>37.0</ele><time>2026-03-22T13:51:36.994Z</time></trkpt><trkpt lat="16.3054876" lon="-61.3065166"><ele>37.0</ele><time>2026-03-22T13:51:38.991Z</time></trkpt><trkpt lat="16.3054556" lon="-61.3064065"><ele>37.0</ele><time>2026-03-22T13:51:40.997Z</time></trkpt><trkpt lat="16.3054522" lon="-61.3063306"><ele>37.0</ele><time>2026-03-22T13:51:43.992Z</time></trkpt><trkpt lat="16.305524" lon="-61.3062831"><ele>37.0</ele><time>2026-03-22T13:51:50.989Z</time></trkpt><trkpt lat="16.3056267" lon="-61.3062639"><ele>37.0</ele><time>2026-03-22T13:51:52.99Z</time></trkpt><trkpt lat="16.3057388" lon="-61.3062229"><ele>37.0</ele><time>2026-03-22T13:51:54.991Z</time></trkpt><trkpt lat="16.3058583" lon="-61.3061722"><ele>37.333333333333336</ele><time>2026-03-22T13:51:56.978Z</time></trkpt><trkpt lat="16.305976" lon="-61.306123"><ele>37.66666666666667</ele><time>2026-03-22T13:51:59.001Z</time></trkpt><trkpt lat="16.3060541" lon="-61.306094"><ele>38.0</ele><time>2026-03-22T13:51:59.987Z</time></trkpt><trkpt lat="16.3061278" lon="-61.3060612"><ele>38.333333333333336</ele><time>2026-03-22T13:52:00.987Z</time></trkpt><trkpt lat="16.3061929" lon="-61.3060384"><ele>38.666666666666664</ele><time>2026-03-22T13:52:01.999Z</time></trkpt><trkpt lat="16.3062546" lon="-61.3060248"><ele>39.0</ele><time>2026-03-22T13:52:04Z</time></trkpt><trkpt lat="16.3062779" lon="-61.3059153"><ele>39.0</ele><time>2026-03-22T13:52:12.987Z</time></trkpt><trkpt lat="16.3062431" lon="-61.3058096"><ele>39.0</ele><time>2026-03-22T13:52:13.98Z</time></trkpt><trkpt lat="16.3061977" lon="-61.3056638"><ele>39.0</ele><time>2026-03-22T13:52:15.021Z</time></trkpt><trkpt lat="16.3061497" lon="-61.3055"><ele>39.0</ele><time>2026-03-22T13:52:16.037Z</time></trkpt><trkpt lat="16.3061007" lon="-61.3053356"><ele>39.666666666666664</ele><time>2026-03-22T13:52:16.963Z</time></trkpt><trkpt lat="16.3060507" lon="-61.3051753"><ele>40.33333333333333</ele><time>2026-03-22T13:52:17.997Z</time></trkpt><trkpt lat="16.3060012" lon="-61.3050064"><ele>41.0</ele><time>2026-03-22T13:52:18.985Z</time></trkpt><trkpt lat="16.3059523" lon="-61.3048377"><ele>41.0</ele><time>2026-03-22T13:52:20Z</time></trkpt><trkpt lat="16.3059016" lon="-61.3046741"><ele>41.0</ele><time>2026-03-22T13:52:20.994Z</time></trkpt><trkpt lat="16.3058584" lon="-61.3045174"><ele>41.0</ele><time>2026-03-22T13:52:21.994Z</time></trkpt><trkpt lat="16.3058115" lon="-61.3043641"><ele>41.0</ele><time>2026-03-22T13:52:23.042Z</time></trkpt><trkpt lat="16.3057621" lon="-61.3042145"><ele>41.0</ele><time>2026-03-22T13:52:23.99Z</time></trkpt><trkpt lat="16.3057169" lon="-61.3040618"><ele>41.0</ele><time>2026-03-22T13:52:24.997Z</time></trkpt><trkpt lat="16.305675" lon="-61.3039113"><ele>41.0</ele><time>2026-03-22T13:52:25.979Z</time></trkpt><trkpt lat="16.3056304" lon="-61.303762"><ele>41.0</ele><time>2026-03-22T13:52:26.999Z</time></trkpt><trkpt lat="16.3055832" lon="-61.3036254"><ele>41.0</ele><time>2026-03-22T13:52:27.994Z</time></trkpt><trkpt lat="16.3055433" lon="-61.3034935"><ele>41.0</ele><time>2026-03-22T13:52:28.99Z</time></trkpt><trkpt lat="16.305501" lon="-61.3033594"><ele>41.0</ele><time>2026-03-22T13:52:29.972Z</time></trkpt><trkpt lat="16.3054619" lon="-61.3032276"><ele>41.0</ele><time>2026-03-22T13:52:31.037Z</time></trkpt><trkpt lat="16.3054211" lon="-61.303097"><ele>41.0</ele><time>2026-03-22T13:52:31.995Z</time></trkpt><trkpt lat="16.3053819" lon="-61.3029572"><ele>41.0</ele><time>2026-03-22T13:52:33.044Z</time></trkpt><trkpt lat="16.30534" lon="-61.3028207"><ele>41.0</ele><time>2026-03-22T13:52:33.987Z</time></trkpt><trkpt lat="16.3052999" lon="-61.3026812"><ele>41.0</ele><time>2026-03-22T13:52:34.99Z</time></trkpt><trkpt lat="16.3052637" lon="-61.3025443"><ele>41.0</ele><time>2026-03-22T13:52:35.991Z</time></trkpt><trkpt lat="16.3052263" lon="-61.3024172"><ele>41.0</ele><time>2026-03-22T13:52:36.987Z</time></trkpt><trkpt lat="16.3051863" lon="-61.3022978"><ele>41.4</ele><time>2026-03-22T13:52:37.996Z</time></trkpt><trkpt lat="16.3051574" lon="-61.302189"><ele>41.8</ele><time>2026-03-22T13:52:38.985Z</time></trkpt><trkpt lat="16.3051322" lon="-61.3020854"><ele>42.199999999999996</ele><time>2026-03-22T13:52:40.058Z</time></trkpt><trkpt lat="16.3051147" lon="-61.3019841"><ele>42.599999999999994</ele><time>2026-03-22T13:52:40.985Z</time></trkpt><trkpt lat="16.3051007" lon="-61.3018913"><ele>43.0</ele><time>2026-03-22T13:52:42.016Z</time></trkpt><trkpt lat="16.3051025" lon="-61.3018128"><ele>43.0</ele><time>2026-03-22T13:52:42.984Z</time></trkpt><trkpt lat="16.3051945" lon="-61.3017425"><ele>43.0</ele><time>2026-03-22T13:52:44.98Z</time></trkpt><trkpt lat="16.3052614" lon="-61.3017153"><ele>43.0</ele><time>2026-03-22T13:52:45.995Z</time></trkpt><trkpt lat="16.3053549" lon="-61.3017039"><ele>43.0</ele><time>2026-03-22T13:52:46.993Z</time></trkpt><trkpt lat="16.3054672" lon="-61.3016821"><ele>43.0</ele><time>2026-03-22T13:52:47.978Z</time></trkpt><trkpt lat="16.3055918" lon="-61.3016542"><ele>42.5</ele><time>2026-03-22T13:52:48.983Z</time></trkpt><trkpt lat="16.3057254" lon="-61.3016197"><ele>42.0</ele><time>2026-03-22T13:52:49.986Z</time></trkpt><trkpt lat="16.3058707" lon="-61.3015904"><ele>41.5</ele><time>2026-03-22T13:52:51.067Z</time></trkpt><trkpt lat="16.3060163" lon="-61.3015539"><ele>41.0</ele><time>2026-03-22T13:52:52.043Z</time></trkpt><trkpt lat="16.3061645" lon="-61.301518"><ele>41.0</ele><time>2026-03-22T13:52:53.051Z</time></trkpt><trkpt lat="16.3063019" lon="-61.3014771"><ele>41.0</ele><time>2026-03-22T13:52:53.985Z</time></trkpt><trkpt lat="16.3064335" lon="-61.301429"><ele>41.0</ele><time>2026-03-22T13:52:54.993Z</time></trkpt><trkpt lat="16.3065549" lon="-61.3013657"><ele>41.0</ele><time>2026-03-22T13:52:55.98Z</time></trkpt><trkpt lat="16.3066667" lon="-61.3012905"><ele>40.5</ele><time>2026-03-22T13:52:57.059Z</time></trkpt><trkpt lat="16.3067643" lon="-61.3011982"><ele>40.0</ele><time>2026-03-22T13:52:58.058Z</time></trkpt><trkpt lat="16.306849" lon="-61.3010991"><ele>39.5</ele><time>2026-03-22T13:52:58.99Z</time></trkpt><trkpt lat="16.306942" lon="-61.3010099"><ele>39.0</ele><time>2026-03-22T13:52:59.986Z</time></trkpt><trkpt lat="16.3070333" lon="-61.3009362"><ele>39.0</ele><time>2026-03-22T13:53:00.994Z</time></trkpt><trkpt lat="16.3071318" lon="-61.300868"><ele>39.0</ele><time>2026-03-22T13:53:01.986Z</time></trkpt><trkpt lat="16.307237" lon="-61.300796"><ele>39.0</ele><time>2026-03-22T13:53:03.051Z</time></trkpt><trkpt lat="16.3073426" lon="-61.3007266"><ele>39.0</ele><time>2026-03-22T13:53:03.989Z</time></trkpt><trkpt lat="16.3074447" lon="-61.3006529"><ele>39.5</ele><time>2026-03-22T13:53:04.992Z</time></trkpt><trkpt lat="16.307547" lon="-61.3005748"><ele>40.0</ele><time>2026-03-22T13:53:05.987Z</time></trkpt><trkpt lat="16.3076462" lon="-61.3004961"><ele>40.5</ele><time>2026-03-22T13:53:07.064Z</time></trkpt><trkpt lat="16.3077526" lon="-61.3004112"><ele>41.0</ele><time>2026-03-22T13:53:07.973Z</time></trkpt><trkpt lat="16.3078515" lon="-61.3003359"><ele>41.0</ele><time>2026-03-22T13:53:08.992Z</time></trkpt><trkpt lat="16.3079464" lon="-61.3002668"><ele>41.0</ele><time>2026-03-22T13:53:09.994Z</time></trkpt><trkpt lat="16.308042" lon="-61.3002039"><ele>41.0</ele><time>2026-03-22T13:53:10.99Z</time></trkpt><trkpt lat="16.3081414" lon="-61.3001501"><ele>41.0</ele><time>2026-03-22T13:53:11.976Z</time></trkpt><trkpt lat="16.3082529" lon="-61.3000993"><ele>40.75</ele><time>2026-03-22T13:53:12.987Z</time></trkpt><trkpt lat="16.3083718" lon="-61.3000513"><ele>40.5</ele><time>2026-03-22T13:53:13.988Z</time></trkpt><trkpt lat="16.30849" lon="-61.3000076"><ele>40.25</ele><time>2026-03-22T13:53:14.991Z</time></trkpt><trkpt lat="16.3086085" lon="-61.2999719"><ele>40.0</ele><time>2026-03-22T13:53:15.989Z</time></trkpt><trkpt lat="16.3087246" lon="-61.2999366"><ele>40.0</ele><time>2026-03-22T13:53:16.993Z</time></trkpt><trkpt lat="16.308838" lon="-61.2998983"><ele>40.0</ele><time>2026-03-22T13:53:17.994Z</time></trkpt><trkpt lat="16.3089521" lon="-61.2998668"><ele>40.0</ele><time>2026-03-22T13:53:18.987Z</time></trkpt><trkpt lat="16.3090639" lon="-61.299832"><ele>40.0</ele><time>2026-03-22T13:53:19.989Z</time></trkpt><trkpt lat="16.3091738" lon="-61.2998001"><ele>39.0</ele><time>2026-03-22T13:53:21.081Z</time></trkpt><trkpt lat="16.3092767" lon="-61.2997672"><ele>38.0</ele><time>2026-03-22T13:53:21.982Z</time></trkpt><trkpt lat="16.3093886" lon="-61.2997293"><ele>37.0</ele><time>2026-03-22T13:53:23.048Z</time></trkpt><trkpt lat="16.3095149" lon="-61.2996885"><ele>36.0</ele><time>2026-03-22T13:53:23.995Z</time></trkpt><trkpt lat="16.309643" lon="-61.2996559"><ele>36.0</ele><time>2026-03-22T13:53:24.999Z</time></trkpt><trkpt lat="16.3097754" lon="-61.2996149"><ele>36.0</ele><time>2026-03-22T13:53:25.985Z</time></trkpt><trkpt lat="16.3098985" lon="-61.2995777"><ele>36.0</ele><time>2026-03-22T13:53:26.998Z</time></trkpt><trkpt lat="16.3100188" lon="-61.2995397"><ele>36.0</ele><time>2026-03-22T13:53:27.982Z</time></trkpt><trkpt lat="16.3101347" lon="-61.2995092"><ele>36.0</ele><time>2026-03-22T13:53:28.99Z</time></trkpt><trkpt lat="16.3102323" lon="-61.2994782"><ele>36.0</ele><time>2026-03-22T13:53:30.064Z</time></trkpt><trkpt lat="16.3103207" lon="-61.2994441"><ele>36.0</ele><time>2026-03-22T13:53:30.993Z</time></trkpt><trkpt lat="16.310403" lon="-61.299413"><ele>36.0</ele><time>2026-03-22T13:53:32.041Z</time></trkpt><trkpt lat="16.3104908" lon="-61.2993861"><ele>36.0</ele><time>2026-03-22T13:53:33.043Z</time></trkpt><trkpt lat="16.3105873" lon="-61.2993499"><ele>36.25</ele><time>2026-03-22T13:53:33.999Z</time></trkpt><trkpt lat="16.3106881" lon="-61.2993093"><ele>36.5</ele><time>2026-03-22T13:53:34.992Z</time></trkpt><trkpt lat="16.3107941" lon="-61.2992612"><ele>36.75</ele><time>2026-03-22T13:53:35.994Z</time></trkpt><trkpt lat="16.3109071" lon="-61.2992188"><ele>37.0</ele><time>2026-03-22T13:53:37.044Z</time></trkpt><trkpt lat="16.3110256" lon="-61.2991714"><ele>37.0</ele><time>2026-03-22T13:53:38.048Z</time></trkpt><trkpt lat="16.3111434" lon="-61.2991201"><ele>37.0</ele><time>2026-03-22T13:53:38.995Z</time></trkpt><trkpt lat="16.3112645" lon="-61.299069"><ele>37.0</ele><time>2026-03-22T13:53:40.002Z</time></trkpt><trkpt lat="16.3113911" lon="-61.2990211"><ele>37.0</ele><time>2026-03-22T13:53:40.955Z</time></trkpt><trkpt lat="16.3115186" lon="-61.2989684"><ele>36.5</ele><time>2026-03-22T13:53:41.988Z</time></trkpt><trkpt lat="16.3116451" lon="-61.2989148"><ele>36.0</ele><time>2026-03-22T13:53:43.03Z</time></trkpt><trkpt lat="16.3117767" lon="-61.2988648"><ele>35.5</ele><time>2026-03-22T13:53:43.968Z</time></trkpt><trkpt lat="16.3119086" lon="-61.2988195"><ele>35.0</ele><time>2026-03-22T13:53:44.993Z</time></trkpt><trkpt lat="16.3120372" lon="-61.2987735"><ele>35.0</ele><time>2026-03-22T13:53:45.976Z</time></trkpt><trkpt lat="16.3121711" lon="-61.2987305"><ele>35.0</ele><time>2026-03-22T13:53:46.993Z</time></trkpt><trkpt lat="16.3123042" lon="-61.2986902"><ele>35.0</ele><time>2026-03-22T13:53:47.993Z</time></trkpt><trkpt lat="16.3124386" lon="-61.2986499"><ele>35.0</ele><time>2026-03-22T13:53:48.992Z</time></trkpt><trkpt lat="16.3125756" lon="-61.298616"><ele>34.75</ele><time>2026-03-22T13:53:50.002Z</time></trkpt><trkpt lat="16.312716" lon="-61.2985764"><ele>34.5</ele><time>2026-03-22T13:53:51.063Z</time></trkpt><trkpt lat="16.3128532" lon="-61.2985356"><ele>34.25</ele><time>2026-03-22T13:53:51.983Z</time></trkpt><trkpt lat="16.3129912" lon="-61.2984922"><ele>34.0</ele><time>2026-03-22T13:53:53.051Z</time></trkpt><trkpt lat="16.3131327" lon="-61.2984513"><ele>33.75</ele><time>2026-03-22T13:53:53.97Z</time></trkpt><trkpt lat="16.3132769" lon="-61.2984145"><ele>33.5</ele><time>2026-03-22T13:53:55.048Z</time></trkpt><trkpt lat="16.3134221" lon="-61.2983774"><ele>33.25</ele><time>2026-03-22T13:53:55.991Z</time></trkpt><trkpt lat="16.3135626" lon="-61.2983429"><ele>33.0</ele><time>2026-03-22T13:53:56.978Z</time></trkpt><trkpt lat="16.3137046" lon="-61.2983068"><ele>33.0</ele><time>2026-03-22T13:53:57.967Z</time></trkpt><trkpt lat="16.3138511" lon="-61.2982744"><ele>33.0</ele><time>2026-03-22T13:53:58.96Z</time></trkpt><trkpt lat="16.3139997" lon="-61.2982408"><ele>33.0</ele><time>2026-03-22T13:53:59.989Z</time></trkpt><trkpt lat="16.3141438" lon="-61.2982072"><ele>33.0</ele><time>2026-03-22T13:54:00.972Z</time></trkpt><trkpt lat="16.3142822" lon="-61.2981806"><ele>33.333333333333336</ele><time>2026-03-22T13:54:01.975Z</time></trkpt><trkpt lat="16.3144287" lon="-61.2981492"><ele>33.66666666666667</ele><time>2026-03-22T13:54:02.981Z</time></trkpt><trkpt lat="16.3145792" lon="-61.298121"><ele>34.0</ele><time>2026-03-22T13:54:03.964Z</time></trkpt><trkpt lat="16.3147322" lon="-61.2980944"><ele>33.333333333333336</ele><time>2026-03-22T13:54:04.964Z</time></trkpt><trkpt lat="16.3148847" lon="-61.2980615"><ele>32.666666666666664</ele><time>2026-03-22T13:54:05.983Z</time></trkpt><trkpt lat="16.3150387" lon="-61.2980257"><ele>32.0</ele><time>2026-03-22T13:54:06.981Z</time></trkpt><trkpt lat="16.3151819" lon="-61.2979931"><ele>32.0</ele><time>2026-03-22T13:54:07.98Z</time></trkpt><trkpt lat="16.3153263" lon="-61.2979579"><ele>32.0</ele><time>2026-03-22T13:54:08.987Z</time></trkpt><trkpt lat="16.3154726" lon="-61.2979281"><ele>32.0</ele><time>2026-03-22T13:54:09.978Z</time></trkpt><trkpt lat="16.3156121" lon="-61.297896"><ele>32.0</ele><time>2026-03-22T13:54:11.039Z</time></trkpt><trkpt lat="16.3157569" lon="-61.2978719"><ele>31.5</ele><time>2026-03-22T13:54:12.04Z</time></trkpt><trkpt lat="16.3159025" lon="-61.2978554"><ele>31.0</ele><time>2026-03-22T13:54:13.04Z</time></trkpt><trkpt lat="16.3160514" lon="-61.2978307"><ele>30.5</ele><time>2026-03-22T13:54:13.973Z</time></trkpt><trkpt lat="16.3161941" lon="-61.2978066"><ele>30.0</ele><time>2026-03-22T13:54:14.973Z</time></trkpt><trkpt lat="16.3163389" lon="-61.2977891"><ele>29.25</ele><time>2026-03-22T13:54:16.061Z</time></trkpt><trkpt lat="16.3164783" lon="-61.2977645"><ele>28.5</ele><time>2026-03-22T13:54:16.992Z</time></trkpt><trkpt lat="16.3166151" lon="-61.2977341"><ele>27.75</ele><time>2026-03-22T13:54:18.042Z</time></trkpt><trkpt lat="16.3167494" lon="-61.2977098"><ele>27.0</ele><time>2026-03-22T13:54:18.992Z</time></trkpt><trkpt lat="16.316885" lon="-61.2976844"><ele>27.0</ele><time>2026-03-22T13:54:19.994Z</time></trkpt><trkpt lat="16.317023" lon="-61.2976573"><ele>27.0</ele><time>2026-03-22T13:54:20.96Z</time></trkpt><trkpt lat="16.3171571" lon="-61.2976304"><ele>27.0</ele><time>2026-03-22T13:54:22.047Z</time></trkpt><trkpt lat="16.3172938" lon="-61.2976056"><ele>27.0</ele><time>2026-03-22T13:54:23.041Z</time></trkpt><trkpt lat="16.3174312" lon="-61.2975815"><ele>27.25</ele><time>2026-03-22T13:54:23.974Z</time></trkpt><trkpt lat="16.3175679" lon="-61.2975586"><ele>27.5</ele><time>2026-03-22T13:54:24.98Z</time></trkpt><trkpt lat="16.317706" lon="-61.297533"><ele>27.75</ele><time>2026-03-22T13:54:25.994Z</time></trkpt><trkpt lat="16.3178409" lon="-61.2975126"><ele>28.0</ele><time>2026-03-22T13:54:27.035Z</time></trkpt><trkpt lat="16.3179745" lon="-61.29749"><ele>29.75</ele><time>2026-03-22T13:54:28.04Z</time></trkpt><trkpt lat="16.3181053" lon="-61.2974635"><ele>31.5</ele><time>2026-03-22T13:54:28.971Z</time></trkpt><trkpt lat="16.3182381" lon="-61.2974341"><ele>33.25</ele><time>2026-03-22T13:54:29.992Z</time></trkpt><trkpt lat="16.318365" lon="-61.2974037"><ele>35.0</ele><time>2026-03-22T13:54:30.988Z</time></trkpt><trkpt lat="16.3184968" lon="-61.2973772"><ele>35.0</ele><time>2026-03-22T13:54:32.031Z</time></trkpt><trkpt lat="16.3186384" lon="-61.2973527"><ele>35.0</ele><time>2026-03-22T13:54:33.034Z</time></trkpt><trkpt lat="16.3187874" lon="-61.2973321"><ele>35.0</ele><time>2026-03-22T13:54:33.991Z</time></trkpt><trkpt lat="16.3189436" lon="-61.2973112"><ele>35.666666666666664</ele><time>2026-03-22T13:54:34.961Z</time></trkpt><trkpt lat="16.3191018" lon="-61.2972873"><ele>36.333333333333336</ele><time>2026-03-22T13:54:35.999Z</time></trkpt><trkpt lat="16.3192544" lon="-61.2972652"><ele>37.0</ele><time>2026-03-22T13:54:37.037Z</time></trkpt><trkpt lat="16.319411" lon="-61.2972452"><ele>37.0</ele><time>2026-03-22T13:54:37.986Z</time></trkpt><trkpt lat="16.3195607" lon="-61.2972176"><ele>37.0</ele><time>2026-03-22T13:54:38.995Z</time></trkpt><trkpt lat="16.3196995" lon="-61.2971928"><ele>37.0</ele><time>2026-03-22T13:54:39.984Z</time></trkpt><trkpt lat="16.3198295" lon="-61.2971658"><ele>37.0</ele><time>2026-03-22T13:54:40.982Z</time></trkpt><trkpt lat="16.319944" lon="-61.297136"><ele>36.66666666666667</ele><time>2026-03-22T13:54:41.962Z</time></trkpt><trkpt lat="16.3200308" lon="-61.2971161"><ele>36.333333333333336</ele><time>2026-03-22T13:54:43.035Z</time></trkpt><trkpt lat="16.3200922" lon="-61.2971"><ele>36.0</ele><time>2026-03-22T13:54:43.974Z</time></trkpt><trkpt lat="16.3201384" lon="-61.2970531"><ele>35.666666666666664</ele><time>2026-03-22T13:54:45.991Z</time></trkpt><trkpt lat="16.320238" lon="-61.2969902"><ele>35.33333333333333</ele><time>2026-03-22T13:54:47.988Z</time></trkpt><trkpt lat="16.3203308" lon="-61.2969654"><ele>35.0</ele><time>2026-03-22T13:54:48.984Z</time></trkpt><trkpt lat="16.3204469" lon="-61.2969392"><ele>34.5</ele><time>2026-03-22T13:54:49.962Z</time></trkpt><trkpt lat="16.3205776" lon="-61.2969132"><ele>34.0</ele><time>2026-03-22T13:54:50.984Z</time></trkpt><trkpt lat="16.3207174" lon="-61.2968835"><ele>33.5</ele><time>2026-03-22T13:54:51.97Z</time></trkpt><trkpt lat="16.320856" lon="-61.2968464"><ele>33.0</ele><time>2026-03-22T13:54:52.987Z</time></trkpt><trkpt lat="16.3210024" lon="-61.2967923"><ele>33.0</ele><time>2026-03-22T13:54:53.957Z</time></trkpt><trkpt lat="16.3211448" lon="-61.2967443"><ele>33.0</ele><time>2026-03-22T13:54:54.971Z</time></trkpt><trkpt lat="16.3212895" lon="-61.2967012"><ele>33.0</ele><time>2026-03-22T13:54:55.993Z</time></trkpt><trkpt lat="16.3214294" lon="-61.2966609"><ele>33.0</ele><time>2026-03-22T13:54:56.99Z</time></trkpt><trkpt lat="16.321568" lon="-61.2966188"><ele>33.4</ele><time>2026-03-22T13:54:58Z</time></trkpt><trkpt lat="16.3216942" lon="-61.2965867"><ele>33.8</ele><time>2026-03-22T13:54:58.997Z</time></trkpt><trkpt lat="16.3218128" lon="-61.2965522"><ele>34.2</ele><time>2026-03-22T13:54:59.998Z</time></trkpt><trkpt lat="16.3219171" lon="-61.2965214"><ele>34.6</ele><time>2026-03-22T13:55:00.999Z</time></trkpt><trkpt lat="16.3219979" lon="-61.2964961"><ele>35.0</ele><time>2026-03-22T13:55:02.001Z</time></trkpt><trkpt lat="16.3220611" lon="-61.2964679"><ele>35.0</ele><time>2026-03-22T13:55:02.998Z</time></trkpt><trkpt lat="16.3221396" lon="-61.2964334"><ele>35.0</ele><time>2026-03-22T13:55:05.004Z</time></trkpt><trkpt lat="16.322108" lon="-61.2963588"><ele>35.0</ele><time>2026-03-22T13:55:36.995Z</time></trkpt><trkpt lat="16.3220812" lon="-61.2962869"><ele>35.0</ele><time>2026-03-22T13:55:41.049Z</time></trkpt><trkpt lat="16.3220635" lon="-61.2962228"><ele>35.0</ele><time>2026-03-22T13:56:37.999Z</time></trkpt><trkpt lat="16.322105" lon="-61.2962987"><ele>35.0</ele><time>2026-03-22T13:57:07.006Z</time></trkpt><trkpt lat="16.3221998" lon="-61.2963297"><ele>35.0</ele><time>2026-03-22T13:57:45.982Z</time></trkpt><trkpt lat="16.3221378" lon="-61.2963701"><ele>35.0</ele><time>2026-03-22T13:57:57.992Z</time></trkpt><trkpt lat="16.322065" lon="-61.2964165"><ele>35.0</ele><time>2026-03-22T13:57:59.982Z</time></trkpt><trkpt lat="16.3219589" lon="-61.2964593"><ele>35.0</ele><time>2026-03-22T13:58:01.991Z</time></trkpt><trkpt lat="16.3218564" lon="-61.2964984"><ele>35.0</ele><time>2026-03-22T13:58:04.023Z</time></trkpt><trkpt lat="16.3217594" lon="-61.2965349"><ele>35.0</ele><time>2026-03-22T13:58:05.986Z</time></trkpt><trkpt lat="16.3216626" lon="-61.2965701"><ele>35.0</ele><time>2026-03-22T13:58:08.005Z</time></trkpt><trkpt lat="16.3215625" lon="-61.2966019"><ele>35.0</ele><time>2026-03-22T13:58:10.004Z</time></trkpt><trkpt lat="16.3214694" lon="-61.2966312"><ele>35.0</ele><time>2026-03-22T13:58:11.999Z</time></trkpt><trkpt lat="16.3213571" lon="-61.2966714"><ele>35.0</ele><time>2026-03-22T13:58:14.001Z</time></trkpt><trkpt lat="16.321291" lon="-61.2966963"><ele>34.666666666666664</ele><time>2026-03-22T13:58:15.005Z</time></trkpt><trkpt lat="16.3212277" lon="-61.2967215"><ele>34.33333333333333</ele><time>2026-03-22T13:58:16.011Z</time></trkpt><trkpt lat="16.3211569" lon="-61.296747"><ele>34.0</ele><time>2026-03-22T13:58:17.015Z</time></trkpt><trkpt lat="16.321073" lon="-61.2967777"><ele>33.666666666666664</ele><time>2026-03-22T13:58:18.009Z</time></trkpt><trkpt lat="16.3209781" lon="-61.2968085"><ele>33.333333333333336</ele><time>2026-03-22T13:58:18.991Z</time></trkpt><trkpt lat="16.3208831" lon="-61.2968366"><ele>33.0</ele><time>2026-03-22T13:58:20.007Z</time></trkpt><trkpt lat="16.3207895" lon="-61.2968609"><ele>33.0</ele><time>2026-03-22T13:58:21.007Z</time></trkpt><trkpt lat="16.3206923" lon="-61.2968861"><ele>33.0</ele><time>2026-03-22T13:58:21.982Z</time></trkpt><trkpt lat="16.3205954" lon="-61.2969092"><ele>33.0</ele><time>2026-03-22T13:58:22.995Z</time></trkpt><trkpt lat="16.3205063" lon="-61.2969357"><ele>33.0</ele><time>2026-03-22T13:58:24.01Z</time></trkpt><trkpt lat="16.3204225" lon="-61.2969566"><ele>33.0</ele><time>2026-03-22T13:58:24.965Z</time></trkpt><trkpt lat="16.3203499" lon="-61.2969767"><ele>33.333333333333336</ele><time>2026-03-22T13:58:25.966Z</time></trkpt><trkpt lat="16.3202883" lon="-61.2969933"><ele>33.666666666666664</ele><time>2026-03-22T13:58:27.004Z</time></trkpt><trkpt lat="16.3202124" lon="-61.2970308"><ele>34.0</ele><time>2026-03-22T13:58:28.98Z</time></trkpt><trkpt lat="16.3201387" lon="-61.2969982"><ele>34.33333333333333</ele><time>2026-03-22T13:58:32.981Z</time></trkpt><trkpt lat="16.3201194" lon="-61.2968607"><ele>34.666666666666664</ele><time>2026-03-22T13:58:35.005Z</time></trkpt><trkpt lat="16.3201106" lon="-61.2967704"><ele>35.0</ele><time>2026-03-22T13:58:36.002Z</time></trkpt><trkpt lat="16.3200891" lon="-61.2966835"><ele>35.0</ele><time>2026-03-22T13:58:37.012Z</time></trkpt><trkpt lat="16.3200628" lon="-61.2965933"><ele>35.0</ele><time>2026-03-22T13:58:38.005Z</time></trkpt><trkpt lat="16.3200398" lon="-61.2964872"><ele>35.0</ele><time>2026-03-22T13:58:39.01Z</time></trkpt><trkpt lat="16.3200121" lon="-61.2963673"><ele>35.0</ele><time>2026-03-22T13:58:40.008Z</time></trkpt><trkpt lat="16.3199743" lon="-61.2962383"><ele>35.0</ele><time>2026-03-22T13:58:41.007Z</time></trkpt><trkpt lat="16.3199338" lon="-61.2961031"><ele>35.0</ele><time>2026-03-22T13:58:42Z</time></trkpt><trkpt lat="16.3198918" lon="-61.2959633"><ele>35.0</ele><time>2026-03-22T13:58:42.998Z</time></trkpt><trkpt lat="16.3198477" lon="-61.2958263"><ele>35.0</ele><time>2026-03-22T13:58:44.01Z</time></trkpt><trkpt lat="16.3198093" lon="-61.2956868"><ele>35.0</ele><time>2026-03-22T13:58:45.007Z</time></trkpt><trkpt lat="16.3197687" lon="-61.2955429"><ele>35.25</ele><time>2026-03-22T13:58:46.007Z</time></trkpt><trkpt lat="16.3197314" lon="-61.2954033"><ele>35.5</ele><time>2026-03-22T13:58:47.01Z</time></trkpt><trkpt lat="16.319696" lon="-61.2952617"><ele>35.75</ele><time>2026-03-22T13:58:48.001Z</time></trkpt><trkpt lat="16.319665" lon="-61.2951205"><ele>36.0</ele><time>2026-03-22T13:58:49.01Z</time></trkpt><trkpt lat="16.3196393" lon="-61.2949836"><ele>36.0</ele><time>2026-03-22T13:58:50.004Z</time></trkpt><trkpt lat="16.3196086" lon="-61.2948448"><ele>36.0</ele><time>2026-03-22T13:58:51.008Z</time></trkpt><trkpt lat="16.3195739" lon="-61.2947041"><ele>36.0</ele><time>2026-03-22T13:58:52.001Z</time></trkpt><trkpt lat="16.319534" lon="-61.2945633"><ele>36.0</ele><time>2026-03-22T13:58:52.987Z</time></trkpt><trkpt lat="16.3194952" lon="-61.2944173"><ele>36.75</ele><time>2026-03-22T13:58:53.98Z</time></trkpt><trkpt lat="16.3194557" lon="-61.2942693"><ele>37.5</ele><time>2026-03-22T13:58:54.979Z</time></trkpt><trkpt lat="16.3194163" lon="-61.2941245"><ele>38.25</ele><time>2026-03-22T13:58:56.007Z</time></trkpt><trkpt lat="16.3193724" lon="-61.2939814"><ele>39.0</ele><time>2026-03-22T13:58:57.014Z</time></trkpt><trkpt lat="16.3193281" lon="-61.2938371"><ele>39.0</ele><time>2026-03-22T13:58:58Z</time></trkpt><trkpt lat="16.3192872" lon="-61.2937019"><ele>39.0</ele><time>2026-03-22T13:58:58.973Z</time></trkpt><trkpt lat="16.3192495" lon="-61.2935693"><ele>39.0</ele><time>2026-03-22T13:59:00.004Z</time></trkpt><trkpt lat="16.3192172" lon="-61.2934403"><ele>39.0</ele><time>2026-03-22T13:59:01.007Z</time></trkpt><trkpt lat="16.3191838" lon="-61.2933153"><ele>39.0</ele><time>2026-03-22T13:59:02.012Z</time></trkpt><trkpt lat="16.3191483" lon="-61.2931825"><ele>39.0</ele><time>2026-03-22T13:59:03.003Z</time></trkpt><trkpt lat="16.3191158" lon="-61.2930473"><ele>39.0</ele><time>2026-03-22T13:59:04.003Z</time></trkpt><trkpt lat="16.3190819" lon="-61.2929082"><ele>39.0</ele><time>2026-03-22T13:59:05.005Z</time></trkpt><trkpt lat="16.3190511" lon="-61.2927695"><ele>39.25</ele><time>2026-03-22T13:59:06.007Z</time></trkpt><trkpt lat="16.3190177" lon="-61.2926303"><ele>39.5</ele><time>2026-03-22T13:59:06.998Z</time></trkpt><trkpt lat="16.3189836" lon="-61.2924908"><ele>39.75</ele><time>2026-03-22T13:59:08.007Z</time></trkpt><trkpt lat="16.3189531" lon="-61.2923488"><ele>40.0</ele><time>2026-03-22T13:59:09.013Z</time></trkpt><trkpt lat="16.3189212" lon="-61.292209"><ele>39.75</ele><time>2026-03-22T13:59:10.007Z</time></trkpt><trkpt lat="16.3188931" lon="-61.2920655"><ele>39.5</ele><time>2026-03-22T13:59:10.971Z</time></trkpt><trkpt lat="16.3188711" lon="-61.2919174"><ele>39.25</ele><time>2026-03-22T13:59:12.003Z</time></trkpt><trkpt lat="16.3188467" lon="-61.2917719"><ele>39.0</ele><time>2026-03-22T13:59:13.009Z</time></trkpt><trkpt lat="16.3188178" lon="-61.2916294"><ele>39.0</ele><time>2026-03-22T13:59:13.998Z</time></trkpt><trkpt lat="16.3187945" lon="-61.2914884"><ele>39.0</ele><time>2026-03-22T13:59:15.011Z</time></trkpt><trkpt lat="16.3187711" lon="-61.2913523"><ele>39.0</ele><time>2026-03-22T13:59:15.989Z</time></trkpt><trkpt lat="16.3187488" lon="-61.2912149"><ele>39.0</ele><time>2026-03-22T13:59:16.998Z</time></trkpt><trkpt lat="16.3187133" lon="-61.2910828"><ele>39.25</ele><time>2026-03-22T13:59:17.995Z</time></trkpt><trkpt lat="16.3186787" lon="-61.2909472"><ele>39.5</ele><time>2026-03-22T13:59:19.016Z</time></trkpt><trkpt lat="16.3186506" lon="-61.2908097"><ele>39.75</ele><time>2026-03-22T13:59:20.002Z</time></trkpt><trkpt lat="16.318623" lon="-61.2906653"><ele>40.0</ele><time>2026-03-22T13:59:21.007Z</time></trkpt><trkpt lat="16.3185916" lon="-61.2905143"><ele>39.5</ele><time>2026-03-22T13:59:22.01Z</time></trkpt><trkpt lat="16.3185636" lon="-61.2903691"><ele>39.0</ele><time>2026-03-22T13:59:23.002Z</time></trkpt><trkpt lat="16.3185342" lon="-61.2902265"><ele>38.5</ele><time>2026-03-22T13:59:24.004Z</time></trkpt><trkpt lat="16.3185076" lon="-61.2900815"><ele>38.0</ele><time>2026-03-22T13:59:25.008Z</time></trkpt><trkpt lat="16.3184816" lon="-61.2899339"><ele>38.0</ele><time>2026-03-22T13:59:25.998Z</time></trkpt><trkpt lat="16.3184542" lon="-61.2897903"><ele>38.0</ele><time>2026-03-22T13:59:27.004Z</time></trkpt><trkpt lat="16.318423" lon="-61.2896468"><ele>38.0</ele><time>2026-03-22T13:59:28.006Z</time></trkpt><trkpt lat="16.3184005" lon="-61.2895044"><ele>38.0</ele><time>2026-03-22T13:59:29.014Z</time></trkpt><trkpt lat="16.3183691" lon="-61.2893573"><ele>38.5</ele><time>2026-03-22T13:59:30.009Z</time></trkpt><trkpt lat="16.3183348" lon="-61.2892084"><ele>39.0</ele><time>2026-03-22T13:59:31.044Z</time></trkpt><trkpt lat="16.3183055" lon="-61.289058"><ele>39.5</ele><time>2026-03-22T13:59:31.98Z</time></trkpt><trkpt lat="16.3182766" lon="-61.2889055"><ele>40.0</ele><time>2026-03-22T13:59:32.987Z</time></trkpt><trkpt lat="16.3182372" lon="-61.2887489"><ele>40.0</ele><time>2026-03-22T13:59:33.962Z</time></trkpt><trkpt lat="16.3182066" lon="-61.2885855"><ele>40.0</ele><time>2026-03-22T13:59:35.063Z</time></trkpt><trkpt lat="16.3181745" lon="-61.2884323"><ele>40.0</ele><time>2026-03-22T13:59:36.04Z</time></trkpt><trkpt lat="16.3181384" lon="-61.2882754"><ele>40.0</ele><time>2026-03-22T13:59:36.99Z</time></trkpt><trkpt lat="16.318099" lon="-61.2881195"><ele>40.0</ele><time>2026-03-22T13:59:37.989Z</time></trkpt><trkpt lat="16.3180605" lon="-61.2879547"><ele>40.0</ele><time>2026-03-22T13:59:38.98Z</time></trkpt><trkpt lat="16.3180271" lon="-61.2877815"><ele>41.0</ele><time>2026-03-22T13:59:40.057Z</time></trkpt><trkpt lat="16.3179906" lon="-61.2876097"><ele>42.0</ele><time>2026-03-22T13:59:41.041Z</time></trkpt><trkpt lat="16.3179598" lon="-61.2874353"><ele>43.0</ele><time>2026-03-22T13:59:41.994Z</time></trkpt><trkpt lat="16.3179303" lon="-61.2872592"><ele>43.66666666666667</ele><time>2026-03-22T13:59:42.968Z</time></trkpt><trkpt lat="16.3178978" lon="-61.2870791"><ele>44.333333333333336</ele><time>2026-03-22T13:59:44.001Z</time></trkpt><trkpt lat="16.3178611" lon="-61.2868993"><ele>45.0</ele><time>2026-03-22T13:59:44.965Z</time></trkpt><trkpt lat="16.3178217" lon="-61.2867227"><ele>45.0</ele><time>2026-03-22T13:59:46.005Z</time></trkpt><trkpt lat="16.3177857" lon="-61.2865549"><ele>45.0</ele><time>2026-03-22T13:59:47Z</time></trkpt><trkpt lat="16.3177518" lon="-61.286394"><ele>45.0</ele><time>2026-03-22T13:59:47.999Z</time></trkpt><trkpt lat="16.3177204" lon="-61.2862384"><ele>45.25</ele><time>2026-03-22T13:59:48.994Z</time></trkpt><trkpt lat="16.3176969" lon="-61.2860869"><ele>45.5</ele><time>2026-03-22T13:59:49.975Z</time></trkpt><trkpt lat="16.3176674" lon="-61.2859348"><ele>45.75</ele><time>2026-03-22T13:59:51.001Z</time></trkpt><trkpt lat="16.3176421" lon="-61.2857822"><ele>46.0</ele><time>2026-03-22T13:59:52.007Z</time></trkpt><trkpt lat="16.3176163" lon="-61.2856263"><ele>46.0</ele><time>2026-03-22T13:59:53.054Z</time></trkpt><trkpt lat="16.3175924" lon="-61.2854771"><ele>46.0</ele><time>2026-03-22T13:59:54.107Z</time></trkpt><trkpt lat="16.3175498" lon="-61.2852152"><ele>46.0</ele><time>2026-03-22T13:59:56.004Z</time></trkpt><trkpt lat="16.3175162" lon="-61.2851166"><ele>46.0</ele><time>2026-03-22T13:59:57.013Z</time></trkpt><trkpt lat="16.3174542" lon="-61.2850361"><ele>46.0</ele><time>2026-03-22T13:59:57.991Z</time></trkpt><trkpt lat="16.3173796" lon="-61.2849678"><ele>46.0</ele><time>2026-03-22T13:59:58.989Z</time></trkpt><trkpt lat="16.3172838" lon="-61.2848978"><ele>46.0</ele><time>2026-03-22T13:59:59.998Z</time></trkpt><trkpt lat="16.317181" lon="-61.2848191"><ele>46.0</ele><time>2026-03-22T14:00:00.999Z</time></trkpt><trkpt lat="16.3170753" lon="-61.2847397"><ele>45.75</ele><time>2026-03-22T14:00:01.997Z</time></trkpt><trkpt lat="16.31697" lon="-61.2846626"><ele>45.5</ele><time>2026-03-22T14:00:03.063Z</time></trkpt><trkpt lat="16.3168666" lon="-61.2845874"><ele>45.25</ele><time>2026-03-22T14:00:04.048Z</time></trkpt><trkpt lat="16.3167688" lon="-61.2845259"><ele>45.0</ele><time>2026-03-22T14:00:04.985Z</time></trkpt><trkpt lat="16.3166759" lon="-61.2844752"><ele>45.0</ele><time>2026-03-22T14:00:06.066Z</time></trkpt><trkpt lat="16.3165824" lon="-61.2844374"><ele>45.0</ele><time>2026-03-22T14:00:06.989Z</time></trkpt><trkpt lat="16.3164825" lon="-61.2843889"><ele>45.0</ele><time>2026-03-22T14:00:07.981Z</time></trkpt><trkpt lat="16.3163861" lon="-61.2843205"><ele>45.0</ele><time>2026-03-22T14:00:09.055Z</time></trkpt><trkpt lat="16.3162806" lon="-61.2842393"><ele>45.0</ele><time>2026-03-22T14:00:10.04Z</time></trkpt><trkpt lat="16.3161682" lon="-61.2841509"><ele>45.0</ele><time>2026-03-22T14:00:11.03Z</time></trkpt><trkpt lat="16.3160519" lon="-61.2840736"><ele>45.0</ele><time>2026-03-22T14:00:11.973Z</time></trkpt><trkpt lat="16.315943" lon="-61.2840026"><ele>45.0</ele><time>2026-03-22T14:00:12.99Z</time></trkpt><trkpt lat="16.3158434" lon="-61.2839289"><ele>45.0</ele><time>2026-03-22T14:00:14.037Z</time></trkpt><trkpt lat="16.3157505" lon="-61.2838552"><ele>45.0</ele><time>2026-03-22T14:00:15.042Z</time></trkpt><trkpt lat="16.3156688" lon="-61.2837685"><ele>45.0</ele><time>2026-03-22T14:00:16.06Z</time></trkpt><trkpt lat="16.3156095" lon="-61.2836751"><ele>45.0</ele><time>2026-03-22T14:00:16.973Z</time></trkpt><trkpt lat="16.315568" lon="-61.2835755"><ele>45.0</ele><time>2026-03-22T14:00:17.989Z</time></trkpt><trkpt lat="16.3155467" lon="-61.2834738"><ele>43.4</ele><time>2026-03-22T14:00:18.968Z</time></trkpt><trkpt lat="16.315529" lon="-61.283361"><ele>41.8</ele><time>2026-03-22T14:00:20.045Z</time></trkpt><trkpt lat="16.3155236" lon="-61.2832427"><ele>40.2</ele><time>2026-03-22T14:00:21.043Z</time></trkpt><trkpt lat="16.3155135" lon="-61.2831268"><ele>38.6</ele><time>2026-03-22T14:00:22.015Z</time></trkpt><trkpt lat="16.3155074" lon="-61.2830096"><ele>37.0</ele><time>2026-03-22T14:00:23.058Z</time></trkpt><trkpt lat="16.3154895" lon="-61.2828872"><ele>37.0</ele><time>2026-03-22T14:00:24.041Z</time></trkpt><trkpt lat="16.3154647" lon="-61.2827671"><ele>37.0</ele><time>2026-03-22T14:00:25.039Z</time></trkpt><trkpt lat="16.3154376" lon="-61.2826471"><ele>37.0</ele><time>2026-03-22T14:00:26.058Z</time></trkpt><trkpt lat="16.3154129" lon="-61.2825325"><ele>37.0</ele><time>2026-03-22T14:00:26.991Z</time></trkpt><trkpt lat="16.3153974" lon="-61.2824283"><ele>37.0</ele><time>2026-03-22T14:00:28.044Z</time></trkpt><trkpt lat="16.315377" lon="-61.2823285"><ele>37.0</ele><time>2026-03-22T14:00:28.996Z</time></trkpt><trkpt lat="16.315356" lon="-61.2822288"><ele>37.0</ele><time>2026-03-22T14:00:30.008Z</time></trkpt><trkpt lat="16.3153316" lon="-61.282118"><ele>37.0</ele><time>2026-03-22T14:00:31.004Z</time></trkpt><trkpt lat="16.3153055" lon="-61.2820033"><ele>37.0</ele><time>2026-03-22T14:00:32.011Z</time></trkpt><trkpt lat="16.315283" lon="-61.2818824"><ele>37.2</ele><time>2026-03-22T14:00:32.988Z</time></trkpt><trkpt lat="16.3152621" lon="-61.2817678"><ele>37.400000000000006</ele><time>2026-03-22T14:00:34.002Z</time></trkpt><trkpt lat="16.3152376" lon="-61.2816613"><ele>37.599999999999994</ele><time>2026-03-22T14:00:35.004Z</time></trkpt><trkpt lat="16.3152139" lon="-61.2815594"><ele>37.8</ele><time>2026-03-22T14:00:36.01Z</time></trkpt><trkpt lat="16.3151899" lon="-61.2814612"><ele>38.0</ele><time>2026-03-22T14:00:36.994Z</time></trkpt><trkpt lat="16.315164" lon="-61.281357"><ele>38.199999999999996</ele><time>2026-03-22T14:00:38.004Z</time></trkpt><trkpt lat="16.315143" lon="-61.2812586"><ele>38.4</ele><time>2026-03-22T14:00:38.958Z</time></trkpt><trkpt lat="16.3151293" lon="-61.2811609"><ele>38.599999999999994</ele><time>2026-03-22T14:00:39.991Z</time></trkpt><trkpt lat="16.3150986" lon="-61.2810628"><ele>38.8</ele><time>2026-03-22T14:00:41.005Z</time></trkpt><trkpt lat="16.3150768" lon="-61.2809691"><ele>39.0</ele><time>2026-03-22T14:00:42Z</time></trkpt><trkpt lat="16.315058" lon="-61.2808712"><ele>39.0</ele><time>2026-03-22T14:00:43.059Z</time></trkpt><trkpt lat="16.3150382" lon="-61.2807654"><ele>39.0</ele><time>2026-03-22T14:00:44.062Z</time></trkpt><trkpt lat="16.3150198" lon="-61.2806495"><ele>39.0</ele><time>2026-03-22T14:00:45.045Z</time></trkpt><trkpt lat="16.3149981" lon="-61.2805427"><ele>39.0</ele><time>2026-03-22T14:00:45.985Z</time></trkpt><trkpt lat="16.3149835" lon="-61.2804248"><ele>39.0</ele><time>2026-03-22T14:00:46.994Z</time></trkpt><trkpt lat="16.3149571" lon="-61.2802978"><ele>39.6</ele><time>2026-03-22T14:00:47.992Z</time></trkpt><trkpt lat="16.3149318" lon="-61.2801761"><ele>40.2</ele><time>2026-03-22T14:00:48.983Z</time></trkpt><trkpt lat="16.3149107" lon="-61.2800663"><ele>40.800000000000004</ele><time>2026-03-22T14:00:49.993Z</time></trkpt><trkpt lat="16.3148924" lon="-61.2799566"><ele>41.4</ele><time>2026-03-22T14:00:50.986Z</time></trkpt><trkpt lat="16.31487" lon="-61.2798441"><ele>42.0</ele><time>2026-03-22T14:00:51.987Z</time></trkpt><trkpt lat="16.3148438" lon="-61.2797243"><ele>42.5</ele><time>2026-03-22T14:00:53.001Z</time></trkpt><trkpt lat="16.3148223" lon="-61.2795996"><ele>43.0</ele><time>2026-03-22T14:00:54.015Z</time></trkpt><trkpt lat="16.3148017" lon="-61.2794846"><ele>43.5</ele><time>2026-03-22T14:00:54.978Z</time></trkpt><trkpt lat="16.3147821" lon="-61.2793715"><ele>44.0</ele><time>2026-03-22T14:00:55.989Z</time></trkpt><trkpt lat="16.3147572" lon="-61.2792499"><ele>42.800000000000004</ele><time>2026-03-22T14:00:56.991Z</time></trkpt><trkpt lat="16.3147301" lon="-61.2791277"><ele>41.6</ele><time>2026-03-22T14:00:57.985Z</time></trkpt><trkpt lat="16.3147023" lon="-61.2790179"><ele>40.4</ele><time>2026-03-22T14:00:58.987Z</time></trkpt><trkpt lat="16.3146789" lon="-61.2789129"><ele>39.2</ele><time>2026-03-22T14:00:59.977Z</time></trkpt><trkpt lat="16.3146579" lon="-61.2788196"><ele>38.0</ele><time>2026-03-22T14:01:00.982Z</time></trkpt><trkpt lat="16.3146386" lon="-61.2787531"><ele>38.0</ele><time>2026-03-22T14:01:01.986Z</time></trkpt><trkpt lat="16.3146173" lon="-61.2786666"><ele>38.0</ele><time>2026-03-22T14:01:03.957Z</time></trkpt><trkpt lat="16.3146347" lon="-61.2785924"><ele>38.0</ele><time>2026-03-22T14:01:08.04Z</time></trkpt><trkpt lat="16.3147056" lon="-61.2785523"><ele>38.0</ele><time>2026-03-22T14:01:11.963Z</time></trkpt><trkpt lat="16.3147584" lon="-61.2785109"><ele>38.0</ele><time>2026-03-22T14:01:13.971Z</time></trkpt><trkpt lat="16.3148085" lon="-61.2784594"><ele>38.0</ele><time>2026-03-22T14:01:16.053Z</time></trkpt><trkpt lat="16.3148486" lon="-61.2783968"><ele>38.0</ele><time>2026-03-22T14:01:18.051Z</time></trkpt><trkpt lat="16.3148785" lon="-61.2782879"><ele>39.0</ele><time>2026-03-22T14:01:19.994Z</time></trkpt><trkpt lat="16.314905" lon="-61.2782195"><ele>40.0</ele><time>2026-03-22T14:01:20.994Z</time></trkpt><trkpt lat="16.3149551" lon="-61.2781079"><ele>41.0</ele><time>2026-03-22T14:01:22.994Z</time></trkpt><trkpt lat="16.3149666" lon="-61.2780268"><ele>42.0</ele><time>2026-03-22T14:01:24.993Z</time></trkpt><trkpt lat="16.3149788" lon="-61.2779271"><ele>43.0</ele><time>2026-03-22T14:01:27.996Z</time></trkpt><trkpt lat="16.3149942" lon="-61.2778401"><ele>44.0</ele><time>2026-03-22T14:01:29.983Z</time></trkpt><trkpt lat="16.3150118" lon="-61.2777362"><ele>44.0</ele><time>2026-03-22T14:01:31.977Z</time></trkpt><trkpt lat="16.3150377" lon="-61.2776412"><ele>44.0</ele><time>2026-03-22T14:01:33.995Z</time></trkpt><trkpt lat="16.3150566" lon="-61.2775488"><ele>44.0</ele><time>2026-03-22T14:01:35.992Z</time></trkpt><trkpt lat="16.3150823" lon="-61.2774712"><ele>44.0</ele><time>2026-03-22T14:01:37.98Z</time></trkpt><trkpt lat="16.3150819" lon="-61.277385"><ele>44.0</ele><time>2026-03-22T14:01:40.977Z</time></trkpt><trkpt lat="16.3150581" lon="-61.277305"><ele>44.0</ele><time>2026-03-22T14:01:43.96Z</time></trkpt><trkpt lat="16.3149881" lon="-61.2772531"><ele>44.0</ele><time>2026-03-22T14:01:48.051Z</time></trkpt><trkpt lat="16.3149187" lon="-61.2772546"><ele>44.0</ele><time>2026-03-22T14:01:49.978Z</time></trkpt><trkpt lat="16.3148556" lon="-61.2772742"><ele>44.0</ele><time>2026-03-22T14:01:51.984Z</time></trkpt><trkpt lat="16.314795" lon="-61.2772966"><ele>44.0</ele><time>2026-03-22T14:01:53.985Z</time></trkpt><trkpt lat="16.3147162" lon="-61.2773136"><ele>44.0</ele><time>2026-03-22T14:01:56.969Z</time></trkpt><trkpt lat="16.3146384" lon="-61.2773503"><ele>44.0</ele><time>2026-03-22T14:02:00.988Z</time></trkpt><trkpt lat="16.3145587" lon="-61.2773846"><ele>43.166666666666664</ele><time>2026-03-22T14:02:03.959Z</time></trkpt><trkpt lat="16.3144764" lon="-61.2774327"><ele>42.33333333333333</ele><time>2026-03-22T14:02:07.994Z</time></trkpt><trkpt lat="16.3143939" lon="-61.2774614"><ele>41.5</ele><time>2026-03-22T14:02:10.976Z</time></trkpt><trkpt lat="16.3143325" lon="-61.2774793"><ele>40.666666666666664</ele><time>2026-03-22T14:02:17.985Z</time></trkpt><trkpt lat="16.3142648" lon="-61.277502"><ele>39.833333333333336</ele><time>2026-03-22T14:02:22.974Z</time></trkpt><trkpt lat="16.3141871" lon="-61.2775337"><ele>39.0</ele><time>2026-03-22T14:02:54.993Z</time></trkpt><trkpt lat="16.3141054" lon="-61.2776091"><ele>39.0</ele><time>2026-03-22T14:02:56.982Z</time></trkpt><trkpt lat="16.3140183" lon="-61.2776845"><ele>39.0</ele><time>2026-03-22T14:02:58.995Z</time></trkpt><trkpt lat="16.3139483" lon="-61.2777439"><ele>39.0</ele><time>2026-03-22T14:03:00.977Z</time></trkpt><trkpt lat="16.3138688" lon="-61.2778165"><ele>39.0</ele><time>2026-03-22T14:03:02.976Z</time></trkpt><trkpt lat="16.3137963" lon="-61.277886"><ele>39.0</ele><time>2026-03-22T14:03:04.987Z</time></trkpt><trkpt lat="16.3137241" lon="-61.2779348"><ele>37.333333333333336</ele><time>2026-03-22T14:03:07.005Z</time></trkpt><trkpt lat="16.3136692" lon="-61.2779818"><ele>35.666666666666664</ele><time>2026-03-22T14:03:08.993Z</time></trkpt><trkpt lat="16.3136258" lon="-61.2780502"><ele>34.0</ele><time>2026-03-22T14:03:10.998Z</time></trkpt><trkpt lat="16.3135839" lon="-61.2781474"><ele>32.33333333333333</ele><time>2026-03-22T14:03:12.97Z</time></trkpt><trkpt lat="16.3135368" lon="-61.2782268"><ele>30.666666666666664</ele><time>2026-03-22T14:03:14.991Z</time></trkpt><trkpt lat="16.3134627" lon="-61.2782302"><ele>29.0</ele><time>2026-03-22T14:03:16.983Z</time></trkpt><trkpt lat="16.3133648" lon="-61.2782106"><ele>28.799999999999997</ele><time>2026-03-22T14:03:18.994Z</time></trkpt><trkpt lat="16.3132935" lon="-61.2781897"><ele>28.599999999999998</ele><time>2026-03-22T14:03:20.992Z</time></trkpt><trkpt lat="16.3132075" lon="-61.2781764"><ele>28.4</ele><time>2026-03-22T14:03:22.992Z</time></trkpt><trkpt lat="16.3130989" lon="-61.2781907"><ele>28.2</ele><time>2026-03-22T14:03:25Z</time></trkpt><trkpt lat="16.3129797" lon="-61.2782095"><ele>28.0</ele><time>2026-03-22T14:03:26.977Z</time></trkpt><trkpt lat="16.3128737" lon="-61.2782339"><ele>28.799999999999997</ele><time>2026-03-22T14:03:28.999Z</time></trkpt><trkpt lat="16.3128053" lon="-61.2782866"><ele>29.599999999999998</ele><time>2026-03-22T14:03:30.997Z</time></trkpt><trkpt lat="16.3127304" lon="-61.2783802"><ele>30.400000000000002</ele><time>2026-03-22T14:03:32.996Z</time></trkpt><trkpt lat="16.312674" lon="-61.2784941"><ele>31.200000000000003</ele><time>2026-03-22T14:03:34.986Z</time></trkpt><trkpt lat="16.3126664" lon="-61.2785596"><ele>32.0</ele><time>2026-03-22T14:03:35.993Z</time></trkpt><trkpt lat="16.3126463" lon="-61.2786646"><ele>31.999999999999996</ele><time>2026-03-22T14:03:37.995Z</time></trkpt><trkpt lat="16.3125702" lon="-61.2786863"><ele>32.0</ele><time>2026-03-22T14:03:40.996Z</time></trkpt><trkpt lat="16.3124783" lon="-61.2786365"><ele>32.0</ele><time>2026-03-22T14:03:42.989Z</time></trkpt><trkpt lat="16.3124227" lon="-61.2785962"><ele>32.0</ele><time>2026-03-22T14:03:43.997Z</time></trkpt><trkpt lat="16.3123611" lon="-61.2785422"><ele>31.999999999999996</ele><time>2026-03-22T14:03:45.008Z</time></trkpt><trkpt lat="16.3122907" lon="-61.2784712"><ele>32.0</ele><time>2026-03-22T14:03:45.997Z</time></trkpt><trkpt lat="16.3122197" lon="-61.2784041"><ele>32.83333333333333</ele><time>2026-03-22T14:03:46.996Z</time></trkpt><trkpt lat="16.3121434" lon="-61.2783487"><ele>33.666666666666664</ele><time>2026-03-22T14:03:48.01Z</time></trkpt><trkpt lat="16.3120621" lon="-61.2783246"><ele>34.5</ele><time>2026-03-22T14:03:48.995Z</time></trkpt><trkpt lat="16.311974" lon="-61.2783245"><ele>35.333333333333336</ele><time>2026-03-22T14:03:50Z</time></trkpt><trkpt lat="16.3118923" lon="-61.2783477"><ele>36.16666666666667</ele><time>2026-03-22T14:03:51.003Z</time></trkpt><trkpt lat="16.3118091" lon="-61.278381"><ele>37.0</ele><time>2026-03-22T14:03:51.996Z</time></trkpt><trkpt lat="16.3117201" lon="-61.2784214"><ele>37.0</ele><time>2026-03-22T14:03:52.996Z</time></trkpt><trkpt lat="16.3116347" lon="-61.2784539"><ele>37.0</ele><time>2026-03-22T14:03:53.999Z</time></trkpt><trkpt lat="16.3115467" lon="-61.2784913"><ele>37.0</ele><time>2026-03-22T14:03:54.99Z</time></trkpt><trkpt lat="16.3114564" lon="-61.2785232"><ele>37.0</ele><time>2026-03-22T14:03:55.984Z</time></trkpt><trkpt lat="16.3113658" lon="-61.2785568"><ele>37.0</ele><time>2026-03-22T14:03:56.996Z</time></trkpt><trkpt lat="16.3112698" lon="-61.2785905"><ele>37.8</ele><time>2026-03-22T14:03:57.999Z</time></trkpt><trkpt lat="16.3111785" lon="-61.2786247"><ele>38.6</ele><time>2026-03-22T14:03:58.992Z</time></trkpt><trkpt lat="16.3110857" lon="-61.2786583"><ele>39.4</ele><time>2026-03-22T14:03:59.991Z</time></trkpt><trkpt lat="16.3109922" lon="-61.2786899"><ele>40.199999999999996</ele><time>2026-03-22T14:04:01.007Z</time></trkpt><trkpt lat="16.3108998" lon="-61.2787199"><ele>41.0</ele><time>2026-03-22T14:04:01.996Z</time></trkpt><trkpt lat="16.3108138" lon="-61.2787474"><ele>41.0</ele><time>2026-03-22T14:04:02.99Z</time></trkpt><trkpt lat="16.3107275" lon="-61.2787764"><ele>41.0</ele><time>2026-03-22T14:04:03.994Z</time></trkpt><trkpt lat="16.3106388" lon="-61.2788096"><ele>41.0</ele><time>2026-03-22T14:04:04.991Z</time></trkpt><trkpt lat="16.3105508" lon="-61.2788518"><ele>41.0</ele><time>2026-03-22T14:04:06.001Z</time></trkpt><trkpt lat="16.3104646" lon="-61.2789023"><ele>41.0</ele><time>2026-03-22T14:04:07.004Z</time></trkpt><trkpt lat="16.3103779" lon="-61.2789523"><ele>41.166666666666664</ele><time>2026-03-22T14:04:08Z</time></trkpt><trkpt lat="16.3102952" lon="-61.2789971"><ele>41.33333333333333</ele><time>2026-03-22T14:04:08.989Z</time></trkpt><trkpt lat="16.310222" lon="-61.2790287"><ele>41.5</ele><time>2026-03-22T14:04:09.993Z</time></trkpt><trkpt lat="16.3101614" lon="-61.2790487"><ele>41.666666666666664</ele><time>2026-03-22T14:04:10.989Z</time></trkpt><trkpt lat="16.3100424" lon="-61.2790546"><ele>41.833333333333336</ele><time>2026-03-22T14:04:12.995Z</time></trkpt><trkpt lat="16.3099785" lon="-61.2790427"><ele>42.0</ele><time>2026-03-22T14:04:13.996Z</time></trkpt><trkpt lat="16.3099123" lon="-61.2790238"><ele>42.0</ele><time>2026-03-22T14:04:14.983Z</time></trkpt><trkpt lat="16.3098347" lon="-61.2790009"><ele>42.0</ele><time>2026-03-22T14:04:15.996Z</time></trkpt><trkpt lat="16.3097505" lon="-61.2789766"><ele>42.0</ele><time>2026-03-22T14:04:17.003Z</time></trkpt><trkpt lat="16.3096573" lon="-61.2789519"><ele>42.0</ele><time>2026-03-22T14:04:18.004Z</time></trkpt><trkpt lat="16.3095639" lon="-61.2789262"><ele>42.0</ele><time>2026-03-22T14:04:19.003Z</time></trkpt><trkpt lat="16.3094728" lon="-61.2789003"><ele>42.6</ele><time>2026-03-22T14:04:19.971Z</time></trkpt><trkpt lat="16.3093826" lon="-61.2788671"><ele>43.2</ele><time>2026-03-22T14:04:21Z</time></trkpt><trkpt lat="16.3092908" lon="-61.2788251"><ele>43.8</ele><time>2026-03-22T14:04:21.957Z</time></trkpt><trkpt lat="16.3092023" lon="-61.2787796"><ele>44.4</ele><time>2026-03-22T14:04:22.991Z</time></trkpt><trkpt lat="16.3091174" lon="-61.2787398"><ele>45.0</ele><time>2026-03-22T14:04:24.003Z</time></trkpt><trkpt lat="16.3090363" lon="-61.2787055"><ele>45.0</ele><time>2026-03-22T14:04:24.989Z</time></trkpt><trkpt lat="16.3089588" lon="-61.2786888"><ele>45.0</ele><time>2026-03-22T14:04:25.998Z</time></trkpt><trkpt lat="16.308878" lon="-61.278689"><ele>45.0</ele><time>2026-03-22T14:04:27.006Z</time></trkpt><trkpt lat="16.3087977" lon="-61.2786915"><ele>45.0</ele><time>2026-03-22T14:04:27.986Z</time></trkpt><trkpt lat="16.3087152" lon="-61.2787085"><ele>45.0</ele><time>2026-03-22T14:04:28.993Z</time></trkpt><trkpt lat="16.308632" lon="-61.2787374"><ele>45.0</ele><time>2026-03-22T14:04:30.006Z</time></trkpt><trkpt lat="16.3085472" lon="-61.2787744"><ele>45.0</ele><time>2026-03-22T14:04:31.001Z</time></trkpt><trkpt lat="16.3084527" lon="-61.2788033"><ele>45.0</ele><time>2026-03-22T14:04:31.993Z</time></trkpt><trkpt lat="16.3083469" lon="-61.2788298"><ele>45.0</ele><time>2026-03-22T14:04:32.993Z</time></trkpt><trkpt lat="16.3082383" lon="-61.2788467"><ele>45.0</ele><time>2026-03-22T14:04:33.997Z</time></trkpt><trkpt lat="16.3081254" lon="-61.2788733"><ele>45.0</ele><time>2026-03-22T14:04:34.983Z</time></trkpt><trkpt lat="16.308006" lon="-61.2789014"><ele>45.0</ele><time>2026-03-22T14:04:35.991Z</time></trkpt><trkpt lat="16.3078943" lon="-61.2789269"><ele>45.0</ele><time>2026-03-22T14:04:36.994Z</time></trkpt><trkpt lat="16.3077855" lon="-61.2789475"><ele>45.0</ele><time>2026-03-22T14:04:37.99Z</time></trkpt><trkpt lat="16.3076897" lon="-61.2789599"><ele>45.0</ele><time>2026-03-22T14:04:39.001Z</time></trkpt><trkpt lat="16.3076009" lon="-61.278973"><ele>45.0</ele><time>2026-03-22T14:04:39.998Z</time></trkpt><trkpt lat="16.3075085" lon="-61.278986"><ele>45.2</ele><time>2026-03-22T14:04:40.996Z</time></trkpt><trkpt lat="16.3074146" lon="-61.2790041"><ele>45.4</ele><time>2026-03-22T14:04:42.004Z</time></trkpt><trkpt lat="16.3073192" lon="-61.279018"><ele>45.599999999999994</ele><time>2026-03-22T14:04:42.995Z</time></trkpt><trkpt lat="16.307226" lon="-61.2790383"><ele>45.8</ele><time>2026-03-22T14:04:44.051Z</time></trkpt><trkpt lat="16.3071271" lon="-61.279061"><ele>46.0</ele><time>2026-03-22T14:04:44.98Z</time></trkpt><trkpt lat="16.3070201" lon="-61.2790703"><ele>46.0</ele><time>2026-03-22T14:04:46.055Z</time></trkpt><trkpt lat="16.3069117" lon="-61.2790767"><ele>46.0</ele><time>2026-03-22T14:04:46.989Z</time></trkpt><trkpt lat="16.3068039" lon="-61.2790817"><ele>46.0</ele><time>2026-03-22T14:04:47.967Z</time></trkpt><trkpt lat="16.3066961" lon="-61.2790859"><ele>46.0</ele><time>2026-03-22T14:04:48.973Z</time></trkpt><trkpt lat="16.3065815" lon="-61.2790925"><ele>46.0</ele><time>2026-03-22T14:04:49.988Z</time></trkpt><trkpt lat="16.3064672" lon="-61.279106"><ele>46.25</ele><time>2026-03-22T14:04:50.99Z</time></trkpt><trkpt lat="16.3063498" lon="-61.2791085"><ele>46.5</ele><time>2026-03-22T14:04:51.995Z</time></trkpt><trkpt lat="16.3062318" lon="-61.2791158"><ele>46.75</ele><time>2026-03-22T14:04:52.987Z</time></trkpt><trkpt lat="16.3061139" lon="-61.2791134"><ele>47.0</ele><time>2026-03-22T14:04:54.002Z</time></trkpt><trkpt lat="16.3059971" lon="-61.2791158"><ele>47.0</ele><time>2026-03-22T14:04:54.982Z</time></trkpt><trkpt lat="16.3058831" lon="-61.2791277"><ele>47.0</ele><time>2026-03-22T14:04:55.998Z</time></trkpt><trkpt lat="16.3057604" lon="-61.2791516"><ele>47.0</ele><time>2026-03-22T14:04:56.997Z</time></trkpt><trkpt lat="16.3056415" lon="-61.2791784"><ele>47.0</ele><time>2026-03-22T14:04:57.983Z</time></trkpt><trkpt lat="16.3055293" lon="-61.2792014"><ele>46.6</ele><time>2026-03-22T14:04:58.998Z</time></trkpt><trkpt lat="16.3054224" lon="-61.2792236"><ele>46.2</ele><time>2026-03-22T14:04:59.986Z</time></trkpt><trkpt lat="16.3053096" lon="-61.2792411"><ele>45.8</ele><time>2026-03-22T14:05:00.98Z</time></trkpt><trkpt lat="16.3052056" lon="-61.2792603"><ele>45.4</ele><time>2026-03-22T14:05:01.985Z</time></trkpt><trkpt lat="16.3051061" lon="-61.2792846"><ele>45.0</ele><time>2026-03-22T14:05:02.99Z</time></trkpt><trkpt lat="16.3050013" lon="-61.2793151"><ele>45.0</ele><time>2026-03-22T14:05:03.98Z</time></trkpt><trkpt lat="16.3049057" lon="-61.2793434"><ele>45.0</ele><time>2026-03-22T14:05:05.036Z</time></trkpt><trkpt lat="16.3048034" lon="-61.279374"><ele>45.0</ele><time>2026-03-22T14:05:05.982Z</time></trkpt><trkpt lat="16.3046993" lon="-61.2793996"><ele>45.0</ele><time>2026-03-22T14:05:06.994Z</time></trkpt><trkpt lat="16.3045898" lon="-61.2794339"><ele>45.0</ele><time>2026-03-22T14:05:07.997Z</time></trkpt><trkpt lat="16.304485" lon="-61.2794737"><ele>46.0</ele><time>2026-03-22T14:05:08.973Z</time></trkpt><trkpt lat="16.3043845" lon="-61.2795097"><ele>47.0</ele><time>2026-03-22T14:05:09.954Z</time></trkpt><trkpt lat="16.3042795" lon="-61.2795405"><ele>48.0</ele><time>2026-03-22T14:05:10.983Z</time></trkpt><trkpt lat="16.3041784" lon="-61.2795773"><ele>49.0</ele><time>2026-03-22T14:05:11.986Z</time></trkpt><trkpt lat="16.3040791" lon="-61.2796058"><ele>50.0</ele><time>2026-03-22T14:05:13.065Z</time></trkpt><trkpt lat="16.3039776" lon="-61.2796348"><ele>50.0</ele><time>2026-03-22T14:05:14.041Z</time></trkpt><trkpt lat="16.3038731" lon="-61.2796651"><ele>50.0</ele><time>2026-03-22T14:05:15.036Z</time></trkpt><trkpt lat="16.3037642" lon="-61.2796954"><ele>50.0</ele><time>2026-03-22T14:05:15.998Z</time></trkpt><trkpt lat="16.3036634" lon="-61.279733"><ele>50.0</ele><time>2026-03-22T14:05:17.003Z</time></trkpt><trkpt lat="16.3035753" lon="-61.2797793"><ele>50.0</ele><time>2026-03-22T14:05:17.989Z</time></trkpt><trkpt lat="16.3034919" lon="-61.2798214"><ele>50.0</ele><time>2026-03-22T14:05:18.998Z</time></trkpt><trkpt lat="16.3034084" lon="-61.2798562"><ele>50.0</ele><time>2026-03-22T14:05:19.986Z</time></trkpt><trkpt lat="16.3033301" lon="-61.2798883"><ele>50.0</ele><time>2026-03-22T14:05:20.999Z</time></trkpt><trkpt lat="16.3032448" lon="-61.2799254"><ele>50.0</ele><time>2026-03-22T14:05:21.999Z</time></trkpt><trkpt lat="16.3031653" lon="-61.2799736"><ele>50.0</ele><time>2026-03-22T14:05:23.011Z</time></trkpt><trkpt lat="16.3030761" lon="-61.2800267"><ele>49.8</ele><time>2026-03-22T14:05:24.024Z</time></trkpt><trkpt lat="16.302983" lon="-61.2800834"><ele>49.6</ele><time>2026-03-22T14:05:24.978Z</time></trkpt><trkpt lat="16.3028947" lon="-61.280139"><ele>49.400000000000006</ele><time>2026-03-22T14:05:25.991Z</time></trkpt><trkpt lat="16.3028097" lon="-61.2802002"><ele>49.2</ele><time>2026-03-22T14:05:27.003Z</time></trkpt><trkpt lat="16.3027242" lon="-61.2802555"><ele>49.0</ele><time>2026-03-22T14:05:28.009Z</time></trkpt><trkpt lat="16.3026423" lon="-61.280311"><ele>49.0</ele><time>2026-03-22T14:05:29.006Z</time></trkpt><trkpt lat="16.3025563" lon="-61.2803642"><ele>49.0</ele><time>2026-03-22T14:05:30.008Z</time></trkpt><trkpt lat="16.3024658" lon="-61.2804211"><ele>49.0</ele><time>2026-03-22T14:05:31.007Z</time></trkpt><trkpt lat="16.302381" lon="-61.2804714"><ele>49.0</ele><time>2026-03-22T14:05:32.004Z</time></trkpt><trkpt lat="16.3022964" lon="-61.2805248"><ele>49.0</ele><time>2026-03-22T14:05:33.002Z</time></trkpt><trkpt lat="16.3022169" lon="-61.2805844"><ele>49.166666666666664</ele><time>2026-03-22T14:05:34.005Z</time></trkpt><trkpt lat="16.3021487" lon="-61.2806429"><ele>49.33333333333333</ele><time>2026-03-22T14:05:35.005Z</time></trkpt><trkpt lat="16.302081" lon="-61.2806999"><ele>49.5</ele><time>2026-03-22T14:05:35.984Z</time></trkpt><trkpt lat="16.3020253" lon="-61.2807383"><ele>49.66666666666667</ele><time>2026-03-22T14:05:37.001Z</time></trkpt><trkpt lat="16.3019355" lon="-61.2807532"><ele>49.833333333333336</ele><time>2026-03-22T14:05:39.001Z</time></trkpt><trkpt lat="16.301856" lon="-61.2806838"><ele>50.0</ele><time>2026-03-22T14:05:41.999Z</time></trkpt><trkpt lat="16.3017954" lon="-61.2805701"><ele>50.2</ele><time>2026-03-22T14:05:44.058Z</time></trkpt><trkpt lat="16.3017605" lon="-61.280495"><ele>50.4</ele><time>2026-03-22T14:05:45.037Z</time></trkpt><trkpt lat="16.3017256" lon="-61.2803986"><ele>50.599999999999994</ele><time>2026-03-22T14:05:45.991Z</time></trkpt><trkpt lat="16.3016801" lon="-61.280294"><ele>50.8</ele><time>2026-03-22T14:05:47.003Z</time></trkpt><trkpt lat="16.3016312" lon="-61.2801813"><ele>51.0</ele><time>2026-03-22T14:05:47.982Z</time></trkpt><trkpt lat="16.3015768" lon="-61.2800584"><ele>51.0</ele><time>2026-03-22T14:05:48.99Z</time></trkpt><trkpt lat="16.301534" lon="-61.2799481"><ele>51.0</ele><time>2026-03-22T14:05:49.988Z</time></trkpt><trkpt lat="16.3015008" lon="-61.2798376"><ele>51.0</ele><time>2026-03-22T14:05:50.969Z</time></trkpt><trkpt lat="16.301472" lon="-61.279724"><ele>51.0</ele><time>2026-03-22T14:05:51.996Z</time></trkpt><trkpt lat="16.3014599" lon="-61.2796042"><ele>50.75</ele><time>2026-03-22T14:05:52.999Z</time></trkpt><trkpt lat="16.3014777" lon="-61.279485"><ele>50.5</ele><time>2026-03-22T14:05:54.062Z</time></trkpt><trkpt lat="16.3015128" lon="-61.2793615"><ele>50.25</ele><time>2026-03-22T14:05:54.99Z</time></trkpt><trkpt lat="16.3015402" lon="-61.2792291"><ele>50.0</ele><time>2026-03-22T14:05:55.988Z</time></trkpt><trkpt lat="16.3015642" lon="-61.2791117"><ele>50.0</ele><time>2026-03-22T14:05:56.991Z</time></trkpt><trkpt lat="16.3015891" lon="-61.2789876"><ele>50.0</ele><time>2026-03-22T14:05:57.994Z</time></trkpt><trkpt lat="16.3016202" lon="-61.2788656"><ele>50.0</ele><time>2026-03-22T14:05:59Z</time></trkpt><trkpt lat="16.3016508" lon="-61.2787388"><ele>50.0</ele><time>2026-03-22T14:05:59.986Z</time></trkpt><trkpt lat="16.301678" lon="-61.2786173"><ele>50.0</ele><time>2026-03-22T14:06:00.983Z</time></trkpt><trkpt lat="16.3017037" lon="-61.2784971"><ele>50.0</ele><time>2026-03-22T14:06:01.962Z</time></trkpt><trkpt lat="16.3017308" lon="-61.278374"><ele>50.0</ele><time>2026-03-22T14:06:02.986Z</time></trkpt><trkpt lat="16.3017587" lon="-61.2782507"><ele>50.0</ele><time>2026-03-22T14:06:03.997Z</time></trkpt><trkpt lat="16.3017862" lon="-61.2781337"><ele>50.5</ele><time>2026-03-22T14:06:04.982Z</time></trkpt><trkpt lat="16.3018161" lon="-61.2780156"><ele>51.0</ele><time>2026-03-22T14:06:05.993Z</time></trkpt><trkpt lat="16.3018352" lon="-61.2778974"><ele>51.5</ele><time>2026-03-22T14:06:07.002Z</time></trkpt><trkpt lat="16.3018539" lon="-61.2777799"><ele>52.0</ele><time>2026-03-22T14:06:07.986Z</time></trkpt><trkpt lat="16.3018766" lon="-61.2776674"><ele>52.0</ele><time>2026-03-22T14:06:08.984Z</time></trkpt><trkpt lat="16.3018959" lon="-61.2775547"><ele>52.0</ele><time>2026-03-22T14:06:09.99Z</time></trkpt><trkpt lat="16.3019195" lon="-61.2774414"><ele>52.0</ele><time>2026-03-22T14:06:10.994Z</time></trkpt><trkpt lat="16.3019469" lon="-61.277329"><ele>52.0</ele><time>2026-03-22T14:06:11.997Z</time></trkpt><trkpt lat="16.3019709" lon="-61.2772131"><ele>52.0</ele><time>2026-03-22T14:06:12.995Z</time></trkpt><trkpt lat="16.3019972" lon="-61.2770973"><ele>51.5</ele><time>2026-03-22T14:06:13.964Z</time></trkpt><trkpt lat="16.302019" lon="-61.2769775"><ele>51.0</ele><time>2026-03-22T14:06:14.989Z</time></trkpt><trkpt lat="16.3020404" lon="-61.2768597"><ele>50.5</ele><time>2026-03-22T14:06:16.062Z</time></trkpt><trkpt lat="16.3020673" lon="-61.2767423"><ele>50.0</ele><time>2026-03-22T14:06:16.989Z</time></trkpt><trkpt lat="16.3020889" lon="-61.2766226"><ele>50.0</ele><time>2026-03-22T14:06:17.995Z</time></trkpt><trkpt lat="16.3021126" lon="-61.2765038"><ele>50.0</ele><time>2026-03-22T14:06:18.967Z</time></trkpt><trkpt lat="16.3021424" lon="-61.2763875"><ele>50.0</ele><time>2026-03-22T14:06:20.064Z</time></trkpt><trkpt lat="16.302172" lon="-61.2762692"><ele>50.0</ele><time>2026-03-22T14:06:21.035Z</time></trkpt><trkpt lat="16.3022106" lon="-61.2761482"><ele>50.0</ele><time>2026-03-22T14:06:21.994Z</time></trkpt><trkpt lat="16.3022534" lon="-61.2760348"><ele>50.0</ele><time>2026-03-22T14:06:22.999Z</time></trkpt><trkpt lat="16.3023031" lon="-61.2759336"><ele>50.0</ele><time>2026-03-22T14:06:23.984Z</time></trkpt><trkpt lat="16.3023534" lon="-61.2758321"><ele>50.0</ele><time>2026-03-22T14:06:25.058Z</time></trkpt><trkpt lat="16.3024136" lon="-61.2757259"><ele>50.0</ele><time>2026-03-22T14:06:26.044Z</time></trkpt><trkpt lat="16.3024736" lon="-61.2756283"><ele>50.0</ele><time>2026-03-22T14:06:26.986Z</time></trkpt><trkpt lat="16.3025391" lon="-61.2755315"><ele>50.0</ele><time>2026-03-22T14:06:27.992Z</time></trkpt><trkpt lat="16.3026031" lon="-61.2754384"><ele>50.0</ele><time>2026-03-22T14:06:28.962Z</time></trkpt><trkpt lat="16.3026705" lon="-61.2753428"><ele>50.0</ele><time>2026-03-22T14:06:29.985Z</time></trkpt><trkpt lat="16.302738" lon="-61.275245"><ele>49.0</ele><time>2026-03-22T14:06:30.998Z</time></trkpt><trkpt lat="16.3028095" lon="-61.2751444"><ele>48.0</ele><time>2026-03-22T14:06:31.991Z</time></trkpt><trkpt lat="16.3028753" lon="-61.2750447"><ele>47.0</ele><time>2026-03-22T14:06:33.042Z</time></trkpt><trkpt lat="16.3029399" lon="-61.2749431"><ele>46.0</ele><time>2026-03-22T14:06:34.065Z</time></trkpt><trkpt lat="16.3030027" lon="-61.2748421"><ele>47.25</ele><time>2026-03-22T14:06:35.034Z</time></trkpt><trkpt lat="16.3030716" lon="-61.2747406"><ele>48.5</ele><time>2026-03-22T14:06:35.99Z</time></trkpt><trkpt lat="16.3031429" lon="-61.2746355"><ele>49.75</ele><time>2026-03-22T14:06:36.954Z</time></trkpt><trkpt lat="16.3032128" lon="-61.2745412"><ele>51.0</ele><time>2026-03-22T14:06:37.969Z</time></trkpt><trkpt lat="16.3032828" lon="-61.2744474"><ele>51.0</ele><time>2026-03-22T14:06:38.995Z</time></trkpt><trkpt lat="16.3033506" lon="-61.2743476"><ele>51.0</ele><time>2026-03-22T14:06:39.976Z</time></trkpt><trkpt lat="16.3034145" lon="-61.2742439"><ele>51.0</ele><time>2026-03-22T14:06:41.03Z</time></trkpt><trkpt lat="16.3034737" lon="-61.2741416"><ele>51.0</ele><time>2026-03-22T14:06:41.994Z</time></trkpt><trkpt lat="16.3035309" lon="-61.274037"><ele>49.25</ele><time>2026-03-22T14:06:43.06Z</time></trkpt><trkpt lat="16.3035887" lon="-61.2739352"><ele>47.5</ele><time>2026-03-22T14:06:44.033Z</time></trkpt><trkpt lat="16.3036466" lon="-61.2738265"><ele>45.75</ele><time>2026-03-22T14:06:45.057Z</time></trkpt><trkpt lat="16.3037041" lon="-61.2737206"><ele>44.0</ele><time>2026-03-22T14:06:46.002Z</time></trkpt><trkpt lat="16.303759" lon="-61.2736151"><ele>44.0</ele><time>2026-03-22T14:06:46.991Z</time></trkpt><trkpt lat="16.3038128" lon="-61.2735093"><ele>44.0</ele><time>2026-03-22T14:06:47.985Z</time></trkpt><trkpt lat="16.3038691" lon="-61.2734011"><ele>44.0</ele><time>2026-03-22T14:06:49.066Z</time></trkpt><trkpt lat="16.3039261" lon="-61.2732922"><ele>44.0</ele><time>2026-03-22T14:06:50.039Z</time></trkpt><trkpt lat="16.3039865" lon="-61.2731857"><ele>44.5</ele><time>2026-03-22T14:06:51.068Z</time></trkpt><trkpt lat="16.3040485" lon="-61.2730885"><ele>45.0</ele><time>2026-03-22T14:06:51.987Z</time></trkpt><trkpt lat="16.3041163" lon="-61.272996"><ele>45.5</ele><time>2026-03-22T14:06:52.992Z</time></trkpt><trkpt lat="16.3041998" lon="-61.2729181"><ele>46.0</ele><time>2026-03-22T14:06:53.992Z</time></trkpt><trkpt lat="16.3042938" lon="-61.2728473"><ele>46.0</ele><time>2026-03-22T14:06:54.981Z</time></trkpt><trkpt lat="16.3043968" lon="-61.2727869"><ele>46.0</ele><time>2026-03-22T14:06:55.984Z</time></trkpt><trkpt lat="16.3045011" lon="-61.2727433"><ele>46.0</ele><time>2026-03-22T14:06:56.987Z</time></trkpt><trkpt lat="16.3046201" lon="-61.2727035"><ele>46.0</ele><time>2026-03-22T14:06:57.992Z</time></trkpt><trkpt lat="16.3047465" lon="-61.2726608"><ele>48.0</ele><time>2026-03-22T14:06:59.071Z</time></trkpt><trkpt lat="16.3048794" lon="-61.272613"><ele>50.0</ele><time>2026-03-22T14:07:00.046Z</time></trkpt><trkpt lat="16.305018" lon="-61.2725554"><ele>52.0</ele><time>2026-03-22T14:07:01.041Z</time></trkpt><trkpt lat="16.3051689" lon="-61.2724936"><ele>52.0</ele><time>2026-03-22T14:07:01.983Z</time></trkpt><trkpt lat="16.3053342" lon="-61.2724382"><ele>52.0</ele><time>2026-03-22T14:07:02.988Z</time></trkpt><trkpt lat="16.3054949" lon="-61.272367"><ele>52.0</ele><time>2026-03-22T14:07:04.001Z</time></trkpt><trkpt lat="16.3056348" lon="-61.2722984"><ele>50.33333333333333</ele><time>2026-03-22T14:07:05.052Z</time></trkpt><trkpt lat="16.305775" lon="-61.2722352"><ele>48.666666666666664</ele><time>2026-03-22T14:07:06.044Z</time></trkpt><trkpt lat="16.3059183" lon="-61.2721728"><ele>47.0</ele><time>2026-03-22T14:07:06.99Z</time></trkpt><trkpt lat="16.3060589" lon="-61.2721182"><ele>47.0</ele><time>2026-03-22T14:07:07.993Z</time></trkpt><trkpt lat="16.3061883" lon="-61.2720667"><ele>47.0</ele><time>2026-03-22T14:07:08.971Z</time></trkpt><trkpt lat="16.3063042" lon="-61.2720146"><ele>47.0</ele><time>2026-03-22T14:07:09.967Z</time></trkpt><trkpt lat="16.3064172" lon="-61.2719634"><ele>47.0</ele><time>2026-03-22T14:07:10.999Z</time></trkpt><trkpt lat="16.3065459" lon="-61.2719153"><ele>46.400000000000006</ele><time>2026-03-22T14:07:11.99Z</time></trkpt><trkpt lat="16.3066739" lon="-61.2718766"><ele>45.800000000000004</ele><time>2026-03-22T14:07:12.988Z</time></trkpt><trkpt lat="16.3067787" lon="-61.2718514"><ele>45.2</ele><time>2026-03-22T14:07:14.035Z</time></trkpt><trkpt lat="16.3068635" lon="-61.2718341"><ele>44.6</ele><time>2026-03-22T14:07:14.988Z</time></trkpt><trkpt lat="16.306945" lon="-61.2718281"><ele>44.0</ele><time>2026-03-22T14:07:16.029Z</time></trkpt><trkpt lat="16.3070546" lon="-61.2718742"><ele>44.0</ele><time>2026-03-22T14:07:17.983Z</time></trkpt><trkpt lat="16.3070984" lon="-61.2720101"><ele>44.0</ele><time>2026-03-22T14:07:19.987Z</time></trkpt><trkpt lat="16.3071046" lon="-61.2721123"><ele>44.0</ele><time>2026-03-22T14:07:20.99Z</time></trkpt><trkpt lat="16.307115" lon="-61.2722485"><ele>44.0</ele><time>2026-03-22T14:07:21.982Z</time></trkpt><trkpt lat="16.3071276" lon="-61.272379"><ele>44.0</ele><time>2026-03-22T14:07:22.987Z</time></trkpt><trkpt lat="16.3071455" lon="-61.2724903"><ele>44.0</ele><time>2026-03-22T14:07:23.98Z</time></trkpt><trkpt lat="16.3071489" lon="-61.2725847"><ele>44.0</ele><time>2026-03-22T14:07:24.986Z</time></trkpt><trkpt lat="16.3071672" lon="-61.2726633"><ele>44.0</ele><time>2026-03-22T14:07:26.964Z</time></trkpt><trkpt lat="16.3072363" lon="-61.2726791"><ele>44.0</ele><time>2026-03-22T14:07:28.964Z</time></trkpt><trkpt lat="16.3072979" lon="-61.2726321"><ele>44.0</ele><time>2026-03-22T14:07:29.975Z</time></trkpt><trkpt lat="16.3073748" lon="-61.2725685"><ele>44.0</ele><time>2026-03-22T14:07:30.995Z</time></trkpt><trkpt lat="16.3074533" lon="-61.2725045"><ele>44.0</ele><time>2026-03-22T14:07:31.983Z</time></trkpt><trkpt lat="16.3075451" lon="-61.2724362"><ele>44.0</ele><time>2026-03-22T14:07:32.99Z</time></trkpt><trkpt lat="16.307625" lon="-61.2723635"><ele>44.0</ele><time>2026-03-22T14:07:33.992Z</time></trkpt><trkpt lat="16.3077049" lon="-61.2722987"><ele>44.0</ele><time>2026-03-22T14:07:34.993Z</time></trkpt><trkpt lat="16.3077793" lon="-61.2722454"><ele>43.83333333333333</ele><time>2026-03-22T14:07:36.053Z</time></trkpt><trkpt lat="16.3078384" lon="-61.2721854"><ele>43.666666666666664</ele><time>2026-03-22T14:07:37.004Z</time></trkpt><trkpt lat="16.3078796" lon="-61.2721174"><ele>43.5</ele><time>2026-03-22T14:07:37.985Z</time></trkpt><trkpt lat="16.3079254" lon="-61.2720486"><ele>43.333333333333336</ele><time>2026-03-22T14:07:38.993Z</time></trkpt><trkpt lat="16.3079772" lon="-61.2719767"><ele>43.16666666666667</ele><time>2026-03-22T14:07:40.058Z</time></trkpt><trkpt lat="16.308036" lon="-61.2719071"><ele>43.0</ele><time>2026-03-22T14:07:41.057Z</time></trkpt><trkpt lat="16.3080932" lon="-61.2718511"><ele>42.5</ele><time>2026-03-22T14:07:41.98Z</time></trkpt><trkpt lat="16.3081559" lon="-61.2718129"><ele>42.0</ele><time>2026-03-22T14:07:43.007Z</time></trkpt><trkpt lat="16.3082228" lon="-61.2717844"><ele>41.5</ele><time>2026-03-22T14:07:44.003Z</time></trkpt><trkpt lat="16.3082877" lon="-61.2717533"><ele>41.0</ele><time>2026-03-22T14:07:45.063Z</time></trkpt><trkpt lat="16.3083847" lon="-61.2716776"><ele>40.5</ele><time>2026-03-22T14:07:46.99Z</time></trkpt><trkpt lat="16.3084289" lon="-61.2716302"><ele>40.0</ele><time>2026-03-22T14:07:47.992Z</time></trkpt><trkpt lat="16.3085128" lon="-61.2715377"><ele>40.0</ele><time>2026-03-22T14:07:50.042Z</time></trkpt><trkpt lat="16.3086063" lon="-61.2714613"><ele>40.0</ele><time>2026-03-22T14:07:51.986Z</time></trkpt><trkpt lat="16.3087278" lon="-61.2713925"><ele>40.0</ele><time>2026-03-22T14:07:53.975Z</time></trkpt><trkpt lat="16.3087966" lon="-61.2713572"><ele>40.0</ele><time>2026-03-22T14:07:55.061Z</time></trkpt><trkpt lat="16.3088713" lon="-61.2713236"><ele>40.0</ele><time>2026-03-22T14:07:56.072Z</time></trkpt><trkpt lat="16.3089522" lon="-61.2712917"><ele>38.833333333333336</ele><time>2026-03-22T14:07:56.994Z</time></trkpt><trkpt lat="16.3090331" lon="-61.2712715"><ele>37.66666666666667</ele><time>2026-03-22T14:07:58Z</time></trkpt><trkpt lat="16.3091213" lon="-61.2712548"><ele>36.5</ele><time>2026-03-22T14:07:59.007Z</time></trkpt><trkpt lat="16.3092035" lon="-61.2712374"><ele>35.333333333333336</ele><time>2026-03-22T14:07:59.993Z</time></trkpt><trkpt lat="16.3092748" lon="-61.2712109"><ele>34.166666666666664</ele><time>2026-03-22T14:08:01.006Z</time></trkpt><trkpt lat="16.3093376" lon="-61.2711762"><ele>33.0</ele><time>2026-03-22T14:08:02.004Z</time></trkpt><trkpt lat="16.3094058" lon="-61.2711397"><ele>33.0</ele><time>2026-03-22T14:08:02.983Z</time></trkpt><trkpt lat="16.3094757" lon="-61.2710975"><ele>33.0</ele><time>2026-03-22T14:08:04.013Z</time></trkpt><trkpt lat="16.3095363" lon="-61.2710583"><ele>33.0</ele><time>2026-03-22T14:08:04.994Z</time></trkpt><trkpt lat="16.3096008" lon="-61.2710221"><ele>33.0</ele><time>2026-03-22T14:08:06.066Z</time></trkpt><trkpt lat="16.3096635" lon="-61.2709911"><ele>33.0</ele><time>2026-03-22T14:08:06.992Z</time></trkpt><trkpt lat="16.3097694" lon="-61.2709335"><ele>33.0</ele><time>2026-03-22T14:08:08.99Z</time></trkpt><trkpt lat="16.3098689" lon="-61.2708654"><ele>32.8</ele><time>2026-03-22T14:08:11.001Z</time></trkpt><trkpt lat="16.3099416" lon="-61.2707954"><ele>32.599999999999994</ele><time>2026-03-22T14:08:13.024Z</time></trkpt><trkpt lat="16.3099584" lon="-61.2707018"><ele>32.400000000000006</ele><time>2026-03-22T14:08:14.989Z</time></trkpt><trkpt lat="16.3099443" lon="-61.2706197"><ele>32.2</ele><time>2026-03-22T14:08:15.992Z</time></trkpt><trkpt lat="16.3099184" lon="-61.2705247"><ele>32.0</ele><time>2026-03-22T14:08:16.954Z</time></trkpt><trkpt lat="16.3098848" lon="-61.2704257"><ele>32.0</ele><time>2026-03-22T14:08:17.99Z</time></trkpt><trkpt lat="16.3098363" lon="-61.2703341"><ele>32.0</ele><time>2026-03-22T14:08:18.975Z</time></trkpt><trkpt lat="16.3097785" lon="-61.2702464"><ele>32.0</ele><time>2026-03-22T14:08:19.998Z</time></trkpt><trkpt lat="16.3097101" lon="-61.2701627"><ele>32.0</ele><time>2026-03-22T14:08:20.997Z</time></trkpt><trkpt lat="16.309637" lon="-61.2700832"><ele>32.0</ele><time>2026-03-22T14:08:21.976Z</time></trkpt><trkpt lat="16.3095621" lon="-61.2700064"><ele>31.400000000000002</ele><time>2026-03-22T14:08:22.99Z</time></trkpt><trkpt lat="16.3094861" lon="-61.2699231"><ele>30.800000000000004</ele><time>2026-03-22T14:08:23.981Z</time></trkpt><trkpt lat="16.309416" lon="-61.2698418"><ele>30.2</ele><time>2026-03-22T14:08:24.977Z</time></trkpt><trkpt lat="16.3093518" lon="-61.2697591"><ele>29.6</ele><time>2026-03-22T14:08:26.043Z</time></trkpt><trkpt lat="16.3092877" lon="-61.2696745"><ele>29.0</ele><time>2026-03-22T14:08:26.975Z</time></trkpt><trkpt lat="16.3092193" lon="-61.2695901"><ele>29.0</ele><time>2026-03-22T14:08:27.992Z</time></trkpt><trkpt lat="16.309153" lon="-61.269517"><ele>29.0</ele><time>2026-03-22T14:08:29.018Z</time></trkpt><trkpt lat="16.3090817" lon="-61.2694477"><ele>29.0</ele><time>2026-03-22T14:08:29.979Z</time></trkpt><trkpt lat="16.309006" lon="-61.2693846"><ele>29.0</ele><time>2026-03-22T14:08:30.985Z</time></trkpt><trkpt lat="16.3089303" lon="-61.2693155"><ele>29.0</ele><time>2026-03-22T14:08:31.979Z</time></trkpt><trkpt lat="16.3088614" lon="-61.2692392"><ele>29.2</ele><time>2026-03-22T14:08:33.021Z</time></trkpt><trkpt lat="16.308797" lon="-61.2691558"><ele>29.4</ele><time>2026-03-22T14:08:34.023Z</time></trkpt><trkpt lat="16.3087369" lon="-61.2690719"><ele>29.6</ele><time>2026-03-22T14:08:35.018Z</time></trkpt><trkpt lat="16.3086778" lon="-61.2689867"><ele>29.8</ele><time>2026-03-22T14:08:36.042Z</time></trkpt><trkpt lat="16.3086273" lon="-61.2689059"><ele>30.0</ele><time>2026-03-22T14:08:36.979Z</time></trkpt><trkpt lat="16.3085773" lon="-61.2688219"><ele>28.2</ele><time>2026-03-22T14:08:37.996Z</time></trkpt><trkpt lat="16.3085374" lon="-61.268739"><ele>26.4</ele><time>2026-03-22T14:08:38.981Z</time></trkpt><trkpt lat="16.308489" lon="-61.2686582"><ele>24.6</ele><time>2026-03-22T14:08:39.962Z</time></trkpt><trkpt lat="16.3084315" lon="-61.2685834"><ele>22.8</ele><time>2026-03-22T14:08:41.042Z</time></trkpt><trkpt lat="16.3083795" lon="-61.2685055"><ele>21.0</ele><time>2026-03-22T14:08:41.991Z</time></trkpt><trkpt lat="16.3083251" lon="-61.268427"><ele>21.0</ele><time>2026-03-22T14:08:43.036Z</time></trkpt><trkpt lat="16.3082842" lon="-61.2683427"><ele>21.0</ele><time>2026-03-22T14:08:43.987Z</time></trkpt><trkpt lat="16.3082561" lon="-61.2682555"><ele>21.0</ele><time>2026-03-22T14:08:44.989Z</time></trkpt><trkpt lat="16.3082247" lon="-61.2681769"><ele>21.0</ele><time>2026-03-22T14:08:45.972Z</time></trkpt><trkpt lat="16.3081899" lon="-61.2681023"><ele>21.0</ele><time>2026-03-22T14:08:46.997Z</time></trkpt><trkpt lat="16.3081553" lon="-61.2680347"><ele>21.0</ele><time>2026-03-22T14:08:47.99Z</time></trkpt><trkpt lat="16.3081165" lon="-61.2679739"><ele>18.333333333333332</ele><time>2026-03-22T14:08:48.986Z</time></trkpt><trkpt lat="16.308043" lon="-61.2678844"><ele>15.666666666666666</ele><time>2026-03-22T14:08:51.049Z</time></trkpt><trkpt lat="16.3079837" lon="-61.267847"><ele>13.0</ele><time>2026-03-22T14:08:52.973Z</time></trkpt><trkpt lat="16.3079202" lon="-61.267806"><ele>10.333333333333334</ele><time>2026-03-22T14:08:54.978Z</time></trkpt><trkpt lat="16.3078418" lon="-61.2677734"><ele>7.666666666666667</ele><time>2026-03-22T14:08:56.985Z</time></trkpt><trkpt lat="16.3077612" lon="-61.2677261"><ele>5.0</ele><time>2026-03-22T14:08:58.974Z</time></trkpt><trkpt lat="16.307684" lon="-61.2676786"><ele>5.0</ele><time>2026-03-22T14:09:00.967Z</time></trkpt><trkpt lat="16.3075884" lon="-61.2676491"><ele>5.0</ele><time>2026-03-22T14:09:02.962Z</time></trkpt><trkpt lat="16.3074859" lon="-61.2676287"><ele>5.0</ele><time>2026-03-22T14:09:04.984Z</time></trkpt><trkpt lat="16.3073935" lon="-61.2676157"><ele>5.0</ele><time>2026-03-22T14:09:06.989Z</time></trkpt><trkpt lat="16.3073019" lon="-61.2675961"><ele>5.0</ele><time>2026-03-22T14:09:08.993Z</time></trkpt><trkpt lat="16.3072019" lon="-61.2675424"><ele>5.0</ele><time>2026-03-22T14:09:10.986Z</time></trkpt><trkpt lat="16.3070853" lon="-61.2675175"><ele>5.0</ele><time>2026-03-22T14:09:13.047Z</time></trkpt><trkpt lat="16.3069622" lon="-61.2675136"><ele>5.0</ele><time>2026-03-22T14:09:14.991Z</time></trkpt><trkpt lat="16.3068616" lon="-61.2675142"><ele>5.0</ele><time>2026-03-22T14:09:16.985Z</time></trkpt><trkpt lat="16.3067885" lon="-61.2675127"><ele>5.0</ele><time>2026-03-22T14:09:18.985Z</time></trkpt><trkpt lat="16.3067135" lon="-61.2675181"><ele>5.0</ele><time>2026-03-22T14:09:20.97Z</time></trkpt><trkpt lat="16.3066498" lon="-61.2675293"><ele>5.0</ele><time>2026-03-22T14:09:21.989Z</time></trkpt><trkpt lat="16.3065853" lon="-61.2675469"><ele>5.0</ele><time>2026-03-22T14:09:22.99Z</time></trkpt><trkpt lat="16.3065175" lon="-61.2675717"><ele>5.0</ele><time>2026-03-22T14:09:23.979Z</time></trkpt><trkpt lat="16.3064498" lon="-61.2675945"><ele>5.0</ele><time>2026-03-22T14:09:24.984Z</time></trkpt><trkpt lat="16.3063796" lon="-61.2676132"><ele>5.0</ele><time>2026-03-22T14:09:25.985Z</time></trkpt><trkpt lat="16.3063152" lon="-61.2676279"><ele>5.0</ele><time>2026-03-22T14:09:26.993Z</time></trkpt><trkpt lat="16.3062466" lon="-61.2676477"><ele>5.0</ele><time>2026-03-22T14:09:27.966Z</time></trkpt><trkpt lat="16.3061757" lon="-61.267675"><ele>5.0</ele><time>2026-03-22T14:09:29.05Z</time></trkpt><trkpt lat="16.3061092" lon="-61.2676945"><ele>5.0</ele><time>2026-03-22T14:09:30.035Z</time></trkpt><trkpt lat="16.3060389" lon="-61.2677091"><ele>5.0</ele><time>2026-03-22T14:09:31.057Z</time></trkpt><trkpt lat="16.3059678" lon="-61.2677187"><ele>5.0</ele><time>2026-03-22T14:09:31.982Z</time></trkpt><trkpt lat="16.3059026" lon="-61.267719"><ele>5.0</ele><time>2026-03-22T14:09:32.989Z</time></trkpt><trkpt lat="16.3058375" lon="-61.2677063"><ele>5.0</ele><time>2026-03-22T14:09:33.985Z</time></trkpt><trkpt lat="16.3057741" lon="-61.2676776"><ele>5.0</ele><time>2026-03-22T14:09:35.074Z</time></trkpt><trkpt lat="16.3057065" lon="-61.2676408"><ele>5.0</ele><time>2026-03-22T14:09:36.036Z</time></trkpt><trkpt lat="16.305642" lon="-61.267602"><ele>5.0</ele><time>2026-03-22T14:09:36.988Z</time></trkpt><trkpt lat="16.3055656" lon="-61.2675571"><ele>5.0</ele><time>2026-03-22T14:09:37.989Z</time></trkpt><trkpt lat="16.3054864" lon="-61.2675073"><ele>5.0</ele><time>2026-03-22T14:09:39.003Z</time></trkpt><trkpt lat="16.3054044" lon="-61.2674552"><ele>5.0</ele><time>2026-03-22T14:09:40.033Z</time></trkpt><trkpt lat="16.3053245" lon="-61.267402"><ele>5.2</ele><time>2026-03-22T14:09:40.99Z</time></trkpt><trkpt lat="16.3052452" lon="-61.2673501"><ele>5.4</ele><time>2026-03-22T14:09:41.988Z</time></trkpt><trkpt lat="16.3051623" lon="-61.2672998"><ele>5.6</ele><time>2026-03-22T14:09:43Z</time></trkpt><trkpt lat="16.3050807" lon="-61.2672506"><ele>5.8</ele><time>2026-03-22T14:09:44.083Z</time></trkpt><trkpt lat="16.3050027" lon="-61.2672022"><ele>6.0</ele><time>2026-03-22T14:09:45.029Z</time></trkpt><trkpt lat="16.3049309" lon="-61.267157"><ele>6.6</ele><time>2026-03-22T14:09:45.994Z</time></trkpt><trkpt lat="16.304877" lon="-61.267115"><ele>7.199999999999999</ele><time>2026-03-22T14:09:46.989Z</time></trkpt><trkpt lat="16.3047612" lon="-61.2670423"><ele>7.800000000000001</ele><time>2026-03-22T14:09:48.999Z</time></trkpt><trkpt lat="16.304695" lon="-61.2669988"><ele>8.4</ele><time>2026-03-22T14:09:49.997Z</time></trkpt><trkpt lat="16.3046239" lon="-61.2669369"><ele>9.0</ele><time>2026-03-22T14:09:51.045Z</time></trkpt><trkpt lat="16.3045649" lon="-61.2668816"><ele>9.0</ele><time>2026-03-22T14:09:52.007Z</time></trkpt><trkpt lat="16.3045153" lon="-61.2668194"><ele>9.0</ele><time>2026-03-22T14:09:52.994Z</time></trkpt><trkpt lat="16.3044788" lon="-61.2667505"><ele>9.0</ele><time>2026-03-22T14:09:54.003Z</time></trkpt><trkpt lat="16.3044636" lon="-61.2666242"><ele>9.0</ele><time>2026-03-22T14:09:55.989Z</time></trkpt><trkpt lat="16.3044718" lon="-61.2665068"><ele>9.0</ele><time>2026-03-22T14:09:57.991Z</time></trkpt><trkpt lat="16.30451" lon="-61.2664121"><ele>8.000000000000002</ele><time>2026-03-22T14:10:29Z</time></trkpt><trkpt lat="16.304511" lon="-61.2663391"><ele>7.0</ele><time>2026-03-22T14:10:30.97Z</time></trkpt><trkpt lat="16.3044526" lon="-61.2662984"><ele>6.0</ele><time>2026-03-22T14:10:46.991Z</time></trkpt><trkpt lat="16.304392" lon="-61.2662657"><ele>5.0</ele><time>2026-03-22T14:10:56.982Z</time></trkpt><trkpt lat="16.3043312" lon="-61.2662433"><ele>4.0</ele><time>2026-03-22T14:11:09.987Z</time></trkpt><trkpt lat="16.3042866" lon="-61.266195"><ele>3.0</ele><time>2026-03-22T14:11:12.99Z</time></trkpt><trkpt lat="16.3042342" lon="-61.266154"><ele>2.0</ele><time>2026-03-22T14:11:14.986Z</time></trkpt><trkpt lat="16.3041943" lon="-61.2660807"><ele>1.9999999999999998</ele><time>2026-03-22T14:11:17.991Z</time></trkpt><trkpt lat="16.3041498" lon="-61.2660221"><ele>2.0</ele><time>2026-03-22T14:11:20.962Z</time></trkpt><trkpt lat="16.3041147" lon="-61.2659422"><ele>2.0</ele><time>2026-03-22T14:11:24.982Z</time></trkpt><trkpt lat="16.304101" lon="-61.265862"><ele>2.0</ele><time>2026-03-22T14:11:26.986Z</time></trkpt><trkpt lat="16.3040779" lon="-61.2657805"><ele>1.9999999999999998</ele><time>2026-03-22T14:11:28.987Z</time></trkpt><trkpt lat="16.3039935" lon="-61.265681"><ele>2.0</ele><time>2026-03-22T14:11:30.997Z</time></trkpt><trkpt lat="16.3039105" lon="-61.265602"><ele>2.1666666666666665</ele><time>2026-03-22T14:11:32.98Z</time></trkpt><trkpt lat="16.3038566" lon="-61.2655453"><ele>2.333333333333333</ele><time>2026-03-22T14:11:34.981Z</time></trkpt><trkpt lat="16.3038152" lon="-61.2654689"><ele>2.5</ele><time>2026-03-22T14:11:36.974Z</time></trkpt><trkpt lat="16.3038283" lon="-61.2653924"><ele>2.6666666666666665</ele><time>2026-03-22T14:11:38.961Z</time></trkpt><trkpt lat="16.3038275" lon="-61.2652955"><ele>2.8333333333333335</ele><time>2026-03-22T14:11:40.988Z</time></trkpt><trkpt lat="16.3037878" lon="-61.2652169"><ele>3.0</ele><time>2026-03-22T14:11:43.991Z</time></trkpt><trkpt lat="16.3037339" lon="-61.2651778"><ele>3.0</ele><time>2026-03-22T14:11:45.985Z</time></trkpt><trkpt lat="16.3036762" lon="-61.2651263"><ele>3.0</ele><time>2026-03-22T14:11:47.981Z</time></trkpt><trkpt lat="16.3036179" lon="-61.2650802"><ele>3.0</ele><time>2026-03-22T14:11:49.975Z</time></trkpt><trkpt lat="16.3035885" lon="-61.2650047"><ele>3.0</ele><time>2026-03-22T14:11:53.001Z</time></trkpt><trkpt lat="16.3035075" lon="-61.264944"><ele>3.0</ele><time>2026-03-22T14:11:55.976Z</time></trkpt><trkpt lat="16.303424" lon="-61.26493"><ele>3.0</ele><time>2026-03-22T14:11:57.978Z</time></trkpt><trkpt lat="16.3033499" lon="-61.2649153"><ele>3.0</ele><time>2026-03-22T14:11:59.988Z</time></trkpt><trkpt lat="16.3032711" lon="-61.2649073"><ele>3.0</ele><time>2026-03-22T14:12:01.974Z</time></trkpt><trkpt lat="16.3032009" lon="-61.2648857"><ele>3.0</ele><time>2026-03-22T14:12:03.985Z</time></trkpt><trkpt lat="16.30312" lon="-61.2648553"><ele>3.0</ele><time>2026-03-22T14:12:08.982Z</time></trkpt><trkpt lat="16.3030763" lon="-61.2648043"><ele>3.0</ele><time>2026-03-22T14:12:10.992Z</time></trkpt><trkpt lat="16.3030217" lon="-61.2647525"><ele>3.0</ele><time>2026-03-22T14:12:12.989Z</time></trkpt><trkpt lat="16.3029508" lon="-61.2647254"><ele>3.4</ele><time>2026-03-22T14:12:14.982Z</time></trkpt><trkpt lat="16.302878" lon="-61.2647154"><ele>3.8</ele><time>2026-03-22T14:12:16.997Z</time></trkpt><trkpt lat="16.3027912" lon="-61.2647123"><ele>4.2</ele><time>2026-03-22T14:12:18.982Z</time></trkpt><trkpt lat="16.3026464" lon="-61.2646854"><ele>4.6</ele><time>2026-03-22T14:12:20.991Z</time></trkpt><trkpt lat="16.3025666" lon="-61.2646773"><ele>5.0</ele><time>2026-03-22T14:12:21.987Z</time></trkpt><trkpt lat="16.3025013" lon="-61.2646746"><ele>5.0</ele><time>2026-03-22T14:12:22.986Z</time></trkpt><trkpt lat="16.3024047" lon="-61.2646804"><ele>5.0</ele><time>2026-03-22T14:12:24.994Z</time></trkpt><trkpt lat="16.3023283" lon="-61.264677"><ele>5.0</ele><time>2026-03-22T14:12:26.987Z</time></trkpt><trkpt lat="16.3022351" lon="-61.2646501"><ele>5.0</ele><time>2026-03-22T14:12:28.994Z</time></trkpt><trkpt lat="16.3021476" lon="-61.2646558"><ele>5.0</ele><time>2026-03-22T14:12:30.979Z</time></trkpt><trkpt lat="16.3020601" lon="-61.2646613"><ele>5.0</ele><time>2026-03-22T14:12:33Z</time></trkpt><trkpt lat="16.3019891" lon="-61.2646514"><ele>5.4</ele><time>2026-03-22T14:12:34.976Z</time></trkpt><trkpt lat="16.3019265" lon="-61.2646105"><ele>5.8</ele><time>2026-03-22T14:12:36.985Z</time></trkpt><trkpt lat="16.3018353" lon="-61.2645524"><ele>6.199999999999999</ele><time>2026-03-22T14:12:38.97Z</time></trkpt><trkpt lat="16.3017149" lon="-61.2645188"><ele>6.6</ele><time>2026-03-22T14:12:40.988Z</time></trkpt><trkpt lat="16.3016041" lon="-61.2644752"><ele>7.0</ele><time>2026-03-22T14:12:42.989Z</time></trkpt><trkpt lat="16.3015342" lon="-61.2644545"><ele>7.0</ele><time>2026-03-22T14:12:43.983Z</time></trkpt><trkpt lat="16.3014422" lon="-61.2644317"><ele>6.999999999999999</ele><time>2026-03-22T14:12:45.956Z</time></trkpt><trkpt lat="16.3013177" lon="-61.2643753"><ele>6.999999999999999</ele><time>2026-03-22T14:12:47.997Z</time></trkpt><trkpt lat="16.3012542" lon="-61.2643279"><ele>7.0</ele><time>2026-03-22T14:12:48.996Z</time></trkpt><trkpt lat="16.3011889" lon="-61.2642754"><ele>7.0</ele><time>2026-03-22T14:12:49.98Z</time></trkpt><trkpt lat="16.3011246" lon="-61.2642481"><ele>7.199999999999999</ele><time>2026-03-22T14:12:50.961Z</time></trkpt><trkpt lat="16.3010637" lon="-61.2642282"><ele>7.3999999999999995</ele><time>2026-03-22T14:12:51.987Z</time></trkpt><trkpt lat="16.3009566" lon="-61.2642181"><ele>7.6000000000000005</ele><time>2026-03-22T14:12:53.977Z</time></trkpt><trkpt lat="16.3008367" lon="-61.2642218"><ele>7.800000000000001</ele><time>2026-03-22T14:12:55.965Z</time></trkpt><trkpt lat="16.3007176" lon="-61.2642219"><ele>8.0</ele><time>2026-03-22T14:12:57.991Z</time></trkpt><trkpt lat="16.3006523" lon="-61.2642169"><ele>7.857142857142857</ele><time>2026-03-22T14:12:58.994Z</time></trkpt><trkpt lat="16.3005811" lon="-61.2642138"><ele>7.7142857142857135</ele><time>2026-03-22T14:12:59.996Z</time></trkpt><trkpt lat="16.3005126" lon="-61.2642103"><ele>7.571428571428571</ele><time>2026-03-22T14:13:00.99Z</time></trkpt><trkpt lat="16.3004479" lon="-61.2642106"><ele>7.428571428571429</ele><time>2026-03-22T14:13:01.992Z</time></trkpt><trkpt lat="16.3003816" lon="-61.2642142"><ele>7.285714285714286</ele><time>2026-03-22T14:13:02.996Z</time></trkpt><trkpt lat="16.3003194" lon="-61.2642269"><ele>7.142857142857142</ele><time>2026-03-22T14:13:03.993Z</time></trkpt><trkpt lat="16.3002271" lon="-61.2642245"><ele>7.0</ele><time>2026-03-22T14:13:05.989Z</time></trkpt><trkpt lat="16.3001006" lon="-61.2641955"><ele>7.000000000000001</ele><time>2026-03-22T14:13:08Z</time></trkpt><trkpt lat="16.3000112" lon="-61.2641754"><ele>7.0</ele><time>2026-03-22T14:13:09.995Z</time></trkpt><trkpt lat="16.2999256" lon="-61.2641663"><ele>7.0</ele><time>2026-03-22T14:13:11.971Z</time></trkpt><trkpt lat="16.2998366" lon="-61.2641426"><ele>7.0</ele><time>2026-03-22T14:13:13.983Z</time></trkpt><trkpt lat="16.2997565" lon="-61.2641225"><ele>7.000000000000001</ele><time>2026-03-22T14:13:15.989Z</time></trkpt><trkpt lat="16.2996854" lon="-61.2641006"><ele>7.0</ele><time>2026-03-22T14:13:17.952Z</time></trkpt><trkpt lat="16.2996169" lon="-61.2640594"><ele>7.0</ele><time>2026-03-22T14:13:19.986Z</time></trkpt><trkpt lat="16.2995447" lon="-61.264028"><ele>6.999999999999999</ele><time>2026-03-22T14:13:21.982Z</time></trkpt><trkpt lat="16.2994707" lon="-61.2640237"><ele>6.999999999999999</ele><time>2026-03-22T14:13:23.986Z</time></trkpt><trkpt lat="16.2993681" lon="-61.2640118"><ele>7.0</ele><time>2026-03-22T14:13:25.98Z</time></trkpt><trkpt lat="16.2992375" lon="-61.2639671"><ele>7.0</ele><time>2026-03-22T14:13:27.984Z</time></trkpt><trkpt lat="16.2991762" lon="-61.2639276"><ele>7.000000000000001</ele><time>2026-03-22T14:13:28.986Z</time></trkpt><trkpt lat="16.2991149" lon="-61.2638923"><ele>7.0</ele><time>2026-03-22T14:13:29.993Z</time></trkpt><trkpt lat="16.2990549" lon="-61.2638534"><ele>7.0</ele><time>2026-03-22T14:13:31.984Z</time></trkpt><trkpt lat="16.2990001" lon="-61.2638038"><ele>7.0</ele><time>2026-03-22T14:13:33.978Z</time></trkpt><trkpt lat="16.2989273" lon="-61.2637409"><ele>7.000000000000001</ele><time>2026-03-22T14:13:35.979Z</time></trkpt><trkpt lat="16.2988594" lon="-61.2637007"><ele>7.0</ele><time>2026-03-22T14:13:36.993Z</time></trkpt><trkpt lat="16.298803" lon="-61.2636617"><ele>7.500000000000001</ele><time>2026-03-22T14:13:37.963Z</time></trkpt><trkpt lat="16.2987487" lon="-61.2636218"><ele>8.0</ele><time>2026-03-22T14:13:38.985Z</time></trkpt><trkpt lat="16.2986734" lon="-61.2635673"><ele>8.5</ele><time>2026-03-22T14:13:40.981Z</time></trkpt><trkpt lat="16.2986212" lon="-61.2634972"><ele>9.0</ele><time>2026-03-22T14:13:44Z</time></trkpt><trkpt lat="16.2985537" lon="-61.2634418"><ele>9.5</ele><time>2026-03-22T14:13:45.989Z</time></trkpt><trkpt lat="16.2984836" lon="-61.2634154"><ele>10.0</ele><time>2026-03-22T14:13:46.982Z</time></trkpt><trkpt lat="16.2983781" lon="-61.2633534"><ele>10.0</ele><time>2026-03-22T14:13:48.951Z</time></trkpt><trkpt lat="16.2983101" lon="-61.2633346"><ele>10.0</ele><time>2026-03-22T14:13:50.972Z</time></trkpt><trkpt lat="16.2982356" lon="-61.2633298"><ele>10.0</ele><time>2026-03-22T14:13:52.971Z</time></trkpt><trkpt lat="16.2981325" lon="-61.2633054"><ele>10.0</ele><time>2026-03-22T14:13:54.963Z</time></trkpt><trkpt lat="16.2980664" lon="-61.2633002"><ele>10.0</ele><time>2026-03-22T14:13:55.974Z</time></trkpt><trkpt lat="16.2980024" lon="-61.2633007"><ele>10.0</ele><time>2026-03-22T14:13:56.986Z</time></trkpt><trkpt lat="16.2979392" lon="-61.263304"><ele>10.0</ele><time>2026-03-22T14:13:57.979Z</time></trkpt><trkpt lat="16.2978628" lon="-61.2632864"><ele>10.142857142857142</ele><time>2026-03-22T14:13:59.984Z</time></trkpt><trkpt lat="16.2977812" lon="-61.2632647"><ele>10.285714285714286</ele><time>2026-03-22T14:14:01.982Z</time></trkpt><trkpt lat="16.2977076" lon="-61.2632455"><ele>10.428571428571429</ele><time>2026-03-22T14:14:03.99Z</time></trkpt><trkpt lat="16.297644" lon="-61.2632291"><ele>10.571428571428571</ele><time>2026-03-22T14:14:06.986Z</time></trkpt><trkpt lat="16.2975862" lon="-61.2631978"><ele>10.714285714285714</ele><time>2026-03-22T14:14:08.978Z</time></trkpt><trkpt lat="16.297517" lon="-61.2631535"><ele>10.857142857142858</ele><time>2026-03-22T14:14:10.982Z</time></trkpt><trkpt lat="16.2974583" lon="-61.2631087"><ele>11.0</ele><time>2026-03-22T14:14:12.988Z</time></trkpt><trkpt lat="16.2973933" lon="-61.2630606"><ele>11.0</ele><time>2026-03-22T14:14:14.975Z</time></trkpt><trkpt lat="16.2973214" lon="-61.2630174"><ele>11.0</ele><time>2026-03-22T14:14:16.979Z</time></trkpt><trkpt lat="16.2972247" lon="-61.2629593"><ele>11.0</ele><time>2026-03-22T14:14:19.04Z</time></trkpt><trkpt lat="16.2971389" lon="-61.2629103"><ele>11.0</ele><time>2026-03-22T14:14:19.975Z</time></trkpt><trkpt lat="16.2970608" lon="-61.262873"><ele>11.0</ele><time>2026-03-22T14:14:20.982Z</time></trkpt><trkpt lat="16.2969911" lon="-61.2628374"><ele>11.600000000000001</ele><time>2026-03-22T14:14:21.984Z</time></trkpt><trkpt lat="16.2969213" lon="-61.2627974"><ele>12.2</ele><time>2026-03-22T14:14:22.983Z</time></trkpt><trkpt lat="16.2968212" lon="-61.2627274"><ele>12.799999999999999</ele><time>2026-03-22T14:14:24.993Z</time></trkpt><trkpt lat="16.2967252" lon="-61.2626602"><ele>13.399999999999999</ele><time>2026-03-22T14:14:26.995Z</time></trkpt><trkpt lat="16.296633" lon="-61.2626214"><ele>14.0</ele><time>2026-03-22T14:14:28.972Z</time></trkpt><trkpt lat="16.2965453" lon="-61.2626103"><ele>14.0</ele><time>2026-03-22T14:14:30.98Z</time></trkpt><trkpt lat="16.2964769" lon="-61.2625715"><ele>13.999999999999998</ele><time>2026-03-22T14:14:32.98Z</time></trkpt><trkpt lat="16.2963909" lon="-61.2625375"><ele>13.999999999999998</ele><time>2026-03-22T14:14:34.992Z</time></trkpt><trkpt lat="16.29627" lon="-61.2624853"><ele>14.0</ele><time>2026-03-22T14:14:36.993Z</time></trkpt><trkpt lat="16.2962069" lon="-61.2624632"><ele>14.0</ele><time>2026-03-22T14:14:37.99Z</time></trkpt><trkpt lat="16.2961154" lon="-61.2624338"><ele>14.0</ele><time>2026-03-22T14:14:39.985Z</time></trkpt><trkpt lat="16.2960263" lon="-61.2623893"><ele>13.999999999999998</ele><time>2026-03-22T14:14:41.977Z</time></trkpt><trkpt lat="16.2959607" lon="-61.2623311"><ele>13.999999999999998</ele><time>2026-03-22T14:14:43.984Z</time></trkpt><trkpt lat="16.295927" lon="-61.2622575"><ele>14.0</ele><time>2026-03-22T14:14:45.994Z</time></trkpt><trkpt lat="16.2958572" lon="-61.2621775"><ele>14.0</ele><time>2026-03-22T14:14:47.986Z</time></trkpt><trkpt lat="16.2957747" lon="-61.2621054"><ele>14.000000000000002</ele><time>2026-03-22T14:14:49.983Z</time></trkpt><trkpt lat="16.2956895" lon="-61.2620528"><ele>14.0</ele><time>2026-03-22T14:14:51.981Z</time></trkpt><trkpt lat="16.2956295" lon="-61.2620162"><ele>14.0</ele><time>2026-03-22T14:14:52.973Z</time></trkpt><trkpt lat="16.2955652" lon="-61.2619826"><ele>14.0</ele><time>2026-03-22T14:14:53.98Z</time></trkpt><trkpt lat="16.2955027" lon="-61.2619518"><ele>14.000000000000002</ele><time>2026-03-22T14:14:55.003Z</time></trkpt><trkpt lat="16.2954037" lon="-61.2618686"><ele>14.0</ele><time>2026-03-22T14:14:56.977Z</time></trkpt><trkpt lat="16.2953612" lon="-61.2618184"><ele>14.833333333333334</ele><time>2026-03-22T14:14:57.967Z</time></trkpt><trkpt lat="16.2953219" lon="-61.2617552"><ele>15.666666666666668</ele><time>2026-03-22T14:14:58.993Z</time></trkpt><trkpt lat="16.2952801" lon="-61.2616892"><ele>16.5</ele><time>2026-03-22T14:14:59.953Z</time></trkpt><trkpt lat="16.2952317" lon="-61.2616298"><ele>17.333333333333332</ele><time>2026-03-22T14:15:00.985Z</time></trkpt><trkpt lat="16.2951785" lon="-61.2615868"><ele>18.166666666666664</ele><time>2026-03-22T14:15:01.983Z</time></trkpt><trkpt lat="16.295078" lon="-61.2615356"><ele>19.0</ele><time>2026-03-22T14:15:04.021Z</time></trkpt><trkpt lat="16.2950021" lon="-61.2615159"><ele>19.0</ele><time>2026-03-22T14:15:05.99Z</time></trkpt><trkpt lat="16.2949491" lon="-61.2614649"><ele>19.0</ele><time>2026-03-22T14:15:08.995Z</time></trkpt><trkpt lat="16.2949424" lon="-61.2613982"><ele>19.0</ele><time>2026-03-22T14:15:10.991Z</time></trkpt><trkpt lat="16.2949654" lon="-61.2613146"><ele>19.0</ele><time>2026-03-22T14:15:13.982Z</time></trkpt><trkpt lat="16.2949876" lon="-61.261238"><ele>19.0</ele><time>2026-03-22T14:15:15.985Z</time></trkpt><trkpt lat="16.2950176" lon="-61.2611144"><ele>19.0</ele><time>2026-03-22T14:15:17.988Z</time></trkpt><trkpt lat="16.2950299" lon="-61.2610351"><ele>18.166666666666664</ele><time>2026-03-22T14:15:18.999Z</time></trkpt><trkpt lat="16.2950382" lon="-61.2609608"><ele>17.333333333333332</ele><time>2026-03-22T14:15:19.99Z</time></trkpt><trkpt lat="16.2950464" lon="-61.2608927"><ele>16.5</ele><time>2026-03-22T14:15:20.989Z</time></trkpt><trkpt lat="16.2950672" lon="-61.2607646"><ele>15.666666666666668</ele><time>2026-03-22T14:15:23Z</time></trkpt><trkpt lat="16.2950876" lon="-61.2606643"><ele>14.833333333333334</ele><time>2026-03-22T14:15:24.995Z</time></trkpt><trkpt lat="16.2950623" lon="-61.2606042"><ele>14.0</ele><time>2026-03-22T14:15:29.96Z</time></trkpt><trkpt lat="16.2950859" lon="-61.2605423"><ele>13.142857142857142</ele><time>2026-03-22T14:16:00.981Z</time></trkpt><trkpt lat="16.295129" lon="-61.2604804"><ele>12.285714285714285</ele><time>2026-03-22T14:16:03.986Z</time></trkpt><trkpt lat="16.2951596" lon="-61.2603994"><ele>11.428571428571429</ele><time>2026-03-22T14:16:06.994Z</time></trkpt><trkpt lat="16.2951552" lon="-61.2603198"><ele>10.571428571428571</ele><time>2026-03-22T14:16:10.003Z</time></trkpt><trkpt lat="16.2951783" lon="-61.2602515"><ele>9.714285714285714</ele><time>2026-03-22T14:16:13.977Z</time></trkpt><trkpt lat="16.2951738" lon="-61.2601834"><ele>8.857142857142858</ele><time>2026-03-22T14:16:15.973Z</time></trkpt><trkpt lat="16.2951786" lon="-61.2601036"><ele>8.0</ele><time>2026-03-22T14:16:17.972Z</time></trkpt><trkpt lat="16.2951731" lon="-61.2600084"><ele>7.999999999999999</ele><time>2026-03-22T14:16:19.988Z</time></trkpt><trkpt lat="16.2951852" lon="-61.2599303"><ele>8.0</ele><time>2026-03-22T14:16:21.988Z</time></trkpt><trkpt lat="16.2952065" lon="-61.2598378"><ele>8.0</ele><time>2026-03-22T14:16:23.994Z</time></trkpt><trkpt lat="16.2952396" lon="-61.2597629"><ele>8.0</ele><time>2026-03-22T14:16:25.983Z</time></trkpt><trkpt lat="16.2952485" lon="-61.2596941"><ele>7.999999999999999</ele><time>2026-03-22T14:16:27.986Z</time></trkpt><trkpt lat="16.2952735" lon="-61.2596167"><ele>8.0</ele><time>2026-03-22T14:16:29.986Z</time></trkpt><trkpt lat="16.2952973" lon="-61.2595272"><ele>7.333333333333333</ele><time>2026-03-22T14:16:31.99Z</time></trkpt><trkpt lat="16.2953045" lon="-61.2594309"><ele>6.666666666666666</ele><time>2026-03-22T14:16:33.998Z</time></trkpt><trkpt lat="16.2953159" lon="-61.2593471"><ele>6.0</ele><time>2026-03-22T14:16:35.984Z</time></trkpt><trkpt lat="16.2953383" lon="-61.2592596"><ele>5.333333333333333</ele><time>2026-03-22T14:16:38.004Z</time></trkpt><trkpt lat="16.2953548" lon="-61.2591468"><ele>4.666666666666666</ele><time>2026-03-22T14:16:39.969Z</time></trkpt><trkpt lat="16.2953589" lon="-61.2590781"><ele>4.0</ele><time>2026-03-22T14:16:40.975Z</time></trkpt><trkpt lat="16.295359" lon="-61.2590036"><ele>3.6666666666666665</ele><time>2026-03-22T14:16:41.982Z</time></trkpt><trkpt lat="16.2953508" lon="-61.2589312"><ele>3.333333333333333</ele><time>2026-03-22T14:16:42.978Z</time></trkpt><trkpt lat="16.2953256" lon="-61.2588534"><ele>3.0</ele><time>2026-03-22T14:16:43.994Z</time></trkpt><trkpt lat="16.2952991" lon="-61.2587833"><ele>2.6666666666666665</ele><time>2026-03-22T14:16:44.984Z</time></trkpt><trkpt lat="16.2952698" lon="-61.2587178"><ele>2.333333333333333</ele><time>2026-03-22T14:16:45.999Z</time></trkpt><trkpt lat="16.2952331" lon="-61.2586217"><ele>2.0</ele><time>2026-03-22T14:16:47.978Z</time></trkpt><trkpt lat="16.2951855" lon="-61.2585508"><ele>2.0</ele><time>2026-03-22T14:16:49.976Z</time></trkpt><trkpt lat="16.2950993" lon="-61.2584704"><ele>2.0</ele><time>2026-03-22T14:16:52.045Z</time></trkpt><trkpt lat="16.2950215" lon="-61.2584024"><ele>2.0</ele><time>2026-03-22T14:16:53.995Z</time></trkpt><trkpt lat="16.2949824" lon="-61.258348"><ele>2.0</ele><time>2026-03-22T14:16:54.981Z</time></trkpt><trkpt lat="16.2949315" lon="-61.2582993"><ele>2.0</ele><time>2026-03-22T14:16:55.992Z</time></trkpt><trkpt lat="16.2948376" lon="-61.2582201"><ele>1.9999999999999998</ele><time>2026-03-22T14:16:57.996Z</time></trkpt><trkpt lat="16.2947962" lon="-61.2581658"><ele>2.0</ele><time>2026-03-22T14:16:58.99Z</time></trkpt><trkpt lat="16.2947644" lon="-61.2581031"><ele>2.0</ele><time>2026-03-22T14:16:59.994Z</time></trkpt><trkpt lat="16.2947436" lon="-61.2580334"><ele>2.0</ele><time>2026-03-22T14:17:00.983Z</time></trkpt><trkpt lat="16.2947274" lon="-61.257954"><ele>1.9999999999999998</ele><time>2026-03-22T14:17:01.988Z</time></trkpt><trkpt lat="16.29472" lon="-61.2578665"><ele>2.0</ele><time>2026-03-22T14:17:02.974Z</time></trkpt><trkpt lat="16.2947159" lon="-61.2577668"><ele>1.9999999999999998</ele><time>2026-03-22T14:17:03.986Z</time></trkpt><trkpt lat="16.2947134" lon="-61.2576658"><ele>2.0</ele><time>2026-03-22T14:17:04.985Z</time></trkpt><trkpt lat="16.2947167" lon="-61.257565"><ele>2.0</ele><time>2026-03-22T14:17:05.964Z</time></trkpt><trkpt lat="16.2947205" lon="-61.2574688"><ele>2.0</ele><time>2026-03-22T14:17:07.005Z</time></trkpt><trkpt lat="16.2947213" lon="-61.2573871"><ele>1.9999999999999998</ele><time>2026-03-22T14:17:07.992Z</time></trkpt><trkpt lat="16.2947208" lon="-61.2573108"><ele>2.0</ele><time>2026-03-22T14:17:09.031Z</time></trkpt><trkpt lat="16.2947231" lon="-61.2572318"><ele>1.9999999999999998</ele><time>2026-03-22T14:17:09.989Z</time></trkpt><trkpt lat="16.2947266" lon="-61.2571464"><ele>2.0</ele><time>2026-03-22T14:17:10.986Z</time></trkpt><trkpt lat="16.294736" lon="-61.2570589"><ele>2.0</ele><time>2026-03-22T14:17:12.046Z</time></trkpt><trkpt lat="16.2947318" lon="-61.2569675"><ele>2.0</ele><time>2026-03-22T14:17:12.986Z</time></trkpt><trkpt lat="16.2947107" lon="-61.2568765"><ele>1.9999999999999998</ele><time>2026-03-22T14:17:13.99Z</time></trkpt><trkpt lat="16.294687" lon="-61.2567847"><ele>2.0</ele><time>2026-03-22T14:17:14.983Z</time></trkpt><trkpt lat="16.2946726" lon="-61.2566919"><ele>1.9999999999999998</ele><time>2026-03-22T14:17:16.052Z</time></trkpt><trkpt lat="16.294663" lon="-61.2566048"><ele>2.0</ele><time>2026-03-22T14:17:17.049Z</time></trkpt><trkpt lat="16.2946389" lon="-61.2565278"><ele>2.0</ele><time>2026-03-22T14:17:17.972Z</time></trkpt><trkpt lat="16.294606" lon="-61.2564612"><ele>2.0</ele><time>2026-03-22T14:17:19.974Z</time></trkpt><trkpt lat="16.294517" lon="-61.2564175"><ele>1.9999999999999998</ele><time>2026-03-22T14:24:56.983Z</time></trkpt><trkpt lat="16.2944591" lon="-61.2563654"><ele>2.0</ele><time>2026-03-22T14:24:58Z</time></trkpt><trkpt lat="16.294396" lon="-61.2563044"><ele>1.2000000000000002</ele><time>2026-03-22T14:24:58.991Z</time></trkpt><trkpt lat="16.2943341" lon="-61.2562271"><ele>0.40000000000000013</ele><time>2026-03-22T14:24:59.99Z</time></trkpt><trkpt lat="16.2942715" lon="-61.2561445"><ele>-0.40000000000000013</ele><time>2026-03-22T14:25:01.001Z</time></trkpt><trkpt lat="16.2942163" lon="-61.2560546"><ele>-1.2000000000000002</ele><time>2026-03-22T14:25:01.991Z</time></trkpt><trkpt lat="16.2941644" lon="-61.255961"><ele>-2.0</ele><time>2026-03-22T14:25:02.997Z</time></trkpt><trkpt lat="16.2941191" lon="-61.2558797"><ele>-2.0</ele><time>2026-03-22T14:25:03.988Z</time></trkpt><trkpt lat="16.294055" lon="-61.2558108"><ele>-2.0</ele><time>2026-03-22T14:25:04.988Z</time></trkpt><trkpt lat="16.293984" lon="-61.2557531"><ele>-2.0</ele><time>2026-03-22T14:25:05.99Z</time></trkpt><trkpt lat="16.2939122" lon="-61.2557002"><ele>-2.0</ele><time>2026-03-22T14:25:06.984Z</time></trkpt><trkpt lat="16.293842" lon="-61.255659"><ele>-2.0</ele><time>2026-03-22T14:25:07.987Z</time></trkpt><trkpt lat="16.2937642" lon="-61.2555766"><ele>-2.333333333333333</ele><time>2026-03-22T14:25:10Z</time></trkpt><trkpt lat="16.2937404" lon="-61.255515"><ele>-2.6666666666666665</ele><time>2026-03-22T14:25:10.998Z</time></trkpt><trkpt lat="16.2937001" lon="-61.2554609"><ele>-3.0</ele><time>2026-03-22T14:25:11.988Z</time></trkpt><trkpt lat="16.2936367" lon="-61.2554173"><ele>-3.333333333333333</ele><time>2026-03-22T14:25:12.995Z</time></trkpt><trkpt lat="16.2935612" lon="-61.2553743"><ele>-3.6666666666666665</ele><time>2026-03-22T14:25:13.992Z</time></trkpt><trkpt lat="16.2934879" lon="-61.2553267"><ele>-4.0</ele><time>2026-03-22T14:25:14.991Z</time></trkpt><trkpt lat="16.2934174" lon="-61.2552832"><ele>-3.9999999999999996</ele><time>2026-03-22T14:25:15.99Z</time></trkpt><trkpt lat="16.293336" lon="-61.2552586"><ele>-4.0</ele><time>2026-03-22T14:25:16.99Z</time></trkpt><trkpt lat="16.2932471" lon="-61.2552505"><ele>-4.0</ele><time>2026-03-22T14:25:18.002Z</time></trkpt><trkpt lat="16.293163" lon="-61.255251"><ele>-4.0</ele><time>2026-03-22T14:25:19.001Z</time></trkpt><trkpt lat="16.2930741" lon="-61.2553"><ele>-3.9999999999999996</ele><time>2026-03-22T14:25:21.063Z</time></trkpt><trkpt lat="16.2930432" lon="-61.2553579"><ele>-4.0</ele><time>2026-03-22T14:25:22.065Z</time></trkpt><trkpt lat="16.2930199" lon="-61.255426"><ele>-3.6666666666666665</ele><time>2026-03-22T14:25:22.988Z</time></trkpt><trkpt lat="16.2929961" lon="-61.2554895"><ele>-3.333333333333333</ele><time>2026-03-22T14:25:23.998Z</time></trkpt><trkpt lat="16.2929795" lon="-61.2555604"><ele>-3.0</ele><time>2026-03-22T14:25:24.993Z</time></trkpt><trkpt lat="16.2929693" lon="-61.2556266"><ele>-2.6666666666666665</ele><time>2026-03-22T14:25:25.976Z</time></trkpt><trkpt lat="16.2929227" lon="-61.2557142"><ele>-2.333333333333333</ele><time>2026-03-22T14:25:27.993Z</time></trkpt><trkpt lat="16.2928036" lon="-61.2557128"><ele>-2.0</ele><time>2026-03-22T14:25:30.053Z</time></trkpt><trkpt lat="16.292729" lon="-61.2557013"><ele>-1.9999999999999998</ele><time>2026-03-22T14:25:32.046Z</time></trkpt><trkpt lat="16.2926441" lon="-61.2556689"><ele>-2.0</ele><time>2026-03-22T14:25:38.994Z</time></trkpt><trkpt lat="16.2925813" lon="-61.2556136"><ele>-2.0</ele><time>2026-03-22T14:25:48.965Z</time></trkpt><trkpt lat="16.2925088" lon="-61.2555359"><ele>-2.0</ele><time>2026-03-22T14:25:50.998Z</time></trkpt><trkpt lat="16.2924452" lon="-61.2554793"><ele>-1.9999999999999998</ele><time>2026-03-22T14:25:51.994Z</time></trkpt><trkpt lat="16.292376" lon="-61.2554276"><ele>-2.0</ele><time>2026-03-22T14:25:52.984Z</time></trkpt><trkpt lat="16.29232" lon="-61.2553814"><ele>-1.9999999999999998</ele><time>2026-03-22T14:25:53.991Z</time></trkpt><trkpt lat="16.2922773" lon="-61.2553264"><ele>-2.0</ele><time>2026-03-22T14:25:54.993Z</time></trkpt><trkpt lat="16.2922363" lon="-61.2552044"><ele>-2.0</ele><time>2026-03-22T14:25:56.988Z</time></trkpt><trkpt lat="16.2922349" lon="-61.2551227"><ele>-2.0</ele><time>2026-03-22T14:25:57.978Z</time></trkpt><trkpt lat="16.2922327" lon="-61.2550405"><ele>-1.9999999999999998</ele><time>2026-03-22T14:25:59.005Z</time></trkpt><trkpt lat="16.2922228" lon="-61.2549644"><ele>-2.0</ele><time>2026-03-22T14:25:59.993Z</time></trkpt><trkpt lat="16.292183" lon="-61.2549009"><ele>-1.9999999999999998</ele><time>2026-03-22T14:26:01.004Z</time></trkpt><trkpt lat="16.2921265" lon="-61.2548419"><ele>-2.0</ele><time>2026-03-22T14:26:01.988Z</time></trkpt><trkpt lat="16.2920598" lon="-61.2547775"><ele>-2.0</ele><time>2026-03-22T14:26:02.985Z</time></trkpt><trkpt lat="16.2919932" lon="-61.2547097"><ele>-2.0</ele><time>2026-03-22T14:26:03.992Z</time></trkpt><trkpt lat="16.2919358" lon="-61.2546383"><ele>-1.9999999999999998</ele><time>2026-03-22T14:26:04.989Z</time></trkpt><trkpt lat="16.2918894" lon="-61.2545616"><ele>-2.0</ele><time>2026-03-22T14:26:05.977Z</time></trkpt><trkpt lat="16.291847" lon="-61.2544855"><ele>-2.0</ele><time>2026-03-22T14:26:06.987Z</time></trkpt><trkpt lat="16.2918073" lon="-61.2544138"><ele>-1.9999999999999998</ele><time>2026-03-22T14:26:07.993Z</time></trkpt><trkpt lat="16.2917632" lon="-61.2543513"><ele>-2.0</ele><time>2026-03-22T14:26:08.995Z</time></trkpt><trkpt lat="16.2917134" lon="-61.2543005"><ele>-2.0</ele><time>2026-03-22T14:26:09.991Z</time></trkpt><trkpt lat="16.2916527" lon="-61.2542577"><ele>-1.9999999999999998</ele><time>2026-03-22T14:26:10.994Z</time></trkpt><trkpt lat="16.2915861" lon="-61.2542138"><ele>-2.0</ele><time>2026-03-22T14:26:11.99Z</time></trkpt><trkpt lat="16.2915241" lon="-61.2541793"><ele>-2.0</ele><time>2026-03-22T14:26:12.996Z</time></trkpt><trkpt lat="16.2914612" lon="-61.2541509"><ele>-1.6</ele><time>2026-03-22T14:26:13.972Z</time></trkpt><trkpt lat="16.291396" lon="-61.254105"><ele>-1.2000000000000002</ele><time>2026-03-22T14:26:15.994Z</time></trkpt><trkpt lat="16.2913693" lon="-61.2539861"><ele>-0.8</ele><time>2026-03-22T14:26:17.962Z</time></trkpt><trkpt lat="16.2913412" lon="-61.2539192"><ele>-0.4</ele><time>2026-03-22T14:26:18.979Z</time></trkpt><trkpt lat="16.2912714" lon="-61.2538239"><ele>0.0</ele><time>2026-03-22T14:26:20.984Z</time></trkpt><trkpt lat="16.2911827" lon="-61.253738"><ele>0.0</ele><time>2026-03-22T14:26:22.979Z</time></trkpt><trkpt lat="16.2911294" lon="-61.2537022"><ele>0.0</ele><time>2026-03-22T14:26:23.995Z</time></trkpt><trkpt lat="16.2910605" lon="-61.2536422"><ele>0.0</ele><time>2026-03-22T14:26:26.005Z</time></trkpt><trkpt lat="16.2910396" lon="-61.2535493"><ele>0.0</ele><time>2026-03-22T14:26:27.99Z</time></trkpt><trkpt lat="16.2910154" lon="-61.2534779"><ele>0.0</ele><time>2026-03-22T14:26:28.982Z</time></trkpt><trkpt lat="16.2909966" lon="-61.2533952"><ele>0.0</ele><time>2026-03-22T14:26:29.97Z</time></trkpt><trkpt lat="16.2909845" lon="-61.2533064"><ele>0.0</ele><time>2026-03-22T14:26:30.982Z</time></trkpt><trkpt lat="16.2909762" lon="-61.2532165"><ele>0.0</ele><time>2026-03-22T14:26:32Z</time></trkpt><trkpt lat="16.2909671" lon="-61.2531426"><ele>0.0</ele><time>2026-03-22T14:26:32.996Z</time></trkpt><trkpt lat="16.2909153" lon="-61.2530356"><ele>0.0</ele><time>2026-03-22T14:26:34.975Z</time></trkpt><trkpt lat="16.2908661" lon="-61.2529908"><ele>0.0</ele><time>2026-03-22T14:26:35.989Z</time></trkpt><trkpt lat="16.2908021" lon="-61.25295"><ele>0.0</ele><time>2026-03-22T14:26:36.987Z</time></trkpt><trkpt lat="16.2907276" lon="-61.2529103"><ele>-0.16666666666666666</ele><time>2026-03-22T14:26:37.991Z</time></trkpt><trkpt lat="16.2906452" lon="-61.2528599"><ele>-0.3333333333333333</ele><time>2026-03-22T14:26:38.971Z</time></trkpt><trkpt lat="16.2905565" lon="-61.2528121"><ele>-0.5</ele><time>2026-03-22T14:26:39.998Z</time></trkpt><trkpt lat="16.2904783" lon="-61.2527607"><ele>-0.6666666666666666</ele><time>2026-03-22T14:26:40.997Z</time></trkpt><trkpt lat="16.2904045" lon="-61.2527164"><ele>-0.8333333333333333</ele><time>2026-03-22T14:26:42Z</time></trkpt><trkpt lat="16.2903422" lon="-61.2526729"><ele>-1.0</ele><time>2026-03-22T14:26:42.994Z</time></trkpt><trkpt lat="16.2902829" lon="-61.2526309"><ele>-0.9999999999999999</ele><time>2026-03-22T14:26:43.99Z</time></trkpt><trkpt lat="16.290222" lon="-61.2525933"><ele>-1.0</ele><time>2026-03-22T14:26:44.99Z</time></trkpt><trkpt lat="16.2901601" lon="-61.2525565"><ele>-1.0</ele><time>2026-03-22T14:26:45.995Z</time></trkpt><trkpt lat="16.290105" lon="-61.2525138"><ele>-1.0</ele><time>2026-03-22T14:26:46.984Z</time></trkpt><trkpt lat="16.2900501" lon="-61.2524621"><ele>-0.9999999999999999</ele><time>2026-03-22T14:26:47.987Z</time></trkpt><trkpt lat="16.2899827" lon="-61.2524133"><ele>-1.0</ele><time>2026-03-22T14:26:48.997Z</time></trkpt><trkpt lat="16.2899138" lon="-61.2523579"><ele>-1.0</ele><time>2026-03-22T14:26:49.974Z</time></trkpt><trkpt lat="16.2898437" lon="-61.2523062"><ele>-1.0</ele><time>2026-03-22T14:26:50.994Z</time></trkpt><trkpt lat="16.2897787" lon="-61.2522545"><ele>-1.0</ele><time>2026-03-22T14:26:51.992Z</time></trkpt><trkpt lat="16.2897153" lon="-61.2521979"><ele>-1.0</ele><time>2026-03-22T14:26:52.996Z</time></trkpt><trkpt lat="16.2896597" lon="-61.2521497"><ele>-1.0</ele><time>2026-03-22T14:26:53.994Z</time></trkpt><trkpt lat="16.2895395" lon="-61.2520905"><ele>-0.9999999999999999</ele><time>2026-03-22T14:26:55.989Z</time></trkpt><trkpt lat="16.2894628" lon="-61.2520651"><ele>-1.0</ele><time>2026-03-22T14:26:56.992Z</time></trkpt><trkpt lat="16.2893835" lon="-61.2520399"><ele>-1.0</ele><time>2026-03-22T14:26:57.997Z</time></trkpt><trkpt lat="16.2893074" lon="-61.2520122"><ele>-1.0</ele><time>2026-03-22T14:26:58.991Z</time></trkpt><trkpt lat="16.2892284" lon="-61.2519841"><ele>-0.9999999999999999</ele><time>2026-03-22T14:26:59.999Z</time></trkpt><trkpt lat="16.2891497" lon="-61.2519614"><ele>-1.0</ele><time>2026-03-22T14:27:01Z</time></trkpt><trkpt lat="16.2890763" lon="-61.2519378"><ele>-1.0</ele><time>2026-03-22T14:27:01.996Z</time></trkpt><trkpt lat="16.2890144" lon="-61.2519174"><ele>-1.0</ele><time>2026-03-22T14:27:02.988Z</time></trkpt><trkpt lat="16.288917" lon="-61.2518578"><ele>-1.0</ele><time>2026-03-22T14:27:04.995Z</time></trkpt><trkpt lat="16.2888655" lon="-61.2517604"><ele>-1.0</ele><time>2026-03-22T14:27:06.989Z</time></trkpt><trkpt lat="16.2887968" lon="-61.2516651"><ele>-1.0</ele><time>2026-03-22T14:27:08.992Z</time></trkpt><trkpt lat="16.2886841" lon="-61.2515956"><ele>-0.9999999999999999</ele><time>2026-03-22T14:27:10.988Z</time></trkpt><trkpt lat="16.2886078" lon="-61.2515574"><ele>-1.0</ele><time>2026-03-22T14:27:11.993Z</time></trkpt><trkpt lat="16.2885243" lon="-61.2515137"><ele>-1.0</ele><time>2026-03-22T14:27:12.978Z</time></trkpt><trkpt lat="16.2884411" lon="-61.2514751"><ele>-1.0</ele><time>2026-03-22T14:27:13.99Z</time></trkpt><trkpt lat="16.2883659" lon="-61.2514521"><ele>-0.9999999999999999</ele><time>2026-03-22T14:27:14.993Z</time></trkpt><trkpt lat="16.2882958" lon="-61.2514318"><ele>-1.0</ele><time>2026-03-22T14:27:15.994Z</time></trkpt><trkpt lat="16.2881807" lon="-61.251392"><ele>-0.9999999999999999</ele><time>2026-03-22T14:27:17.977Z</time></trkpt><trkpt lat="16.2881264" lon="-61.2513582"><ele>-1.0</ele><time>2026-03-22T14:27:18.997Z</time></trkpt><trkpt lat="16.2880685" lon="-61.2513104"><ele>-1.0</ele><time>2026-03-22T14:27:19.999Z</time></trkpt><trkpt lat="16.2880022" lon="-61.2512493"><ele>-1.0</ele><time>2026-03-22T14:27:20.998Z</time></trkpt><trkpt lat="16.2879249" lon="-61.2511866"><ele>-0.9999999999999999</ele><time>2026-03-22T14:27:21.995Z</time></trkpt><trkpt lat="16.2878461" lon="-61.2511287"><ele>-1.0</ele><time>2026-03-22T14:27:22.984Z</time></trkpt><trkpt lat="16.2877609" lon="-61.2510747"><ele>-0.8333333333333333</ele><time>2026-03-22T14:27:23.994Z</time></trkpt><trkpt lat="16.2876804" lon="-61.2510307"><ele>-0.6666666666666666</ele><time>2026-03-22T14:27:24.998Z</time></trkpt><trkpt lat="16.2876024" lon="-61.2510021"><ele>-0.5</ele><time>2026-03-22T14:27:26Z</time></trkpt><trkpt lat="16.2875161" lon="-61.2509878"><ele>-0.3333333333333333</ele><time>2026-03-22T14:27:27.003Z</time></trkpt><trkpt lat="16.2874276" lon="-61.2509622"><ele>-0.16666666666666666</ele><time>2026-03-22T14:27:27.957Z</time></trkpt><trkpt lat="16.2873487" lon="-61.2509214"><ele>0.0</ele><time>2026-03-22T14:27:28.977Z</time></trkpt><trkpt lat="16.2872727" lon="-61.2508829"><ele>0.6</ele><time>2026-03-22T14:27:29.985Z</time></trkpt><trkpt lat="16.2871947" lon="-61.2508342"><ele>1.2</ele><time>2026-03-22T14:27:30.955Z</time></trkpt><trkpt lat="16.287109" lon="-61.2507733"><ele>1.7999999999999998</ele><time>2026-03-22T14:27:31.962Z</time></trkpt><trkpt lat="16.2870224" lon="-61.250712"><ele>2.4</ele><time>2026-03-22T14:27:32.986Z</time></trkpt><trkpt lat="16.2869363" lon="-61.2506521"><ele>3.0</ele><time>2026-03-22T14:27:33.986Z</time></trkpt><trkpt lat="16.2868491" lon="-61.250597"><ele>2.1999999999999997</ele><time>2026-03-22T14:27:34.989Z</time></trkpt><trkpt lat="16.2867586" lon="-61.2505415"><ele>1.4</ele><time>2026-03-22T14:27:35.958Z</time></trkpt><trkpt lat="16.2866694" lon="-61.2504924"><ele>0.5999999999999999</ele><time>2026-03-22T14:27:36.959Z</time></trkpt><trkpt lat="16.2865841" lon="-61.2504547"><ele>-0.20000000000000007</ele><time>2026-03-22T14:27:37.994Z</time></trkpt><trkpt lat="16.286503" lon="-61.2504297"><ele>-1.0</ele><time>2026-03-22T14:27:38.982Z</time></trkpt><trkpt lat="16.2864247" lon="-61.2504126"><ele>-1.0</ele><time>2026-03-22T14:27:39.948Z</time></trkpt><trkpt lat="16.2863459" lon="-61.2503956"><ele>-1.0</ele><time>2026-03-22T14:27:40.979Z</time></trkpt><trkpt lat="16.2862709" lon="-61.2503724"><ele>-1.0</ele><time>2026-03-22T14:27:41.992Z</time></trkpt><trkpt lat="16.2861927" lon="-61.2503299"><ele>-1.0</ele><time>2026-03-22T14:27:42.987Z</time></trkpt><trkpt lat="16.2861085" lon="-61.2502713"><ele>-1.0</ele><time>2026-03-22T14:27:43.997Z</time></trkpt><trkpt lat="16.2860227" lon="-61.250213"><ele>-1.0</ele><time>2026-03-22T14:27:44.998Z</time></trkpt><trkpt lat="16.2859351" lon="-61.2501505"><ele>-1.0</ele><time>2026-03-22T14:27:45.992Z</time></trkpt><trkpt lat="16.2858464" lon="-61.2500876"><ele>-1.0</ele><time>2026-03-22T14:27:46.968Z</time></trkpt><trkpt lat="16.2857565" lon="-61.2500248"><ele>-1.0</ele><time>2026-03-22T14:27:47.982Z</time></trkpt><trkpt lat="16.2856686" lon="-61.2499712"><ele>-1.0</ele><time>2026-03-22T14:27:48.983Z</time></trkpt><trkpt lat="16.2855773" lon="-61.2499224"><ele>-0.8</ele><time>2026-03-22T14:27:49.986Z</time></trkpt><trkpt lat="16.2854804" lon="-61.2498846"><ele>-0.6000000000000001</ele><time>2026-03-22T14:27:50.989Z</time></trkpt><trkpt lat="16.2853876" lon="-61.2498435"><ele>-0.4</ele><time>2026-03-22T14:27:51.996Z</time></trkpt><trkpt lat="16.2852889" lon="-61.249802"><ele>-0.2</ele><time>2026-03-22T14:27:52.956Z</time></trkpt><trkpt lat="16.2851883" lon="-61.2497595"><ele>0.0</ele><time>2026-03-22T14:27:53.98Z</time></trkpt><trkpt lat="16.2850911" lon="-61.2497171"><ele>-0.2</ele><time>2026-03-22T14:27:54.973Z</time></trkpt><trkpt lat="16.284999" lon="-61.249667"><ele>-0.4</ele><time>2026-03-22T14:27:55.988Z</time></trkpt><trkpt lat="16.28491" lon="-61.2496003"><ele>-0.6000000000000001</ele><time>2026-03-22T14:27:56.996Z</time></trkpt><trkpt lat="16.2848224" lon="-61.2495317"><ele>-0.8</ele><time>2026-03-22T14:27:57.992Z</time></trkpt><trkpt lat="16.2847255" lon="-61.2494775"><ele>-1.0</ele><time>2026-03-22T14:27:58.984Z</time></trkpt><trkpt lat="16.284624" lon="-61.2494356"><ele>-0.9999999999999999</ele><time>2026-03-22T14:28:00.004Z</time></trkpt><trkpt lat="16.2845228" lon="-61.2493931"><ele>-1.0</ele><time>2026-03-22T14:28:01.009Z</time></trkpt><trkpt lat="16.2844271" lon="-61.2493577"><ele>-1.0</ele><time>2026-03-22T14:28:01.976Z</time></trkpt><trkpt lat="16.2843437" lon="-61.2493385"><ele>-1.0</ele><time>2026-03-22T14:28:02.986Z</time></trkpt><trkpt lat="16.2842745" lon="-61.249318"><ele>-0.9999999999999999</ele><time>2026-03-22T14:28:03.976Z</time></trkpt><trkpt lat="16.284203" lon="-61.2492778"><ele>-1.0</ele><time>2026-03-22T14:28:04.999Z</time></trkpt><trkpt lat="16.2841289" lon="-61.2492048"><ele>-1.0</ele><time>2026-03-22T14:28:05.995Z</time></trkpt><trkpt lat="16.2840537" lon="-61.2491305"><ele>-1.0</ele><time>2026-03-22T14:28:06.977Z</time></trkpt><trkpt lat="16.2839785" lon="-61.2490464"><ele>-1.0</ele><time>2026-03-22T14:28:07.989Z</time></trkpt><trkpt lat="16.2839104" lon="-61.2489566"><ele>-1.0</ele><time>2026-03-22T14:28:08.992Z</time></trkpt><trkpt lat="16.2838462" lon="-61.2488733"><ele>-1.0</ele><time>2026-03-22T14:28:09.988Z</time></trkpt><trkpt lat="16.2837951" lon="-61.2488056"><ele>-0.8333333333333333</ele><time>2026-03-22T14:28:10.983Z</time></trkpt><trkpt lat="16.283715" lon="-61.2487528"><ele>-0.6666666666666666</ele><time>2026-03-22T14:28:12.999Z</time></trkpt><trkpt lat="16.2836228" lon="-61.2487798"><ele>-0.5</ele><time>2026-03-22T14:28:15Z</time></trkpt><trkpt lat="16.283565" lon="-61.2488138"><ele>-0.3333333333333333</ele><time>2026-03-22T14:28:15.986Z</time></trkpt><trkpt lat="16.2834708" lon="-61.2488297"><ele>-0.16666666666666666</ele><time>2026-03-22T14:28:17.994Z</time></trkpt><trkpt lat="16.283431" lon="-61.2487782"><ele>0.0</ele><time>2026-03-22T14:28:18.997Z</time></trkpt><trkpt lat="16.2833813" lon="-61.248688"><ele>0.0</ele><time>2026-03-22T14:28:19.99Z</time></trkpt><trkpt lat="16.2833279" lon="-61.2486096"><ele>0.0</ele><time>2026-03-22T14:28:20.986Z</time></trkpt><trkpt lat="16.2832762" lon="-61.2485468"><ele>0.0</ele><time>2026-03-22T14:28:21.995Z</time></trkpt><trkpt lat="16.2832221" lon="-61.2485081"><ele>0.0</ele><time>2026-03-22T14:28:23.002Z</time></trkpt><trkpt lat="16.2831545" lon="-61.2484896"><ele>0.0</ele><time>2026-03-22T14:28:23.998Z</time></trkpt><trkpt lat="16.2830848" lon="-61.2484718"><ele>0.0</ele><time>2026-03-22T14:28:25Z</time></trkpt><trkpt lat="16.2830011" lon="-61.2484409"><ele>0.2857142857142857</ele><time>2026-03-22T14:28:25.993Z</time></trkpt><trkpt lat="16.2829285" lon="-61.2484084"><ele>0.5714285714285714</ele><time>2026-03-22T14:28:26.995Z</time></trkpt><trkpt lat="16.2828597" lon="-61.2483835"><ele>0.8571428571428571</ele><time>2026-03-22T14:28:27.983Z</time></trkpt><trkpt lat="16.2827901" lon="-61.2483502"><ele>1.1428571428571428</ele><time>2026-03-22T14:28:29Z</time></trkpt><trkpt lat="16.2827325" lon="-61.2483135"><ele>1.4285714285714284</ele><time>2026-03-22T14:28:29.99Z</time></trkpt><trkpt lat="16.2826671" lon="-61.2482575"><ele>1.7142857142857142</ele><time>2026-03-22T14:28:31.984Z</time></trkpt><trkpt lat="16.2826038" lon="-61.248236"><ele>2.0</ele><time>2026-03-22T14:28:34.993Z</time></trkpt><trkpt lat="16.2825515" lon="-61.2482758"><ele>2.0</ele><time>2026-03-22T14:28:36.991Z</time></trkpt><trkpt lat="16.2825686" lon="-61.2483491"><ele>2.0</ele><time>2026-03-22T14:28:38.963Z</time></trkpt><trkpt lat="16.2825121" lon="-61.2484431"><ele>2.0</ele><time>2026-03-22T14:28:41.975Z</time></trkpt><trkpt lat="16.2824357" lon="-61.2485231"><ele>2.0</ele><time>2026-03-22T14:28:43.99Z</time></trkpt><trkpt lat="16.2824569" lon="-61.2486249"><ele>2.0</ele><time>2026-03-22T14:28:46.967Z</time></trkpt><trkpt lat="16.282482" lon="-61.2487189"><ele>1.9999999999999998</ele><time>2026-03-22T14:28:48.998Z</time></trkpt><trkpt lat="16.2824442" lon="-61.2487729"><ele>2.0</ele><time>2026-03-22T14:28:50.993Z</time></trkpt><trkpt lat="16.2823765" lon="-61.248821"><ele>2.0</ele><time>2026-03-22T14:28:52.991Z</time></trkpt><trkpt lat="16.2823126" lon="-61.2488441"><ele>2.0</ele><time>2026-03-22T14:28:54.99Z</time></trkpt><trkpt lat="16.2822379" lon="-61.2488284"><ele>1.9999999999999998</ele><time>2026-03-22T14:28:56.993Z</time></trkpt><trkpt lat="16.2821534" lon="-61.2488042"><ele>2.0</ele><time>2026-03-22T14:28:58.991Z</time></trkpt><trkpt lat="16.2820946" lon="-61.2487602"><ele>2.2</ele><time>2026-03-22T14:29:01.981Z</time></trkpt><trkpt lat="16.2820192" lon="-61.2487248"><ele>2.4000000000000004</ele><time>2026-03-22T14:29:03.987Z</time></trkpt><trkpt lat="16.281946" lon="-61.2486552"><ele>2.5999999999999996</ele><time>2026-03-22T14:29:05.994Z</time></trkpt><trkpt lat="16.2818462" lon="-61.2486197"><ele>2.8</ele><time>2026-03-22T14:29:07.985Z</time></trkpt><trkpt lat="16.281742" lon="-61.2485398"><ele>3.0</ele><time>2026-03-22T14:29:09.989Z</time></trkpt><trkpt lat="16.2816898" lon="-61.2484893"><ele>3.0</ele><time>2026-03-22T14:29:10.981Z</time></trkpt><trkpt lat="16.2815685" lon="-61.2484734"><ele>3.0</ele><time>2026-03-22T14:29:12.984Z</time></trkpt><trkpt lat="16.2814882" lon="-61.2484752"><ele>3.0</ele><time>2026-03-22T14:29:14.98Z</time></trkpt><trkpt lat="16.2813859" lon="-61.248447"><ele>3.0</ele><time>2026-03-22T14:29:16.999Z</time></trkpt><trkpt lat="16.2813094" lon="-61.2484665"><ele>3.0</ele><time>2026-03-22T14:29:18.97Z</time></trkpt><trkpt lat="16.2812348" lon="-61.2484444"><ele>4.333333333333333</ele><time>2026-03-22T14:29:21.99Z</time></trkpt><trkpt lat="16.2811463" lon="-61.2483969"><ele>5.666666666666666</ele><time>2026-03-22T14:29:24.995Z</time></trkpt><trkpt lat="16.2810937" lon="-61.2483532"><ele>7.0</ele><time>2026-03-22T14:29:26.97Z</time></trkpt><trkpt lat="16.2810276" lon="-61.2483118"><ele>8.333333333333332</ele><time>2026-03-22T14:29:30.99Z</time></trkpt><trkpt lat="16.2809397" lon="-61.2482801"><ele>9.666666666666666</ele><time>2026-03-22T14:29:34.981Z</time></trkpt><trkpt lat="16.2808369" lon="-61.2482462"><ele>11.0</ele><time>2026-03-22T14:29:36.987Z</time></trkpt><trkpt lat="16.2807813" lon="-61.2482129"><ele>11.0</ele><time>2026-03-22T14:29:37.991Z</time></trkpt><trkpt lat="16.280703" lon="-61.2481575"><ele>11.0</ele><time>2026-03-22T14:29:39.969Z</time></trkpt><trkpt lat="16.2806377" lon="-61.2480996"><ele>11.0</ele><time>2026-03-22T14:29:41.986Z</time></trkpt><trkpt lat="16.2805778" lon="-61.2480626"><ele>11.0</ele><time>2026-03-22T14:29:43.99Z</time></trkpt><trkpt lat="16.2804957" lon="-61.2480264"><ele>11.0</ele><time>2026-03-22T14:29:45.999Z</time></trkpt><trkpt lat="16.2804356" lon="-61.2479736"><ele>11.0</ele><time>2026-03-22T14:29:46.975Z</time></trkpt><trkpt lat="16.2803796" lon="-61.2479266"><ele>9.666666666666666</ele><time>2026-03-22T14:29:47.982Z</time></trkpt><trkpt lat="16.2803212" lon="-61.2478663"><ele>8.333333333333332</ele><time>2026-03-22T14:29:48.992Z</time></trkpt><trkpt lat="16.2802666" lon="-61.2478263"><ele>7.0</ele><time>2026-03-22T14:29:49.999Z</time></trkpt><trkpt lat="16.2801472" lon="-61.2477904"><ele>5.666666666666666</ele><time>2026-03-22T14:29:51.99Z</time></trkpt><trkpt lat="16.2800624" lon="-61.2477771"><ele>4.333333333333333</ele><time>2026-03-22T14:29:53.965Z</time></trkpt><trkpt lat="16.2799819" lon="-61.2477772"><ele>3.0</ele><time>2026-03-22T14:30:02.981Z</time></trkpt><trkpt lat="16.2799221" lon="-61.2478083"><ele>3.0</ele><time>2026-03-22T14:30:07.988Z</time></trkpt><trkpt lat="16.2798601" lon="-61.2478321"><ele>3.0</ele><time>2026-03-22T14:30:24.987Z</time></trkpt><trkpt lat="16.2797946" lon="-61.2478699"><ele>3.0</ele><time>2026-03-22T14:30:31.976Z</time></trkpt><trkpt lat="16.2797175" lon="-61.2478734"><ele>3.0</ele><time>2026-03-22T14:30:35.979Z</time></trkpt><trkpt lat="16.279627" lon="-61.247879"><ele>3.0</ele><time>2026-03-22T14:30:38.974Z</time></trkpt><trkpt lat="16.2795584" lon="-61.2479002"><ele>3.0</ele><time>2026-03-22T14:30:40.986Z</time></trkpt><trkpt lat="16.2794786" lon="-61.247901"><ele>3.666666666666667</ele><time>2026-03-22T14:30:42.985Z</time></trkpt><trkpt lat="16.2793929" lon="-61.2479067"><ele>4.333333333333334</ele><time>2026-03-22T14:30:44.985Z</time></trkpt><trkpt lat="16.2793198" lon="-61.2479264"><ele>5.0</ele><time>2026-03-22T14:30:46.964Z</time></trkpt><trkpt lat="16.2792559" lon="-61.2479603"><ele>5.666666666666667</ele><time>2026-03-22T14:30:48.973Z</time></trkpt><trkpt lat="16.2791975" lon="-61.2480047"><ele>6.333333333333334</ele><time>2026-03-22T14:30:50.988Z</time></trkpt><trkpt lat="16.2791558" lon="-61.2480587"><ele>7.0</ele><time>2026-03-22T14:30:54.985Z</time></trkpt><trkpt lat="16.2791901" lon="-61.2481461"><ele>9.0</ele><time>2026-03-22T14:31:17.946Z</time></trkpt><trkpt lat="16.2791845" lon="-61.2482211"><ele>11.0</ele><time>2026-03-22T14:31:20.978Z</time></trkpt><trkpt lat="16.2791653" lon="-61.2482929"><ele>13.0</ele><time>2026-03-22T14:31:23.957Z</time></trkpt><trkpt lat="16.2791628" lon="-61.2483615"><ele>15.0</ele><time>2026-03-22T14:31:26.986Z</time></trkpt><trkpt lat="16.2792046" lon="-61.2484366"><ele>17.0</ele><time>2026-03-22T14:31:28.986Z</time></trkpt><trkpt lat="16.2792656" lon="-61.2484967"><ele>19.0</ele><time>2026-03-22T14:31:29.993Z</time></trkpt><trkpt lat="16.2793422" lon="-61.2485556"><ele>19.0</ele><time>2026-03-22T14:31:30.989Z</time></trkpt><trkpt lat="16.2794263" lon="-61.2486228"><ele>19.0</ele><time>2026-03-22T14:31:31.994Z</time></trkpt><trkpt lat="16.279504" lon="-61.2486976"><ele>19.0</ele><time>2026-03-22T14:31:32.991Z</time></trkpt><trkpt lat="16.279581" lon="-61.2487634"><ele>19.0</ele><time>2026-03-22T14:31:33.978Z</time></trkpt><trkpt lat="16.2796674" lon="-61.2488251"><ele>19.0</ele><time>2026-03-22T14:31:34.999Z</time></trkpt><trkpt lat="16.279751" lon="-61.2488971"><ele>18.8</ele><time>2026-03-22T14:31:35.99Z</time></trkpt><trkpt lat="16.2798328" lon="-61.2489588"><ele>18.599999999999998</ele><time>2026-03-22T14:31:36.992Z</time></trkpt><trkpt lat="16.2799114" lon="-61.2490218"><ele>18.4</ele><time>2026-03-22T14:31:37.974Z</time></trkpt><trkpt lat="16.2799848" lon="-61.249075"><ele>18.2</ele><time>2026-03-22T14:31:38.981Z</time></trkpt><trkpt lat="16.280063" lon="-61.2491259"><ele>18.0</ele><time>2026-03-22T14:31:39.999Z</time></trkpt><trkpt lat="16.2801479" lon="-61.2491786"><ele>20.2</ele><time>2026-03-22T14:31:40.974Z</time></trkpt><trkpt lat="16.2802301" lon="-61.2492403"><ele>22.4</ele><time>2026-03-22T14:31:41.982Z</time></trkpt><trkpt lat="16.2803096" lon="-61.2493057"><ele>24.599999999999998</ele><time>2026-03-22T14:31:43.034Z</time></trkpt><trkpt lat="16.2803916" lon="-61.249369"><ele>26.8</ele><time>2026-03-22T14:31:43.99Z</time></trkpt><trkpt lat="16.2804719" lon="-61.2494263"><ele>29.0</ele><time>2026-03-22T14:31:44.992Z</time></trkpt><trkpt lat="16.2805513" lon="-61.249486"><ele>27.4</ele><time>2026-03-22T14:31:45.973Z</time></trkpt><trkpt lat="16.2806441" lon="-61.2495453"><ele>25.799999999999997</ele><time>2026-03-22T14:31:46.99Z</time></trkpt><trkpt lat="16.2807391" lon="-61.2495987"><ele>24.200000000000003</ele><time>2026-03-22T14:31:47.989Z</time></trkpt><trkpt lat="16.2808277" lon="-61.2496609"><ele>22.6</ele><time>2026-03-22T14:31:48.987Z</time></trkpt><trkpt lat="16.2809012" lon="-61.2497202"><ele>21.0</ele><time>2026-03-22T14:31:49.988Z</time></trkpt><trkpt lat="16.2809664" lon="-61.2497842"><ele>23.0</ele><time>2026-03-22T14:31:51.04Z</time></trkpt><trkpt lat="16.2810022" lon="-61.2498469"><ele>25.0</ele><time>2026-03-22T14:31:52.037Z</time></trkpt><trkpt lat="16.2809887" lon="-61.2499177"><ele>27.0</ele><time>2026-03-22T14:31:52.986Z</time></trkpt><trkpt lat="16.2809601" lon="-61.2500062"><ele>29.0</ele><time>2026-03-22T14:31:53.979Z</time></trkpt><trkpt lat="16.2809296" lon="-61.2500917"><ele>31.0</ele><time>2026-03-22T14:31:54.992Z</time></trkpt><trkpt lat="16.2808966" lon="-61.2501836"><ele>33.0</ele><time>2026-03-22T14:31:55.983Z</time></trkpt><trkpt lat="16.2808571" lon="-61.2502848"><ele>33.0</ele><time>2026-03-22T14:31:56.987Z</time></trkpt><trkpt lat="16.2808254" lon="-61.2503894"><ele>33.0</ele><time>2026-03-22T14:31:57.994Z</time></trkpt><trkpt lat="16.280796" lon="-61.2505019"><ele>33.0</ele><time>2026-03-22T14:31:58.989Z</time></trkpt><trkpt lat="16.2807661" lon="-61.2506208"><ele>33.0</ele><time>2026-03-22T14:32:00.052Z</time></trkpt><trkpt lat="16.2807321" lon="-61.250745"><ele>35.25</ele><time>2026-03-22T14:32:01.038Z</time></trkpt><trkpt lat="16.280695" lon="-61.250861"><ele>37.5</ele><time>2026-03-22T14:32:02.037Z</time></trkpt><trkpt lat="16.2806546" lon="-61.2509754"><ele>39.75</ele><time>2026-03-22T14:32:02.979Z</time></trkpt><trkpt lat="16.2806085" lon="-61.2510899"><ele>42.0</ele><time>2026-03-22T14:32:03.99Z</time></trkpt><trkpt lat="16.2805458" lon="-61.2512001"><ele>43.0</ele><time>2026-03-22T14:32:04.987Z</time></trkpt><trkpt lat="16.2804657" lon="-61.2512939"><ele>44.0</ele><time>2026-03-22T14:32:05.992Z</time></trkpt><trkpt lat="16.2803782" lon="-61.2513823"><ele>45.0</ele><time>2026-03-22T14:32:06.999Z</time></trkpt><trkpt lat="16.2802917" lon="-61.2514697"><ele>46.0</ele><time>2026-03-22T14:32:08.038Z</time></trkpt><trkpt lat="16.2802204" lon="-61.2515528"><ele>46.0</ele><time>2026-03-22T14:32:08.996Z</time></trkpt><trkpt lat="16.2801691" lon="-61.2516311"><ele>46.0</ele><time>2026-03-22T14:32:09.974Z</time></trkpt><trkpt lat="16.2801645" lon="-61.251707"><ele>46.0</ele><time>2026-03-22T14:32:11.046Z</time></trkpt><trkpt lat="16.2802103" lon="-61.2517812"><ele>46.0</ele><time>2026-03-22T14:32:12.042Z</time></trkpt><trkpt lat="16.2802663" lon="-61.2518738"><ele>46.0</ele><time>2026-03-22T14:32:13.016Z</time></trkpt><trkpt lat="16.2803134" lon="-61.2519744"><ele>46.0</ele><time>2026-03-22T14:32:13.977Z</time></trkpt><trkpt lat="16.2803612" lon="-61.2520793"><ele>46.0</ele><time>2026-03-22T14:32:14.979Z</time></trkpt><trkpt lat="16.280382" lon="-61.2521955"><ele>46.0</ele><time>2026-03-22T14:32:16.054Z</time></trkpt><trkpt lat="16.2803862" lon="-61.252316"><ele>46.0</ele><time>2026-03-22T14:32:17.032Z</time></trkpt><trkpt lat="16.2803729" lon="-61.2524392"><ele>46.199999999999996</ele><time>2026-03-22T14:32:18.039Z</time></trkpt><trkpt lat="16.2803469" lon="-61.2525602"><ele>46.4</ele><time>2026-03-22T14:32:18.987Z</time></trkpt><trkpt lat="16.2803279" lon="-61.2526789"><ele>46.6</ele><time>2026-03-22T14:32:19.988Z</time></trkpt><trkpt lat="16.2803175" lon="-61.2527863"><ele>46.8</ele><time>2026-03-22T14:32:20.966Z</time></trkpt><trkpt lat="16.2803363" lon="-61.2528763"><ele>47.0</ele><time>2026-03-22T14:32:22.057Z</time></trkpt><trkpt lat="16.2803732" lon="-61.2529481"><ele>47.0</ele><time>2026-03-22T14:32:23.053Z</time></trkpt><trkpt lat="16.2804386" lon="-61.2530316"><ele>47.0</ele><time>2026-03-22T14:32:23.959Z</time></trkpt><trkpt lat="16.2805281" lon="-61.2531029"><ele>47.0</ele><time>2026-03-22T14:32:25.044Z</time></trkpt><trkpt lat="16.2806194" lon="-61.2531864"><ele>47.0</ele><time>2026-03-22T14:32:26.064Z</time></trkpt><trkpt lat="16.2807062" lon="-61.2532767"><ele>47.5</ele><time>2026-03-22T14:32:27.057Z</time></trkpt><trkpt lat="16.2807963" lon="-61.2533613"><ele>48.0</ele><time>2026-03-22T14:32:28.062Z</time></trkpt><trkpt lat="16.2808949" lon="-61.2534344"><ele>48.5</ele><time>2026-03-22T14:32:29.018Z</time></trkpt><trkpt lat="16.2809945" lon="-61.2535123"><ele>49.0</ele><time>2026-03-22T14:32:30.027Z</time></trkpt><trkpt lat="16.2810881" lon="-61.2535835"><ele>49.0</ele><time>2026-03-22T14:32:31.016Z</time></trkpt><trkpt lat="16.2811797" lon="-61.2536591"><ele>49.0</ele><time>2026-03-22T14:32:32.012Z</time></trkpt><trkpt lat="16.2812786" lon="-61.2537257"><ele>49.0</ele><time>2026-03-22T14:32:33.074Z</time></trkpt><trkpt lat="16.2813705" lon="-61.2537904"><ele>49.0</ele><time>2026-03-22T14:32:34.018Z</time></trkpt><trkpt lat="16.2814606" lon="-61.2538587"><ele>48.800000000000004</ele><time>2026-03-22T14:32:35.018Z</time></trkpt><trkpt lat="16.2815448" lon="-61.2539324"><ele>48.6</ele><time>2026-03-22T14:32:36.019Z</time></trkpt><trkpt lat="16.2816167" lon="-61.2540145"><ele>48.4</ele><time>2026-03-22T14:32:37.017Z</time></trkpt><trkpt lat="16.2816616" lon="-61.2541157"><ele>48.2</ele><time>2026-03-22T14:32:38.027Z</time></trkpt><trkpt lat="16.281674" lon="-61.2542299"><ele>48.0</ele><time>2026-03-22T14:32:39.018Z</time></trkpt><trkpt lat="16.281671" lon="-61.2543494"><ele>48.0</ele><time>2026-03-22T14:32:40.02Z</time></trkpt><trkpt lat="16.28166" lon="-61.2544706"><ele>48.0</ele><time>2026-03-22T14:32:41.034Z</time></trkpt><trkpt lat="16.2816554" lon="-61.2545878"><ele>48.0</ele><time>2026-03-22T14:32:42.049Z</time></trkpt><trkpt lat="16.2816466" lon="-61.254705"><ele>48.0</ele><time>2026-03-22T14:32:43.044Z</time></trkpt><trkpt lat="16.2816378" lon="-61.2548243"><ele>47.75</ele><time>2026-03-22T14:32:44.002Z</time></trkpt><trkpt lat="16.2816315" lon="-61.254948"><ele>47.5</ele><time>2026-03-22T14:32:44.99Z</time></trkpt><trkpt lat="16.2816364" lon="-61.2550636"><ele>47.25</ele><time>2026-03-22T14:32:45.99Z</time></trkpt><trkpt lat="16.2816512" lon="-61.2551825"><ele>47.0</ele><time>2026-03-22T14:32:46.999Z</time></trkpt><trkpt lat="16.2816787" lon="-61.2552941"><ele>47.0</ele><time>2026-03-22T14:32:47.998Z</time></trkpt><trkpt lat="16.2817053" lon="-61.2554059"><ele>47.0</ele><time>2026-03-22T14:32:48.963Z</time></trkpt><trkpt lat="16.2817368" lon="-61.255522"><ele>47.0</ele><time>2026-03-22T14:32:49.99Z</time></trkpt><trkpt lat="16.2817656" lon="-61.2556402"><ele>47.0</ele><time>2026-03-22T14:32:51.067Z</time></trkpt><trkpt lat="16.2817959" lon="-61.2557567"><ele>47.0</ele><time>2026-03-22T14:32:52.017Z</time></trkpt><trkpt lat="16.2818285" lon="-61.255872"><ele>47.0</ele><time>2026-03-22T14:32:53.02Z</time></trkpt><trkpt lat="16.2818669" lon="-61.2559821"><ele>47.0</ele><time>2026-03-22T14:32:53.988Z</time></trkpt><trkpt lat="16.2819066" lon="-61.2560894"><ele>47.0</ele><time>2026-03-22T14:32:54.996Z</time></trkpt><trkpt lat="16.2819463" lon="-61.2562022"><ele>47.0</ele><time>2026-03-22T14:32:55.992Z</time></trkpt><trkpt lat="16.2819891" lon="-61.2563168"><ele>47.0</ele><time>2026-03-22T14:32:57.011Z</time></trkpt><trkpt lat="16.2820262" lon="-61.2564291"><ele>47.0</ele><time>2026-03-22T14:32:58.003Z</time></trkpt><trkpt lat="16.2820619" lon="-61.256545"><ele>47.0</ele><time>2026-03-22T14:32:58.995Z</time></trkpt><trkpt lat="16.2820954" lon="-61.2566595"><ele>46.5</ele><time>2026-03-22T14:32:59.998Z</time></trkpt><trkpt lat="16.2821348" lon="-61.2567794"><ele>46.0</ele><time>2026-03-22T14:33:00.992Z</time></trkpt><trkpt lat="16.2821691" lon="-61.2568973"><ele>45.5</ele><time>2026-03-22T14:33:02.073Z</time></trkpt><trkpt lat="16.2822051" lon="-61.25701"><ele>45.0</ele><time>2026-03-22T14:33:03.099Z</time></trkpt><trkpt lat="16.2822851" lon="-61.2572325"><ele>45.25</ele><time>2026-03-22T14:33:05.002Z</time></trkpt><trkpt lat="16.2823254" lon="-61.2573481"><ele>45.5</ele><time>2026-03-22T14:33:05.98Z</time></trkpt><trkpt lat="16.2823636" lon="-61.2574659"><ele>45.75</ele><time>2026-03-22T14:33:07.004Z</time></trkpt><trkpt lat="16.2824026" lon="-61.2575835"><ele>46.0</ele><time>2026-03-22T14:33:07.994Z</time></trkpt><trkpt lat="16.2824403" lon="-61.2577001"><ele>46.0</ele><time>2026-03-22T14:33:09.003Z</time></trkpt><trkpt lat="16.2824835" lon="-61.2578159"><ele>46.0</ele><time>2026-03-22T14:33:09.994Z</time></trkpt><trkpt lat="16.2825253" lon="-61.2579333"><ele>46.0</ele><time>2026-03-22T14:33:10.982Z</time></trkpt><trkpt lat="16.2825634" lon="-61.2580509"><ele>46.0</ele><time>2026-03-22T14:33:11.991Z</time></trkpt><trkpt lat="16.2826025" lon="-61.2581668"><ele>46.5</ele><time>2026-03-22T14:33:12.991Z</time></trkpt><trkpt lat="16.2826589" lon="-61.2582788"><ele>47.0</ele><time>2026-03-22T14:33:13.996Z</time></trkpt><trkpt lat="16.2827269" lon="-61.2583859"><ele>47.5</ele><time>2026-03-22T14:33:14.977Z</time></trkpt><trkpt lat="16.2828048" lon="-61.2584777"><ele>48.0</ele><time>2026-03-22T14:33:15.962Z</time></trkpt><trkpt lat="16.2828957" lon="-61.2585594"><ele>48.0</ele><time>2026-03-22T14:33:16.991Z</time></trkpt><trkpt lat="16.2829884" lon="-61.2586424"><ele>48.0</ele><time>2026-03-22T14:33:17.992Z</time></trkpt><trkpt lat="16.2830795" lon="-61.2587212"><ele>48.0</ele><time>2026-03-22T14:33:18.998Z</time></trkpt><trkpt lat="16.2831743" lon="-61.2587971"><ele>48.0</ele><time>2026-03-22T14:33:19.995Z</time></trkpt><trkpt lat="16.2832685" lon="-61.2588707"><ele>49.25</ele><time>2026-03-22T14:33:21.007Z</time></trkpt><trkpt lat="16.2833576" lon="-61.2589512"><ele>50.5</ele><time>2026-03-22T14:33:22.067Z</time></trkpt><trkpt lat="16.2834533" lon="-61.2590319"><ele>51.75</ele><time>2026-03-22T14:33:23.04Z</time></trkpt><trkpt lat="16.2835519" lon="-61.2591019"><ele>53.0</ele><time>2026-03-22T14:33:23.951Z</time></trkpt><trkpt lat="16.2836431" lon="-61.2591747"><ele>53.0</ele><time>2026-03-22T14:33:24.953Z</time></trkpt><trkpt lat="16.2837325" lon="-61.2592488"><ele>53.0</ele><time>2026-03-22T14:33:25.985Z</time></trkpt><trkpt lat="16.2838334" lon="-61.2593242"><ele>53.0</ele><time>2026-03-22T14:33:26.991Z</time></trkpt><trkpt lat="16.2839418" lon="-61.2593933"><ele>53.0</ele><time>2026-03-22T14:33:27.989Z</time></trkpt><trkpt lat="16.2840394" lon="-61.2594656"><ele>52.25</ele><time>2026-03-22T14:33:28.996Z</time></trkpt><trkpt lat="16.2841339" lon="-61.259541"><ele>51.5</ele><time>2026-03-22T14:33:29.964Z</time></trkpt><trkpt lat="16.2842286" lon="-61.2596161"><ele>50.75</ele><time>2026-03-22T14:33:31.041Z</time></trkpt><trkpt lat="16.2843254" lon="-61.2596896"><ele>50.0</ele><time>2026-03-22T14:33:32.027Z</time></trkpt><trkpt lat="16.2844166" lon="-61.259765"><ele>50.00000000000001</ele><time>2026-03-22T14:33:33.044Z</time></trkpt><trkpt lat="16.284495" lon="-61.2598385"><ele>50.0</ele><time>2026-03-22T14:33:33.99Z</time></trkpt><trkpt lat="16.2845489" lon="-61.2599199"><ele>50.0</ele><time>2026-03-22T14:33:34.992Z</time></trkpt><trkpt lat="16.2845786" lon="-61.2599877"><ele>50.0</ele><time>2026-03-22T14:33:35.997Z</time></trkpt><trkpt lat="16.2845815" lon="-61.260054"><ele>50.00000000000001</ele><time>2026-03-22T14:33:36.983Z</time></trkpt><trkpt lat="16.2845641" lon="-61.2601266"><ele>50.0</ele><time>2026-03-22T14:33:37.997Z</time></trkpt><trkpt lat="16.2845191" lon="-61.260207"><ele>50.0</ele><time>2026-03-22T14:33:38.991Z</time></trkpt><trkpt lat="16.2844838" lon="-61.2603047"><ele>50.0</ele><time>2026-03-22T14:33:39.991Z</time></trkpt><trkpt lat="16.2844463" lon="-61.2604185"><ele>50.0</ele><time>2026-03-22T14:33:41.094Z</time></trkpt><trkpt lat="16.2844084" lon="-61.2605296"><ele>50.0</ele><time>2026-03-22T14:33:42.038Z</time></trkpt><trkpt lat="16.2843809" lon="-61.2606491"><ele>50.0</ele><time>2026-03-22T14:33:43.053Z</time></trkpt><trkpt lat="16.2843553" lon="-61.2607669"><ele>50.0</ele><time>2026-03-22T14:33:44.003Z</time></trkpt><trkpt lat="16.2843307" lon="-61.2608892"><ele>50.0</ele><time>2026-03-22T14:33:44.998Z</time></trkpt><trkpt lat="16.2843072" lon="-61.2610114"><ele>50.0</ele><time>2026-03-22T14:33:46.089Z</time></trkpt><trkpt lat="16.2842863" lon="-61.2611293"><ele>50.0</ele><time>2026-03-22T14:33:47.061Z</time></trkpt><trkpt lat="16.2842626" lon="-61.261246"><ele>50.00000000000001</ele><time>2026-03-22T14:33:48.048Z</time></trkpt><trkpt lat="16.2842295" lon="-61.2613465"><ele>50.0</ele><time>2026-03-22T14:33:48.973Z</time></trkpt><trkpt lat="16.2841993" lon="-61.2614165"><ele>50.0</ele><time>2026-03-22T14:33:50.037Z</time></trkpt><trkpt lat="16.2841367" lon="-61.261507"><ele>50.0</ele><time>2026-03-22T14:33:52.056Z</time></trkpt><trkpt lat="16.2840784" lon="-61.2615335"><ele>50.00000000000001</ele><time>2026-03-22T14:33:53.053Z</time></trkpt><trkpt lat="16.2839879" lon="-61.2615537"><ele>50.0</ele><time>2026-03-22T14:33:53.985Z</time></trkpt><trkpt lat="16.2838859" lon="-61.2615656"><ele>49.5</ele><time>2026-03-22T14:33:55.062Z</time></trkpt><trkpt lat="16.2837712" lon="-61.2615943"><ele>49.0</ele><time>2026-03-22T14:33:56.049Z</time></trkpt><trkpt lat="16.2836527" lon="-61.261644"><ele>48.5</ele><time>2026-03-22T14:33:57.031Z</time></trkpt><trkpt lat="16.2835432" lon="-61.2617153"><ele>48.0</ele><time>2026-03-22T14:33:58.03Z</time></trkpt><trkpt lat="16.2834417" lon="-61.2617996"><ele>48.0</ele><time>2026-03-22T14:33:58.994Z</time></trkpt><trkpt lat="16.2833497" lon="-61.261897"><ele>48.0</ele><time>2026-03-22T14:34:00.005Z</time></trkpt><trkpt lat="16.2832635" lon="-61.2619923"><ele>48.0</ele><time>2026-03-22T14:34:01.026Z</time></trkpt><trkpt lat="16.2831713" lon="-61.2620678"><ele>48.0</ele><time>2026-03-22T14:34:02.059Z</time></trkpt><trkpt lat="16.2830758" lon="-61.2621401"><ele>46.75</ele><time>2026-03-22T14:34:03.044Z</time></trkpt><trkpt lat="16.2829794" lon="-61.2622087"><ele>45.5</ele><time>2026-03-22T14:34:03.987Z</time></trkpt><trkpt lat="16.282885" lon="-61.2622811"><ele>44.25</ele><time>2026-03-22T14:34:04.982Z</time></trkpt><trkpt lat="16.2827872" lon="-61.2623641"><ele>43.0</ele><time>2026-03-22T14:34:05.981Z</time></trkpt><trkpt lat="16.2826965" lon="-61.2624403"><ele>42.25</ele><time>2026-03-22T14:34:06.993Z</time></trkpt><trkpt lat="16.2826039" lon="-61.2625192"><ele>41.5</ele><time>2026-03-22T14:34:07.966Z</time></trkpt><trkpt lat="16.2825063" lon="-61.2625972"><ele>40.75</ele><time>2026-03-22T14:34:08.99Z</time></trkpt><trkpt lat="16.2824019" lon="-61.2626847"><ele>40.0</ele><time>2026-03-22T14:34:09.977Z</time></trkpt><trkpt lat="16.2822995" lon="-61.2627766"><ele>38.25</ele><time>2026-03-22T14:34:11Z</time></trkpt><trkpt lat="16.2821946" lon="-61.2628623"><ele>36.5</ele><time>2026-03-22T14:34:11.996Z</time></trkpt><trkpt lat="16.2820901" lon="-61.2629441"><ele>34.75</ele><time>2026-03-22T14:34:13.062Z</time></trkpt><trkpt lat="16.2819968" lon="-61.2630183"><ele>33.0</ele><time>2026-03-22T14:34:13.981Z</time></trkpt><trkpt lat="16.2819077" lon="-61.2630899"><ele>33.0</ele><time>2026-03-22T14:34:14.987Z</time></trkpt><trkpt lat="16.2818182" lon="-61.2631559"><ele>33.0</ele><time>2026-03-22T14:34:15.969Z</time></trkpt><trkpt lat="16.2817245" lon="-61.2632158"><ele>33.0</ele><time>2026-03-22T14:34:16.989Z</time></trkpt><trkpt lat="16.2816192" lon="-61.2632735"><ele>33.0</ele><time>2026-03-22T14:34:18.021Z</time></trkpt><trkpt lat="16.2815133" lon="-61.2633362"><ele>34.25</ele><time>2026-03-22T14:34:18.993Z</time></trkpt><trkpt lat="16.2814066" lon="-61.263395"><ele>35.5</ele><time>2026-03-22T14:34:20.052Z</time></trkpt><trkpt lat="16.2812992" lon="-61.2634487"><ele>36.75</ele><time>2026-03-22T14:34:21.058Z</time></trkpt><trkpt lat="16.2811983" lon="-61.2634983"><ele>38.0</ele><time>2026-03-22T14:34:22.046Z</time></trkpt><trkpt lat="16.2810943" lon="-61.2635546"><ele>38.0</ele><time>2026-03-22T14:34:22.988Z</time></trkpt><trkpt lat="16.2809937" lon="-61.2636"><ele>38.0</ele><time>2026-03-22T14:34:23.994Z</time></trkpt><trkpt lat="16.2808869" lon="-61.2636454"><ele>38.0</ele><time>2026-03-22T14:34:24.982Z</time></trkpt><trkpt lat="16.2807768" lon="-61.2636949"><ele>38.0</ele><time>2026-03-22T14:34:25.997Z</time></trkpt><trkpt lat="16.2806788" lon="-61.2637642"><ele>38.5</ele><time>2026-03-22T14:34:26.966Z</time></trkpt><trkpt lat="16.2805898" lon="-61.2638427"><ele>39.0</ele><time>2026-03-22T14:34:27.975Z</time></trkpt><trkpt lat="16.2805068" lon="-61.2639295"><ele>39.5</ele><time>2026-03-22T14:34:28.986Z</time></trkpt><trkpt lat="16.2804197" lon="-61.2640204"><ele>40.0</ele><time>2026-03-22T14:34:29.993Z</time></trkpt><trkpt lat="16.2803325" lon="-61.264109"><ele>40.0</ele><time>2026-03-22T14:34:31.093Z</time></trkpt><trkpt lat="16.280231" lon="-61.2641846"><ele>40.0</ele><time>2026-03-22T14:34:32.046Z</time></trkpt><trkpt lat="16.2801358" lon="-61.2642639"><ele>40.0</ele><time>2026-03-22T14:34:33.035Z</time></trkpt><trkpt lat="16.2800339" lon="-61.2643302"><ele>40.0</ele><time>2026-03-22T14:34:33.99Z</time></trkpt><trkpt lat="16.2799327" lon="-61.2643947"><ele>40.0</ele><time>2026-03-22T14:34:34.987Z</time></trkpt><trkpt lat="16.2798293" lon="-61.2644572"><ele>40.0</ele><time>2026-03-22T14:34:36.002Z</time></trkpt><trkpt lat="16.2797363" lon="-61.2645114"><ele>40.0</ele><time>2026-03-22T14:34:37.06Z</time></trkpt><trkpt lat="16.2796305" lon="-61.2645694"><ele>40.0</ele><time>2026-03-22T14:34:38.037Z</time></trkpt><trkpt lat="16.2795212" lon="-61.264623"><ele>40.4</ele><time>2026-03-22T14:34:38.989Z</time></trkpt><trkpt lat="16.2794265" lon="-61.2646825"><ele>40.8</ele><time>2026-03-22T14:34:40.055Z</time></trkpt><trkpt lat="16.2793259" lon="-61.264742"><ele>41.2</ele><time>2026-03-22T14:34:41.037Z</time></trkpt><trkpt lat="16.2792332" lon="-61.2648083"><ele>41.6</ele><time>2026-03-22T14:34:42.03Z</time></trkpt><trkpt lat="16.2791605" lon="-61.26488"><ele>42.0</ele><time>2026-03-22T14:34:43.057Z</time></trkpt><trkpt lat="16.2791178" lon="-61.2649522"><ele>42.333333333333336</ele><time>2026-03-22T14:34:43.98Z</time></trkpt><trkpt lat="16.2791" lon="-61.2650366"><ele>42.666666666666664</ele><time>2026-03-22T14:34:44.99Z</time></trkpt><trkpt lat="16.2791166" lon="-61.2651279"><ele>43.0</ele><time>2026-03-22T14:34:45.983Z</time></trkpt><trkpt lat="16.2791329" lon="-61.2652357"><ele>43.33333333333333</ele><time>2026-03-22T14:34:47.065Z</time></trkpt><trkpt lat="16.2791421" lon="-61.265329"><ele>43.666666666666664</ele><time>2026-03-22T14:34:48.05Z</time></trkpt><trkpt lat="16.2791121" lon="-61.2654076"><ele>44.0</ele><time>2026-03-22T14:34:48.984Z</time></trkpt><trkpt lat="16.2790481" lon="-61.2654749"><ele>44.0</ele><time>2026-03-22T14:34:49.974Z</time></trkpt><trkpt lat="16.2789672" lon="-61.2655431"><ele>44.0</ele><time>2026-03-22T14:34:50.983Z</time></trkpt><trkpt lat="16.2788638" lon="-61.2656164"><ele>44.0</ele><time>2026-03-22T14:34:52.05Z</time></trkpt><trkpt lat="16.2787669" lon="-61.2656985"><ele>44.0</ele><time>2026-03-22T14:34:53.034Z</time></trkpt><trkpt lat="16.2786799" lon="-61.2657806"><ele>43.75</ele><time>2026-03-22T14:34:53.957Z</time></trkpt><trkpt lat="16.2785807" lon="-61.2658473"><ele>43.5</ele><time>2026-03-22T14:34:54.985Z</time></trkpt><trkpt lat="16.2784761" lon="-61.2659083"><ele>43.25</ele><time>2026-03-22T14:34:55.964Z</time></trkpt><trkpt lat="16.2783645" lon="-61.2659567"><ele>43.0</ele><time>2026-03-22T14:34:56.985Z</time></trkpt><trkpt lat="16.2782593" lon="-61.2659979"><ele>43.0</ele><time>2026-03-22T14:34:57.994Z</time></trkpt><trkpt lat="16.2781594" lon="-61.2660284"><ele>43.0</ele><time>2026-03-22T14:34:58.989Z</time></trkpt><trkpt lat="16.278079" lon="-61.2660608"><ele>43.0</ele><time>2026-03-22T14:34:59.983Z</time></trkpt><trkpt lat="16.2779868" lon="-61.2660966"><ele>43.0</ele><time>2026-03-22T14:35:01.061Z</time></trkpt><trkpt lat="16.2778839" lon="-61.2661279"><ele>43.0</ele><time>2026-03-22T14:35:02.048Z</time></trkpt><trkpt lat="16.2777696" lon="-61.2661568"><ele>41.25</ele><time>2026-03-22T14:35:02.988Z</time></trkpt><trkpt lat="16.2776506" lon="-61.2661835"><ele>39.5</ele><time>2026-03-22T14:35:03.991Z</time></trkpt><trkpt lat="16.2775298" lon="-61.2662136"><ele>37.75</ele><time>2026-03-22T14:35:05.001Z</time></trkpt><trkpt lat="16.2774128" lon="-61.2662448"><ele>36.0</ele><time>2026-03-22T14:35:05.992Z</time></trkpt><trkpt lat="16.2772918" lon="-61.2662714"><ele>34.75</ele><time>2026-03-22T14:35:07.006Z</time></trkpt><trkpt lat="16.2771798" lon="-61.266298"><ele>33.5</ele><time>2026-03-22T14:35:07.987Z</time></trkpt><trkpt lat="16.2770615" lon="-61.2663218"><ele>32.25</ele><time>2026-03-22T14:35:08.992Z</time></trkpt><trkpt lat="16.2769445" lon="-61.2663343"><ele>31.0</ele><time>2026-03-22T14:35:09.943Z</time></trkpt><trkpt lat="16.2768249" lon="-61.2663484"><ele>31.0</ele><time>2026-03-22T14:35:10.944Z</time></trkpt><trkpt lat="16.2767097" lon="-61.2663642"><ele>31.0</ele><time>2026-03-22T14:35:11.953Z</time></trkpt><trkpt lat="16.2765972" lon="-61.2663774"><ele>31.0</ele><time>2026-03-22T14:35:12.976Z</time></trkpt><trkpt lat="16.2764842" lon="-61.2663864"><ele>31.0</ele><time>2026-03-22T14:35:13.986Z</time></trkpt><trkpt lat="16.2763594" lon="-61.266387"><ele>31.200000000000003</ele><time>2026-03-22T14:35:14.981Z</time></trkpt><trkpt lat="16.2762346" lon="-61.2663526"><ele>31.400000000000002</ele><time>2026-03-22T14:35:15.953Z</time></trkpt><trkpt lat="16.2761341" lon="-61.2663256"><ele>31.6</ele><time>2026-03-22T14:35:16.975Z</time></trkpt><trkpt lat="16.2760384" lon="-61.2662995"><ele>31.8</ele><time>2026-03-22T14:35:17.947Z</time></trkpt><trkpt lat="16.2759558" lon="-61.2662715"><ele>32.0</ele><time>2026-03-22T14:35:18.983Z</time></trkpt><trkpt lat="16.2758582" lon="-61.2662352"><ele>32.0</ele><time>2026-03-22T14:35:19.981Z</time></trkpt><trkpt lat="16.2757478" lon="-61.2662018"><ele>32.0</ele><time>2026-03-22T14:35:20.989Z</time></trkpt><trkpt lat="16.2756352" lon="-61.2661655"><ele>32.0</ele><time>2026-03-22T14:35:21.994Z</time></trkpt><trkpt lat="16.275522" lon="-61.2661279"><ele>32.0</ele><time>2026-03-22T14:35:22.98Z</time></trkpt><trkpt lat="16.2754109" lon="-61.2660894"><ele>33.25</ele><time>2026-03-22T14:35:23.972Z</time></trkpt><trkpt lat="16.2752969" lon="-61.2660533"><ele>34.5</ele><time>2026-03-22T14:35:24.983Z</time></trkpt><trkpt lat="16.2751851" lon="-61.2660159"><ele>35.75</ele><time>2026-03-22T14:35:25.992Z</time></trkpt><trkpt lat="16.2750745" lon="-61.2659727"><ele>37.0</ele><time>2026-03-22T14:35:26.98Z</time></trkpt><trkpt lat="16.2749613" lon="-61.2659389"><ele>37.0</ele><time>2026-03-22T14:35:27.989Z</time></trkpt><trkpt lat="16.2748539" lon="-61.2659006"><ele>37.0</ele><time>2026-03-22T14:35:28.991Z</time></trkpt><trkpt lat="16.2747479" lon="-61.265862"><ele>37.0</ele><time>2026-03-22T14:35:29.99Z</time></trkpt><trkpt lat="16.274637" lon="-61.2658257"><ele>37.0</ele><time>2026-03-22T14:35:30.993Z</time></trkpt><trkpt lat="16.2745247" lon="-61.2657928"><ele>37.5</ele><time>2026-03-22T14:35:31.985Z</time></trkpt><trkpt lat="16.2744141" lon="-61.2657516"><ele>38.0</ele><time>2026-03-22T14:35:32.955Z</time></trkpt><trkpt lat="16.2743029" lon="-61.2657164"><ele>38.5</ele><time>2026-03-22T14:35:33.993Z</time></trkpt><trkpt lat="16.2741932" lon="-61.2656752"><ele>39.0</ele><time>2026-03-22T14:35:34.991Z</time></trkpt><trkpt lat="16.2740892" lon="-61.2656392"><ele>38.666666666666664</ele><time>2026-03-22T14:35:35.989Z</time></trkpt><trkpt lat="16.2740009" lon="-61.265607"><ele>38.333333333333336</ele><time>2026-03-22T14:35:36.987Z</time></trkpt><trkpt lat="16.2739127" lon="-61.265584"><ele>38.0</ele><time>2026-03-22T14:35:37.986Z</time></trkpt><trkpt lat="16.2738321" lon="-61.2655729"><ele>37.66666666666667</ele><time>2026-03-22T14:35:38.994Z</time></trkpt><trkpt lat="16.2738043" lon="-61.2654957"><ele>37.333333333333336</ele><time>2026-03-22T14:35:50.995Z</time></trkpt><trkpt lat="16.2738162" lon="-61.2654205"><ele>37.0</ele><time>2026-03-22T14:35:51.951Z</time></trkpt><trkpt lat="16.2738335" lon="-61.26534"><ele>37.0</ele><time>2026-03-22T14:35:52.985Z</time></trkpt><trkpt lat="16.2738555" lon="-61.2652506"><ele>37.0</ele><time>2026-03-22T14:35:53.986Z</time></trkpt><trkpt lat="16.2738789" lon="-61.2651674"><ele>37.0</ele><time>2026-03-22T14:35:54.99Z</time></trkpt><trkpt lat="16.2739025" lon="-61.2650743"><ele>37.0</ele><time>2026-03-22T14:35:56.001Z</time></trkpt><trkpt lat="16.2739255" lon="-61.2649732"><ele>37.0</ele><time>2026-03-22T14:35:56.961Z</time></trkpt><trkpt lat="16.2739481" lon="-61.2648643"><ele>37.0</ele><time>2026-03-22T14:35:57.983Z</time></trkpt><trkpt lat="16.2739631" lon="-61.2647614"><ele>37.0</ele><time>2026-03-22T14:35:58.996Z</time></trkpt><trkpt lat="16.273988" lon="-61.2646574"><ele>37.0</ele><time>2026-03-22T14:35:59.971Z</time></trkpt><trkpt lat="16.2740131" lon="-61.2645497"><ele>37.0</ele><time>2026-03-22T14:36:00.981Z</time></trkpt><trkpt lat="16.2740382" lon="-61.2644385"><ele>37.0</ele><time>2026-03-22T14:36:01.991Z</time></trkpt><trkpt lat="16.2740631" lon="-61.2643281"><ele>37.0</ele><time>2026-03-22T14:36:02.99Z</time></trkpt><trkpt lat="16.2740882" lon="-61.2642192"><ele>37.0</ele><time>2026-03-22T14:36:03.992Z</time></trkpt><trkpt lat="16.2741156" lon="-61.2640989"><ele>37.0</ele><time>2026-03-22T14:36:04.985Z</time></trkpt><trkpt lat="16.2741409" lon="-61.2639817"><ele>37.0</ele><time>2026-03-22T14:36:05.986Z</time></trkpt><trkpt lat="16.2741631" lon="-61.2638701"><ele>37.6</ele><time>2026-03-22T14:36:06.989Z</time></trkpt><trkpt lat="16.2741856" lon="-61.2637622"><ele>38.2</ele><time>2026-03-22T14:36:07.987Z</time></trkpt><trkpt lat="16.27421" lon="-61.2636486"><ele>38.8</ele><time>2026-03-22T14:36:08.989Z</time></trkpt><trkpt lat="16.2742381" lon="-61.2635372"><ele>39.4</ele><time>2026-03-22T14:36:10.063Z</time></trkpt><trkpt lat="16.2742649" lon="-61.2634229"><ele>40.0</ele><time>2026-03-22T14:36:11.058Z</time></trkpt><trkpt lat="16.2742943" lon="-61.2633081"><ele>40.0</ele><time>2026-03-22T14:36:11.989Z</time></trkpt><trkpt lat="16.2743207" lon="-61.2631997"><ele>40.0</ele><time>2026-03-22T14:36:12.991Z</time></trkpt><trkpt lat="16.2743542" lon="-61.2630985"><ele>40.0</ele><time>2026-03-22T14:36:13.986Z</time></trkpt><trkpt lat="16.2743837" lon="-61.2629937"><ele>40.0</ele><time>2026-03-22T14:36:14.998Z</time></trkpt><trkpt lat="16.2744158" lon="-61.2628904"><ele>40.0</ele><time>2026-03-22T14:36:15.988Z</time></trkpt><trkpt lat="16.2744484" lon="-61.2627968"><ele>39.8</ele><time>2026-03-22T14:36:16.964Z</time></trkpt><trkpt lat="16.2744746" lon="-61.2626987"><ele>39.6</ele><time>2026-03-22T14:36:18.018Z</time></trkpt><trkpt lat="16.2744992" lon="-61.2625975"><ele>39.4</ele><time>2026-03-22T14:36:18.988Z</time></trkpt><trkpt lat="16.2745208" lon="-61.2624894"><ele>39.2</ele><time>2026-03-22T14:36:19.995Z</time></trkpt><trkpt lat="16.2745391" lon="-61.2623751"><ele>39.0</ele><time>2026-03-22T14:36:20.992Z</time></trkpt><trkpt lat="16.2745638" lon="-61.2622725"><ele>38.833333333333336</ele><time>2026-03-22T14:36:22.048Z</time></trkpt><trkpt lat="16.2745891" lon="-61.2621755"><ele>38.666666666666664</ele><time>2026-03-22T14:36:23.025Z</time></trkpt><trkpt lat="16.2746034" lon="-61.2620839"><ele>38.5</ele><time>2026-03-22T14:36:23.992Z</time></trkpt><trkpt lat="16.2746153" lon="-61.2620059"><ele>38.33333333333333</ele><time>2026-03-22T14:36:24.991Z</time></trkpt><trkpt lat="16.2746359" lon="-61.2619352"><ele>38.166666666666664</ele><time>2026-03-22T14:36:26.081Z</time></trkpt><trkpt lat="16.2746563" lon="-61.2618619"><ele>38.0</ele><time>2026-03-22T14:36:27.044Z</time></trkpt><trkpt lat="16.2746796" lon="-61.2617835"><ele>38.0</ele><time>2026-03-22T14:36:28.048Z</time></trkpt><trkpt lat="16.2747062" lon="-61.2617064"><ele>38.0</ele><time>2026-03-22T14:36:28.992Z</time></trkpt><trkpt lat="16.2747307" lon="-61.2616262"><ele>38.0</ele><time>2026-03-22T14:36:29.997Z</time></trkpt><trkpt lat="16.2747498" lon="-61.2615379"><ele>38.0</ele><time>2026-03-22T14:36:30.983Z</time></trkpt><trkpt lat="16.2747534" lon="-61.2614455"><ele>38.0</ele><time>2026-03-22T14:36:32.065Z</time></trkpt><trkpt lat="16.2747409" lon="-61.2613444"><ele>38.0</ele><time>2026-03-22T14:36:33.061Z</time></trkpt><trkpt lat="16.2747238" lon="-61.2612439"><ele>38.199999999999996</ele><time>2026-03-22T14:36:33.99Z</time></trkpt><trkpt lat="16.2747072" lon="-61.2611421"><ele>38.4</ele><time>2026-03-22T14:36:34.996Z</time></trkpt><trkpt lat="16.2746813" lon="-61.2610311"><ele>38.599999999999994</ele><time>2026-03-22T14:36:35.995Z</time></trkpt><trkpt lat="16.2746576" lon="-61.2609184"><ele>38.8</ele><time>2026-03-22T14:36:37.048Z</time></trkpt><trkpt lat="16.2746385" lon="-61.2608067"><ele>39.0</ele><time>2026-03-22T14:36:38.053Z</time></trkpt><trkpt lat="16.2746221" lon="-61.2606933"><ele>39.2</ele><time>2026-03-22T14:36:38.985Z</time></trkpt><trkpt lat="16.2746031" lon="-61.2605804"><ele>39.4</ele><time>2026-03-22T14:36:39.987Z</time></trkpt><trkpt lat="16.2745723" lon="-61.2604706"><ele>39.6</ele><time>2026-03-22T14:36:40.975Z</time></trkpt><trkpt lat="16.2745666" lon="-61.2603549"><ele>39.8</ele><time>2026-03-22T14:36:42.063Z</time></trkpt><trkpt lat="16.2745323" lon="-61.2602494"><ele>40.0</ele><time>2026-03-22T14:36:43.039Z</time></trkpt><trkpt lat="16.274478" lon="-61.2601534"><ele>40.0</ele><time>2026-03-22T14:36:43.983Z</time></trkpt><trkpt lat="16.2744252" lon="-61.2600505"><ele>40.0</ele><time>2026-03-22T14:36:44.988Z</time></trkpt><trkpt lat="16.2743587" lon="-61.259934"><ele>40.0</ele><time>2026-03-22T14:36:45.966Z</time></trkpt><trkpt lat="16.2743168" lon="-61.2598306"><ele>40.0</ele><time>2026-03-22T14:36:46.979Z</time></trkpt><trkpt lat="16.2742753" lon="-61.2597309"><ele>39.8</ele><time>2026-03-22T14:36:47.995Z</time></trkpt><trkpt lat="16.2742439" lon="-61.2596338"><ele>39.6</ele><time>2026-03-22T14:36:49.039Z</time></trkpt><trkpt lat="16.2742369" lon="-61.2595461"><ele>39.4</ele><time>2026-03-22T14:36:50.073Z</time></trkpt><trkpt lat="16.2742451" lon="-61.2594642"><ele>39.2</ele><time>2026-03-22T14:36:51.054Z</time></trkpt><trkpt lat="16.2742693" lon="-61.2593717"><ele>39.0</ele><time>2026-03-22T14:36:52.031Z</time></trkpt><trkpt lat="16.2743012" lon="-61.2592734"><ele>39.0</ele><time>2026-03-22T14:36:52.984Z</time></trkpt><trkpt lat="16.274335" lon="-61.2591632"><ele>39.0</ele><time>2026-03-22T14:36:53.993Z</time></trkpt><trkpt lat="16.274362" lon="-61.2590568"><ele>39.0</ele><time>2026-03-22T14:36:54.982Z</time></trkpt><trkpt lat="16.2743986" lon="-61.2589529"><ele>39.0</ele><time>2026-03-22T14:36:55.958Z</time></trkpt><trkpt lat="16.2744358" lon="-61.258853"><ele>39.0</ele><time>2026-03-22T14:36:56.991Z</time></trkpt><trkpt lat="16.2744697" lon="-61.2587648"><ele>39.0</ele><time>2026-03-22T14:36:57.998Z</time></trkpt><trkpt lat="16.2744917" lon="-61.2586779"><ele>39.0</ele><time>2026-03-22T14:36:58.989Z</time></trkpt><trkpt lat="16.2745103" lon="-61.2586088"><ele>39.0</ele><time>2026-03-22T14:36:59.973Z</time></trkpt><trkpt lat="16.274522" lon="-61.2585331"><ele>39.0</ele><time>2026-03-22T14:37:00.993Z</time></trkpt><trkpt lat="16.2745361" lon="-61.2584508"><ele>39.0</ele><time>2026-03-22T14:37:01.98Z</time></trkpt><trkpt lat="16.2745541" lon="-61.2583611"><ele>39.0</ele><time>2026-03-22T14:37:02.988Z</time></trkpt><trkpt lat="16.2745764" lon="-61.2582745"><ele>39.0</ele><time>2026-03-22T14:37:03.989Z</time></trkpt><trkpt lat="16.2745945" lon="-61.258182"><ele>39.0</ele><time>2026-03-22T14:37:04.987Z</time></trkpt><trkpt lat="16.2746087" lon="-61.2581047"><ele>39.0</ele><time>2026-03-22T14:37:05.993Z</time></trkpt><trkpt lat="16.2746292" lon="-61.2580341"><ele>39.0</ele><time>2026-03-22T14:37:06.973Z</time></trkpt><trkpt lat="16.2746679" lon="-61.2579437"><ele>39.0</ele><time>2026-03-22T14:37:09.001Z</time></trkpt><trkpt lat="16.2747259" lon="-61.2579035"><ele>39.0</ele><time>2026-03-22T14:37:11Z</time></trkpt><trkpt lat="16.2748569" lon="-61.2578911"><ele>39.166666666666664</ele><time>2026-03-22T14:37:13.002Z</time></trkpt><trkpt lat="16.274938" lon="-61.2579046"><ele>39.333333333333336</ele><time>2026-03-22T14:37:13.997Z</time></trkpt><trkpt lat="16.2750264" lon="-61.2579151"><ele>39.5</ele><time>2026-03-22T14:37:14.995Z</time></trkpt><trkpt lat="16.2751105" lon="-61.2579249"><ele>39.66666666666667</ele><time>2026-03-22T14:37:15.996Z</time></trkpt><trkpt lat="16.2751857" lon="-61.2579244"><ele>39.833333333333336</ele><time>2026-03-22T14:37:16.995Z</time></trkpt><trkpt lat="16.2752517" lon="-61.2579065"><ele>40.0</ele><time>2026-03-22T14:37:17.993Z</time></trkpt><trkpt lat="16.2753452" lon="-61.2578268"><ele>40.0</ele><time>2026-03-22T14:37:19.998Z</time></trkpt><trkpt lat="16.2753805" lon="-61.2577677"><ele>40.0</ele><time>2026-03-22T14:37:20.996Z</time></trkpt><trkpt lat="16.2754055" lon="-61.257695"><ele>40.0</ele><time>2026-03-22T14:37:21.984Z</time></trkpt><trkpt lat="16.2754145" lon="-61.2576209"><ele>40.0</ele><time>2026-03-22T14:37:22.99Z</time></trkpt><trkpt lat="16.2754291" lon="-61.257545"><ele>40.0</ele><time>2026-03-22T14:37:23.997Z</time></trkpt><trkpt lat="16.2754407" lon="-61.2574611"><ele>40.0</ele><time>2026-03-22T14:37:24.993Z</time></trkpt><trkpt lat="16.2754562" lon="-61.2573723"><ele>39.833333333333336</ele><time>2026-03-22T14:37:25.996Z</time></trkpt><trkpt lat="16.2754851" lon="-61.2572855"><ele>39.66666666666667</ele><time>2026-03-22T14:37:26.977Z</time></trkpt><trkpt lat="16.2755215" lon="-61.2572019"><ele>39.5</ele><time>2026-03-22T14:37:28.004Z</time></trkpt><trkpt lat="16.2755597" lon="-61.2571197"><ele>39.333333333333336</ele><time>2026-03-22T14:37:29.005Z</time></trkpt><trkpt lat="16.2755921" lon="-61.2570243"><ele>39.166666666666664</ele><time>2026-03-22T14:37:29.998Z</time></trkpt><trkpt lat="16.2756067" lon="-61.2569355"><ele>39.0</ele><time>2026-03-22T14:37:30.993Z</time></trkpt><trkpt lat="16.275625" lon="-61.2568476"><ele>39.333333333333336</ele><time>2026-03-22T14:37:32.026Z</time></trkpt><trkpt lat="16.2756617" lon="-61.2567674"><ele>39.666666666666664</ele><time>2026-03-22T14:37:32.984Z</time></trkpt><trkpt lat="16.2757095" lon="-61.256688"><ele>40.0</ele><time>2026-03-22T14:37:33.987Z</time></trkpt><trkpt lat="16.2757469" lon="-61.2566016"><ele>40.33333333333333</ele><time>2026-03-22T14:37:34.99Z</time></trkpt><trkpt lat="16.2757759" lon="-61.256517"><ele>40.666666666666664</ele><time>2026-03-22T14:37:35.982Z</time></trkpt><trkpt lat="16.2758061" lon="-61.2564375"><ele>41.0</ele><time>2026-03-22T14:37:37.003Z</time></trkpt><trkpt lat="16.27584" lon="-61.2563595"><ele>41.0</ele><time>2026-03-22T14:37:37.995Z</time></trkpt><trkpt lat="16.2758803" lon="-61.2562771"><ele>41.0</ele><time>2026-03-22T14:37:38.978Z</time></trkpt><trkpt lat="16.2759234" lon="-61.2561961"><ele>41.0</ele><time>2026-03-22T14:37:39.995Z</time></trkpt><trkpt lat="16.2759696" lon="-61.2561174"><ele>41.0</ele><time>2026-03-22T14:37:40.993Z</time></trkpt><trkpt lat="16.2760169" lon="-61.2560378"><ele>41.0</ele><time>2026-03-22T14:37:41.996Z</time></trkpt><trkpt lat="16.2760559" lon="-61.2559571"><ele>41.0</ele><time>2026-03-22T14:37:43Z</time></trkpt><trkpt lat="16.2760913" lon="-61.2558837"><ele>41.0</ele><time>2026-03-22T14:37:43.998Z</time></trkpt><trkpt lat="16.2761173" lon="-61.2558168"><ele>41.0</ele><time>2026-03-22T14:37:45Z</time></trkpt><trkpt lat="16.2761452" lon="-61.2557572"><ele>41.0</ele><time>2026-03-22T14:37:45.959Z</time></trkpt><trkpt lat="16.2761981" lon="-61.2556594"><ele>41.0</ele><time>2026-03-22T14:37:47.99Z</time></trkpt><trkpt lat="16.2762272" lon="-61.255549"><ele>41.0</ele><time>2026-03-22T14:37:49.992Z</time></trkpt><trkpt lat="16.2762126" lon="-61.2554538"><ele>41.0</ele><time>2026-03-22T14:37:51.997Z</time></trkpt><trkpt lat="16.2762032" lon="-61.255387"><ele>40.666666666666664</ele><time>2026-03-22T14:37:56.047Z</time></trkpt><trkpt lat="16.276168" lon="-61.2553083"><ele>40.33333333333333</ele><time>2026-03-22T14:37:59.977Z</time></trkpt><trkpt lat="16.2760785" lon="-61.2552412"><ele>40.0</ele><time>2026-03-22T14:38:01.994Z</time></trkpt><trkpt lat="16.2760299" lon="-61.2551956"><ele>39.666666666666664</ele><time>2026-03-22T14:38:02.999Z</time></trkpt><trkpt lat="16.2759687" lon="-61.2551472"><ele>39.333333333333336</ele><time>2026-03-22T14:38:03.998Z</time></trkpt><trkpt lat="16.275902" lon="-61.255102"><ele>39.0</ele><time>2026-03-22T14:38:05.029Z</time></trkpt><trkpt lat="16.2758365" lon="-61.2550508"><ele>39.0</ele><time>2026-03-22T14:38:06.02Z</time></trkpt><trkpt lat="16.2757748" lon="-61.2550029"><ele>39.0</ele><time>2026-03-22T14:38:06.979Z</time></trkpt><trkpt lat="16.2757083" lon="-61.2549599"><ele>39.0</ele><time>2026-03-22T14:38:07.998Z</time></trkpt><trkpt lat="16.2756442" lon="-61.2549151"><ele>39.0</ele><time>2026-03-22T14:38:09.001Z</time></trkpt><trkpt lat="16.2755837" lon="-61.254869"><ele>39.0</ele><time>2026-03-22T14:38:10.001Z</time></trkpt><trkpt lat="16.2755236" lon="-61.2548279"><ele>39.0</ele><time>2026-03-22T14:38:10.995Z</time></trkpt><trkpt lat="16.2754578" lon="-61.254794"><ele>39.0</ele><time>2026-03-22T14:38:12.059Z</time></trkpt><trkpt lat="16.2753786" lon="-61.2547668"><ele>39.0</ele><time>2026-03-22T14:38:12.994Z</time></trkpt><trkpt lat="16.2753094" lon="-61.2547345"><ele>39.0</ele><time>2026-03-22T14:38:13.987Z</time></trkpt><trkpt lat="16.2752411" lon="-61.254696"><ele>39.0</ele><time>2026-03-22T14:38:14.985Z</time></trkpt><trkpt lat="16.2751789" lon="-61.2546579"><ele>39.0</ele><time>2026-03-22T14:38:15.997Z</time></trkpt><trkpt lat="16.2751184" lon="-61.2546279"><ele>39.0</ele><time>2026-03-22T14:38:16.986Z</time></trkpt><trkpt lat="16.2750439" lon="-61.2546149"><ele>39.0</ele><time>2026-03-22T14:38:17.992Z</time></trkpt><trkpt lat="16.2749749" lon="-61.2546013"><ele>39.0</ele><time>2026-03-22T14:38:18.996Z</time></trkpt><trkpt lat="16.2748569" lon="-61.2545568"><ele>39.0</ele><time>2026-03-22T14:38:21.053Z</time></trkpt><trkpt lat="16.2747975" lon="-61.2545231"><ele>39.0</ele><time>2026-03-22T14:38:21.992Z</time></trkpt><trkpt lat="16.2747194" lon="-61.2544552"><ele>39.0</ele><time>2026-03-22T14:38:23.993Z</time></trkpt><trkpt lat="16.2746811" lon="-61.2543353"><ele>39.0</ele><time>2026-03-22T14:38:25.999Z</time></trkpt><trkpt lat="16.2746666" lon="-61.254206"><ele>39.0</ele><time>2026-03-22T14:38:27.981Z</time></trkpt><trkpt lat="16.2746712" lon="-61.254126"><ele>39.0</ele><time>2026-03-22T14:38:29.006Z</time></trkpt><trkpt lat="16.2746633" lon="-61.2540306"><ele>39.0</ele><time>2026-03-22T14:38:29.993Z</time></trkpt><trkpt lat="16.2746388" lon="-61.2539278"><ele>39.0</ele><time>2026-03-22T14:38:31.086Z</time></trkpt><trkpt lat="16.2745897" lon="-61.2538295"><ele>39.0</ele><time>2026-03-22T14:38:31.994Z</time></trkpt><trkpt lat="16.2745366" lon="-61.2537349"><ele>39.0</ele><time>2026-03-22T14:38:32.994Z</time></trkpt><trkpt lat="16.2744871" lon="-61.2536453"><ele>39.0</ele><time>2026-03-22T14:38:33.987Z</time></trkpt><trkpt lat="16.2744425" lon="-61.2535523"><ele>39.0</ele><time>2026-03-22T14:38:35.002Z</time></trkpt><trkpt lat="16.2743963" lon="-61.2534546"><ele>39.0</ele><time>2026-03-22T14:38:35.963Z</time></trkpt><trkpt lat="16.2743488" lon="-61.2533502"><ele>39.0</ele><time>2026-03-22T14:38:36.998Z</time></trkpt><trkpt lat="16.2742933" lon="-61.2532391"><ele>39.0</ele><time>2026-03-22T14:38:38.042Z</time></trkpt><trkpt lat="16.2742369" lon="-61.2531286"><ele>39.0</ele><time>2026-03-22T14:38:38.995Z</time></trkpt><trkpt lat="16.27418" lon="-61.2530256"><ele>39.0</ele><time>2026-03-22T14:38:40.003Z</time></trkpt><trkpt lat="16.2741275" lon="-61.2529235"><ele>39.0</ele><time>2026-03-22T14:38:41.012Z</time></trkpt><trkpt lat="16.2740769" lon="-61.2528202"><ele>39.0</ele><time>2026-03-22T14:38:41.996Z</time></trkpt><trkpt lat="16.2740278" lon="-61.2527066"><ele>39.0</ele><time>2026-03-22T14:38:42.979Z</time></trkpt><trkpt lat="16.2739749" lon="-61.2525985"><ele>39.0</ele><time>2026-03-22T14:38:44Z</time></trkpt><trkpt lat="16.2739209" lon="-61.2524945"><ele>39.0</ele><time>2026-03-22T14:38:45Z</time></trkpt><trkpt lat="16.2738784" lon="-61.2523978"><ele>39.0</ele><time>2026-03-22T14:38:46.077Z</time></trkpt><trkpt lat="16.2738475" lon="-61.252339"><ele>39.0</ele><time>2026-03-22T14:38:47.034Z</time></trkpt><trkpt lat="16.2737769" lon="-61.2523724"><ele>39.0</ele><time>2026-03-22T14:38:57.991Z</time></trkpt><trkpt lat="16.2737598" lon="-61.2525128"><ele>39.0</ele><time>2026-03-22T14:38:59.977Z</time></trkpt><trkpt lat="16.2737373" lon="-61.2526174"><ele>39.0</ele><time>2026-03-22T14:39:00.976Z</time></trkpt><trkpt lat="16.2737021" lon="-61.25272"><ele>39.0</ele><time>2026-03-22T14:39:01.994Z</time></trkpt><trkpt lat="16.2736493" lon="-61.2528172"><ele>39.0</ele><time>2026-03-22T14:39:03.066Z</time></trkpt><trkpt lat="16.2735914" lon="-61.2529061"><ele>39.0</ele><time>2026-03-22T14:39:03.991Z</time></trkpt><trkpt lat="16.2735259" lon="-61.2530011"><ele>39.0</ele><time>2026-03-22T14:39:05Z</time></trkpt><trkpt lat="16.2734629" lon="-61.2530962"><ele>38.25</ele><time>2026-03-22T14:39:06.003Z</time></trkpt><trkpt lat="16.2733907" lon="-61.2531899"><ele>37.5</ele><time>2026-03-22T14:39:06.993Z</time></trkpt><trkpt lat="16.2733199" lon="-61.2532815"><ele>36.75</ele><time>2026-03-22T14:39:08.005Z</time></trkpt><trkpt lat="16.2732506" lon="-61.2533797"><ele>36.0</ele><time>2026-03-22T14:39:09Z</time></trkpt><trkpt lat="16.273171" lon="-61.2534782"><ele>36.5</ele><time>2026-03-22T14:39:10.002Z</time></trkpt><trkpt lat="16.2730949" lon="-61.2535825"><ele>37.0</ele><time>2026-03-22T14:39:10.994Z</time></trkpt><trkpt lat="16.2730258" lon="-61.2536776"><ele>37.5</ele><time>2026-03-22T14:39:11.997Z</time></trkpt><trkpt lat="16.2729532" lon="-61.2537719"><ele>38.0</ele><time>2026-03-22T14:39:12.991Z</time></trkpt><trkpt lat="16.272878" lon="-61.2538659"><ele>37.75</ele><time>2026-03-22T14:39:13.985Z</time></trkpt><trkpt lat="16.272803" lon="-61.2539631"><ele>37.5</ele><time>2026-03-22T14:39:15.004Z</time></trkpt><trkpt lat="16.2727227" lon="-61.2540554"><ele>37.25</ele><time>2026-03-22T14:39:16.003Z</time></trkpt><trkpt lat="16.2726473" lon="-61.2541455"><ele>37.0</ele><time>2026-03-22T14:39:16.999Z</time></trkpt><trkpt lat="16.2725699" lon="-61.2542398"><ele>37.0</ele><time>2026-03-22T14:39:18.067Z</time></trkpt><trkpt lat="16.2724913" lon="-61.25433"><ele>37.0</ele><time>2026-03-22T14:39:18.983Z</time></trkpt><trkpt lat="16.2724133" lon="-61.2544219"><ele>37.0</ele><time>2026-03-22T14:39:19.999Z</time></trkpt><trkpt lat="16.2723274" lon="-61.2545097"><ele>37.0</ele><time>2026-03-22T14:39:20.985Z</time></trkpt><trkpt lat="16.2722361" lon="-61.254595"><ele>35.75</ele><time>2026-03-22T14:39:21.991Z</time></trkpt><trkpt lat="16.2721472" lon="-61.2546714"><ele>34.5</ele><time>2026-03-22T14:39:22.964Z</time></trkpt><trkpt lat="16.2720601" lon="-61.254747"><ele>33.25</ele><time>2026-03-22T14:39:23.988Z</time></trkpt><trkpt lat="16.2719688" lon="-61.2548242"><ele>32.0</ele><time>2026-03-22T14:39:24.985Z</time></trkpt><trkpt lat="16.2718791" lon="-61.254905"><ele>32.0</ele><time>2026-03-22T14:39:25.989Z</time></trkpt><trkpt lat="16.2717955" lon="-61.2549943"><ele>32.0</ele><time>2026-03-22T14:39:26.988Z</time></trkpt><trkpt lat="16.2717135" lon="-61.2550852"><ele>32.0</ele><time>2026-03-22T14:39:27.952Z</time></trkpt><trkpt lat="16.2716383" lon="-61.2551736"><ele>32.0</ele><time>2026-03-22T14:39:28.991Z</time></trkpt><trkpt lat="16.2715715" lon="-61.2552687"><ele>32.0</ele><time>2026-03-22T14:39:29.956Z</time></trkpt><trkpt lat="16.2715041" lon="-61.2553728"><ele>32.0</ele><time>2026-03-22T14:39:30.978Z</time></trkpt><trkpt lat="16.2714416" lon="-61.2554782"><ele>32.0</ele><time>2026-03-22T14:39:31.994Z</time></trkpt><trkpt lat="16.2713806" lon="-61.2555887"><ele>32.0</ele><time>2026-03-22T14:39:32.987Z</time></trkpt><trkpt lat="16.2713257" lon="-61.2556969"><ele>32.166666666666664</ele><time>2026-03-22T14:39:33.992Z</time></trkpt><trkpt lat="16.2712772" lon="-61.2558023"><ele>32.33333333333333</ele><time>2026-03-22T14:39:35.059Z</time></trkpt><trkpt lat="16.2712289" lon="-61.2558955"><ele>32.5</ele><time>2026-03-22T14:39:36.035Z</time></trkpt><trkpt lat="16.2711903" lon="-61.2559654"><ele>32.666666666666664</ele><time>2026-03-22T14:39:37.061Z</time></trkpt><trkpt lat="16.27113" lon="-61.2560311"><ele>32.833333333333336</ele><time>2026-03-22T14:39:38.987Z</time></trkpt><trkpt lat="16.2710869" lon="-61.2559774"><ele>33.0</ele><time>2026-03-22T14:39:41.989Z</time></trkpt><trkpt lat="16.2710905" lon="-61.2558862"><ele>33.0</ele><time>2026-03-22T14:39:43.055Z</time></trkpt><trkpt lat="16.2710927" lon="-61.2557767"><ele>33.0</ele><time>2026-03-22T14:39:43.986Z</time></trkpt><trkpt lat="16.2710885" lon="-61.2556718"><ele>33.0</ele><time>2026-03-22T14:39:44.994Z</time></trkpt><trkpt lat="16.2710735" lon="-61.2555606"><ele>33.0</ele><time>2026-03-22T14:39:45.973Z</time></trkpt><trkpt lat="16.2710426" lon="-61.2554562"><ele>33.0</ele><time>2026-03-22T14:39:46.977Z</time></trkpt><trkpt lat="16.2710017" lon="-61.2553543"><ele>33.0</ele><time>2026-03-22T14:39:47.957Z</time></trkpt><trkpt lat="16.2709573" lon="-61.2552497"><ele>33.0</ele><time>2026-03-22T14:39:48.995Z</time></trkpt><trkpt lat="16.270911" lon="-61.2551483"><ele>33.0</ele><time>2026-03-22T14:39:49.99Z</time></trkpt><trkpt lat="16.2708701" lon="-61.2550528"><ele>33.0</ele><time>2026-03-22T14:39:50.97Z</time></trkpt><trkpt lat="16.2708357" lon="-61.2549533"><ele>33.0</ele><time>2026-03-22T14:39:52.012Z</time></trkpt><trkpt lat="16.2708167" lon="-61.254846"><ele>33.199999999999996</ele><time>2026-03-22T14:39:52.978Z</time></trkpt><trkpt lat="16.2708119" lon="-61.254747"><ele>33.4</ele><time>2026-03-22T14:39:53.988Z</time></trkpt><trkpt lat="16.2708141" lon="-61.254645"><ele>33.599999999999994</ele><time>2026-03-22T14:39:54.991Z</time></trkpt><trkpt lat="16.27082" lon="-61.2545333"><ele>33.8</ele><time>2026-03-22T14:39:55.985Z</time></trkpt><trkpt lat="16.2708263" lon="-61.2544268"><ele>34.0</ele><time>2026-03-22T14:39:56.953Z</time></trkpt><trkpt lat="16.2708359" lon="-61.2543154"><ele>34.0</ele><time>2026-03-22T14:39:57.99Z</time></trkpt><trkpt lat="16.270845" lon="-61.2542025"><ele>34.0</ele><time>2026-03-22T14:39:58.959Z</time></trkpt><trkpt lat="16.270857" lon="-61.2540883"><ele>34.0</ele><time>2026-03-22T14:40:00.016Z</time></trkpt><trkpt lat="16.270867" lon="-61.2539851"><ele>34.0</ele><time>2026-03-22T14:40:01.028Z</time></trkpt><trkpt lat="16.2708766" lon="-61.253885"><ele>34.0</ele><time>2026-03-22T14:40:01.972Z</time></trkpt><trkpt lat="16.2708898" lon="-61.2537807"><ele>34.0</ele><time>2026-03-22T14:40:02.995Z</time></trkpt><trkpt lat="16.2708976" lon="-61.2536727"><ele>34.0</ele><time>2026-03-22T14:40:03.994Z</time></trkpt><trkpt lat="16.2709093" lon="-61.2535677"><ele>34.0</ele><time>2026-03-22T14:40:04.99Z</time></trkpt><trkpt lat="16.270922" lon="-61.2534623"><ele>34.0</ele><time>2026-03-22T14:40:06Z</time></trkpt><trkpt lat="16.2709287" lon="-61.2533541"><ele>34.0</ele><time>2026-03-22T14:40:06.991Z</time></trkpt><trkpt lat="16.2709379" lon="-61.2532517"><ele>34.0</ele><time>2026-03-22T14:40:08.06Z</time></trkpt><trkpt lat="16.2709411" lon="-61.2531569"><ele>34.0</ele><time>2026-03-22T14:40:08.99Z</time></trkpt><trkpt lat="16.2709296" lon="-61.2530684"><ele>34.0</ele><time>2026-03-22T14:40:09.996Z</time></trkpt><trkpt lat="16.2708977" lon="-61.2529867"><ele>34.0</ele><time>2026-03-22T14:40:10.988Z</time></trkpt><trkpt lat="16.2708563" lon="-61.2529045"><ele>34.0</ele><time>2026-03-22T14:40:12.063Z</time></trkpt><trkpt lat="16.2708032" lon="-61.2528209"><ele>34.0</ele><time>2026-03-22T14:40:13.045Z</time></trkpt><trkpt lat="16.2707428" lon="-61.2527402"><ele>35.0</ele><time>2026-03-22T14:40:13.986Z</time></trkpt><trkpt lat="16.2706815" lon="-61.2526574"><ele>36.0</ele><time>2026-03-22T14:40:14.996Z</time></trkpt><trkpt lat="16.2706204" lon="-61.2525767"><ele>37.0</ele><time>2026-03-22T14:40:15.964Z</time></trkpt><trkpt lat="16.2705536" lon="-61.2524953"><ele>38.0</ele><time>2026-03-22T14:40:17.064Z</time></trkpt><trkpt lat="16.2704885" lon="-61.2524135"><ele>39.0</ele><time>2026-03-22T14:40:18.041Z</time></trkpt><trkpt lat="16.2704261" lon="-61.2523346"><ele>39.4</ele><time>2026-03-22T14:40:18.973Z</time></trkpt><trkpt lat="16.270357" lon="-61.2522611"><ele>39.8</ele><time>2026-03-22T14:40:19.991Z</time></trkpt><trkpt lat="16.2702847" lon="-61.2521834"><ele>40.199999999999996</ele><time>2026-03-22T14:40:20.968Z</time></trkpt><trkpt lat="16.2702169" lon="-61.2520999"><ele>40.599999999999994</ele><time>2026-03-22T14:40:22.062Z</time></trkpt><trkpt lat="16.270152" lon="-61.2520138"><ele>41.0</ele><time>2026-03-22T14:40:23.035Z</time></trkpt><trkpt lat="16.2700884" lon="-61.2519268"><ele>41.0</ele><time>2026-03-22T14:40:23.986Z</time></trkpt><trkpt lat="16.2700245" lon="-61.2518521"><ele>41.0</ele><time>2026-03-22T14:40:24.998Z</time></trkpt><trkpt lat="16.2699615" lon="-61.2517743"><ele>41.0</ele><time>2026-03-22T14:40:25.988Z</time></trkpt><trkpt lat="16.2699086" lon="-61.2516965"><ele>41.0</ele><time>2026-03-22T14:40:26.976Z</time></trkpt><trkpt lat="16.2698762" lon="-61.2516211"><ele>41.0</ele><time>2026-03-22T14:40:27.991Z</time></trkpt><trkpt lat="16.2698727" lon="-61.2515483"><ele>41.0</ele><time>2026-03-22T14:40:28.983Z</time></trkpt><trkpt lat="16.2698881" lon="-61.2514738"><ele>40.599999999999994</ele><time>2026-03-22T14:40:29.976Z</time></trkpt><trkpt lat="16.2699321" lon="-61.2513979"><ele>40.199999999999996</ele><time>2026-03-22T14:40:30.985Z</time></trkpt><trkpt lat="16.2699792" lon="-61.2513199"><ele>39.8</ele><time>2026-03-22T14:40:31.979Z</time></trkpt><trkpt lat="16.27004" lon="-61.2512396"><ele>39.4</ele><time>2026-03-22T14:40:33.046Z</time></trkpt><trkpt lat="16.2701104" lon="-61.2511521"><ele>39.0</ele><time>2026-03-22T14:40:33.975Z</time></trkpt><trkpt lat="16.2701844" lon="-61.2510629"><ele>39.0</ele><time>2026-03-22T14:40:34.988Z</time></trkpt><trkpt lat="16.2702638" lon="-61.250981"><ele>39.0</ele><time>2026-03-22T14:40:35.969Z</time></trkpt><trkpt lat="16.2703451" lon="-61.2508951"><ele>39.0</ele><time>2026-03-22T14:40:36.992Z</time></trkpt><trkpt lat="16.2704298" lon="-61.2508078"><ele>39.0</ele><time>2026-03-22T14:40:37.989Z</time></trkpt><trkpt lat="16.2705133" lon="-61.250716"><ele>39.0</ele><time>2026-03-22T14:40:38.998Z</time></trkpt><trkpt lat="16.2705909" lon="-61.2506279"><ele>39.0</ele><time>2026-03-22T14:40:39.959Z</time></trkpt><trkpt lat="16.2706699" lon="-61.2505423"><ele>39.0</ele><time>2026-03-22T14:40:40.976Z</time></trkpt><trkpt lat="16.2707465" lon="-61.2504558"><ele>39.0</ele><time>2026-03-22T14:40:41.993Z</time></trkpt><trkpt lat="16.270821" lon="-61.2503661"><ele>38.6</ele><time>2026-03-22T14:40:42.992Z</time></trkpt><trkpt lat="16.2708837" lon="-61.2502827"><ele>38.2</ele><time>2026-03-22T14:40:43.99Z</time></trkpt><trkpt lat="16.2709379" lon="-61.2501888"><ele>37.800000000000004</ele><time>2026-03-22T14:40:44.978Z</time></trkpt><trkpt lat="16.2709731" lon="-61.2500985"><ele>37.4</ele><time>2026-03-22T14:40:45.985Z</time></trkpt><trkpt lat="16.2710017" lon="-61.2500124"><ele>37.0</ele><time>2026-03-22T14:40:46.997Z</time></trkpt><trkpt lat="16.2710122" lon="-61.2499223"><ele>37.0</ele><time>2026-03-22T14:40:47.995Z</time></trkpt><trkpt lat="16.2710063" lon="-61.2498381"><ele>37.0</ele><time>2026-03-22T14:40:48.987Z</time></trkpt><trkpt lat="16.2709925" lon="-61.2497451"><ele>37.0</ele><time>2026-03-22T14:40:49.987Z</time></trkpt><trkpt lat="16.2709631" lon="-61.2496497"><ele>37.0</ele><time>2026-03-22T14:40:50.985Z</time></trkpt><trkpt lat="16.270925" lon="-61.2495442"><ele>37.0</ele><time>2026-03-22T14:40:51.994Z</time></trkpt><trkpt lat="16.2708803" lon="-61.2494237"><ele>36.4</ele><time>2026-03-22T14:40:52.989Z</time></trkpt><trkpt lat="16.2708386" lon="-61.2493128"><ele>35.800000000000004</ele><time>2026-03-22T14:40:53.992Z</time></trkpt><trkpt lat="16.2707916" lon="-61.2492052"><ele>35.2</ele><time>2026-03-22T14:40:54.983Z</time></trkpt><trkpt lat="16.2707476" lon="-61.2491015"><ele>34.6</ele><time>2026-03-22T14:40:55.984Z</time></trkpt><trkpt lat="16.2707027" lon="-61.2489972"><ele>34.0</ele><time>2026-03-22T14:40:56.987Z</time></trkpt><trkpt lat="16.2706698" lon="-61.2488912"><ele>33.25</ele><time>2026-03-22T14:40:58.035Z</time></trkpt><trkpt lat="16.2706313" lon="-61.2487733"><ele>32.5</ele><time>2026-03-22T14:40:58.985Z</time></trkpt><trkpt lat="16.2705929" lon="-61.2486612"><ele>31.75</ele><time>2026-03-22T14:40:59.99Z</time></trkpt><trkpt lat="16.2705504" lon="-61.2485502"><ele>31.0</ele><time>2026-03-22T14:41:00.985Z</time></trkpt><trkpt lat="16.2705127" lon="-61.2484376"><ele>32.25</ele><time>2026-03-22T14:41:01.985Z</time></trkpt><trkpt lat="16.270488" lon="-61.2483211"><ele>33.5</ele><time>2026-03-22T14:41:02.977Z</time></trkpt><trkpt lat="16.2704653" lon="-61.2481995"><ele>34.75</ele><time>2026-03-22T14:41:03.988Z</time></trkpt><trkpt lat="16.2704499" lon="-61.2480777"><ele>36.0</ele><time>2026-03-22T14:41:04.983Z</time></trkpt><trkpt lat="16.270438" lon="-61.2479564"><ele>36.0</ele><time>2026-03-22T14:41:05.993Z</time></trkpt><trkpt lat="16.2704267" lon="-61.2478346"><ele>36.0</ele><time>2026-03-22T14:41:06.993Z</time></trkpt><trkpt lat="16.2704132" lon="-61.2477105"><ele>36.0</ele><time>2026-03-22T14:41:07.995Z</time></trkpt><trkpt lat="16.2704081" lon="-61.2475865"><ele>36.0</ele><time>2026-03-22T14:41:08.988Z</time></trkpt><trkpt lat="16.2704066" lon="-61.2474701"><ele>36.0</ele><time>2026-03-22T14:41:10.055Z</time></trkpt><trkpt lat="16.2704049" lon="-61.2473555"><ele>36.0</ele><time>2026-03-22T14:41:10.985Z</time></trkpt><trkpt lat="16.2704066" lon="-61.2472362"><ele>36.0</ele><time>2026-03-22T14:41:12.021Z</time></trkpt><trkpt lat="16.2704049" lon="-61.2471132"><ele>36.0</ele><time>2026-03-22T14:41:13.036Z</time></trkpt><trkpt lat="16.2703977" lon="-61.2469939"><ele>36.0</ele><time>2026-03-22T14:41:13.983Z</time></trkpt><trkpt lat="16.2703955" lon="-61.2468696"><ele>36.0</ele><time>2026-03-22T14:41:14.989Z</time></trkpt><trkpt lat="16.2703915" lon="-61.2467484"><ele>36.0</ele><time>2026-03-22T14:41:15.995Z</time></trkpt><trkpt lat="16.2703867" lon="-61.2466287"><ele>36.0</ele><time>2026-03-22T14:41:16.987Z</time></trkpt><trkpt lat="16.2703733" lon="-61.2465086"><ele>35.25</ele><time>2026-03-22T14:41:18.001Z</time></trkpt><trkpt lat="16.2703542" lon="-61.2463857"><ele>34.5</ele><time>2026-03-22T14:41:18.972Z</time></trkpt><trkpt lat="16.270328" lon="-61.2462679"><ele>33.75</ele><time>2026-03-22T14:41:19.986Z</time></trkpt><trkpt lat="16.2703" lon="-61.2461527"><ele>33.0</ele><time>2026-03-22T14:41:20.991Z</time></trkpt><trkpt lat="16.2702662" lon="-61.2460365"><ele>33.0</ele><time>2026-03-22T14:41:22.021Z</time></trkpt><trkpt lat="16.2702341" lon="-61.2459212"><ele>33.0</ele><time>2026-03-22T14:41:23.001Z</time></trkpt><trkpt lat="16.2702054" lon="-61.2458087"><ele>33.0</ele><time>2026-03-22T14:41:23.986Z</time></trkpt><trkpt lat="16.2701752" lon="-61.2456969"><ele>33.0</ele><time>2026-03-22T14:41:24.979Z</time></trkpt><trkpt lat="16.2701462" lon="-61.2455827"><ele>33.0</ele><time>2026-03-22T14:41:25.979Z</time></trkpt><trkpt lat="16.2701146" lon="-61.2454667"><ele>33.0</ele><time>2026-03-22T14:41:26.979Z</time></trkpt><trkpt lat="16.2700891" lon="-61.2453466"><ele>33.0</ele><time>2026-03-22T14:41:27.981Z</time></trkpt><trkpt lat="16.2700592" lon="-61.2452291"><ele>33.0</ele><time>2026-03-22T14:41:28.995Z</time></trkpt><trkpt lat="16.2700286" lon="-61.2451105"><ele>33.0</ele><time>2026-03-22T14:41:29.985Z</time></trkpt><trkpt lat="16.2699983" lon="-61.2449896"><ele>33.0</ele><time>2026-03-22T14:41:30.988Z</time></trkpt><trkpt lat="16.2699704" lon="-61.244868"><ele>33.0</ele><time>2026-03-22T14:41:32.029Z</time></trkpt><trkpt lat="16.2699383" lon="-61.2447576"><ele>33.0</ele><time>2026-03-22T14:41:33.029Z</time></trkpt><trkpt lat="16.2699108" lon="-61.2446472"><ele>33.0</ele><time>2026-03-22T14:41:33.983Z</time></trkpt><trkpt lat="16.2698808" lon="-61.2445362"><ele>33.0</ele><time>2026-03-22T14:41:34.984Z</time></trkpt><trkpt lat="16.2698476" lon="-61.2444283"><ele>33.0</ele><time>2026-03-22T14:41:35.981Z</time></trkpt><trkpt lat="16.2698098" lon="-61.2443241"><ele>33.0</ele><time>2026-03-22T14:41:37.004Z</time></trkpt><trkpt lat="16.2697731" lon="-61.2442164"><ele>33.0</ele><time>2026-03-22T14:41:37.992Z</time></trkpt><trkpt lat="16.269736" lon="-61.2441097"><ele>33.199999999999996</ele><time>2026-03-22T14:41:38.992Z</time></trkpt><trkpt lat="16.2696995" lon="-61.2440046"><ele>33.4</ele><time>2026-03-22T14:41:39.992Z</time></trkpt><trkpt lat="16.2696635" lon="-61.2438993"><ele>33.599999999999994</ele><time>2026-03-22T14:41:40.982Z</time></trkpt><trkpt lat="16.2696304" lon="-61.2437942"><ele>33.8</ele><time>2026-03-22T14:41:41.985Z</time></trkpt><trkpt lat="16.2695952" lon="-61.243696"><ele>34.0</ele><time>2026-03-22T14:41:43.063Z</time></trkpt><trkpt lat="16.2695585" lon="-61.2435957"><ele>34.0</ele><time>2026-03-22T14:41:43.992Z</time></trkpt><trkpt lat="16.2695245" lon="-61.2434979"><ele>34.0</ele><time>2026-03-22T14:41:45.008Z</time></trkpt><trkpt lat="16.2694955" lon="-61.2433996"><ele>34.0</ele><time>2026-03-22T14:41:45.999Z</time></trkpt><trkpt lat="16.2694651" lon="-61.2433078"><ele>34.0</ele><time>2026-03-22T14:41:47.006Z</time></trkpt><trkpt lat="16.2694313" lon="-61.2432186"><ele>34.0</ele><time>2026-03-22T14:41:48.065Z</time></trkpt><trkpt lat="16.269394" lon="-61.243132"><ele>33.8</ele><time>2026-03-22T14:41:48.988Z</time></trkpt><trkpt lat="16.2693498" lon="-61.2430434"><ele>33.599999999999994</ele><time>2026-03-22T14:41:49.982Z</time></trkpt><trkpt lat="16.269297" lon="-61.2429575"><ele>33.4</ele><time>2026-03-22T14:41:50.981Z</time></trkpt><trkpt lat="16.2692366" lon="-61.2428742"><ele>33.199999999999996</ele><time>2026-03-22T14:41:52.055Z</time></trkpt><trkpt lat="16.2691764" lon="-61.2427923"><ele>33.0</ele><time>2026-03-22T14:41:53.05Z</time></trkpt><trkpt lat="16.2691075" lon="-61.2427178"><ele>33.0</ele><time>2026-03-22T14:41:53.986Z</time></trkpt><trkpt lat="16.2690376" lon="-61.2426437"><ele>33.0</ele><time>2026-03-22T14:41:54.978Z</time></trkpt><trkpt lat="16.2689677" lon="-61.2425725"><ele>33.0</ele><time>2026-03-22T14:41:56Z</time></trkpt><trkpt lat="16.2688954" lon="-61.242502"><ele>33.0</ele><time>2026-03-22T14:41:57.041Z</time></trkpt><trkpt lat="16.2688306" lon="-61.2424362"><ele>33.0</ele><time>2026-03-22T14:41:58.046Z</time></trkpt><trkpt lat="16.2687651" lon="-61.2423691"><ele>34.199999999999996</ele><time>2026-03-22T14:41:58.987Z</time></trkpt><trkpt lat="16.268692" lon="-61.2423013"><ele>35.4</ele><time>2026-03-22T14:41:59.966Z</time></trkpt><trkpt lat="16.2686214" lon="-61.2422386"><ele>36.599999999999994</ele><time>2026-03-22T14:42:00.972Z</time></trkpt><trkpt lat="16.2685563" lon="-61.242166"><ele>37.8</ele><time>2026-03-22T14:42:02.076Z</time></trkpt><trkpt lat="16.268493" lon="-61.2420925"><ele>39.0</ele><time>2026-03-22T14:42:03.03Z</time></trkpt><trkpt lat="16.2684214" lon="-61.2420231"><ele>39.0</ele><time>2026-03-22T14:42:03.992Z</time></trkpt><trkpt lat="16.2683493" lon="-61.2419484"><ele>39.0</ele><time>2026-03-22T14:42:04.994Z</time></trkpt><trkpt lat="16.2682749" lon="-61.2418765"><ele>39.0</ele><time>2026-03-22T14:42:05.983Z</time></trkpt><trkpt lat="16.2682013" lon="-61.2418006"><ele>39.0</ele><time>2026-03-22T14:42:06.991Z</time></trkpt><trkpt lat="16.2681277" lon="-61.2417208"><ele>39.0</ele><time>2026-03-22T14:42:07.995Z</time></trkpt><trkpt lat="16.2680518" lon="-61.2416468"><ele>39.0</ele><time>2026-03-22T14:42:09.008Z</time></trkpt><trkpt lat="16.2679792" lon="-61.241563"><ele>39.0</ele><time>2026-03-22T14:42:09.998Z</time></trkpt><trkpt lat="16.267906" lon="-61.2414782"><ele>39.0</ele><time>2026-03-22T14:42:10.998Z</time></trkpt><trkpt lat="16.2678312" lon="-61.241397"><ele>39.0</ele><time>2026-03-22T14:42:12.041Z</time></trkpt><trkpt lat="16.2677597" lon="-61.2413249"><ele>39.0</ele><time>2026-03-22T14:42:13.056Z</time></trkpt><trkpt lat="16.2676962" lon="-61.2412564"><ele>38.833333333333336</ele><time>2026-03-22T14:42:13.989Z</time></trkpt><trkpt lat="16.2676369" lon="-61.2411872"><ele>38.666666666666664</ele><time>2026-03-22T14:42:14.986Z</time></trkpt><trkpt lat="16.267581" lon="-61.2411138"><ele>38.5</ele><time>2026-03-22T14:42:15.978Z</time></trkpt><trkpt lat="16.2675275" lon="-61.2410394"><ele>38.33333333333333</ele><time>2026-03-22T14:42:16.996Z</time></trkpt><trkpt lat="16.2674794" lon="-61.2409681"><ele>38.166666666666664</ele><time>2026-03-22T14:42:18.001Z</time></trkpt><trkpt lat="16.2674389" lon="-61.2408993"><ele>38.0</ele><time>2026-03-22T14:42:18.996Z</time></trkpt><trkpt lat="16.2674153" lon="-61.2408197"><ele>38.0</ele><time>2026-03-22T14:42:19.984Z</time></trkpt><trkpt lat="16.2674054" lon="-61.240729"><ele>38.0</ele><time>2026-03-22T14:42:21.043Z</time></trkpt><trkpt lat="16.2674016" lon="-61.2406378"><ele>38.0</ele><time>2026-03-22T14:42:22.041Z</time></trkpt><trkpt lat="16.2674004" lon="-61.2405412"><ele>38.0</ele><time>2026-03-22T14:42:22.98Z</time></trkpt><trkpt lat="16.2673996" lon="-61.2404447"><ele>38.0</ele><time>2026-03-22T14:42:23.997Z</time></trkpt><trkpt lat="16.2673966" lon="-61.2403526"><ele>38.0</ele><time>2026-03-22T14:42:24.978Z</time></trkpt><trkpt lat="16.2673985" lon="-61.2402643"><ele>38.0</ele><time>2026-03-22T14:42:25.988Z</time></trkpt><trkpt lat="16.2673981" lon="-61.2401811"><ele>38.0</ele><time>2026-03-22T14:42:27.003Z</time></trkpt><trkpt lat="16.2673884" lon="-61.2401032"><ele>38.0</ele><time>2026-03-22T14:42:27.956Z</time></trkpt><trkpt lat="16.2673729" lon="-61.2400328"><ele>38.0</ele><time>2026-03-22T14:42:28.984Z</time></trkpt><trkpt lat="16.267349" lon="-61.2399661"><ele>38.0</ele><time>2026-03-22T14:42:29.98Z</time></trkpt><trkpt lat="16.2673155" lon="-61.2399023"><ele>38.0</ele><time>2026-03-22T14:42:31.055Z</time></trkpt><trkpt lat="16.2672699" lon="-61.2398451"><ele>38.0</ele><time>2026-03-22T14:42:31.959Z</time></trkpt><trkpt lat="16.2672126" lon="-61.2397981"><ele>37.166666666666664</ele><time>2026-03-22T14:42:33.047Z</time></trkpt><trkpt lat="16.2671553" lon="-61.2397461"><ele>36.33333333333333</ele><time>2026-03-22T14:42:33.956Z</time></trkpt><trkpt lat="16.2670943" lon="-61.2396931"><ele>35.5</ele><time>2026-03-22T14:42:34.993Z</time></trkpt><trkpt lat="16.2670381" lon="-61.2396398"><ele>34.666666666666664</ele><time>2026-03-22T14:42:35.991Z</time></trkpt><trkpt lat="16.2669653" lon="-61.2395669"><ele>33.833333333333336</ele><time>2026-03-22T14:42:37.981Z</time></trkpt><trkpt lat="16.2669743" lon="-61.2394954"><ele>33.0</ele><time>2026-03-22T14:42:39.983Z</time></trkpt><trkpt lat="16.2670276" lon="-61.2394307"><ele>33.0</ele><time>2026-03-22T14:42:42.065Z</time></trkpt><trkpt lat="16.267081" lon="-61.2393867"><ele>33.0</ele><time>2026-03-22T14:42:43.997Z</time></trkpt><trkpt lat="16.2671917" lon="-61.2393549"><ele>33.0</ele><time>2026-03-22T14:42:46.985Z</time></trkpt><trkpt lat="16.267288" lon="-61.2392931"><ele>33.0</ele><time>2026-03-22T14:42:48.982Z</time></trkpt><trkpt lat="16.2673474" lon="-61.2392669"><ele>33.0</ele><time>2026-03-22T14:42:49.982Z</time></trkpt><trkpt lat="16.2674139" lon="-61.2392368"><ele>33.0</ele><time>2026-03-22T14:42:50.99Z</time></trkpt><trkpt lat="16.2674823" lon="-61.2392018"><ele>33.166666666666664</ele><time>2026-03-22T14:42:52.059Z</time></trkpt><trkpt lat="16.2675504" lon="-61.2391623"><ele>33.333333333333336</ele><time>2026-03-22T14:42:52.996Z</time></trkpt><trkpt lat="16.2676232" lon="-61.2391244"><ele>33.5</ele><time>2026-03-22T14:42:53.999Z</time></trkpt><trkpt lat="16.2676902" lon="-61.2390912"><ele>33.66666666666667</ele><time>2026-03-22T14:42:54.977Z</time></trkpt><trkpt lat="16.267744" lon="-61.2390544"><ele>33.833333333333336</ele><time>2026-03-22T14:42:55.994Z</time></trkpt><trkpt lat="16.2677966" lon="-61.2389331"><ele>34.0</ele><time>2026-03-22T14:42:57.997Z</time></trkpt><trkpt lat="16.267802" lon="-61.2388155"><ele>33.2</ele><time>2026-03-22T14:42:59.99Z</time></trkpt><trkpt lat="16.2677731" lon="-61.238698"><ele>32.4</ele><time>2026-03-22T14:43:02.978Z</time></trkpt><trkpt lat="16.2677443" lon="-61.2386185"><ele>31.6</ele><time>2026-03-22T14:43:05.039Z</time></trkpt><trkpt lat="16.2677314" lon="-61.2385058"><ele>30.8</ele><time>2026-03-22T14:43:06.979Z</time></trkpt><trkpt lat="16.2677276" lon="-61.2383906"><ele>30.0</ele><time>2026-03-22T14:43:08.964Z</time></trkpt><trkpt lat="16.2677225" lon="-61.2382888"><ele>30.0</ele><time>2026-03-22T14:43:10.988Z</time></trkpt><trkpt lat="16.2677271" lon="-61.2381925"><ele>30.0</ele><time>2026-03-22T14:43:12.986Z</time></trkpt><trkpt lat="16.2677783" lon="-61.2380621"><ele>30.0</ele><time>2026-03-22T14:43:14.997Z</time></trkpt><trkpt lat="16.2678257" lon="-61.237964"><ele>30.0</ele><time>2026-03-22T14:43:15.993Z</time></trkpt><trkpt lat="16.2678743" lon="-61.2378505"><ele>29.4</ele><time>2026-03-22T14:43:16.988Z</time></trkpt><trkpt lat="16.26792" lon="-61.2377367"><ele>28.8</ele><time>2026-03-22T14:43:17.988Z</time></trkpt><trkpt lat="16.2679642" lon="-61.2376366"><ele>28.200000000000003</ele><time>2026-03-22T14:43:18.988Z</time></trkpt><trkpt lat="16.2680086" lon="-61.2375475"><ele>27.6</ele><time>2026-03-22T14:43:19.998Z</time></trkpt><trkpt lat="16.2680489" lon="-61.2374648"><ele>27.0</ele><time>2026-03-22T14:43:20.996Z</time></trkpt><trkpt lat="16.2680785" lon="-61.2373942"><ele>27.0</ele><time>2026-03-22T14:43:21.987Z</time></trkpt><trkpt lat="16.268084" lon="-61.2373262"><ele>27.0</ele><time>2026-03-22T14:43:22.985Z</time></trkpt><trkpt lat="16.268066" lon="-61.2372471"><ele>27.0</ele><time>2026-03-22T14:43:23.996Z</time></trkpt><trkpt lat="16.2680411" lon="-61.2371697"><ele>27.0</ele><time>2026-03-22T14:43:24.975Z</time></trkpt><trkpt lat="16.2680092" lon="-61.2370798"><ele>27.0</ele><time>2026-03-22T14:43:25.983Z</time></trkpt><trkpt lat="16.2679624" lon="-61.2369779"><ele>27.0</ele><time>2026-03-22T14:43:26.971Z</time></trkpt><trkpt lat="16.2679061" lon="-61.2368783"><ele>26.25</ele><time>2026-03-22T14:43:27.996Z</time></trkpt><trkpt lat="16.2678426" lon="-61.2367747"><ele>25.5</ele><time>2026-03-22T14:43:28.987Z</time></trkpt><trkpt lat="16.2677794" lon="-61.2366743"><ele>24.75</ele><time>2026-03-22T14:43:29.994Z</time></trkpt><trkpt lat="16.267717" lon="-61.2365778"><ele>24.0</ele><time>2026-03-22T14:43:30.96Z</time></trkpt><trkpt lat="16.2676565" lon="-61.2364823"><ele>22.75</ele><time>2026-03-22T14:43:31.982Z</time></trkpt><trkpt lat="16.2676039" lon="-61.2363776"><ele>21.5</ele><time>2026-03-22T14:43:32.981Z</time></trkpt><trkpt lat="16.2675629" lon="-61.2362643"><ele>20.25</ele><time>2026-03-22T14:43:33.977Z</time></trkpt><trkpt lat="16.2675186" lon="-61.2361496"><ele>19.0</ele><time>2026-03-22T14:43:34.981Z</time></trkpt><trkpt lat="16.2674734" lon="-61.2360406"><ele>19.0</ele><time>2026-03-22T14:43:35.954Z</time></trkpt><trkpt lat="16.2674325" lon="-61.2359283"><ele>19.0</ele><time>2026-03-22T14:43:36.991Z</time></trkpt><trkpt lat="16.2673856" lon="-61.2358163"><ele>19.0</ele><time>2026-03-22T14:43:37.996Z</time></trkpt><trkpt lat="16.267334" lon="-61.2357113"><ele>19.0</ele><time>2026-03-22T14:43:38.974Z</time></trkpt><trkpt lat="16.2672791" lon="-61.2356134"><ele>20.2</ele><time>2026-03-22T14:43:39.972Z</time></trkpt><trkpt lat="16.2672255" lon="-61.2355288"><ele>21.4</ele><time>2026-03-22T14:43:40.982Z</time></trkpt><trkpt lat="16.2671624" lon="-61.2354599"><ele>22.6</ele><time>2026-03-22T14:43:41.993Z</time></trkpt><trkpt lat="16.267088" lon="-61.235403"><ele>23.8</ele><time>2026-03-22T14:43:42.981Z</time></trkpt><trkpt lat="16.2670011" lon="-61.2353491"><ele>25.0</ele><time>2026-03-22T14:43:43.978Z</time></trkpt><trkpt lat="16.2669126" lon="-61.2353013"><ele>25.0</ele><time>2026-03-22T14:43:44.986Z</time></trkpt><trkpt lat="16.2668143" lon="-61.23525"><ele>25.0</ele><time>2026-03-22T14:43:45.966Z</time></trkpt><trkpt lat="16.266711" lon="-61.2351952"><ele>25.0</ele><time>2026-03-22T14:43:46.977Z</time></trkpt><trkpt lat="16.266602" lon="-61.2351481"><ele>25.0</ele><time>2026-03-22T14:43:47.98Z</time></trkpt><trkpt lat="16.2664935" lon="-61.2351151"><ele>26.0</ele><time>2026-03-22T14:43:48.988Z</time></trkpt><trkpt lat="16.2663818" lon="-61.2350929"><ele>27.0</ele><time>2026-03-22T14:43:49.984Z</time></trkpt><trkpt lat="16.266282" lon="-61.2350853"><ele>28.0</ele><time>2026-03-22T14:43:51.001Z</time></trkpt><trkpt lat="16.2661883" lon="-61.2350661"><ele>29.0</ele><time>2026-03-22T14:43:51.987Z</time></trkpt><trkpt lat="16.2661098" lon="-61.2350455"><ele>30.0</ele><time>2026-03-22T14:43:52.994Z</time></trkpt><trkpt lat="16.2660249" lon="-61.2350259"><ele>30.0</ele><time>2026-03-22T14:43:53.987Z</time></trkpt><trkpt lat="16.2659356" lon="-61.2350003"><ele>30.0</ele><time>2026-03-22T14:43:54.987Z</time></trkpt><trkpt lat="16.2658419" lon="-61.2349819"><ele>30.0</ele><time>2026-03-22T14:43:55.979Z</time></trkpt><trkpt lat="16.265751" lon="-61.2349615"><ele>30.0</ele><time>2026-03-22T14:43:56.986Z</time></trkpt><trkpt lat="16.2656601" lon="-61.2349362"><ele>30.0</ele><time>2026-03-22T14:43:57.989Z</time></trkpt><trkpt lat="16.2655774" lon="-61.23491"><ele>30.166666666666668</ele><time>2026-03-22T14:43:58.978Z</time></trkpt><trkpt lat="16.2655087" lon="-61.2348818"><ele>30.333333333333336</ele><time>2026-03-22T14:43:59.99Z</time></trkpt><trkpt lat="16.2654134" lon="-61.2348052"><ele>30.5</ele><time>2026-03-22T14:44:02.025Z</time></trkpt><trkpt lat="16.2653797" lon="-61.2347436"><ele>30.666666666666668</ele><time>2026-03-22T14:44:02.99Z</time></trkpt><trkpt lat="16.2653541" lon="-61.2346556"><ele>30.833333333333336</ele><time>2026-03-22T14:44:03.993Z</time></trkpt><trkpt lat="16.265333" lon="-61.2345596"><ele>31.0</ele><time>2026-03-22T14:44:05.071Z</time></trkpt><trkpt lat="16.2653208" lon="-61.2344589"><ele>31.4</ele><time>2026-03-22T14:44:05.992Z</time></trkpt><trkpt lat="16.2653054" lon="-61.2343495"><ele>31.8</ele><time>2026-03-22T14:44:06.976Z</time></trkpt><trkpt lat="16.2652821" lon="-61.2342475"><ele>32.199999999999996</ele><time>2026-03-22T14:44:07.986Z</time></trkpt><trkpt lat="16.2652577" lon="-61.2341464"><ele>32.6</ele><time>2026-03-22T14:44:08.982Z</time></trkpt><trkpt lat="16.265221" lon="-61.2340534"><ele>33.0</ele><time>2026-03-22T14:44:09.989Z</time></trkpt><trkpt lat="16.265176" lon="-61.2339676"><ele>33.0</ele><time>2026-03-22T14:44:11.051Z</time></trkpt><trkpt lat="16.2651201" lon="-61.2338924"><ele>33.0</ele><time>2026-03-22T14:44:12.036Z</time></trkpt><trkpt lat="16.2650657" lon="-61.2338212"><ele>33.0</ele><time>2026-03-22T14:44:12.995Z</time></trkpt><trkpt lat="16.2650198" lon="-61.2337505"><ele>33.0</ele><time>2026-03-22T14:44:13.99Z</time></trkpt><trkpt lat="16.2649778" lon="-61.2336803"><ele>33.0</ele><time>2026-03-22T14:44:14.998Z</time></trkpt><trkpt lat="16.2649393" lon="-61.2336055"><ele>33.0</ele><time>2026-03-22T14:44:15.981Z</time></trkpt><trkpt lat="16.2649048" lon="-61.2335354"><ele>33.0</ele><time>2026-03-22T14:44:16.985Z</time></trkpt><trkpt lat="16.2648822" lon="-61.2334696"><ele>33.0</ele><time>2026-03-22T14:44:29.976Z</time></trkpt><trkpt lat="16.2649268" lon="-61.2335382"><ele>33.0</ele><time>2026-03-22T14:45:01.979Z</time></trkpt><trkpt lat="16.264934" lon="-61.2336139"><ele>33.0</ele><time>2026-03-22T14:45:04Z</time></trkpt><trkpt lat="16.2649272" lon="-61.2336916"><ele>33.0</ele><time>2026-03-22T14:45:07.069Z</time></trkpt><trkpt lat="16.2648434" lon="-61.2336454"><ele>33.0</ele><time>2026-03-22T14:46:12.99Z</time></trkpt><trkpt lat="16.2647263" lon="-61.2336091"><ele>32.5</ele><time>2026-03-22T14:46:14.995Z</time></trkpt><trkpt lat="16.2646503" lon="-61.2335906"><ele>32.0</ele><time>2026-03-22T14:46:15.995Z</time></trkpt><trkpt lat="16.2645752" lon="-61.2335832"><ele>31.5</ele><time>2026-03-22T14:46:17.003Z</time></trkpt><trkpt lat="16.2645125" lon="-61.2335702"><ele>31.0</ele><time>2026-03-22T14:46:17.991Z</time></trkpt><trkpt lat="16.264429" lon="-61.2335581"><ele>30.5</ele><time>2026-03-22T14:46:19.986Z</time></trkpt><trkpt lat="16.2643378" lon="-61.233562"><ele>30.0</ele><time>2026-03-22T14:46:22.961Z</time></trkpt><trkpt lat="16.2642739" lon="-61.2335665"><ele>30.0</ele><time>2026-03-22T14:46:24.998Z</time></trkpt><trkpt lat="16.2641914" lon="-61.2335983"><ele>30.0</ele><time>2026-03-22T14:46:26.964Z</time></trkpt><trkpt lat="16.2641119" lon="-61.2336676"><ele>30.0</ele><time>2026-03-22T14:46:29.005Z</time></trkpt><trkpt lat="16.2640728" lon="-61.2337345"><ele>30.0</ele><time>2026-03-22T14:46:30.955Z</time></trkpt><trkpt lat="16.263983" lon="-61.2337978"><ele>30.0</ele><time>2026-03-22T14:46:32.987Z</time></trkpt><trkpt lat="16.2639065" lon="-61.2338261"><ele>29.4</ele><time>2026-03-22T14:46:34.998Z</time></trkpt><trkpt lat="16.2638301" lon="-61.23388"><ele>28.8</ele><time>2026-03-22T14:46:36.987Z</time></trkpt><trkpt lat="16.2637381" lon="-61.2339447"><ele>28.200000000000003</ele><time>2026-03-22T14:46:38.97Z</time></trkpt><trkpt lat="16.2636394" lon="-61.2340305"><ele>27.6</ele><time>2026-03-22T14:46:40.996Z</time></trkpt><trkpt lat="16.2635849" lon="-61.2340795"><ele>27.0</ele><time>2026-03-22T14:46:41.956Z</time></trkpt><trkpt lat="16.2635252" lon="-61.2341188"><ele>26.833333333333332</ele><time>2026-03-22T14:46:42.966Z</time></trkpt><trkpt lat="16.263462" lon="-61.2341517"><ele>26.666666666666664</ele><time>2026-03-22T14:46:43.946Z</time></trkpt><trkpt lat="16.2633905" lon="-61.234187"><ele>26.5</ele><time>2026-03-22T14:46:44.969Z</time></trkpt><trkpt lat="16.2633299" lon="-61.2342115"><ele>26.333333333333332</ele><time>2026-03-22T14:46:45.982Z</time></trkpt><trkpt lat="16.2632534" lon="-61.2342231"><ele>26.166666666666664</ele><time>2026-03-22T14:46:47.988Z</time></trkpt><trkpt lat="16.2631426" lon="-61.2341834"><ele>26.0</ele><time>2026-03-22T14:46:50.982Z</time></trkpt><trkpt lat="16.2630705" lon="-61.2342018"><ele>26.499999999999996</ele><time>2026-03-22T14:46:51.956Z</time></trkpt><trkpt lat="16.2629944" lon="-61.2342196"><ele>27.0</ele><time>2026-03-22T14:46:52.992Z</time></trkpt><trkpt lat="16.2629105" lon="-61.2342318"><ele>27.5</ele><time>2026-03-22T14:46:53.991Z</time></trkpt><trkpt lat="16.2628176" lon="-61.234231"><ele>28.0</ele><time>2026-03-22T14:46:54.989Z</time></trkpt><trkpt lat="16.262734" lon="-61.2342212"><ele>28.499999999999996</ele><time>2026-03-22T14:46:55.992Z</time></trkpt><trkpt lat="16.2626576" lon="-61.2342054"><ele>29.0</ele><time>2026-03-22T14:46:56.994Z</time></trkpt><trkpt lat="16.2625774" lon="-61.2341394"><ele>29.0</ele><time>2026-03-22T14:46:58.984Z</time></trkpt><trkpt lat="16.2625744" lon="-61.2340536"><ele>29.0</ele><time>2026-03-22T14:46:59.977Z</time></trkpt><trkpt lat="16.2625796" lon="-61.233953"><ele>29.0</ele><time>2026-03-22T14:47:00.99Z</time></trkpt><trkpt lat="16.2625759" lon="-61.2338526"><ele>29.0</ele><time>2026-03-22T14:47:01.99Z</time></trkpt><trkpt lat="16.2625654" lon="-61.2337567"><ele>29.0</ele><time>2026-03-22T14:47:02.982Z</time></trkpt><trkpt lat="16.2625673" lon="-61.2336702"><ele>29.0</ele><time>2026-03-22T14:47:03.987Z</time></trkpt><trkpt lat="16.2625706" lon="-61.2335801"><ele>29.0</ele><time>2026-03-22T14:47:04.989Z</time></trkpt><trkpt lat="16.2625747" lon="-61.2335005"><ele>29.0</ele><time>2026-03-22T14:47:05.968Z</time></trkpt><trkpt lat="16.2625712" lon="-61.2333832"><ele>29.0</ele><time>2026-03-22T14:47:08.032Z</time></trkpt><trkpt lat="16.262547" lon="-61.2332486"><ele>29.0</ele><time>2026-03-22T14:47:09.994Z</time></trkpt><trkpt lat="16.2625339" lon="-61.2331728"><ele>28.666666666666664</ele><time>2026-03-22T14:47:10.985Z</time></trkpt><trkpt lat="16.2625243" lon="-61.2330924"><ele>28.333333333333332</ele><time>2026-03-22T14:47:11.985Z</time></trkpt><trkpt lat="16.2625178" lon="-61.2330075"><ele>28.0</ele><time>2026-03-22T14:47:12.986Z</time></trkpt><trkpt lat="16.262516" lon="-61.2329187"><ele>27.666666666666664</ele><time>2026-03-22T14:47:13.991Z</time></trkpt><trkpt lat="16.262518" lon="-61.2328243"><ele>27.333333333333332</ele><time>2026-03-22T14:47:14.994Z</time></trkpt><trkpt lat="16.2625157" lon="-61.232729"><ele>27.0</ele><time>2026-03-22T14:47:15.988Z</time></trkpt><trkpt lat="16.2625182" lon="-61.2326451"><ele>27.0</ele><time>2026-03-22T14:47:17.07Z</time></trkpt><trkpt lat="16.2625178" lon="-61.2325786"><ele>27.000000000000004</ele><time>2026-03-22T14:47:18.035Z</time></trkpt><trkpt lat="16.2624408" lon="-61.2325241"><ele>27.000000000000004</ele><time>2026-03-22T14:47:20.979Z</time></trkpt><trkpt lat="16.2623438" lon="-61.232539"><ele>27.0</ele><time>2026-03-22T14:47:22.982Z</time></trkpt><trkpt lat="16.2622245" lon="-61.2326246"><ele>27.0</ele><time>2026-03-22T14:47:25.001Z</time></trkpt><trkpt lat="16.2621742" lon="-61.2326895"><ele>28.0</ele><time>2026-03-22T14:47:25.997Z</time></trkpt><trkpt lat="16.2621287" lon="-61.2327532"><ele>29.0</ele><time>2026-03-22T14:47:27.007Z</time></trkpt><trkpt lat="16.2620933" lon="-61.2328206"><ele>30.0</ele><time>2026-03-22T14:47:28.005Z</time></trkpt><trkpt lat="16.2620515" lon="-61.2328794"><ele>31.0</ele><time>2026-03-22T14:47:29.002Z</time></trkpt><trkpt lat="16.2619563" lon="-61.2329402"><ele>32.0</ele><time>2026-03-22T14:47:30.972Z</time></trkpt><trkpt lat="16.2618919" lon="-61.2329571"><ele>33.0</ele><time>2026-03-22T14:47:31.996Z</time></trkpt><trkpt lat="16.2618227" lon="-61.2329818"><ele>33.0</ele><time>2026-03-22T14:47:32.995Z</time></trkpt><trkpt lat="16.2617552" lon="-61.23302"><ele>33.0</ele><time>2026-03-22T14:47:33.996Z</time></trkpt><trkpt lat="16.2616847" lon="-61.2330664"><ele>33.0</ele><time>2026-03-22T14:47:34.994Z</time></trkpt><trkpt lat="16.261621" lon="-61.2331169"><ele>33.0</ele><time>2026-03-22T14:47:35.994Z</time></trkpt><trkpt lat="16.2615563" lon="-61.2331755"><ele>33.0</ele><time>2026-03-22T14:47:37.007Z</time></trkpt><trkpt lat="16.2614956" lon="-61.2332383"><ele>33.0</ele><time>2026-03-22T14:47:38.003Z</time></trkpt><trkpt lat="16.2614398" lon="-61.2333071"><ele>31.166666666666668</ele><time>2026-03-22T14:47:39.003Z</time></trkpt><trkpt lat="16.2613843" lon="-61.2333779"><ele>29.333333333333332</ele><time>2026-03-22T14:47:39.999Z</time></trkpt><trkpt lat="16.2613326" lon="-61.2334467"><ele>27.5</ele><time>2026-03-22T14:47:40.993Z</time></trkpt><trkpt lat="16.2612846" lon="-61.2335066"><ele>25.666666666666664</ele><time>2026-03-22T14:47:42.002Z</time></trkpt><trkpt lat="16.2612378" lon="-61.2335622"><ele>23.833333333333332</ele><time>2026-03-22T14:47:42.992Z</time></trkpt><trkpt lat="16.2611942" lon="-61.2336151"><ele>22.0</ele><time>2026-03-22T14:47:43.99Z</time></trkpt><trkpt lat="16.2611152" lon="-61.2336782"><ele>22.0</ele><time>2026-03-22T14:47:46Z</time></trkpt><trkpt lat="16.2610455" lon="-61.2337277"><ele>22.0</ele><time>2026-03-22T14:47:48.001Z</time></trkpt><trkpt lat="16.2609576" lon="-61.2337858"><ele>22.0</ele><time>2026-03-22T14:47:49.986Z</time></trkpt><trkpt lat="16.2608636" lon="-61.2338358"><ele>22.0</ele><time>2026-03-22T14:47:51.999Z</time></trkpt><trkpt lat="16.2607667" lon="-61.2338656"><ele>22.0</ele><time>2026-03-22T14:47:54.005Z</time></trkpt><trkpt lat="16.2606882" lon="-61.2338845"><ele>20.400000000000002</ele><time>2026-03-22T14:47:55.998Z</time></trkpt><trkpt lat="16.2606032" lon="-61.2338967"><ele>18.8</ele><time>2026-03-22T14:47:59.009Z</time></trkpt><trkpt lat="16.2605884" lon="-61.2339794"><ele>17.2</ele><time>2026-03-22T14:48:02.979Z</time></trkpt><trkpt lat="16.2606658" lon="-61.2341273"><ele>15.6</ele><time>2026-03-22T14:48:04.969Z</time></trkpt><trkpt lat="16.2607056" lon="-61.2342448"><ele>14.0</ele><time>2026-03-22T14:48:06.007Z</time></trkpt><trkpt lat="16.2607399" lon="-61.2343604"><ele>14.000000000000002</ele><time>2026-03-22T14:48:07.001Z</time></trkpt><trkpt lat="16.2607717" lon="-61.2344586"><ele>14.0</ele><time>2026-03-22T14:48:08.012Z</time></trkpt><trkpt lat="16.2607974" lon="-61.2345441"><ele>14.0</ele><time>2026-03-22T14:48:09.001Z</time></trkpt><trkpt lat="16.2608181" lon="-61.2346158"><ele>14.0</ele><time>2026-03-22T14:48:09.998Z</time></trkpt><trkpt lat="16.2608402" lon="-61.234686"><ele>14.000000000000002</ele><time>2026-03-22T14:48:11.002Z</time></trkpt><trkpt lat="16.2608598" lon="-61.2347622"><ele>14.0</ele><time>2026-03-22T14:48:12.005Z</time></trkpt><trkpt lat="16.2608822" lon="-61.2348396"><ele>13.166666666666668</ele><time>2026-03-22T14:48:12.977Z</time></trkpt><trkpt lat="16.2609034" lon="-61.2349231"><ele>12.333333333333334</ele><time>2026-03-22T14:48:14.01Z</time></trkpt><trkpt lat="16.2609189" lon="-61.2350125"><ele>11.5</ele><time>2026-03-22T14:48:15.017Z</time></trkpt><trkpt lat="16.2609302" lon="-61.2351016"><ele>10.666666666666668</ele><time>2026-03-22T14:48:16.01Z</time></trkpt><trkpt lat="16.2609407" lon="-61.2351927"><ele>9.833333333333334</ele><time>2026-03-22T14:48:17.007Z</time></trkpt><trkpt lat="16.2609569" lon="-61.2352869"><ele>9.0</ele><time>2026-03-22T14:48:18Z</time></trkpt><trkpt lat="16.2609688" lon="-61.235375"><ele>9.0</ele><time>2026-03-22T14:48:19.016Z</time></trkpt><trkpt lat="16.2609892" lon="-61.235458"><ele>9.0</ele><time>2026-03-22T14:48:20.01Z</time></trkpt><trkpt lat="16.2610231" lon="-61.2355356"><ele>9.0</ele><time>2026-03-22T14:48:21.011Z</time></trkpt><trkpt lat="16.2610558" lon="-61.2356157"><ele>9.0</ele><time>2026-03-22T14:48:21.987Z</time></trkpt><trkpt lat="16.2610901" lon="-61.235689"><ele>9.0</ele><time>2026-03-22T14:48:22.999Z</time></trkpt><trkpt lat="16.2611202" lon="-61.2357574"><ele>9.0</ele><time>2026-03-22T14:48:24.001Z</time></trkpt><trkpt lat="16.2611663" lon="-61.2358542"><ele>8.333333333333334</ele><time>2026-03-22T14:48:25.987Z</time></trkpt><trkpt lat="16.2612041" lon="-61.2359123"><ele>7.666666666666667</ele><time>2026-03-22T14:48:28.004Z</time></trkpt><trkpt lat="16.2612556" lon="-61.2359923"><ele>7.0</ele><time>2026-03-22T14:48:29.978Z</time></trkpt><trkpt lat="16.261293" lon="-61.2360488"><ele>6.333333333333334</ele><time>2026-03-22T14:48:30.997Z</time></trkpt><trkpt lat="16.2613431" lon="-61.2361069"><ele>5.666666666666667</ele><time>2026-03-22T14:48:31.981Z</time></trkpt><trkpt lat="16.2614084" lon="-61.2361825"><ele>5.0</ele><time>2026-03-22T14:48:32.992Z</time></trkpt><trkpt lat="16.2614703" lon="-61.2362626"><ele>6.8</ele><time>2026-03-22T14:48:34.01Z</time></trkpt><trkpt lat="16.2615179" lon="-61.2363532"><ele>8.6</ele><time>2026-03-22T14:48:35.008Z</time></trkpt><trkpt lat="16.2615568" lon="-61.2364493"><ele>10.399999999999999</ele><time>2026-03-22T14:48:36.025Z</time></trkpt><trkpt lat="16.2615935" lon="-61.2365523"><ele>12.2</ele><time>2026-03-22T14:48:37.022Z</time></trkpt><trkpt lat="16.2616306" lon="-61.2366554"><ele>14.0</ele><time>2026-03-22T14:48:37.996Z</time></trkpt><trkpt lat="16.2616562" lon="-61.2367632"><ele>14.0</ele><time>2026-03-22T14:48:38.998Z</time></trkpt><trkpt lat="16.26168" lon="-61.236873"><ele>13.999999999999998</ele><time>2026-03-22T14:48:40.007Z</time></trkpt><trkpt lat="16.2617022" lon="-61.2369806"><ele>13.999999999999998</ele><time>2026-03-22T14:48:40.999Z</time></trkpt><trkpt lat="16.2617155" lon="-61.2370849"><ele>14.0</ele><time>2026-03-22T14:48:42.012Z</time></trkpt><trkpt lat="16.2617286" lon="-61.2371857"><ele>14.0</ele><time>2026-03-22T14:48:43.007Z</time></trkpt><trkpt lat="16.2617444" lon="-61.2372896"><ele>13.2</ele><time>2026-03-22T14:48:43.978Z</time></trkpt><trkpt lat="16.2617616" lon="-61.2373932"><ele>12.399999999999999</ele><time>2026-03-22T14:48:45.003Z</time></trkpt><trkpt lat="16.2617851" lon="-61.2374923"><ele>11.6</ele><time>2026-03-22T14:48:46.064Z</time></trkpt><trkpt lat="16.2618102" lon="-61.2375909"><ele>10.8</ele><time>2026-03-22T14:48:46.967Z</time></trkpt><trkpt lat="16.2618353" lon="-61.2376874"><ele>10.0</ele><time>2026-03-22T14:48:47.984Z</time></trkpt><trkpt lat="16.2618531" lon="-61.2377862"><ele>10.0</ele><time>2026-03-22T14:48:48.986Z</time></trkpt><trkpt lat="16.2618685" lon="-61.2378815"><ele>10.0</ele><time>2026-03-22T14:48:49.99Z</time></trkpt><trkpt lat="16.2618858" lon="-61.2379833"><ele>10.0</ele><time>2026-03-22T14:48:50.991Z</time></trkpt><trkpt lat="16.2619117" lon="-61.23809"><ele>10.0</ele><time>2026-03-22T14:48:51.985Z</time></trkpt><trkpt lat="16.2619344" lon="-61.2382016"><ele>10.0</ele><time>2026-03-22T14:48:53.054Z</time></trkpt><trkpt lat="16.261956" lon="-61.2383157"><ele>9.2</ele><time>2026-03-22T14:48:53.965Z</time></trkpt><trkpt lat="16.2619802" lon="-61.2384313"><ele>8.4</ele><time>2026-03-22T14:48:54.983Z</time></trkpt><trkpt lat="16.2620054" lon="-61.2385433"><ele>7.6</ele><time>2026-03-22T14:48:55.981Z</time></trkpt><trkpt lat="16.2620238" lon="-61.2386567"><ele>6.8</ele><time>2026-03-22T14:48:56.983Z</time></trkpt><trkpt lat="16.2620395" lon="-61.2387695"><ele>6.0</ele><time>2026-03-22T14:48:57.971Z</time></trkpt><trkpt lat="16.2620564" lon="-61.2388869"><ele>5.75</ele><time>2026-03-22T14:48:58.987Z</time></trkpt><trkpt lat="16.2620747" lon="-61.2390047"><ele>5.5</ele><time>2026-03-22T14:48:59.986Z</time></trkpt><trkpt lat="16.2620914" lon="-61.2391249"><ele>5.25</ele><time>2026-03-22T14:49:00.98Z</time></trkpt><trkpt lat="16.2621056" lon="-61.2392484"><ele>5.0</ele><time>2026-03-22T14:49:01.982Z</time></trkpt><trkpt lat="16.2621271" lon="-61.2393669"><ele>5.0</ele><time>2026-03-22T14:49:02.993Z</time></trkpt><trkpt lat="16.2621494" lon="-61.2394856"><ele>5.0</ele><time>2026-03-22T14:49:03.98Z</time></trkpt><trkpt lat="16.2621733" lon="-61.2396045"><ele>5.0</ele><time>2026-03-22T14:49:04.987Z</time></trkpt><trkpt lat="16.2621976" lon="-61.2397219"><ele>5.0</ele><time>2026-03-22T14:49:05.989Z</time></trkpt><trkpt lat="16.2622178" lon="-61.2398366"><ele>5.2</ele><time>2026-03-22T14:49:06.993Z</time></trkpt><trkpt lat="16.2622387" lon="-61.2399513"><ele>5.4</ele><time>2026-03-22T14:49:07.991Z</time></trkpt><trkpt lat="16.2622611" lon="-61.2400629"><ele>5.6</ele><time>2026-03-22T14:49:08.994Z</time></trkpt><trkpt lat="16.2622831" lon="-61.2401619"><ele>5.8</ele><time>2026-03-22T14:49:09.958Z</time></trkpt><trkpt lat="16.2623027" lon="-61.2402497"><ele>6.0</ele><time>2026-03-22T14:49:10.989Z</time></trkpt><trkpt lat="16.2623191" lon="-61.2403342"><ele>7.5</ele><time>2026-03-22T14:49:11.987Z</time></trkpt><trkpt lat="16.262342" lon="-61.2404168"><ele>9.0</ele><time>2026-03-22T14:49:12.981Z</time></trkpt><trkpt lat="16.2623749" lon="-61.2404976"><ele>10.5</ele><time>2026-03-22T14:49:13.959Z</time></trkpt><trkpt lat="16.2624167" lon="-61.240575"><ele>12.0</ele><time>2026-03-22T14:49:14.983Z</time></trkpt><trkpt lat="16.2624641" lon="-61.240653"><ele>13.5</ele><time>2026-03-22T14:49:15.992Z</time></trkpt><trkpt lat="16.2625048" lon="-61.2407365"><ele>15.0</ele><time>2026-03-22T14:49:16.99Z</time></trkpt><trkpt lat="16.2625412" lon="-61.2408218"><ele>15.0</ele><time>2026-03-22T14:49:17.978Z</time></trkpt><trkpt lat="16.262568" lon="-61.2409061"><ele>15.0</ele><time>2026-03-22T14:49:18.982Z</time></trkpt><trkpt lat="16.2625985" lon="-61.2409886"><ele>15.0</ele><time>2026-03-22T14:49:19.982Z</time></trkpt><trkpt lat="16.262614" lon="-61.2410699"><ele>15.0</ele><time>2026-03-22T14:49:20.979Z</time></trkpt><trkpt lat="16.2626263" lon="-61.2411523"><ele>15.0</ele><time>2026-03-22T14:49:21.991Z</time></trkpt><trkpt lat="16.2626339" lon="-61.241229"><ele>15.0</ele><time>2026-03-22T14:49:23.003Z</time></trkpt><trkpt lat="16.2626485" lon="-61.2413031"><ele>15.0</ele><time>2026-03-22T14:49:23.99Z</time></trkpt><trkpt lat="16.2626625" lon="-61.2413774"><ele>15.0</ele><time>2026-03-22T14:49:24.978Z</time></trkpt><trkpt lat="16.2626805" lon="-61.2414527"><ele>15.0</ele><time>2026-03-22T14:49:25.993Z</time></trkpt><trkpt lat="16.2627016" lon="-61.2415315"><ele>15.0</ele><time>2026-03-22T14:49:26.991Z</time></trkpt><trkpt lat="16.2627357" lon="-61.2416099"><ele>15.0</ele><time>2026-03-22T14:49:27.988Z</time></trkpt><trkpt lat="16.2627674" lon="-61.2416858"><ele>15.0</ele><time>2026-03-22T14:49:28.984Z</time></trkpt><trkpt lat="16.2627946" lon="-61.241764"><ele>14.0</ele><time>2026-03-22T14:49:29.991Z</time></trkpt><trkpt lat="16.2628267" lon="-61.241845"><ele>13.0</ele><time>2026-03-22T14:49:30.993Z</time></trkpt><trkpt lat="16.2628593" lon="-61.2419294"><ele>12.0</ele><time>2026-03-22T14:49:31.981Z</time></trkpt><trkpt lat="16.2628917" lon="-61.2420138"><ele>11.0</ele><time>2026-03-22T14:49:32.99Z</time></trkpt><trkpt lat="16.2629232" lon="-61.2421012"><ele>10.0</ele><time>2026-03-22T14:49:33.996Z</time></trkpt><trkpt lat="16.2629598" lon="-61.2421885"><ele>9.0</ele><time>2026-03-22T14:49:34.988Z</time></trkpt><trkpt lat="16.2630101" lon="-61.2422806"><ele>8.6</ele><time>2026-03-22T14:49:36.03Z</time></trkpt><trkpt lat="16.263057" lon="-61.2423758"><ele>8.2</ele><time>2026-03-22T14:49:37.015Z</time></trkpt><trkpt lat="16.2631023" lon="-61.2424703"><ele>7.799999999999999</ele><time>2026-03-22T14:49:38.013Z</time></trkpt><trkpt lat="16.2631449" lon="-61.2425616"><ele>7.3999999999999995</ele><time>2026-03-22T14:49:38.988Z</time></trkpt><trkpt lat="16.2631735" lon="-61.2426437"><ele>7.0</ele><time>2026-03-22T14:49:39.995Z</time></trkpt><trkpt lat="16.2631929" lon="-61.242719"><ele>8.166666666666668</ele><time>2026-03-22T14:49:40.975Z</time></trkpt><trkpt lat="16.2632165" lon="-61.2427966"><ele>9.333333333333334</ele><time>2026-03-22T14:49:41.99Z</time></trkpt><trkpt lat="16.2632504" lon="-61.2428776"><ele>10.5</ele><time>2026-03-22T14:49:42.994Z</time></trkpt><trkpt lat="16.2632736" lon="-61.2429602"><ele>11.666666666666668</ele><time>2026-03-22T14:49:43.984Z</time></trkpt><trkpt lat="16.2632966" lon="-61.2430738"><ele>12.833333333333334</ele><time>2026-03-22T14:49:45.981Z</time></trkpt><trkpt lat="16.2632856" lon="-61.2431445"><ele>14.0</ele><time>2026-03-22T14:49:52.042Z</time></trkpt><trkpt lat="16.2632574" lon="-61.2432477"><ele>14.0</ele><time>2026-03-22T14:49:55.979Z</time></trkpt><trkpt lat="16.2632782" lon="-61.2433249"><ele>13.999999999999998</ele><time>2026-03-22T14:49:56.993Z</time></trkpt><trkpt lat="16.2633114" lon="-61.243409"><ele>13.999999999999998</ele><time>2026-03-22T14:49:57.989Z</time></trkpt><trkpt lat="16.2633469" lon="-61.2435008"><ele>14.0</ele><time>2026-03-22T14:49:58.994Z</time></trkpt><trkpt lat="16.2633816" lon="-61.2435997"><ele>14.0</ele><time>2026-03-22T14:49:59.99Z</time></trkpt><trkpt lat="16.2634183" lon="-61.243691"><ele>14.0</ele><time>2026-03-22T14:50:01.034Z</time></trkpt><trkpt lat="16.2634673" lon="-61.2437793"><ele>13.999999999999998</ele><time>2026-03-22T14:50:02.039Z</time></trkpt><trkpt lat="16.2635164" lon="-61.2438652"><ele>13.999999999999998</ele><time>2026-03-22T14:50:02.987Z</time></trkpt><trkpt lat="16.2635636" lon="-61.2439493"><ele>14.0</ele><time>2026-03-22T14:50:03.977Z</time></trkpt><trkpt lat="16.2636036" lon="-61.2440314"><ele>14.0</ele><time>2026-03-22T14:50:04.986Z</time></trkpt><trkpt lat="16.2636407" lon="-61.2441103"><ele>13.285714285714286</ele><time>2026-03-22T14:50:06.002Z</time></trkpt><trkpt lat="16.2636809" lon="-61.2441809"><ele>12.571428571428571</ele><time>2026-03-22T14:50:07Z</time></trkpt><trkpt lat="16.2637203" lon="-61.2442426"><ele>11.857142857142858</ele><time>2026-03-22T14:50:07.962Z</time></trkpt><trkpt lat="16.2637599" lon="-61.2443078"><ele>11.142857142857142</ele><time>2026-03-22T14:50:08.987Z</time></trkpt><trkpt lat="16.2638034" lon="-61.2443594"><ele>10.428571428571429</ele><time>2026-03-22T14:50:09.991Z</time></trkpt><trkpt lat="16.2638475" lon="-61.2444102"><ele>9.714285714285715</ele><time>2026-03-22T14:50:10.986Z</time></trkpt><trkpt lat="16.2638821" lon="-61.244465"><ele>9.0</ele><time>2026-03-22T14:50:11.993Z</time></trkpt><trkpt lat="16.2639049" lon="-61.2445343"><ele>9.0</ele><time>2026-03-22T14:50:13.001Z</time></trkpt><trkpt lat="16.2639198" lon="-61.2446277"><ele>9.0</ele><time>2026-03-22T14:50:13.992Z</time></trkpt><trkpt lat="16.2639398" lon="-61.2447348"><ele>9.0</ele><time>2026-03-22T14:50:14.978Z</time></trkpt><trkpt lat="16.2639604" lon="-61.2448428"><ele>9.0</ele><time>2026-03-22T14:50:15.986Z</time></trkpt><trkpt lat="16.2639766" lon="-61.2449525"><ele>9.0</ele><time>2026-03-22T14:50:16.995Z</time></trkpt><trkpt lat="16.2639971" lon="-61.245065"><ele>10.8</ele><time>2026-03-22T14:50:17.99Z</time></trkpt><trkpt lat="16.2640209" lon="-61.2451735"><ele>12.600000000000001</ele><time>2026-03-22T14:50:18.988Z</time></trkpt><trkpt lat="16.2640453" lon="-61.2452785"><ele>14.4</ele><time>2026-03-22T14:50:19.994Z</time></trkpt><trkpt lat="16.2640703" lon="-61.2453817"><ele>16.2</ele><time>2026-03-22T14:50:20.981Z</time></trkpt><trkpt lat="16.2640982" lon="-61.245488"><ele>18.0</ele><time>2026-03-22T14:50:21.988Z</time></trkpt><trkpt lat="16.2641244" lon="-61.2455956"><ele>16.8</ele><time>2026-03-22T14:50:22.999Z</time></trkpt><trkpt lat="16.2641445" lon="-61.2457076"><ele>15.600000000000001</ele><time>2026-03-22T14:50:23.986Z</time></trkpt><trkpt lat="16.2641696" lon="-61.245819"><ele>14.399999999999999</ele><time>2026-03-22T14:50:25.033Z</time></trkpt><trkpt lat="16.2641907" lon="-61.2459277"><ele>13.2</ele><time>2026-03-22T14:50:26.002Z</time></trkpt><trkpt lat="16.2642077" lon="-61.2460379"><ele>12.0</ele><time>2026-03-22T14:50:27.04Z</time></trkpt><trkpt lat="16.2642265" lon="-61.246152"><ele>12.0</ele><time>2026-03-22T14:50:27.985Z</time></trkpt><trkpt lat="16.264237" lon="-61.2462629"><ele>12.0</ele><time>2026-03-22T14:50:29.001Z</time></trkpt><trkpt lat="16.2642451" lon="-61.2463746"><ele>12.0</ele><time>2026-03-22T14:50:29.978Z</time></trkpt><trkpt lat="16.2642571" lon="-61.2464842"><ele>12.0</ele><time>2026-03-22T14:50:30.982Z</time></trkpt><trkpt lat="16.2642752" lon="-61.2465913"><ele>12.0</ele><time>2026-03-22T14:50:31.981Z</time></trkpt><trkpt lat="16.2642922" lon="-61.2466998"><ele>11.6</ele><time>2026-03-22T14:50:32.978Z</time></trkpt><trkpt lat="16.264314" lon="-61.2468038"><ele>11.2</ele><time>2026-03-22T14:50:33.986Z</time></trkpt><trkpt lat="16.2643337" lon="-61.2469069"><ele>10.8</ele><time>2026-03-22T14:50:34.981Z</time></trkpt><trkpt lat="16.2643515" lon="-61.2470151"><ele>10.4</ele><time>2026-03-22T14:50:35.982Z</time></trkpt><trkpt lat="16.2643693" lon="-61.2471302"><ele>10.0</ele><time>2026-03-22T14:50:36.988Z</time></trkpt><trkpt lat="16.2643871" lon="-61.2472436"><ele>9.6</ele><time>2026-03-22T14:50:37.982Z</time></trkpt><trkpt lat="16.2644" lon="-61.2473576"><ele>9.2</ele><time>2026-03-22T14:50:38.969Z</time></trkpt><trkpt lat="16.2644124" lon="-61.2474731"><ele>8.8</ele><time>2026-03-22T14:50:39.988Z</time></trkpt><trkpt lat="16.2644289" lon="-61.2475865"><ele>8.4</ele><time>2026-03-22T14:50:40.994Z</time></trkpt><trkpt lat="16.2644491" lon="-61.2476998"><ele>8.0</ele><time>2026-03-22T14:50:42.054Z</time></trkpt><trkpt lat="16.2644766" lon="-61.2478117"><ele>8.0</ele><time>2026-03-22T14:50:43.054Z</time></trkpt><trkpt lat="16.2645051" lon="-61.2479237"><ele>8.0</ele><time>2026-03-22T14:50:43.985Z</time></trkpt><trkpt lat="16.2645299" lon="-61.2480355"><ele>8.0</ele><time>2026-03-22T14:50:44.99Z</time></trkpt><trkpt lat="16.2645559" lon="-61.2481485"><ele>8.0</ele><time>2026-03-22T14:50:45.965Z</time></trkpt><trkpt lat="16.2645832" lon="-61.2482616"><ele>8.0</ele><time>2026-03-22T14:50:46.987Z</time></trkpt><trkpt lat="16.2645996" lon="-61.2483749"><ele>7.800000000000001</ele><time>2026-03-22T14:50:47.976Z</time></trkpt><trkpt lat="16.2646134" lon="-61.2484919"><ele>7.6000000000000005</ele><time>2026-03-22T14:50:48.996Z</time></trkpt><trkpt lat="16.2646257" lon="-61.2486118"><ele>7.3999999999999995</ele><time>2026-03-22T14:50:50.004Z</time></trkpt><trkpt lat="16.2646291" lon="-61.2487308"><ele>7.199999999999999</ele><time>2026-03-22T14:50:51.05Z</time></trkpt><trkpt lat="16.2646261" lon="-61.2488325"><ele>7.0</ele><time>2026-03-22T14:50:52.049Z</time></trkpt><trkpt lat="16.2646212" lon="-61.2489194"><ele>6.666666666666667</ele><time>2026-03-22T14:50:53.043Z</time></trkpt><trkpt lat="16.2646186" lon="-61.2489974"><ele>6.333333333333334</ele><time>2026-03-22T14:50:53.962Z</time></trkpt><trkpt lat="16.2645558" lon="-61.2490505"><ele>6.0</ele><time>2026-03-22T14:50:56.972Z</time></trkpt><trkpt lat="16.2646239" lon="-61.249082"><ele>5.666666666666667</ele><time>2026-03-22T14:51:43.064Z</time></trkpt><trkpt lat="16.2646258" lon="-61.2491712"><ele>5.333333333333334</ele><time>2026-03-22T14:51:45.958Z</time></trkpt><trkpt lat="16.2646398" lon="-61.249278"><ele>5.0</ele><time>2026-03-22T14:51:47.984Z</time></trkpt><trkpt lat="16.2646716" lon="-61.2493908"><ele>5.0</ele><time>2026-03-22T14:51:49.994Z</time></trkpt><trkpt lat="16.2646877" lon="-61.2495125"><ele>5.0</ele><time>2026-03-22T14:51:51.978Z</time></trkpt><trkpt lat="16.2646938" lon="-61.2495802"><ele>5.0</ele><time>2026-03-22T14:51:52.957Z</time></trkpt><trkpt lat="16.2646984" lon="-61.2496505"><ele>5.0</ele><time>2026-03-22T14:51:53.96Z</time></trkpt><trkpt lat="16.264706" lon="-61.2497229"><ele>5.0</ele><time>2026-03-22T14:51:54.999Z</time></trkpt><trkpt lat="16.264719" lon="-61.2497999"><ele>5.0</ele><time>2026-03-22T14:51:55.971Z</time></trkpt><trkpt lat="16.2647343" lon="-61.2498767"><ele>4.833333333333334</ele><time>2026-03-22T14:51:56.989Z</time></trkpt><trkpt lat="16.2647467" lon="-61.2499575"><ele>4.666666666666667</ele><time>2026-03-22T14:51:58.001Z</time></trkpt><trkpt lat="16.2647547" lon="-61.2500368"><ele>4.5</ele><time>2026-03-22T14:51:58.974Z</time></trkpt><trkpt lat="16.2647685" lon="-61.2501165"><ele>4.333333333333333</ele><time>2026-03-22T14:52:00.006Z</time></trkpt><trkpt lat="16.2647845" lon="-61.2501961"><ele>4.166666666666666</ele><time>2026-03-22T14:52:00.97Z</time></trkpt><trkpt lat="16.2647948" lon="-61.2502757"><ele>4.0</ele><time>2026-03-22T14:52:01.989Z</time></trkpt><trkpt lat="16.2648002" lon="-61.2503513"><ele>4.5</ele><time>2026-03-22T14:52:03.003Z</time></trkpt><trkpt lat="16.2648124" lon="-61.2504263"><ele>5.0</ele><time>2026-03-22T14:52:03.995Z</time></trkpt><trkpt lat="16.2648271" lon="-61.2505075"><ele>5.5</ele><time>2026-03-22T14:52:04.992Z</time></trkpt><trkpt lat="16.264839" lon="-61.2505919"><ele>6.0</ele><time>2026-03-22T14:52:05.991Z</time></trkpt><trkpt lat="16.2648561" lon="-61.2506755"><ele>6.500000000000001</ele><time>2026-03-22T14:52:06.981Z</time></trkpt><trkpt lat="16.2648716" lon="-61.2507648"><ele>7.0</ele><time>2026-03-22T14:52:07.986Z</time></trkpt><trkpt lat="16.2648897" lon="-61.2508516"><ele>7.0</ele><time>2026-03-22T14:52:08.993Z</time></trkpt><trkpt lat="16.2648946" lon="-61.2509283"><ele>7.0</ele><time>2026-03-22T14:52:09.995Z</time></trkpt><trkpt lat="16.2648966" lon="-61.2510002"><ele>7.0</ele><time>2026-03-22T14:52:10.997Z</time></trkpt><trkpt lat="16.2649077" lon="-61.2510664"><ele>7.0</ele><time>2026-03-22T14:52:12.001Z</time></trkpt><trkpt lat="16.2649275" lon="-61.2511354"><ele>7.0</ele><time>2026-03-22T14:52:12.998Z</time></trkpt><trkpt lat="16.2649432" lon="-61.2512026"><ele>7.0</ele><time>2026-03-22T14:52:14.002Z</time></trkpt><trkpt lat="16.2649571" lon="-61.2512712"><ele>7.0</ele><time>2026-03-22T14:52:15.002Z</time></trkpt><trkpt lat="16.2649741" lon="-61.2513491"><ele>7.000000000000001</ele><time>2026-03-22T14:52:15.997Z</time></trkpt><trkpt lat="16.2649864" lon="-61.2514315"><ele>7.0</ele><time>2026-03-22T14:52:16.997Z</time></trkpt><trkpt lat="16.2649975" lon="-61.2515139"><ele>7.0</ele><time>2026-03-22T14:52:17.984Z</time></trkpt><trkpt lat="16.2650078" lon="-61.2515949"><ele>7.0</ele><time>2026-03-22T14:52:18.995Z</time></trkpt><trkpt lat="16.2650147" lon="-61.251678"><ele>7.000000000000001</ele><time>2026-03-22T14:52:19.99Z</time></trkpt><trkpt lat="16.2650241" lon="-61.2517626"><ele>7.0</ele><time>2026-03-22T14:52:20.983Z</time></trkpt><trkpt lat="16.2650306" lon="-61.2518436"><ele>7.000000000000001</ele><time>2026-03-22T14:52:21.992Z</time></trkpt><trkpt lat="16.2650327" lon="-61.2519219"><ele>7.0</ele><time>2026-03-22T14:52:23.001Z</time></trkpt><trkpt lat="16.2650315" lon="-61.2519996"><ele>7.0</ele><time>2026-03-22T14:52:23.996Z</time></trkpt><trkpt lat="16.2650282" lon="-61.2520707"><ele>7.0</ele><time>2026-03-22T14:52:24.96Z</time></trkpt><trkpt lat="16.2650531" lon="-61.2521657"><ele>7.000000000000001</ele><time>2026-03-22T14:52:26.987Z</time></trkpt><trkpt lat="16.2650597" lon="-61.2522414"><ele>7.0</ele><time>2026-03-22T14:52:28.98Z</time></trkpt><trkpt lat="16.2650558" lon="-61.2523321"><ele>7.0</ele><time>2026-03-22T14:52:31.022Z</time></trkpt><trkpt lat="16.2650606" lon="-61.2524749"><ele>6.999999999999999</ele><time>2026-03-22T14:52:33.037Z</time></trkpt><trkpt lat="16.2650714" lon="-61.2525677"><ele>6.999999999999999</ele><time>2026-03-22T14:52:33.992Z</time></trkpt><trkpt lat="16.2650888" lon="-61.252669"><ele>7.0</ele><time>2026-03-22T14:52:34.993Z</time></trkpt><trkpt lat="16.2651063" lon="-61.2527769"><ele>7.0</ele><time>2026-03-22T14:52:35.987Z</time></trkpt><trkpt lat="16.265123" lon="-61.2528824"><ele>7.000000000000001</ele><time>2026-03-22T14:52:36.988Z</time></trkpt><trkpt lat="16.2651348" lon="-61.2529824"><ele>7.0</ele><time>2026-03-22T14:52:37.988Z</time></trkpt><trkpt lat="16.2651445" lon="-61.2530725"><ele>7.0</ele><time>2026-03-22T14:52:38.968Z</time></trkpt><trkpt lat="16.2651437" lon="-61.2531506"><ele>7.0</ele><time>2026-03-22T14:52:40.059Z</time></trkpt><trkpt lat="16.2651319" lon="-61.253216"><ele>7.000000000000001</ele><time>2026-03-22T14:52:41.032Z</time></trkpt><trkpt lat="16.2650826" lon="-61.2532683"><ele>7.0</ele><time>2026-03-22T14:52:42.991Z</time></trkpt><trkpt lat="16.2649819" lon="-61.2532531"><ele>7.199999999999999</ele><time>2026-03-22T14:52:44.997Z</time></trkpt><trkpt lat="16.2649069" lon="-61.2532292"><ele>7.3999999999999995</ele><time>2026-03-22T14:52:45.997Z</time></trkpt><trkpt lat="16.2648295" lon="-61.253209"><ele>7.6000000000000005</ele><time>2026-03-22T14:52:46.964Z</time></trkpt><trkpt lat="16.2647388" lon="-61.2531834"><ele>7.800000000000001</ele><time>2026-03-22T14:52:48.068Z</time></trkpt><trkpt lat="16.2646413" lon="-61.2531587"><ele>8.0</ele><time>2026-03-22T14:52:48.982Z</time></trkpt><trkpt lat="16.2645388" lon="-61.2531233"><ele>7.2</ele><time>2026-03-22T14:52:49.988Z</time></trkpt><trkpt lat="16.2644361" lon="-61.2530915"><ele>6.4</ele><time>2026-03-22T14:52:50.996Z</time></trkpt><trkpt lat="16.2643311" lon="-61.2530675"><ele>5.6000000000000005</ele><time>2026-03-22T14:52:52.045Z</time></trkpt><trkpt lat="16.2642269" lon="-61.2530376"><ele>4.800000000000001</ele><time>2026-03-22T14:52:53.044Z</time></trkpt><trkpt lat="16.2641207" lon="-61.2530091"><ele>4.0</ele><time>2026-03-22T14:52:53.99Z</time></trkpt><trkpt lat="16.2640142" lon="-61.2529823"><ele>5.2</ele><time>2026-03-22T14:52:55.001Z</time></trkpt><trkpt lat="16.2639075" lon="-61.2529549"><ele>6.4</ele><time>2026-03-22T14:52:56.041Z</time></trkpt><trkpt lat="16.2638085" lon="-61.2529297"><ele>7.6</ele><time>2026-03-22T14:52:57.077Z</time></trkpt><trkpt lat="16.2637133" lon="-61.2529079"><ele>8.8</ele><time>2026-03-22T14:52:58.046Z</time></trkpt><trkpt lat="16.2636216" lon="-61.252883"><ele>10.0</ele><time>2026-03-22T14:52:58.989Z</time></trkpt><trkpt lat="16.2635275" lon="-61.2528505"><ele>10.0</ele><time>2026-03-22T14:52:59.995Z</time></trkpt><trkpt lat="16.2634421" lon="-61.2528228"><ele>10.0</ele><time>2026-03-22T14:53:00.972Z</time></trkpt><trkpt lat="16.2633631" lon="-61.2528032"><ele>10.0</ele><time>2026-03-22T14:53:02.045Z</time></trkpt><trkpt lat="16.2632926" lon="-61.252779"><ele>10.0</ele><time>2026-03-22T14:53:03.061Z</time></trkpt><trkpt lat="16.2632154" lon="-61.2527888"><ele>10.0</ele><time>2026-03-22T14:53:05Z</time></trkpt><trkpt lat="16.2631794" lon="-61.2528666"><ele>10.0</ele><time>2026-03-22T14:53:07.986Z</time></trkpt><trkpt lat="16.2631756" lon="-61.2529369"><ele>10.0</ele><time>2026-03-22T14:53:09.981Z</time></trkpt><trkpt lat="16.2631816" lon="-61.2530248"><ele>10.0</ele><time>2026-03-22T14:53:11.967Z</time></trkpt><trkpt lat="16.2632033" lon="-61.253119"><ele>10.0</ele><time>2026-03-22T14:53:12.987Z</time></trkpt><trkpt lat="16.2632195" lon="-61.2531973"><ele>10.0</ele><time>2026-03-22T14:53:13.987Z</time></trkpt><trkpt lat="16.2632327" lon="-61.2532878"><ele>10.0</ele><time>2026-03-22T14:53:14.994Z</time></trkpt><trkpt lat="16.2632445" lon="-61.2533939"><ele>10.0</ele><time>2026-03-22T14:53:15.992Z</time></trkpt><trkpt lat="16.2632606" lon="-61.2534993"><ele>11.25</ele><time>2026-03-22T14:53:16.99Z</time></trkpt><trkpt lat="16.2632822" lon="-61.2536211"><ele>12.5</ele><time>2026-03-22T14:53:18.067Z</time></trkpt><trkpt lat="16.2632985" lon="-61.2537321"><ele>13.75</ele><time>2026-03-22T14:53:18.983Z</time></trkpt><trkpt lat="16.2633172" lon="-61.2538457"><ele>15.0</ele><time>2026-03-22T14:53:19.997Z</time></trkpt><trkpt lat="16.2633381" lon="-61.2539651"><ele>15.8</ele><time>2026-03-22T14:53:20.979Z</time></trkpt><trkpt lat="16.2633591" lon="-61.2540821"><ele>16.6</ele><time>2026-03-22T14:53:21.994Z</time></trkpt><trkpt lat="16.2633719" lon="-61.2541912"><ele>17.4</ele><time>2026-03-22T14:53:22.987Z</time></trkpt><trkpt lat="16.2633841" lon="-61.2542801"><ele>18.2</ele><time>2026-03-22T14:53:24.002Z</time></trkpt><trkpt lat="16.2633851" lon="-61.2543603"><ele>19.0</ele><time>2026-03-22T14:53:25.049Z</time></trkpt><trkpt lat="16.263387" lon="-61.25443"><ele>19.0</ele><time>2026-03-22T14:53:25.971Z</time></trkpt><trkpt lat="16.2633786" lon="-61.2544979"><ele>19.0</ele><time>2026-03-22T14:53:27.071Z</time></trkpt><trkpt lat="16.2633436" lon="-61.2546281"><ele>19.0</ele><time>2026-03-22T14:53:28.967Z</time></trkpt><trkpt lat="16.2633058" lon="-61.2547039"><ele>19.0</ele><time>2026-03-22T14:53:30.982Z</time></trkpt><trkpt lat="16.2632354" lon="-61.2547466"><ele>19.0</ele><time>2026-03-22T14:53:32.99Z</time></trkpt><trkpt lat="16.2631298" lon="-61.2547757"><ele>19.5</ele><time>2026-03-22T14:53:34.98Z</time></trkpt><trkpt lat="16.2630522" lon="-61.2547813"><ele>20.0</ele><time>2026-03-22T14:53:35.972Z</time></trkpt><trkpt lat="16.2629523" lon="-61.2547974"><ele>20.5</ele><time>2026-03-22T14:53:36.985Z</time></trkpt><trkpt lat="16.2628582" lon="-61.2548065"><ele>21.0</ele><time>2026-03-22T14:53:37.997Z</time></trkpt><trkpt lat="16.2627646" lon="-61.254815"><ele>21.5</ele><time>2026-03-22T14:53:38.989Z</time></trkpt><trkpt lat="16.262683" lon="-61.2548126"><ele>22.0</ele><time>2026-03-22T14:53:39.994Z</time></trkpt><trkpt lat="16.2626132" lon="-61.2548096"><ele>22.0</ele><time>2026-03-22T14:53:40.963Z</time></trkpt><trkpt lat="16.2625405" lon="-61.2548089"><ele>22.0</ele><time>2026-03-22T14:53:41.984Z</time></trkpt><trkpt lat="16.2624753" lon="-61.2548162"><ele>22.0</ele><time>2026-03-22T14:53:42.983Z</time></trkpt><trkpt lat="16.2624072" lon="-61.2548269"><ele>22.0</ele><time>2026-03-22T14:53:43.993Z</time></trkpt><trkpt lat="16.2623259" lon="-61.2548285"><ele>22.0</ele><time>2026-03-22T14:53:44.996Z</time></trkpt><trkpt lat="16.2622332" lon="-61.2548281"><ele>22.0</ele><time>2026-03-22T14:53:45.989Z</time></trkpt><trkpt lat="16.2621401" lon="-61.2548187"><ele>21.333333333333332</ele><time>2026-03-22T14:53:46.995Z</time></trkpt><trkpt lat="16.2620407" lon="-61.2548136"><ele>20.666666666666664</ele><time>2026-03-22T14:53:47.961Z</time></trkpt><trkpt lat="16.2619482" lon="-61.2548185"><ele>20.0</ele><time>2026-03-22T14:53:48.983Z</time></trkpt><trkpt lat="16.2618616" lon="-61.2548251"><ele>19.333333333333332</ele><time>2026-03-22T14:53:49.986Z</time></trkpt><trkpt lat="16.2617949" lon="-61.2548216"><ele>18.666666666666668</ele><time>2026-03-22T14:53:50.98Z</time></trkpt><trkpt lat="16.2617198" lon="-61.2548165"><ele>18.0</ele><time>2026-03-22T14:53:52.977Z</time></trkpt><trkpt lat="16.2616597" lon="-61.2548616"><ele>18.0</ele><time>2026-03-22T14:53:54.993Z</time></trkpt><trkpt lat="16.2616794" lon="-61.2550023"><ele>18.0</ele><time>2026-03-22T14:53:56.99Z</time></trkpt><trkpt lat="16.2617015" lon="-61.2551002"><ele>18.0</ele><time>2026-03-22T14:53:57.992Z</time></trkpt><trkpt lat="16.2617255" lon="-61.2552046"><ele>18.0</ele><time>2026-03-22T14:53:58.994Z</time></trkpt><trkpt lat="16.2617446" lon="-61.2553261"><ele>18.0</ele><time>2026-03-22T14:53:59.993Z</time></trkpt><trkpt lat="16.2617626" lon="-61.2554489"><ele>18.0</ele><time>2026-03-22T14:54:00.985Z</time></trkpt><trkpt lat="16.2617815" lon="-61.2555672"><ele>18.0</ele><time>2026-03-22T14:54:01.98Z</time></trkpt><trkpt lat="16.2617996" lon="-61.2556918"><ele>18.0</ele><time>2026-03-22T14:54:02.993Z</time></trkpt><trkpt lat="16.2618127" lon="-61.2558211"><ele>18.75</ele><time>2026-03-22T14:54:03.985Z</time></trkpt><trkpt lat="16.2618314" lon="-61.2559404"><ele>19.5</ele><time>2026-03-22T14:54:04.99Z</time></trkpt><trkpt lat="16.2618551" lon="-61.2560611"><ele>20.25</ele><time>2026-03-22T14:54:06.039Z</time></trkpt><trkpt lat="16.2618749" lon="-61.2561769"><ele>21.0</ele><time>2026-03-22T14:54:07.03Z</time></trkpt><trkpt lat="16.2618886" lon="-61.2562925"><ele>21.0</ele><time>2026-03-22T14:54:07.973Z</time></trkpt><trkpt lat="16.2618993" lon="-61.2564076"><ele>21.0</ele><time>2026-03-22T14:54:08.997Z</time></trkpt><trkpt lat="16.2619024" lon="-61.2565263"><ele>21.0</ele><time>2026-03-22T14:54:09.977Z</time></trkpt><trkpt lat="16.2619" lon="-61.2566428"><ele>21.0</ele><time>2026-03-22T14:54:10.994Z</time></trkpt><trkpt lat="16.2618952" lon="-61.256756"><ele>21.0</ele><time>2026-03-22T14:54:11.992Z</time></trkpt><trkpt lat="16.2618883" lon="-61.2568694"><ele>21.8</ele><time>2026-03-22T14:54:13.008Z</time></trkpt><trkpt lat="16.261883" lon="-61.2569816"><ele>22.6</ele><time>2026-03-22T14:54:13.993Z</time></trkpt><trkpt lat="16.2618798" lon="-61.2570994"><ele>23.4</ele><time>2026-03-22T14:54:14.998Z</time></trkpt><trkpt lat="16.2618784" lon="-61.257217"><ele>24.2</ele><time>2026-03-22T14:54:16.011Z</time></trkpt><trkpt lat="16.2618756" lon="-61.2573344"><ele>25.0</ele><time>2026-03-22T14:54:16.997Z</time></trkpt><trkpt lat="16.2618672" lon="-61.2574515"><ele>25.0</ele><time>2026-03-22T14:54:18.039Z</time></trkpt><trkpt lat="16.2618513" lon="-61.2575681"><ele>25.0</ele><time>2026-03-22T14:54:18.988Z</time></trkpt><trkpt lat="16.2618274" lon="-61.2576825"><ele>25.0</ele><time>2026-03-22T14:54:19.991Z</time></trkpt><trkpt lat="16.2617953" lon="-61.2578019"><ele>25.0</ele><time>2026-03-22T14:54:21.045Z</time></trkpt><trkpt lat="16.2617609" lon="-61.25792"><ele>25.0</ele><time>2026-03-22T14:54:21.998Z</time></trkpt><trkpt lat="16.261731" lon="-61.2580457"><ele>25.0</ele><time>2026-03-22T14:54:23.046Z</time></trkpt><trkpt lat="16.2617014" lon="-61.2581707"><ele>25.0</ele><time>2026-03-22T14:54:24Z</time></trkpt><trkpt lat="16.261665" lon="-61.2582876"><ele>25.0</ele><time>2026-03-22T14:54:25.006Z</time></trkpt><trkpt lat="16.2616124" lon="-61.2583958"><ele>25.25</ele><time>2026-03-22T14:54:26.002Z</time></trkpt><trkpt lat="16.2615388" lon="-61.2584938"><ele>25.5</ele><time>2026-03-22T14:54:27.036Z</time></trkpt><trkpt lat="16.2614551" lon="-61.2585826"><ele>25.75</ele><time>2026-03-22T14:54:28.045Z</time></trkpt><trkpt lat="16.2613698" lon="-61.2586603"><ele>26.0</ele><time>2026-03-22T14:54:28.993Z</time></trkpt><trkpt lat="16.2612799" lon="-61.2587303"><ele>24.5</ele><time>2026-03-22T14:54:29.989Z</time></trkpt><trkpt lat="16.261182" lon="-61.2587864"><ele>23.0</ele><time>2026-03-22T14:54:30.995Z</time></trkpt><trkpt lat="16.2610607" lon="-61.2588239"><ele>21.5</ele><time>2026-03-22T14:54:32.022Z</time></trkpt><trkpt lat="16.2609379" lon="-61.2588565"><ele>20.0</ele><time>2026-03-22T14:54:33.07Z</time></trkpt><trkpt lat="16.2608147" lon="-61.2588896"><ele>20.0</ele><time>2026-03-22T14:54:33.99Z</time></trkpt><trkpt lat="16.260708" lon="-61.2589401"><ele>20.0</ele><time>2026-03-22T14:54:35.002Z</time></trkpt><trkpt lat="16.260602" lon="-61.2589983"><ele>20.0</ele><time>2026-03-22T14:54:35.997Z</time></trkpt><trkpt lat="16.2605114" lon="-61.2590698"><ele>20.0</ele><time>2026-03-22T14:54:37.04Z</time></trkpt><trkpt lat="16.2604289" lon="-61.2591495"><ele>19.6</ele><time>2026-03-22T14:54:38.032Z</time></trkpt><trkpt lat="16.2603535" lon="-61.259225"><ele>19.2</ele><time>2026-03-22T14:54:38.982Z</time></trkpt><trkpt lat="16.2602793" lon="-61.259312"><ele>18.8</ele><time>2026-03-22T14:54:39.992Z</time></trkpt><trkpt lat="16.2602075" lon="-61.2594038"><ele>18.4</ele><time>2026-03-22T14:54:40.997Z</time></trkpt><trkpt lat="16.2601522" lon="-61.2595044"><ele>18.0</ele><time>2026-03-22T14:54:42.005Z</time></trkpt><trkpt lat="16.2601056" lon="-61.2596231"><ele>18.0</ele><time>2026-03-22T14:54:42.982Z</time></trkpt><trkpt lat="16.260067" lon="-61.2597415"><ele>18.0</ele><time>2026-03-22T14:54:43.983Z</time></trkpt><trkpt lat="16.2600311" lon="-61.2598628"><ele>18.0</ele><time>2026-03-22T14:54:44.987Z</time></trkpt><trkpt lat="16.2599837" lon="-61.2599872"><ele>18.0</ele><time>2026-03-22T14:54:45.993Z</time></trkpt><trkpt lat="16.2599387" lon="-61.2601053"><ele>17.75</ele><time>2026-03-22T14:54:47.035Z</time></trkpt><trkpt lat="16.2598935" lon="-61.260222"><ele>17.5</ele><time>2026-03-22T14:54:47.988Z</time></trkpt><trkpt lat="16.2598473" lon="-61.2603451"><ele>17.25</ele><time>2026-03-22T14:54:48.98Z</time></trkpt><trkpt lat="16.2598039" lon="-61.2604612"><ele>17.0</ele><time>2026-03-22T14:54:49.99Z</time></trkpt><trkpt lat="16.2597627" lon="-61.2605826"><ele>16.75</ele><time>2026-03-22T14:54:50.991Z</time></trkpt><trkpt lat="16.2597205" lon="-61.2607017"><ele>16.5</ele><time>2026-03-22T14:54:51.986Z</time></trkpt><trkpt lat="16.2596836" lon="-61.2608213"><ele>16.25</ele><time>2026-03-22T14:54:52.994Z</time></trkpt><trkpt lat="16.2596456" lon="-61.2609349"><ele>16.0</ele><time>2026-03-22T14:54:53.99Z</time></trkpt><trkpt lat="16.2596085" lon="-61.2610561"><ele>16.0</ele><time>2026-03-22T14:54:55.065Z</time></trkpt><trkpt lat="16.2595651" lon="-61.2611736"><ele>16.0</ele><time>2026-03-22T14:54:56.033Z</time></trkpt><trkpt lat="16.2595174" lon="-61.2612862"><ele>16.0</ele><time>2026-03-22T14:54:57.043Z</time></trkpt><trkpt lat="16.2594675" lon="-61.2613974"><ele>16.0</ele><time>2026-03-22T14:54:58.045Z</time></trkpt><trkpt lat="16.2594193" lon="-61.2615122"><ele>15.200000000000001</ele><time>2026-03-22T14:54:58.992Z</time></trkpt><trkpt lat="16.2593798" lon="-61.2616288"><ele>14.400000000000002</ele><time>2026-03-22T14:54:59.989Z</time></trkpt><trkpt lat="16.2593356" lon="-61.2617365"><ele>13.6</ele><time>2026-03-22T14:55:01.027Z</time></trkpt><trkpt lat="16.2593003" lon="-61.2618127"><ele>12.8</ele><time>2026-03-22T14:55:02.049Z</time></trkpt><trkpt lat="16.2592221" lon="-61.2618603"><ele>12.0</ele><time>2026-03-22T14:55:03.983Z</time></trkpt><trkpt lat="16.2591362" lon="-61.2617987"><ele>12.0</ele><time>2026-03-22T14:55:04.988Z</time></trkpt><trkpt lat="16.2590301" lon="-61.2617386"><ele>12.0</ele><time>2026-03-22T14:55:06.008Z</time></trkpt><trkpt lat="16.2589143" lon="-61.2616842"><ele>12.0</ele><time>2026-03-22T14:55:07.046Z</time></trkpt><trkpt lat="16.2588096" lon="-61.2616449"><ele>12.0</ele><time>2026-03-22T14:55:08.038Z</time></trkpt><trkpt lat="16.2587139" lon="-61.2616159"><ele>11.166666666666666</ele><time>2026-03-22T14:55:08.982Z</time></trkpt><trkpt lat="16.2586359" lon="-61.2615995"><ele>10.333333333333334</ele><time>2026-03-22T14:55:09.991Z</time></trkpt><trkpt lat="16.2585365" lon="-61.2615829"><ele>9.5</ele><time>2026-03-22T14:55:12.032Z</time></trkpt><trkpt lat="16.2584772" lon="-61.2616355"><ele>8.666666666666668</ele><time>2026-03-22T14:55:14.965Z</time></trkpt><trkpt lat="16.2584887" lon="-61.2617001"><ele>7.833333333333334</ele><time>2026-03-22T14:55:16.059Z</time></trkpt><trkpt lat="16.2585064" lon="-61.2617688"><ele>7.0</ele><time>2026-03-22T14:55:17.047Z</time></trkpt><trkpt lat="16.2585208" lon="-61.2618826"><ele>7.0</ele><time>2026-03-22T14:55:18.989Z</time></trkpt><trkpt lat="16.258546" lon="-61.2620087"><ele>6.999999999999999</ele><time>2026-03-22T14:55:20.989Z</time></trkpt><trkpt lat="16.2585646" lon="-61.2620941"><ele>6.999999999999999</ele><time>2026-03-22T14:55:21.997Z</time></trkpt><trkpt lat="16.2585837" lon="-61.2621966"><ele>7.0</ele><time>2026-03-22T14:55:22.994Z</time></trkpt><trkpt lat="16.2586101" lon="-61.2623182"><ele>7.0</ele><time>2026-03-22T14:55:23.982Z</time></trkpt><trkpt lat="16.2586345" lon="-61.2624409"><ele>5.75</ele><time>2026-03-22T14:55:25.048Z</time></trkpt><trkpt lat="16.2586589" lon="-61.2625657"><ele>4.5</ele><time>2026-03-22T14:55:26.066Z</time></trkpt><trkpt lat="16.2586845" lon="-61.2626866"><ele>3.25</ele><time>2026-03-22T14:55:27.033Z</time></trkpt><trkpt lat="16.2587098" lon="-61.2628083"><ele>2.0</ele><time>2026-03-22T14:55:27.983Z</time></trkpt><trkpt lat="16.2587333" lon="-61.2629274"><ele>2.0</ele><time>2026-03-22T14:55:28.996Z</time></trkpt><trkpt lat="16.2587584" lon="-61.2630495"><ele>2.0</ele><time>2026-03-22T14:55:29.984Z</time></trkpt><trkpt lat="16.2587852" lon="-61.2631692"><ele>2.0</ele><time>2026-03-22T14:55:30.987Z</time></trkpt><trkpt lat="16.2588111" lon="-61.2632893"><ele>2.0</ele><time>2026-03-22T14:55:31.98Z</time></trkpt><trkpt lat="16.258835" lon="-61.2634122"><ele>2.0</ele><time>2026-03-22T14:55:33.037Z</time></trkpt><trkpt lat="16.2588605" lon="-61.2635309"><ele>2.0</ele><time>2026-03-22T14:55:33.981Z</time></trkpt><trkpt lat="16.2588861" lon="-61.2636527"><ele>2.0</ele><time>2026-03-22T14:55:34.992Z</time></trkpt><trkpt lat="16.2589131" lon="-61.2637731"><ele>2.0</ele><time>2026-03-22T14:55:36.091Z</time></trkpt><trkpt lat="16.2589408" lon="-61.263896"><ele>3.0</ele><time>2026-03-22T14:55:37.052Z</time></trkpt><trkpt lat="16.2589701" lon="-61.2640179"><ele>4.0</ele><time>2026-03-22T14:55:37.992Z</time></trkpt><trkpt lat="16.2589965" lon="-61.2641391"><ele>5.0</ele><time>2026-03-22T14:55:38.988Z</time></trkpt><trkpt lat="16.2590203" lon="-61.2642603"><ele>6.0</ele><time>2026-03-22T14:55:39.99Z</time></trkpt><trkpt lat="16.2590431" lon="-61.2643762"><ele>6.0</ele><time>2026-03-22T14:55:40.992Z</time></trkpt><trkpt lat="16.2590674" lon="-61.2644934"><ele>6.0</ele><time>2026-03-22T14:55:41.985Z</time></trkpt><trkpt lat="16.2590929" lon="-61.2646136"><ele>6.0</ele><time>2026-03-22T14:55:42.979Z</time></trkpt><trkpt lat="16.2591216" lon="-61.2647334"><ele>6.0</ele><time>2026-03-22T14:55:43.97Z</time></trkpt><trkpt lat="16.2591465" lon="-61.2648559"><ele>6.25</ele><time>2026-03-22T14:55:44.976Z</time></trkpt><trkpt lat="16.2591729" lon="-61.2649738"><ele>6.5</ele><time>2026-03-22T14:55:45.981Z</time></trkpt><trkpt lat="16.2591994" lon="-61.2650912"><ele>6.75</ele><time>2026-03-22T14:55:46.983Z</time></trkpt><trkpt lat="16.2592233" lon="-61.2652109"><ele>7.0</ele><time>2026-03-22T14:55:48.054Z</time></trkpt><trkpt lat="16.2592452" lon="-61.2653269"><ele>7.0</ele><time>2026-03-22T14:55:48.983Z</time></trkpt><trkpt lat="16.259265" lon="-61.2654459"><ele>7.0</ele><time>2026-03-22T14:55:49.994Z</time></trkpt><trkpt lat="16.2592861" lon="-61.265562"><ele>7.0</ele><time>2026-03-22T14:55:50.986Z</time></trkpt><trkpt lat="16.2593016" lon="-61.2656788"><ele>7.0</ele><time>2026-03-22T14:55:51.983Z</time></trkpt><trkpt lat="16.2593132" lon="-61.2658"><ele>7.25</ele><time>2026-03-22T14:55:53.081Z</time></trkpt><trkpt lat="16.2593225" lon="-61.2659214"><ele>7.5</ele><time>2026-03-22T14:55:53.982Z</time></trkpt><trkpt lat="16.2593363" lon="-61.2660435"><ele>7.75</ele><time>2026-03-22T14:55:54.984Z</time></trkpt><trkpt lat="16.259349" lon="-61.2661717"><ele>8.0</ele><time>2026-03-22T14:55:55.992Z</time></trkpt><trkpt lat="16.2593596" lon="-61.2662964"><ele>8.0</ele><time>2026-03-22T14:55:57.066Z</time></trkpt><trkpt lat="16.2593649" lon="-61.2664183"><ele>8.0</ele><time>2026-03-22T14:55:58.033Z</time></trkpt><trkpt lat="16.2593632" lon="-61.266541"><ele>8.0</ele><time>2026-03-22T14:55:58.98Z</time></trkpt><trkpt lat="16.259365" lon="-61.2666637"><ele>8.0</ele><time>2026-03-22T14:55:59.982Z</time></trkpt><trkpt lat="16.259364" lon="-61.2667869"><ele>7.75</ele><time>2026-03-22T14:56:00.979Z</time></trkpt><trkpt lat="16.2593666" lon="-61.2669113"><ele>7.5</ele><time>2026-03-22T14:56:01.98Z</time></trkpt><trkpt lat="16.2593629" lon="-61.2670364"><ele>7.25</ele><time>2026-03-22T14:56:02.994Z</time></trkpt><trkpt lat="16.2593626" lon="-61.2671596"><ele>7.0</ele><time>2026-03-22T14:56:03.997Z</time></trkpt><trkpt lat="16.2593586" lon="-61.2672834"><ele>7.0</ele><time>2026-03-22T14:56:04.994Z</time></trkpt><trkpt lat="16.2593513" lon="-61.2674022"><ele>7.0</ele><time>2026-03-22T14:56:05.956Z</time></trkpt><trkpt lat="16.2593443" lon="-61.2675225"><ele>7.0</ele><time>2026-03-22T14:56:07.024Z</time></trkpt><trkpt lat="16.2593345" lon="-61.2676387"><ele>7.0</ele><time>2026-03-22T14:56:08.05Z</time></trkpt><trkpt lat="16.2593076" lon="-61.2677546"><ele>7.0</ele><time>2026-03-22T14:56:08.986Z</time></trkpt><trkpt lat="16.2592589" lon="-61.2678656"><ele>7.0</ele><time>2026-03-22T14:56:09.985Z</time></trkpt><trkpt lat="16.2591924" lon="-61.267963"><ele>7.0</ele><time>2026-03-22T14:56:10.984Z</time></trkpt><trkpt lat="16.2591066" lon="-61.2680478"><ele>7.0</ele><time>2026-03-22T14:56:11.989Z</time></trkpt><trkpt lat="16.2590117" lon="-61.2681263"><ele>7.0</ele><time>2026-03-22T14:56:12.991Z</time></trkpt><trkpt lat="16.2589113" lon="-61.2681982"><ele>7.0</ele><time>2026-03-22T14:56:14.003Z</time></trkpt><trkpt lat="16.2588143" lon="-61.2682729"><ele>7.0</ele><time>2026-03-22T14:56:15.078Z</time></trkpt><trkpt lat="16.2587188" lon="-61.2683544"><ele>7.0</ele><time>2026-03-22T14:56:16.048Z</time></trkpt><trkpt lat="16.2586202" lon="-61.268437"><ele>7.0</ele><time>2026-03-22T14:56:16.985Z</time></trkpt><trkpt lat="16.2585261" lon="-61.2685141"><ele>7.0</ele><time>2026-03-22T14:56:17.988Z</time></trkpt><trkpt lat="16.2584311" lon="-61.2685877"><ele>7.0</ele><time>2026-03-22T14:56:18.982Z</time></trkpt><trkpt lat="16.2583363" lon="-61.2686634"><ele>7.0</ele><time>2026-03-22T14:56:19.993Z</time></trkpt><trkpt lat="16.2582481" lon="-61.2687409"><ele>7.0</ele><time>2026-03-22T14:56:20.997Z</time></trkpt><trkpt lat="16.2581547" lon="-61.2688167"><ele>7.0</ele><time>2026-03-22T14:56:21.981Z</time></trkpt><trkpt lat="16.2580598" lon="-61.2688937"><ele>7.0</ele><time>2026-03-22T14:56:23.059Z</time></trkpt><trkpt lat="16.2579693" lon="-61.2689725"><ele>7.0</ele><time>2026-03-22T14:56:23.971Z</time></trkpt><trkpt lat="16.2578747" lon="-61.2690446"><ele>7.25</ele><time>2026-03-22T14:56:24.969Z</time></trkpt><trkpt lat="16.2577843" lon="-61.2691228"><ele>7.5</ele><time>2026-03-22T14:56:25.986Z</time></trkpt><trkpt lat="16.2576895" lon="-61.2691923"><ele>7.75</ele><time>2026-03-22T14:56:27.047Z</time></trkpt><trkpt lat="16.2575956" lon="-61.2692655"><ele>8.0</ele><time>2026-03-22T14:56:28.059Z</time></trkpt><trkpt lat="16.2575018" lon="-61.2693407"><ele>8.0</ele><time>2026-03-22T14:56:28.984Z</time></trkpt><trkpt lat="16.2574075" lon="-61.2694171"><ele>8.0</ele><time>2026-03-22T14:56:29.986Z</time></trkpt><trkpt lat="16.2573153" lon="-61.2694948"><ele>8.0</ele><time>2026-03-22T14:56:30.987Z</time></trkpt><trkpt lat="16.2572249" lon="-61.269573"><ele>8.0</ele><time>2026-03-22T14:56:32.027Z</time></trkpt><trkpt lat="16.2571366" lon="-61.2696465"><ele>8.25</ele><time>2026-03-22T14:56:33.023Z</time></trkpt><trkpt lat="16.2570453" lon="-61.2697279"><ele>8.5</ele><time>2026-03-22T14:56:33.991Z</time></trkpt><trkpt lat="16.2569553" lon="-61.2698069"><ele>8.75</ele><time>2026-03-22T14:56:34.987Z</time></trkpt><trkpt lat="16.2568598" lon="-61.2698769"><ele>9.0</ele><time>2026-03-22T14:56:36.009Z</time></trkpt><trkpt lat="16.2567613" lon="-61.2699444"><ele>9.0</ele><time>2026-03-22T14:56:37.006Z</time></trkpt><trkpt lat="16.2566603" lon="-61.2700098"><ele>9.0</ele><time>2026-03-22T14:56:37.994Z</time></trkpt><trkpt lat="16.2565587" lon="-61.2700691"><ele>9.0</ele><time>2026-03-22T14:56:38.988Z</time></trkpt><trkpt lat="16.2564532" lon="-61.2701272"><ele>9.0</ele><time>2026-03-22T14:56:40.068Z</time></trkpt><trkpt lat="16.2563518" lon="-61.2701885"><ele>8.75</ele><time>2026-03-22T14:56:40.979Z</time></trkpt><trkpt lat="16.256256" lon="-61.2702505"><ele>8.5</ele><time>2026-03-22T14:56:42.011Z</time></trkpt><trkpt lat="16.2561589" lon="-61.2703099"><ele>8.25</ele><time>2026-03-22T14:56:43.028Z</time></trkpt><trkpt lat="16.2560555" lon="-61.2703722"><ele>8.0</ele><time>2026-03-22T14:56:43.988Z</time></trkpt><trkpt lat="16.2559546" lon="-61.2704424"><ele>8.0</ele><time>2026-03-22T14:56:44.992Z</time></trkpt><trkpt lat="16.2558629" lon="-61.2705147"><ele>8.0</ele><time>2026-03-22T14:56:45.997Z</time></trkpt><trkpt lat="16.2557714" lon="-61.2705852"><ele>8.0</ele><time>2026-03-22T14:56:46.963Z</time></trkpt><trkpt lat="16.2556875" lon="-61.2706537"><ele>8.0</ele><time>2026-03-22T14:56:48.039Z</time></trkpt><trkpt lat="16.2556088" lon="-61.2707172"><ele>8.0</ele><time>2026-03-22T14:56:48.988Z</time></trkpt><trkpt lat="16.2555407" lon="-61.27078"><ele>7.800000000000001</ele><time>2026-03-22T14:56:49.994Z</time></trkpt><trkpt lat="16.2554822" lon="-61.2708452"><ele>7.6000000000000005</ele><time>2026-03-22T14:56:50.977Z</time></trkpt><trkpt lat="16.2554279" lon="-61.270916"><ele>7.3999999999999995</ele><time>2026-03-22T14:56:51.99Z</time></trkpt><trkpt lat="16.2553878" lon="-61.2710084"><ele>7.199999999999999</ele><time>2026-03-22T14:56:52.997Z</time></trkpt><trkpt lat="16.2553668" lon="-61.2711295"><ele>7.0</ele><time>2026-03-22T14:56:53.995Z</time></trkpt><trkpt lat="16.2553531" lon="-61.2712468"><ele>7.0</ele><time>2026-03-22T14:56:55.072Z</time></trkpt><trkpt lat="16.2553277" lon="-61.2713561"><ele>6.999999999999999</ele><time>2026-03-22T14:56:55.992Z</time></trkpt><trkpt lat="16.2553077" lon="-61.2714575"><ele>6.999999999999999</ele><time>2026-03-22T14:56:57.062Z</time></trkpt><trkpt lat="16.2552843" lon="-61.2715559"><ele>7.0</ele><time>2026-03-22T14:56:58.037Z</time></trkpt><trkpt lat="16.2552584" lon="-61.2716458"><ele>7.0</ele><time>2026-03-22T14:56:58.981Z</time></trkpt><trkpt lat="16.2552319" lon="-61.2717326"><ele>6.833333333333334</ele><time>2026-03-22T14:56:59.992Z</time></trkpt><trkpt lat="16.2552072" lon="-61.2718196"><ele>6.666666666666667</ele><time>2026-03-22T14:57:00.993Z</time></trkpt><trkpt lat="16.2551874" lon="-61.2719055"><ele>6.5</ele><time>2026-03-22T14:57:01.989Z</time></trkpt><trkpt lat="16.2551718" lon="-61.2719904"><ele>6.333333333333334</ele><time>2026-03-22T14:57:02.987Z</time></trkpt><trkpt lat="16.2551536" lon="-61.2720788"><ele>6.166666666666667</ele><time>2026-03-22T14:57:03.984Z</time></trkpt><trkpt lat="16.2551292" lon="-61.2721632"><ele>6.0</ele><time>2026-03-22T14:57:04.99Z</time></trkpt><trkpt lat="16.2551101" lon="-61.2722511"><ele>5.8</ele><time>2026-03-22T14:57:06.048Z</time></trkpt><trkpt lat="16.2550964" lon="-61.2723397"><ele>5.6</ele><time>2026-03-22T14:57:07.015Z</time></trkpt><trkpt lat="16.2550827" lon="-61.2724257"><ele>5.4</ele><time>2026-03-22T14:57:07.993Z</time></trkpt><trkpt lat="16.2550703" lon="-61.2725072"><ele>5.2</ele><time>2026-03-22T14:57:08.984Z</time></trkpt><trkpt lat="16.2550414" lon="-61.27262"><ele>5.0</ele><time>2026-03-22T14:57:10.991Z</time></trkpt><trkpt lat="16.255005" lon="-61.2727201"><ele>5.0</ele><time>2026-03-22T14:57:12.98Z</time></trkpt><trkpt lat="16.254994" lon="-61.2728177"><ele>5.0</ele><time>2026-03-22T14:57:14.989Z</time></trkpt><trkpt lat="16.2549563" lon="-61.2730253"><ele>5.0</ele><time>2026-03-22T14:57:17.986Z</time></trkpt><trkpt lat="16.2549383" lon="-61.2730991"><ele>5.0</ele><time>2026-03-22T14:57:18.999Z</time></trkpt><trkpt lat="16.2549251" lon="-61.2731677"><ele>5.0</ele><time>2026-03-22T14:57:19.993Z</time></trkpt><trkpt lat="16.2549125" lon="-61.2732341"><ele>5.0</ele><time>2026-03-22T14:57:20.992Z</time></trkpt><trkpt lat="16.2548888" lon="-61.2733574"><ele>5.0</ele><time>2026-03-22T14:57:22.997Z</time></trkpt><trkpt lat="16.2548695" lon="-61.2734247"><ele>5.0</ele><time>2026-03-22T14:57:23.99Z</time></trkpt><trkpt lat="16.2548588" lon="-61.2734896"><ele>5.0</ele><time>2026-03-22T14:57:24.996Z</time></trkpt><trkpt lat="16.2548444" lon="-61.2735577"><ele>5.0</ele><time>2026-03-22T14:57:26.004Z</time></trkpt><trkpt lat="16.2548285" lon="-61.2736305"><ele>5.0</ele><time>2026-03-22T14:57:26.986Z</time></trkpt><trkpt lat="16.2548154" lon="-61.2736958"><ele>5.0</ele><time>2026-03-22T14:57:28.001Z</time></trkpt><trkpt lat="16.2547993" lon="-61.2737669"><ele>5.0</ele><time>2026-03-22T14:57:28.994Z</time></trkpt><trkpt lat="16.2547856" lon="-61.2738396"><ele>5.0</ele><time>2026-03-22T14:57:29.996Z</time></trkpt><trkpt lat="16.2547708" lon="-61.2739169"><ele>5.0</ele><time>2026-03-22T14:57:30.96Z</time></trkpt><trkpt lat="16.2547567" lon="-61.2739897"><ele>5.0</ele><time>2026-03-22T14:57:31.983Z</time></trkpt><trkpt lat="16.2547408" lon="-61.2740666"><ele>5.0</ele><time>2026-03-22T14:57:32.984Z</time></trkpt><trkpt lat="16.2547219" lon="-61.2741438"><ele>5.0</ele><time>2026-03-22T14:57:33.999Z</time></trkpt><trkpt lat="16.2547055" lon="-61.2742154"><ele>5.0</ele><time>2026-03-22T14:57:35.004Z</time></trkpt><trkpt lat="16.2546745" lon="-61.2743108"><ele>5.0</ele><time>2026-03-22T14:57:36.994Z</time></trkpt><trkpt lat="16.2546576" lon="-61.2743972"><ele>5.0</ele><time>2026-03-22T14:57:40.991Z</time></trkpt><trkpt lat="16.2546451" lon="-61.2744698"><ele>5.0</ele><time>2026-03-22T14:57:44.989Z</time></trkpt><trkpt lat="16.2546268" lon="-61.2745478"><ele>5.0</ele><time>2026-03-22T14:57:46.992Z</time></trkpt><trkpt lat="16.2545922" lon="-61.2746567"><ele>5.0</ele><time>2026-03-22T14:57:48.995Z</time></trkpt><trkpt lat="16.2545708" lon="-61.2747259"><ele>5.2</ele><time>2026-03-22T14:57:50.031Z</time></trkpt><trkpt lat="16.2545485" lon="-61.2747978"><ele>5.4</ele><time>2026-03-22T14:57:50.963Z</time></trkpt><trkpt lat="16.2545304" lon="-61.2748673"><ele>5.6</ele><time>2026-03-22T14:57:52.053Z</time></trkpt><trkpt lat="16.2544937" lon="-61.2749825"><ele>5.8</ele><time>2026-03-22T14:57:53.979Z</time></trkpt><trkpt lat="16.2544621" lon="-61.275085"><ele>6.0</ele><time>2026-03-22T14:57:55.993Z</time></trkpt><trkpt lat="16.2544375" lon="-61.2752083"><ele>6.0</ele><time>2026-03-22T14:57:57.994Z</time></trkpt><trkpt lat="16.2544193" lon="-61.275288"><ele>6.0</ele><time>2026-03-22T14:57:58.993Z</time></trkpt><trkpt lat="16.2544024" lon="-61.2753707"><ele>6.0</ele><time>2026-03-22T14:57:59.999Z</time></trkpt><trkpt lat="16.2543879" lon="-61.2754545"><ele>6.0</ele><time>2026-03-22T14:58:00.994Z</time></trkpt><trkpt lat="16.2543689" lon="-61.2755434"><ele>6.0</ele><time>2026-03-22T14:58:01.993Z</time></trkpt><trkpt lat="16.2543493" lon="-61.2756358"><ele>6.0</ele><time>2026-03-22T14:58:03.045Z</time></trkpt><trkpt lat="16.2543298" lon="-61.2757255"><ele>6.6</ele><time>2026-03-22T14:58:03.992Z</time></trkpt><trkpt lat="16.2543088" lon="-61.2758141"><ele>7.199999999999999</ele><time>2026-03-22T14:58:04.997Z</time></trkpt><trkpt lat="16.2542917" lon="-61.2759064"><ele>7.800000000000001</ele><time>2026-03-22T14:58:05.977Z</time></trkpt><trkpt lat="16.2542711" lon="-61.2759964"><ele>8.4</ele><time>2026-03-22T14:58:07.065Z</time></trkpt><trkpt lat="16.2542497" lon="-61.2760927"><ele>9.0</ele><time>2026-03-22T14:58:08.038Z</time></trkpt><trkpt lat="16.2542264" lon="-61.2761951"><ele>9.0</ele><time>2026-03-22T14:58:08.99Z</time></trkpt><trkpt lat="16.2542047" lon="-61.2762988"><ele>9.0</ele><time>2026-03-22T14:58:09.996Z</time></trkpt><trkpt lat="16.2541828" lon="-61.276406"><ele>9.0</ele><time>2026-03-22T14:58:11.074Z</time></trkpt><trkpt lat="16.2541403" lon="-61.2766059"><ele>9.0</ele><time>2026-03-22T14:58:12.996Z</time></trkpt><trkpt lat="16.2541141" lon="-61.2767087"><ele>9.5</ele><time>2026-03-22T14:58:13.979Z</time></trkpt><trkpt lat="16.2540866" lon="-61.276804"><ele>10.0</ele><time>2026-03-22T14:58:15.001Z</time></trkpt><trkpt lat="16.2540605" lon="-61.2768978"><ele>10.5</ele><time>2026-03-22T14:58:15.986Z</time></trkpt><trkpt lat="16.2540383" lon="-61.2769878"><ele>11.0</ele><time>2026-03-22T14:58:16.999Z</time></trkpt><trkpt lat="16.2540126" lon="-61.277075"><ele>11.5</ele><time>2026-03-22T14:58:17.986Z</time></trkpt><trkpt lat="16.2539936" lon="-61.277148"><ele>12.0</ele><time>2026-03-22T14:58:18.999Z</time></trkpt><trkpt lat="16.2539797" lon="-61.2772608"><ele>12.166666666666666</ele><time>2026-03-22T14:58:20.999Z</time></trkpt><trkpt lat="16.2539596" lon="-61.2773332"><ele>12.333333333333332</ele><time>2026-03-22T14:58:23.984Z</time></trkpt><trkpt lat="16.2539513" lon="-61.2774059"><ele>12.5</ele><time>2026-03-22T14:58:28.989Z</time></trkpt><trkpt lat="16.2539151" lon="-61.2774702"><ele>12.666666666666666</ele><time>2026-03-22T14:58:33.997Z</time></trkpt><trkpt lat="16.2538511" lon="-61.2775445"><ele>12.833333333333332</ele><time>2026-03-22T14:58:38.002Z</time></trkpt><trkpt lat="16.2537513" lon="-61.2775519"><ele>13.0</ele><time>2026-03-22T14:58:38.976Z</time></trkpt><trkpt lat="16.2536417" lon="-61.2775529"><ele>12.0</ele><time>2026-03-22T14:58:39.986Z</time></trkpt><trkpt lat="16.253533" lon="-61.2775534"><ele>11.0</ele><time>2026-03-22T14:58:40.996Z</time></trkpt><trkpt lat="16.2534263" lon="-61.2775533"><ele>10.0</ele><time>2026-03-22T14:58:41.99Z</time></trkpt><trkpt lat="16.2533241" lon="-61.2775571"><ele>9.0</ele><time>2026-03-22T14:58:42.978Z</time></trkpt><trkpt lat="16.2532319" lon="-61.2775547"><ele>8.0</ele><time>2026-03-22T14:58:43.966Z</time></trkpt><trkpt lat="16.2531357" lon="-61.2775488"><ele>7.499999999999999</ele><time>2026-03-22T14:58:45.046Z</time></trkpt><trkpt lat="16.2530475" lon="-61.2775472"><ele>7.0</ele><time>2026-03-22T14:58:45.977Z</time></trkpt><trkpt lat="16.2529604" lon="-61.2775419"><ele>6.5</ele><time>2026-03-22T14:58:47.052Z</time></trkpt><trkpt lat="16.2528777" lon="-61.2775339"><ele>6.0</ele><time>2026-03-22T14:58:48.056Z</time></trkpt><trkpt lat="16.2528078" lon="-61.2775241"><ele>5.5</ele><time>2026-03-22T14:58:48.978Z</time></trkpt><trkpt lat="16.2526993" lon="-61.2775237"><ele>5.0</ele><time>2026-03-22T14:58:50.977Z</time></trkpt><trkpt lat="16.2526246" lon="-61.2775191"><ele>5.0</ele><time>2026-03-22T14:58:52.99Z</time></trkpt><trkpt lat="16.2525073" lon="-61.2775139"><ele>5.0</ele><time>2026-03-22T14:58:55.003Z</time></trkpt><trkpt lat="16.2524272" lon="-61.2775105"><ele>5.0</ele><time>2026-03-22T14:58:55.992Z</time></trkpt><trkpt lat="16.2523273" lon="-61.2775127"><ele>5.0</ele><time>2026-03-22T14:58:56.975Z</time></trkpt><trkpt lat="16.2522244" lon="-61.2775123"><ele>5.0</ele><time>2026-03-22T14:58:58.056Z</time></trkpt><trkpt lat="16.2521186" lon="-61.2775089"><ele>4.666666666666667</ele><time>2026-03-22T14:58:58.998Z</time></trkpt><trkpt lat="16.2520159" lon="-61.2775053"><ele>4.333333333333334</ele><time>2026-03-22T14:58:59.998Z</time></trkpt><trkpt lat="16.2519269" lon="-61.2775024"><ele>4.0</ele><time>2026-03-22T14:59:00.989Z</time></trkpt><trkpt lat="16.2518507" lon="-61.2775051"><ele>3.666666666666667</ele><time>2026-03-22T14:59:02.004Z</time></trkpt><trkpt lat="16.2517804" lon="-61.2775077"><ele>3.3333333333333335</ele><time>2026-03-22T14:59:03.994Z</time></trkpt><trkpt lat="16.2516979" lon="-61.2775238"><ele>3.0</ele><time>2026-03-22T14:59:07.997Z</time></trkpt><trkpt lat="16.2516076" lon="-61.2775555"><ele>3.0</ele><time>2026-03-22T14:59:09.998Z</time></trkpt><trkpt lat="16.2515411" lon="-61.2776073"><ele>3.0</ele><time>2026-03-22T14:59:11.966Z</time></trkpt><trkpt lat="16.2515196" lon="-61.2776803"><ele>3.0</ele><time>2026-03-22T14:59:12.993Z</time></trkpt><trkpt lat="16.2515001" lon="-61.2777767"><ele>3.0</ele><time>2026-03-22T14:59:13.996Z</time></trkpt><trkpt lat="16.2514646" lon="-61.277909"><ele>3.0</ele><time>2026-03-22T14:59:14.999Z</time></trkpt><trkpt lat="16.2514373" lon="-61.2780403"><ele>2.75</ele><time>2026-03-22T14:59:15.993Z</time></trkpt><trkpt lat="16.2514144" lon="-61.2781702"><ele>2.5</ele><time>2026-03-22T14:59:16.991Z</time></trkpt><trkpt lat="16.2513949" lon="-61.278294"><ele>2.25</ele><time>2026-03-22T14:59:17.999Z</time></trkpt><trkpt lat="16.2513694" lon="-61.2784179"><ele>2.0</ele><time>2026-03-22T14:59:18.997Z</time></trkpt><trkpt lat="16.2513405" lon="-61.2785397"><ele>2.0</ele><time>2026-03-22T14:59:19.998Z</time></trkpt><trkpt lat="16.2513077" lon="-61.2786617"><ele>2.0</ele><time>2026-03-22T14:59:21.005Z</time></trkpt><trkpt lat="16.2512757" lon="-61.2787781"><ele>2.0</ele><time>2026-03-22T14:59:21.992Z</time></trkpt><trkpt lat="16.2512448" lon="-61.2788966"><ele>2.0</ele><time>2026-03-22T14:59:23Z</time></trkpt><trkpt lat="16.2512115" lon="-61.2790209"><ele>1.75</ele><time>2026-03-22T14:59:23.991Z</time></trkpt><trkpt lat="16.2511878" lon="-61.2791389"><ele>1.5</ele><time>2026-03-22T14:59:24.96Z</time></trkpt><trkpt lat="16.2511559" lon="-61.2792624"><ele>1.25</ele><time>2026-03-22T14:59:25.99Z</time></trkpt><trkpt lat="16.2511199" lon="-61.2793846"><ele>1.0</ele><time>2026-03-22T14:59:27.024Z</time></trkpt><trkpt lat="16.2510811" lon="-61.2795014"><ele>1.0</ele><time>2026-03-22T14:59:27.982Z</time></trkpt><trkpt lat="16.2510264" lon="-61.2796134"><ele>1.0</ele><time>2026-03-22T14:59:29.008Z</time></trkpt><trkpt lat="16.2509674" lon="-61.2797199"><ele>1.0</ele><time>2026-03-22T14:59:29.999Z</time></trkpt><trkpt lat="16.2509" lon="-61.2798181"><ele>1.0</ele><time>2026-03-22T14:59:31.008Z</time></trkpt><trkpt lat="16.2508261" lon="-61.2799138"><ele>0.75</ele><time>2026-03-22T14:59:32.003Z</time></trkpt><trkpt lat="16.2507544" lon="-61.280009"><ele>0.5</ele><time>2026-03-22T14:59:32.997Z</time></trkpt><trkpt lat="16.2506751" lon="-61.2800985"><ele>0.25</ele><time>2026-03-22T14:59:34.002Z</time></trkpt><trkpt lat="16.2506011" lon="-61.2801915"><ele>0.0</ele><time>2026-03-22T14:59:34.984Z</time></trkpt><trkpt lat="16.2505273" lon="-61.2802922"><ele>0.0</ele><time>2026-03-22T14:59:35.995Z</time></trkpt><trkpt lat="16.2504572" lon="-61.2803974"><ele>0.0</ele><time>2026-03-22T14:59:36.986Z</time></trkpt><trkpt lat="16.2503927" lon="-61.2805016"><ele>0.0</ele><time>2026-03-22T14:59:37.993Z</time></trkpt><trkpt lat="16.2503383" lon="-61.2806102"><ele>0.0</ele><time>2026-03-22T14:59:38.992Z</time></trkpt><trkpt lat="16.2502877" lon="-61.280719"><ele>0.0</ele><time>2026-03-22T14:59:39.99Z</time></trkpt><trkpt lat="16.2502407" lon="-61.2808273"><ele>0.0</ele><time>2026-03-22T14:59:40.996Z</time></trkpt><trkpt lat="16.2501976" lon="-61.2809417"><ele>0.0</ele><time>2026-03-22T14:59:41.986Z</time></trkpt><trkpt lat="16.2501606" lon="-61.2810586"><ele>0.0</ele><time>2026-03-22T14:59:42.998Z</time></trkpt><trkpt lat="16.2501277" lon="-61.28118"><ele>0.0</ele><time>2026-03-22T14:59:43.995Z</time></trkpt><trkpt lat="16.2501004" lon="-61.2812986"><ele>0.0</ele><time>2026-03-22T14:59:45.005Z</time></trkpt><trkpt lat="16.2500733" lon="-61.2814157"><ele>0.0</ele><time>2026-03-22T14:59:46.001Z</time></trkpt><trkpt lat="16.2500498" lon="-61.2815354"><ele>0.0</ele><time>2026-03-22T14:59:47.005Z</time></trkpt><trkpt lat="16.2500265" lon="-61.2816539"><ele>0.0</ele><time>2026-03-22T14:59:48Z</time></trkpt><trkpt lat="16.2500047" lon="-61.2817726"><ele>0.0</ele><time>2026-03-22T14:59:48.984Z</time></trkpt><trkpt lat="16.2499894" lon="-61.2818909"><ele>0.0</ele><time>2026-03-22T14:59:49.994Z</time></trkpt><trkpt lat="16.2499757" lon="-61.2820107"><ele>0.0</ele><time>2026-03-22T14:59:50.99Z</time></trkpt><trkpt lat="16.2499612" lon="-61.2821337"><ele>0.0</ele><time>2026-03-22T14:59:52.007Z</time></trkpt><trkpt lat="16.2499494" lon="-61.2822585"><ele>0.0</ele><time>2026-03-22T14:59:53Z</time></trkpt><trkpt lat="16.2499379" lon="-61.2823806"><ele>0.0</ele><time>2026-03-22T14:59:53.991Z</time></trkpt><trkpt lat="16.2499408" lon="-61.282506"><ele>0.0</ele><time>2026-03-22T14:59:54.993Z</time></trkpt><trkpt lat="16.2499552" lon="-61.2826264"><ele>0.4</ele><time>2026-03-22T14:59:55.995Z</time></trkpt><trkpt lat="16.2499808" lon="-61.2827426"><ele>0.8</ele><time>2026-03-22T14:59:57.002Z</time></trkpt><trkpt lat="16.2500077" lon="-61.2828595"><ele>1.2000000000000002</ele><time>2026-03-22T14:59:58.001Z</time></trkpt><trkpt lat="16.2500493" lon="-61.2829573"><ele>1.6</ele><time>2026-03-22T14:59:58.997Z</time></trkpt><trkpt lat="16.2500782" lon="-61.2830338"><ele>2.0</ele><time>2026-03-22T14:59:59.99Z</time></trkpt><trkpt lat="16.2501022" lon="-61.2830995"><ele>2.2</ele><time>2026-03-22T15:00:06.994Z</time></trkpt><trkpt lat="16.2501561" lon="-61.2832109"><ele>2.4000000000000004</ele><time>2026-03-22T15:00:08.995Z</time></trkpt><trkpt lat="16.2501958" lon="-61.2833057"><ele>2.5999999999999996</ele><time>2026-03-22T15:00:10.003Z</time></trkpt><trkpt lat="16.2502374" lon="-61.2834066"><ele>2.8</ele><time>2026-03-22T15:00:10.995Z</time></trkpt><trkpt lat="16.2502834" lon="-61.2835166"><ele>3.0</ele><time>2026-03-22T15:00:12.01Z</time></trkpt><trkpt lat="16.250333" lon="-61.2836318"><ele>3.0</ele><time>2026-03-22T15:00:13.007Z</time></trkpt><trkpt lat="16.2503898" lon="-61.2837416"><ele>3.0</ele><time>2026-03-22T15:00:13.968Z</time></trkpt><trkpt lat="16.2504442" lon="-61.2838544"><ele>3.0</ele><time>2026-03-22T15:00:14.993Z</time></trkpt><trkpt lat="16.2504933" lon="-61.283968"><ele>3.0</ele><time>2026-03-22T15:00:16.01Z</time></trkpt><trkpt lat="16.2505404" lon="-61.2840832"><ele>2.5</ele><time>2026-03-22T15:00:16.995Z</time></trkpt><trkpt lat="16.2505924" lon="-61.2841922"><ele>2.0</ele><time>2026-03-22T15:00:17.995Z</time></trkpt><trkpt lat="16.2506402" lon="-61.2842978"><ele>1.5</ele><time>2026-03-22T15:00:18.999Z</time></trkpt><trkpt lat="16.2506932" lon="-61.2844074"><ele>1.0</ele><time>2026-03-22T15:00:20.004Z</time></trkpt><trkpt lat="16.2507436" lon="-61.2845151"><ele>1.25</ele><time>2026-03-22T15:00:20.998Z</time></trkpt><trkpt lat="16.250798" lon="-61.2846227"><ele>1.5</ele><time>2026-03-22T15:00:22.005Z</time></trkpt><trkpt lat="16.250853" lon="-61.2847342"><ele>1.75</ele><time>2026-03-22T15:00:23.001Z</time></trkpt><trkpt lat="16.250906" lon="-61.2848476"><ele>2.0</ele><time>2026-03-22T15:00:24.005Z</time></trkpt><trkpt lat="16.2509505" lon="-61.2849631"><ele>2.0</ele><time>2026-03-22T15:00:25.011Z</time></trkpt><trkpt lat="16.2509945" lon="-61.28508"><ele>2.0</ele><time>2026-03-22T15:00:26.004Z</time></trkpt><trkpt lat="16.2510395" lon="-61.2851954"><ele>2.0</ele><time>2026-03-22T15:00:27.012Z</time></trkpt><trkpt lat="16.2510807" lon="-61.2853071"><ele>2.0</ele><time>2026-03-22T15:00:28.007Z</time></trkpt><trkpt lat="16.2511159" lon="-61.2854148"><ele>1.9999999999999998</ele><time>2026-03-22T15:00:29.009Z</time></trkpt><trkpt lat="16.2511399" lon="-61.2854989"><ele>2.0</ele><time>2026-03-22T15:00:30.004Z</time></trkpt><trkpt lat="16.2511088" lon="-61.2855994"><ele>2.0</ele><time>2026-03-22T15:00:32.001Z</time></trkpt><trkpt lat="16.2510458" lon="-61.285629"><ele>2.0</ele><time>2026-03-22T15:00:33.002Z</time></trkpt><trkpt lat="16.2509626" lon="-61.2856458"><ele>1.9999999999999998</ele><time>2026-03-22T15:00:34.012Z</time></trkpt><trkpt lat="16.2508613" lon="-61.2856665"><ele>2.0</ele><time>2026-03-22T15:00:34.999Z</time></trkpt><trkpt lat="16.2507524" lon="-61.2857025"><ele>2.75</ele><time>2026-03-22T15:00:36.012Z</time></trkpt><trkpt lat="16.2506388" lon="-61.2857338"><ele>3.5</ele><time>2026-03-22T15:00:37.006Z</time></trkpt><trkpt lat="16.2505199" lon="-61.2857686"><ele>4.25</ele><time>2026-03-22T15:00:38.003Z</time></trkpt><trkpt lat="16.250403" lon="-61.285812"><ele>5.0</ele><time>2026-03-22T15:00:39.001Z</time></trkpt><trkpt lat="16.2502902" lon="-61.2858537"><ele>5.0</ele><time>2026-03-22T15:00:40.003Z</time></trkpt><trkpt lat="16.2501798" lon="-61.2858917"><ele>5.0</ele><time>2026-03-22T15:00:41.046Z</time></trkpt><trkpt lat="16.2500736" lon="-61.285925"><ele>5.0</ele><time>2026-03-22T15:00:41.988Z</time></trkpt><trkpt lat="16.2499742" lon="-61.2859541"><ele>5.0</ele><time>2026-03-22T15:00:43.003Z</time></trkpt><trkpt lat="16.2498779" lon="-61.2859852"><ele>5.0</ele><time>2026-03-22T15:00:43.989Z</time></trkpt><trkpt lat="16.2497884" lon="-61.2860101"><ele>4.4</ele><time>2026-03-22T15:00:44.946Z</time></trkpt><trkpt lat="16.2496949" lon="-61.2860371"><ele>3.8</ele><time>2026-03-22T15:00:45.982Z</time></trkpt><trkpt lat="16.2495972" lon="-61.2860598"><ele>3.2</ele><time>2026-03-22T15:00:47.049Z</time></trkpt><trkpt lat="16.2494945" lon="-61.2860864"><ele>2.6</ele><time>2026-03-22T15:00:48.045Z</time></trkpt><trkpt lat="16.249386" lon="-61.2861231"><ele>2.0</ele><time>2026-03-22T15:00:48.989Z</time></trkpt><trkpt lat="16.249277" lon="-61.2861595"><ele>1.9999999999999998</ele><time>2026-03-22T15:00:49.992Z</time></trkpt><trkpt lat="16.2491742" lon="-61.2861928"><ele>2.0</ele><time>2026-03-22T15:00:50.967Z</time></trkpt><trkpt lat="16.2490853" lon="-61.2862182"><ele>2.0</ele><time>2026-03-22T15:00:51.982Z</time></trkpt><trkpt lat="16.249023" lon="-61.2862389"><ele>2.0</ele><time>2026-03-22T15:00:52.995Z</time></trkpt><trkpt lat="16.2489608" lon="-61.2862627"><ele>1.9999999999999998</ele><time>2026-03-22T15:00:55.984Z</time></trkpt><trkpt lat="16.2489014" lon="-61.286289"><ele>2.0</ele><time>2026-03-22T15:00:58.038Z</time></trkpt><trkpt lat="16.2488128" lon="-61.28632"><ele>1.9999999999999998</ele><time>2026-03-22T15:00:59.993Z</time></trkpt><trkpt lat="16.2486955" lon="-61.2863871"><ele>2.0</ele><time>2026-03-22T15:01:02.004Z</time></trkpt><trkpt lat="16.2486421" lon="-61.286427"><ele>2.0</ele><time>2026-03-22T15:01:02.992Z</time></trkpt><trkpt lat="16.2485848" lon="-61.2864773"><ele>2.0</ele><time>2026-03-22T15:01:03.985Z</time></trkpt><trkpt lat="16.2485339" lon="-61.2865431"><ele>1.9999999999999998</ele><time>2026-03-22T15:01:04.989Z</time></trkpt><trkpt lat="16.2484898" lon="-61.2866093"><ele>2.0</ele><time>2026-03-22T15:01:05.99Z</time></trkpt><trkpt lat="16.2484621" lon="-61.2866858"><ele>1.9999999999999998</ele><time>2026-03-22T15:01:06.994Z</time></trkpt><trkpt lat="16.2484485" lon="-61.2867628"><ele>2.0</ele><time>2026-03-22T15:01:08.049Z</time></trkpt><trkpt lat="16.2484386" lon="-61.2868406"><ele>2.0</ele><time>2026-03-22T15:01:08.981Z</time></trkpt><trkpt lat="16.2484264" lon="-61.2869137"><ele>2.0</ele><time>2026-03-22T15:01:09.984Z</time></trkpt><trkpt lat="16.2484177" lon="-61.2869808"><ele>1.9999999999999998</ele><time>2026-03-22T15:01:10.958Z</time></trkpt><trkpt lat="16.2484084" lon="-61.2870483"><ele>2.0</ele><time>2026-03-22T15:01:12.067Z</time></trkpt><trkpt lat="16.2483939" lon="-61.287155"><ele>2.0</ele><time>2026-03-22T15:01:13.995Z</time></trkpt><trkpt lat="16.2483789" lon="-61.2872267"><ele>2.0</ele><time>2026-03-22T15:01:15.985Z</time></trkpt><trkpt lat="16.2483462" lon="-61.2873321"><ele>2.0</ele><time>2026-03-22T15:01:18.003Z</time></trkpt><trkpt lat="16.2483103" lon="-61.2874351"><ele>2.0</ele><time>2026-03-22T15:01:20.044Z</time></trkpt><trkpt lat="16.2482642" lon="-61.2875064"><ele>2.0</ele><time>2026-03-22T15:01:21.995Z</time></trkpt><trkpt lat="16.2482163" lon="-61.2875894"><ele>2.4000000000000004</ele><time>2026-03-22T15:01:23.982Z</time></trkpt><trkpt lat="16.248209" lon="-61.2876691"><ele>2.8000000000000003</ele><time>2026-03-22T15:01:27.002Z</time></trkpt><trkpt lat="16.2483105" lon="-61.2877145"><ele>3.2</ele><time>2026-03-22T15:01:28.981Z</time></trkpt><trkpt lat="16.2483812" lon="-61.2877118"><ele>3.6</ele><time>2026-03-22T15:01:29.986Z</time></trkpt><trkpt lat="16.2484991" lon="-61.2877256"><ele>4.0</ele><time>2026-03-22T15:01:32Z</time></trkpt><trkpt lat="16.2486258" lon="-61.2877371"><ele>3.9999999999999996</ele><time>2026-03-22T15:01:33.987Z</time></trkpt><trkpt lat="16.2487041" lon="-61.2877406"><ele>4.0</ele><time>2026-03-22T15:01:34.997Z</time></trkpt><trkpt lat="16.2487797" lon="-61.2877432"><ele>4.0</ele><time>2026-03-22T15:01:36.055Z</time></trkpt><trkpt lat="16.2488568" lon="-61.2877449"><ele>4.0</ele><time>2026-03-22T15:01:36.995Z</time></trkpt><trkpt lat="16.2489277" lon="-61.2877443"><ele>3.9999999999999996</ele><time>2026-03-22T15:01:37.982Z</time></trkpt><trkpt lat="16.249016" lon="-61.2877754"><ele>4.0</ele><time>2026-03-22T15:01:40.04Z</time></trkpt><trkpt lat="16.249009" lon="-61.2879037"><ele>5.333333333333333</ele><time>2026-03-22T15:01:41.996Z</time></trkpt><trkpt lat="16.2489925" lon="-61.2879873"><ele>6.666666666666666</ele><time>2026-03-22T15:01:43.053Z</time></trkpt><trkpt lat="16.2490005" lon="-61.288065"><ele>8.0</ele><time>2026-03-22T15:01:43.988Z</time></trkpt><trkpt lat="16.2490277" lon="-61.288134"><ele>9.333333333333334</ele><time>2026-03-22T15:01:45.982Z</time></trkpt><trkpt lat="16.2491046" lon="-61.2881645"><ele>10.666666666666666</ele><time>2026-03-22T15:01:47.98Z</time></trkpt><trkpt lat="16.2492181" lon="-61.2881482"><ele>12.0</ele><time>2026-03-22T15:01:49.981Z</time></trkpt><trkpt lat="16.2492853" lon="-61.2880511"><ele>12.0</ele><time>2026-03-22T15:01:51.983Z</time></trkpt><trkpt lat="16.2492982" lon="-61.2879717"><ele>12.0</ele><time>2026-03-22T15:01:52.993Z</time></trkpt><trkpt lat="16.2493099" lon="-61.2879026"><ele>12.0</ele><time>2026-03-22T15:01:53.981Z</time></trkpt><trkpt lat="16.2493236" lon="-61.2878157"><ele>12.0</ele><time>2026-03-22T15:01:55.985Z</time></trkpt><trkpt lat="16.2492573" lon="-61.28778"><ele>12.0</ele><time>2026-03-22T15:03:58.975Z</time></trkpt><trkpt lat="16.2491641" lon="-61.2877414"><ele>12.0</ele><time>2026-03-22T15:04:38.987Z</time></trkpt></trkseg></trk></gpx>